<?xml version="1.0" encoding="UTF-8" standalone="no" ?>
<gpx xmlns="http://www.topografix.com/GPX/1/1" xmlns:xsi="http://www.w3.org/2001/XMLSchema-instance" xsi:schemaLocation="http://www.topografix.com/GPX/1/1 http://www.topografix.com/GPX/1/1/gpx.xsd" version="1.1" creator="VisuGPX - https://www.visugpx.com">
  <metadata>
    <name>lundi 2015 03 23</name>
    <desc><![CDATA[rando du lundi]]></desc>
  </metadata>
  <trk>
    <name><![CDATA[23/03/2015 20:20]]></name>
    <desc><![CDATA[]]></desc>
    <trkseg>
      <trkpt lat="48.85748" lon="2.34718">
        <ele>76.6</ele>
        <time>2015-03-23T19:20:29.802Z</time>
      </trkpt>
      <trkpt lat="48.85756" lon="2.34717">
        <ele>77.2</ele>
        <time>2015-03-23T19:20:38.180Z</time>
      </trkpt>
      <trkpt lat="48.85758" lon="2.34719">
        <ele>76.5</ele>
        <time>2015-03-23T19:20:39.187Z</time>
      </trkpt>
      <trkpt lat="48.85766" lon="2.34725">
        <ele>76.7</ele>
        <time>2015-03-23T19:20:44.227Z</time>
      </trkpt>
      <trkpt lat="48.85768" lon="2.34726">
        <ele>76.9</ele>
        <time>2015-03-23T19:20:45.117Z</time>
      </trkpt>
      <trkpt lat="48.85775" lon="2.34727">
        <ele>76.9</ele>
        <time>2015-03-23T19:20:48.298Z</time>
      </trkpt>
      <trkpt lat="48.85777" lon="2.34725">
        <ele>76.9</ele>
        <time>2015-03-23T19:20:49.135Z</time>
      </trkpt>
      <trkpt lat="48.85782" lon="2.34716">
        <ele>77</ele>
        <time>2015-03-23T19:20:52.205Z</time>
      </trkpt>
      <trkpt lat="48.85784" lon="2.34712">
        <ele>77.3</ele>
        <time>2015-03-23T19:20:53.111Z</time>
      </trkpt>
      <trkpt lat="48.85788" lon="2.34704">
        <ele>78.1</ele>
        <time>2015-03-23T19:20:55.201Z</time>
      </trkpt>
      <trkpt lat="48.8579" lon="2.34699">
        <ele>78.4</ele>
        <time>2015-03-23T19:20:56.211Z</time>
      </trkpt>
      <trkpt lat="48.85795" lon="2.34691">
        <ele>78.5</ele>
        <time>2015-03-23T19:20:58.166Z</time>
      </trkpt>
      <trkpt lat="48.85798" lon="2.34686">
        <ele>78.6</ele>
        <time>2015-03-23T19:20:59.180Z</time>
      </trkpt>
      <trkpt lat="48.85803" lon="2.34675">
        <ele>79.1</ele>
        <time>2015-03-23T19:21:01.139Z</time>
      </trkpt>
      <trkpt lat="48.85804" lon="2.3467">
        <ele>79.4</ele>
        <time>2015-03-23T19:21:02.171Z</time>
      </trkpt>
      <trkpt lat="48.85808" lon="2.34659">
        <ele>80</ele>
        <time>2015-03-23T19:21:04.210Z</time>
      </trkpt>
      <trkpt lat="48.85812" lon="2.34654">
        <ele>80</ele>
        <time>2015-03-23T19:21:05.226Z</time>
      </trkpt>
      <trkpt lat="48.85815" lon="2.3465">
        <ele>80.1</ele>
        <time>2015-03-23T19:21:06.117Z</time>
      </trkpt>
      <trkpt lat="48.85819" lon="2.34646">
        <ele>80.1</ele>
        <time>2015-03-23T19:21:07.154Z</time>
      </trkpt>
      <trkpt lat="48.85778" lon="2.34692">
        <ele>80.2</ele>
        <time>2015-03-23T19:21:08.158Z</time>
      </trkpt>
      <trkpt lat="48.85795" lon="2.34672">
        <ele>80.2</ele>
        <time>2015-03-23T19:21:09.163Z</time>
      </trkpt>
      <trkpt lat="48.85803" lon="2.34661">
        <ele>80.3</ele>
        <time>2015-03-23T19:21:10.187Z</time>
      </trkpt>
      <trkpt lat="48.85808" lon="2.34653">
        <ele>80.4</ele>
        <time>2015-03-23T19:21:11.211Z</time>
      </trkpt>
      <trkpt lat="48.85812" lon="2.34647">
        <ele>80.6</ele>
        <time>2015-03-23T19:21:12.123Z</time>
      </trkpt>
      <trkpt lat="48.85816" lon="2.34637">
        <ele>81.1</ele>
        <time>2015-03-23T19:21:16.040Z</time>
      </trkpt>
      <trkpt lat="48.85817" lon="2.34635">
        <ele>81.4</ele>
        <time>2015-03-23T19:21:16.198Z</time>
      </trkpt>
      <trkpt lat="48.8582" lon="2.34629">
        <ele>81.5</ele>
        <time>2015-03-23T19:21:17.210Z</time>
      </trkpt>
      <trkpt lat="48.85823" lon="2.34623">
        <ele>81.5</ele>
        <time>2015-03-23T19:21:18.218Z</time>
      </trkpt>
      <trkpt lat="48.85829" lon="2.34616">
        <ele>81.6</ele>
        <time>2015-03-23T19:21:19.422Z</time>
      </trkpt>
      <trkpt lat="48.85834" lon="2.34611">
        <ele>81.7</ele>
        <time>2015-03-23T19:21:20.219Z</time>
      </trkpt>
      <trkpt lat="48.8584" lon="2.34607">
        <ele>81.8</ele>
        <time>2015-03-23T19:21:22.188Z</time>
      </trkpt>
      <trkpt lat="48.85844" lon="2.34606">
        <ele>81.8</ele>
        <time>2015-03-23T19:21:23.113Z</time>
      </trkpt>
      <trkpt lat="48.85847" lon="2.34605">
        <ele>81.8</ele>
        <time>2015-03-23T19:21:24.139Z</time>
      </trkpt>
      <trkpt lat="48.85858" lon="2.34606">
        <ele>81.9</ele>
        <time>2015-03-23T19:21:25.140Z</time>
      </trkpt>
      <trkpt lat="48.85863" lon="2.34608">
        <ele>81.9</ele>
        <time>2015-03-23T19:21:27.165Z</time>
      </trkpt>
      <trkpt lat="48.85868" lon="2.34609">
        <ele>82</ele>
        <time>2015-03-23T19:21:28.256Z</time>
      </trkpt>
      <trkpt lat="48.85876" lon="2.34612">
        <ele>82.1</ele>
        <time>2015-03-23T19:21:30.192Z</time>
      </trkpt>
      <trkpt lat="48.85879" lon="2.34613">
        <ele>82.2</ele>
        <time>2015-03-23T19:21:31.222Z</time>
      </trkpt>
      <trkpt lat="48.85884" lon="2.34616">
        <ele>82.3</ele>
        <time>2015-03-23T19:21:33.103Z</time>
      </trkpt>
      <trkpt lat="48.85888" lon="2.34618">
        <ele>82.6</ele>
        <time>2015-03-23T19:21:35.178Z</time>
      </trkpt>
      <trkpt lat="48.85897" lon="2.34621">
        <ele>82.8</ele>
        <time>2015-03-23T19:21:38.144Z</time>
      </trkpt>
      <trkpt lat="48.85898" lon="2.34622">
        <ele>82.8</ele>
        <time>2015-03-23T19:21:39.150Z</time>
      </trkpt>
      <trkpt lat="48.85904" lon="2.34625">
        <ele>82.5</ele>
        <time>2015-03-23T19:21:58.156Z</time>
      </trkpt>
      <trkpt lat="48.85909" lon="2.34627">
        <ele>83.4</ele>
        <time>2015-03-23T19:21:59.171Z</time>
      </trkpt>
      <trkpt lat="48.85916" lon="2.34623">
        <ele>84.7</ele>
        <time>2015-03-23T19:22:03.132Z</time>
      </trkpt>
      <trkpt lat="48.85917" lon="2.3462">
        <ele>84.9</ele>
        <time>2015-03-23T19:22:04.156Z</time>
      </trkpt>
      <trkpt lat="48.85924" lon="2.34615">
        <ele>85.4</ele>
        <time>2015-03-23T19:22:07.177Z</time>
      </trkpt>
      <trkpt lat="48.85926" lon="2.34611">
        <ele>85.5</ele>
        <time>2015-03-23T19:22:08.208Z</time>
      </trkpt>
      <trkpt lat="48.85932" lon="2.34604">
        <ele>85.6</ele>
        <time>2015-03-23T19:22:10.118Z</time>
      </trkpt>
      <trkpt lat="48.85935" lon="2.346">
        <ele>85.8</ele>
        <time>2015-03-23T19:22:11.133Z</time>
      </trkpt>
      <trkpt lat="48.85941" lon="2.34591">
        <ele>86.1</ele>
        <time>2015-03-23T19:22:13.221Z</time>
      </trkpt>
      <trkpt lat="48.85945" lon="2.34585">
        <ele>86.2</ele>
        <time>2015-03-23T19:22:14.136Z</time>
      </trkpt>
      <trkpt lat="48.85949" lon="2.34581">
        <ele>86.3</ele>
        <time>2015-03-23T19:22:15.146Z</time>
      </trkpt>
      <trkpt lat="48.85953" lon="2.34576">
        <ele>86.5</ele>
        <time>2015-03-23T19:22:16.161Z</time>
      </trkpt>
      <trkpt lat="48.8596" lon="2.34567">
        <ele>86.9</ele>
        <time>2015-03-23T19:22:18.175Z</time>
      </trkpt>
      <trkpt lat="48.85964" lon="2.34563">
        <ele>87</ele>
        <time>2015-03-23T19:22:19.185Z</time>
      </trkpt>
      <trkpt lat="48.85966" lon="2.34556">
        <ele>87.3</ele>
        <time>2015-03-23T19:22:20.124Z</time>
      </trkpt>
      <trkpt lat="48.8597" lon="2.3455">
        <ele>87.4</ele>
        <time>2015-03-23T19:22:21.123Z</time>
      </trkpt>
      <trkpt lat="48.85972" lon="2.34544">
        <ele>87.6</ele>
        <time>2015-03-23T19:22:22.132Z</time>
      </trkpt>
      <trkpt lat="48.85975" lon="2.34537">
        <ele>87.7</ele>
        <time>2015-03-23T19:22:23.136Z</time>
      </trkpt>
      <trkpt lat="48.85978" lon="2.34532">
        <ele>87.8</ele>
        <time>2015-03-23T19:22:24.145Z</time>
      </trkpt>
      <trkpt lat="48.85979" lon="2.34525">
        <ele>87.9</ele>
        <time>2015-03-23T19:22:25.216Z</time>
      </trkpt>
      <trkpt lat="48.85978" lon="2.34516">
        <ele>87.4</ele>
        <time>2015-03-23T19:22:26.122Z</time>
      </trkpt>
      <trkpt lat="48.85977" lon="2.34509">
        <ele>87</ele>
        <time>2015-03-23T19:22:27.136Z</time>
      </trkpt>
      <trkpt lat="48.85978" lon="2.34501">
        <ele>86.7</ele>
        <time>2015-03-23T19:22:28.181Z</time>
      </trkpt>
      <trkpt lat="48.85981" lon="2.34495">
        <ele>86.8</ele>
        <time>2015-03-23T19:22:29.205Z</time>
      </trkpt>
      <trkpt lat="48.85984" lon="2.34489">
        <ele>87</ele>
        <time>2015-03-23T19:22:30.232Z</time>
      </trkpt>
      <trkpt lat="48.85987" lon="2.34483">
        <ele>87.2</ele>
        <time>2015-03-23T19:22:31.247Z</time>
      </trkpt>
      <trkpt lat="48.85991" lon="2.34477">
        <ele>87.5</ele>
        <time>2015-03-23T19:22:32.129Z</time>
      </trkpt>
      <trkpt lat="48.85994" lon="2.34472">
        <ele>87.9</ele>
        <time>2015-03-23T19:22:33.124Z</time>
      </trkpt>
      <trkpt lat="48.85997" lon="2.34466">
        <ele>88.6</ele>
        <time>2015-03-23T19:22:34.138Z</time>
      </trkpt>
      <trkpt lat="48.86" lon="2.34459">
        <ele>89.2</ele>
        <time>2015-03-23T19:22:35.169Z</time>
      </trkpt>
      <trkpt lat="48.86003" lon="2.34453">
        <ele>89.8</ele>
        <time>2015-03-23T19:22:36.185Z</time>
      </trkpt>
      <trkpt lat="48.86005" lon="2.34447">
        <ele>90.2</ele>
        <time>2015-03-23T19:22:37.195Z</time>
      </trkpt>
      <trkpt lat="48.8601" lon="2.34438">
        <ele>91.1</ele>
        <time>2015-03-23T19:22:39.116Z</time>
      </trkpt>
      <trkpt lat="48.86012" lon="2.34435">
        <ele>90.8</ele>
        <time>2015-03-23T19:22:40.135Z</time>
      </trkpt>
      <trkpt lat="48.86014" lon="2.34423">
        <ele>90.4</ele>
        <time>2015-03-23T19:22:43.151Z</time>
      </trkpt>
      <trkpt lat="48.86014" lon="2.34419">
        <ele>91.1</ele>
        <time>2015-03-23T19:22:44.161Z</time>
      </trkpt>
      <trkpt lat="48.86022" lon="2.34414">
        <ele>93.7</ele>
        <time>2015-03-23T19:22:47.210Z</time>
      </trkpt>
      <trkpt lat="48.86024" lon="2.34415">
        <ele>94.2</ele>
        <time>2015-03-23T19:22:48.132Z</time>
      </trkpt>
      <trkpt lat="48.8603" lon="2.34417">
        <ele>94.5</ele>
        <time>2015-03-23T19:22:50.145Z</time>
      </trkpt>
      <trkpt lat="48.86034" lon="2.34419">
        <ele>94.6</ele>
        <time>2015-03-23T19:22:51.154Z</time>
      </trkpt>
      <trkpt lat="48.86042" lon="2.34421">
        <ele>94.9</ele>
        <time>2015-03-23T19:22:53.171Z</time>
      </trkpt>
      <trkpt lat="48.86045" lon="2.34423">
        <ele>95</ele>
        <time>2015-03-23T19:22:54.203Z</time>
      </trkpt>
      <trkpt lat="48.86053" lon="2.34428">
        <ele>95.1</ele>
        <time>2015-03-23T19:22:56.161Z</time>
      </trkpt>
      <trkpt lat="48.86057" lon="2.34431">
        <ele>95.1</ele>
        <time>2015-03-23T19:22:57.171Z</time>
      </trkpt>
      <trkpt lat="48.86064" lon="2.34436">
        <ele>95.1</ele>
        <time>2015-03-23T19:22:59.101Z</time>
      </trkpt>
      <trkpt lat="48.86068" lon="2.34437">
        <ele>95</ele>
        <time>2015-03-23T19:23:00.204Z</time>
      </trkpt>
      <trkpt lat="48.86074" lon="2.34439">
        <ele>94.7</ele>
        <time>2015-03-23T19:23:02.162Z</time>
      </trkpt>
      <trkpt lat="48.86077" lon="2.3444">
        <ele>94.7</ele>
        <time>2015-03-23T19:23:03.100Z</time>
      </trkpt>
      <trkpt lat="48.86086" lon="2.34445">
        <ele>94.8</ele>
        <time>2015-03-23T19:23:06.155Z</time>
      </trkpt>
      <trkpt lat="48.86089" lon="2.34449">
        <ele>94.9</ele>
        <time>2015-03-23T19:23:07.180Z</time>
      </trkpt>
      <trkpt lat="48.86095" lon="2.34456">
        <ele>94.7</ele>
        <time>2015-03-23T19:23:09.101Z</time>
      </trkpt>
      <trkpt lat="48.86099" lon="2.3446">
        <ele>94.9</ele>
        <time>2015-03-23T19:23:10.142Z</time>
      </trkpt>
      <trkpt lat="48.86102" lon="2.34468">
        <ele>95.5</ele>
        <time>2015-03-23T19:23:12.247Z</time>
      </trkpt>
      <trkpt lat="48.86106" lon="2.34469">
        <ele>96</ele>
        <time>2015-03-23T19:23:13.127Z</time>
      </trkpt>
      <trkpt lat="48.86112" lon="2.34476">
        <ele>96.8</ele>
        <time>2015-03-23T19:23:16.204Z</time>
      </trkpt>
      <trkpt lat="48.86115" lon="2.34479">
        <ele>96.7</ele>
        <time>2015-03-23T19:23:17.214Z</time>
      </trkpt>
      <trkpt lat="48.86119" lon="2.34482">
        <ele>96.7</ele>
        <time>2015-03-23T19:23:18.119Z</time>
      </trkpt>
      <trkpt lat="48.86125" lon="2.34484">
        <ele>96.6</ele>
        <time>2015-03-23T19:23:19.131Z</time>
      </trkpt>
      <trkpt lat="48.86131" lon="2.34487">
        <ele>96.2</ele>
        <time>2015-03-23T19:23:20.136Z</time>
      </trkpt>
      <trkpt lat="48.86134" lon="2.34491">
        <ele>96.1</ele>
        <time>2015-03-23T19:23:21.145Z</time>
      </trkpt>
      <trkpt lat="48.86141" lon="2.34493">
        <ele>95.8</ele>
        <time>2015-03-23T19:23:23.182Z</time>
      </trkpt>
      <trkpt lat="48.86145" lon="2.3449">
        <ele>95.8</ele>
        <time>2015-03-23T19:23:24.187Z</time>
      </trkpt>
      <trkpt lat="48.86149" lon="2.34486">
        <ele>95.9</ele>
        <time>2015-03-23T19:23:25.216Z</time>
      </trkpt>
      <trkpt lat="48.86154" lon="2.34482">
        <ele>96.1</ele>
        <time>2015-03-23T19:23:26.116Z</time>
      </trkpt>
      <trkpt lat="48.86159" lon="2.34479">
        <ele>96</ele>
        <time>2015-03-23T19:23:27.129Z</time>
      </trkpt>
      <trkpt lat="48.86166" lon="2.34476">
        <ele>96</ele>
        <time>2015-03-23T19:23:28.132Z</time>
      </trkpt>
      <trkpt lat="48.86171" lon="2.34475">
        <ele>96.2</ele>
        <time>2015-03-23T19:23:29.139Z</time>
      </trkpt>
      <trkpt lat="48.86175" lon="2.34473">
        <ele>96.4</ele>
        <time>2015-03-23T19:23:30.146Z</time>
      </trkpt>
      <trkpt lat="48.8618" lon="2.34469">
        <ele>96.4</ele>
        <time>2015-03-23T19:23:31.147Z</time>
      </trkpt>
      <trkpt lat="48.86184" lon="2.34466">
        <ele>96.3</ele>
        <time>2015-03-23T19:23:32.160Z</time>
      </trkpt>
      <trkpt lat="48.8619" lon="2.34456">
        <ele>96.3</ele>
        <time>2015-03-23T19:23:34.208Z</time>
      </trkpt>
      <trkpt lat="48.86192" lon="2.34451">
        <ele>96.6</ele>
        <time>2015-03-23T19:23:35.116Z</time>
      </trkpt>
      <trkpt lat="48.86196" lon="2.34447">
        <ele>96.6</ele>
        <time>2015-03-23T19:23:36.130Z</time>
      </trkpt>
      <trkpt lat="48.86202" lon="2.34441">
        <ele>97.5</ele>
        <time>2015-03-23T19:23:37.157Z</time>
      </trkpt>
      <trkpt lat="48.86209" lon="2.34434">
        <ele>97.9</ele>
        <time>2015-03-23T19:23:39.101Z</time>
      </trkpt>
      <trkpt lat="48.86214" lon="2.34431">
        <ele>98</ele>
        <time>2015-03-23T19:23:40.140Z</time>
      </trkpt>
      <trkpt lat="48.86218" lon="2.34427">
        <ele>98</ele>
        <time>2015-03-23T19:23:41.179Z</time>
      </trkpt>
      <trkpt lat="48.86222" lon="2.34423">
        <ele>97.8</ele>
        <time>2015-03-23T19:23:42.190Z</time>
      </trkpt>
      <trkpt lat="48.86226" lon="2.34418">
        <ele>97.9</ele>
        <time>2015-03-23T19:23:43.197Z</time>
      </trkpt>
      <trkpt lat="48.86228" lon="2.34413">
        <ele>97.8</ele>
        <time>2015-03-23T19:23:44.291Z</time>
      </trkpt>
      <trkpt lat="48.86234" lon="2.34403">
        <ele>97.7</ele>
        <time>2015-03-23T19:23:46.160Z</time>
      </trkpt>
      <trkpt lat="48.86236" lon="2.34398">
        <ele>97.8</ele>
        <time>2015-03-23T19:23:47.195Z</time>
      </trkpt>
      <trkpt lat="48.86239" lon="2.34392">
        <ele>97.8</ele>
        <time>2015-03-23T19:23:48.125Z</time>
      </trkpt>
      <trkpt lat="48.86242" lon="2.34386">
        <ele>97.8</ele>
        <time>2015-03-23T19:23:49.232Z</time>
      </trkpt>
      <trkpt lat="48.86245" lon="2.34382">
        <ele>97.8</ele>
        <time>2015-03-23T19:23:50.115Z</time>
      </trkpt>
      <trkpt lat="48.86248" lon="2.34376">
        <ele>97.9</ele>
        <time>2015-03-23T19:23:51.123Z</time>
      </trkpt>
      <trkpt lat="48.86252" lon="2.3437">
        <ele>97.9</ele>
        <time>2015-03-23T19:23:52.177Z</time>
      </trkpt>
      <trkpt lat="48.86256" lon="2.34364">
        <ele>97.9</ele>
        <time>2015-03-23T19:23:53.193Z</time>
      </trkpt>
      <trkpt lat="48.86259" lon="2.34357">
        <ele>98.1</ele>
        <time>2015-03-23T19:23:54.121Z</time>
      </trkpt>
      <trkpt lat="48.86262" lon="2.3435">
        <ele>98.2</ele>
        <time>2015-03-23T19:23:55.152Z</time>
      </trkpt>
      <trkpt lat="48.8626" lon="2.34342">
        <ele>98</ele>
        <time>2015-03-23T19:23:56.169Z</time>
      </trkpt>
      <trkpt lat="48.8626" lon="2.34335">
        <ele>97.9</ele>
        <time>2015-03-23T19:23:57.181Z</time>
      </trkpt>
      <trkpt lat="48.86265" lon="2.34323">
        <ele>97.9</ele>
        <time>2015-03-23T19:23:59.199Z</time>
      </trkpt>
      <trkpt lat="48.86265" lon="2.34316">
        <ele>98</ele>
        <time>2015-03-23T19:24:00.127Z</time>
      </trkpt>
      <trkpt lat="48.86266" lon="2.34309">
        <ele>98</ele>
        <time>2015-03-23T19:24:01.157Z</time>
      </trkpt>
      <trkpt lat="48.86266" lon="2.343">
        <ele>97.9</ele>
        <time>2015-03-23T19:24:02.176Z</time>
      </trkpt>
      <trkpt lat="48.86266" lon="2.34291">
        <ele>97.9</ele>
        <time>2015-03-23T19:24:03.180Z</time>
      </trkpt>
      <trkpt lat="48.86266" lon="2.34283">
        <ele>97.8</ele>
        <time>2015-03-23T19:24:04.200Z</time>
      </trkpt>
      <trkpt lat="48.86267" lon="2.34275">
        <ele>97.8</ele>
        <time>2015-03-23T19:24:05.236Z</time>
      </trkpt>
      <trkpt lat="48.86268" lon="2.34269">
        <ele>97.9</ele>
        <time>2015-03-23T19:24:06.087Z</time>
      </trkpt>
      <trkpt lat="48.86269" lon="2.34256">
        <ele>97.9</ele>
        <time>2015-03-23T19:24:08.115Z</time>
      </trkpt>
      <trkpt lat="48.8627" lon="2.3425">
        <ele>97.9</ele>
        <time>2015-03-23T19:24:09.179Z</time>
      </trkpt>
      <trkpt lat="48.86272" lon="2.34238">
        <ele>97.7</ele>
        <time>2015-03-23T19:24:11.172Z</time>
      </trkpt>
      <trkpt lat="48.86273" lon="2.34233">
        <ele>97.5</ele>
        <time>2015-03-23T19:24:12.233Z</time>
      </trkpt>
      <trkpt lat="48.86277" lon="2.34222">
        <ele>97.3</ele>
        <time>2015-03-23T19:24:15.181Z</time>
      </trkpt>
      <trkpt lat="48.8628" lon="2.3422">
        <ele>97.3</ele>
        <time>2015-03-23T19:24:16.185Z</time>
      </trkpt>
      <trkpt lat="48.86283" lon="2.34208">
        <ele>97.5</ele>
        <time>2015-03-23T19:24:20.183Z</time>
      </trkpt>
      <trkpt lat="48.86285" lon="2.34205">
        <ele>97.6</ele>
        <time>2015-03-23T19:24:21.203Z</time>
      </trkpt>
      <trkpt lat="48.86293" lon="2.34199">
        <ele>97.8</ele>
        <time>2015-03-23T19:24:32.212Z</time>
      </trkpt>
      <trkpt lat="48.86296" lon="2.342">
        <ele>97.9</ele>
        <time>2015-03-23T19:24:33.202Z</time>
      </trkpt>
      <trkpt lat="48.86304" lon="2.34199">
        <ele>97.7</ele>
        <time>2015-03-23T19:24:35.205Z</time>
      </trkpt>
      <trkpt lat="48.86306" lon="2.34197">
        <ele>97.6</ele>
        <time>2015-03-23T19:24:36.148Z</time>
      </trkpt>
      <trkpt lat="48.8631" lon="2.34185">
        <ele>100.2</ele>
        <time>2015-03-23T19:24:41.210Z</time>
      </trkpt>
      <trkpt lat="48.86311" lon="2.34183">
        <ele>100.2</ele>
        <time>2015-03-23T19:24:42.208Z</time>
      </trkpt>
      <trkpt lat="48.86316" lon="2.34174">
        <ele>101.1</ele>
        <time>2015-03-23T19:24:45.175Z</time>
      </trkpt>
      <trkpt lat="48.86319" lon="2.3417">
        <ele>100.9</ele>
        <time>2015-03-23T19:24:46.176Z</time>
      </trkpt>
      <trkpt lat="48.86322" lon="2.3416">
        <ele>100</ele>
        <time>2015-03-23T19:24:48.125Z</time>
      </trkpt>
      <trkpt lat="48.86324" lon="2.34157">
        <ele>100.2</ele>
        <time>2015-03-23T19:24:49.241Z</time>
      </trkpt>
      <trkpt lat="48.8633" lon="2.34148">
        <ele>100.9</ele>
        <time>2015-03-23T19:24:51.210Z</time>
      </trkpt>
      <trkpt lat="48.86334" lon="2.34143">
        <ele>101.1</ele>
        <time>2015-03-23T19:24:52.221Z</time>
      </trkpt>
      <trkpt lat="48.86338" lon="2.34139">
        <ele>101.2</ele>
        <time>2015-03-23T19:24:53.169Z</time>
      </trkpt>
      <trkpt lat="48.86343" lon="2.34128">
        <ele>101.5</ele>
        <time>2015-03-23T19:24:55.198Z</time>
      </trkpt>
      <trkpt lat="48.86346" lon="2.34122">
        <ele>101.4</ele>
        <time>2015-03-23T19:24:56.209Z</time>
      </trkpt>
      <trkpt lat="48.86348" lon="2.34115">
        <ele>101.2</ele>
        <time>2015-03-23T19:24:57.123Z</time>
      </trkpt>
      <trkpt lat="48.8635" lon="2.34107">
        <ele>101</ele>
        <time>2015-03-23T19:24:58.173Z</time>
      </trkpt>
      <trkpt lat="48.86354" lon="2.34101">
        <ele>100.8</ele>
        <time>2015-03-23T19:24:59.178Z</time>
      </trkpt>
      <trkpt lat="48.86357" lon="2.34095">
        <ele>100.7</ele>
        <time>2015-03-23T19:25:00.100Z</time>
      </trkpt>
      <trkpt lat="48.86361" lon="2.3409">
        <ele>100.5</ele>
        <time>2015-03-23T19:25:01.239Z</time>
      </trkpt>
      <trkpt lat="48.86365" lon="2.34085">
        <ele>100.4</ele>
        <time>2015-03-23T19:25:01.967Z</time>
      </trkpt>
      <trkpt lat="48.86369" lon="2.3408">
        <ele>100.3</ele>
        <time>2015-03-23T19:25:03.103Z</time>
      </trkpt>
      <trkpt lat="48.86372" lon="2.34075">
        <ele>100.1</ele>
        <time>2015-03-23T19:25:04.108Z</time>
      </trkpt>
      <trkpt lat="48.86367" lon="2.34065">
        <ele>98.8</ele>
        <time>2015-03-23T19:25:05.117Z</time>
      </trkpt>
      <trkpt lat="48.86352" lon="2.3405">
        <ele>95.9</ele>
        <time>2015-03-23T19:25:06.143Z</time>
      </trkpt>
      <trkpt lat="48.86348" lon="2.3404">
        <ele>94.8</ele>
        <time>2015-03-23T19:25:07.176Z</time>
      </trkpt>
      <trkpt lat="48.86345" lon="2.34031">
        <ele>93.5</ele>
        <time>2015-03-23T19:25:08.183Z</time>
      </trkpt>
      <trkpt lat="48.86344" lon="2.34023">
        <ele>92.5</ele>
        <time>2015-03-23T19:25:09.180Z</time>
      </trkpt>
      <trkpt lat="48.86346" lon="2.34017">
        <ele>92.3</ele>
        <time>2015-03-23T19:25:10.214Z</time>
      </trkpt>
      <trkpt lat="48.86348" lon="2.34006">
        <ele>92.3</ele>
        <time>2015-03-23T19:25:12.137Z</time>
      </trkpt>
      <trkpt lat="48.86349" lon="2.34">
        <ele>92.7</ele>
        <time>2015-03-23T19:25:13.169Z</time>
      </trkpt>
      <trkpt lat="48.86349" lon="2.33993">
        <ele>93.9</ele>
        <time>2015-03-23T19:25:14.165Z</time>
      </trkpt>
      <trkpt lat="48.86348" lon="2.33985">
        <ele>95</ele>
        <time>2015-03-23T19:25:15.235Z</time>
      </trkpt>
      <trkpt lat="48.86356" lon="2.33979">
        <ele>93.5</ele>
        <time>2015-03-23T19:25:22.136Z</time>
      </trkpt>
      <trkpt lat="48.8636" lon="2.33981">
        <ele>93</ele>
        <time>2015-03-23T19:25:23.192Z</time>
      </trkpt>
      <trkpt lat="48.86366" lon="2.33988">
        <ele>92.5</ele>
        <time>2015-03-23T19:25:25.267Z</time>
      </trkpt>
      <trkpt lat="48.86369" lon="2.3399">
        <ele>92.3</ele>
        <time>2015-03-23T19:25:26.140Z</time>
      </trkpt>
      <trkpt lat="48.86378" lon="2.33995">
        <ele>92.1</ele>
        <time>2015-03-23T19:25:28.193Z</time>
      </trkpt>
      <trkpt lat="48.86381" lon="2.33997">
        <ele>92.1</ele>
        <time>2015-03-23T19:25:29.258Z</time>
      </trkpt>
      <trkpt lat="48.86386" lon="2.33999">
        <ele>92.1</ele>
        <time>2015-03-23T19:25:30.105Z</time>
      </trkpt>
      <trkpt lat="48.86392" lon="2.34">
        <ele>92</ele>
        <time>2015-03-23T19:25:31.168Z</time>
      </trkpt>
      <trkpt lat="48.86398" lon="2.34001">
        <ele>91.6</ele>
        <time>2015-03-23T19:25:32.178Z</time>
      </trkpt>
      <trkpt lat="48.86405" lon="2.34001">
        <ele>91.4</ele>
        <time>2015-03-23T19:25:33.180Z</time>
      </trkpt>
      <trkpt lat="48.86412" lon="2.34002">
        <ele>91.1</ele>
        <time>2015-03-23T19:25:34.206Z</time>
      </trkpt>
      <trkpt lat="48.86418" lon="2.34002">
        <ele>90.9</ele>
        <time>2015-03-23T19:25:35.224Z</time>
      </trkpt>
      <trkpt lat="48.86425" lon="2.34003">
        <ele>90.8</ele>
        <time>2015-03-23T19:25:36.114Z</time>
      </trkpt>
      <trkpt lat="48.8643" lon="2.34004">
        <ele>90.6</ele>
        <time>2015-03-23T19:25:37.162Z</time>
      </trkpt>
      <trkpt lat="48.86436" lon="2.34008">
        <ele>90.4</ele>
        <time>2015-03-23T19:25:38.255Z</time>
      </trkpt>
      <trkpt lat="48.86441" lon="2.34011">
        <ele>90.4</ele>
        <time>2015-03-23T19:25:39.199Z</time>
      </trkpt>
      <trkpt lat="48.86447" lon="2.34013">
        <ele>90.4</ele>
        <time>2015-03-23T19:25:40.122Z</time>
      </trkpt>
      <trkpt lat="48.86453" lon="2.34015">
        <ele>90.4</ele>
        <time>2015-03-23T19:25:41.125Z</time>
      </trkpt>
      <trkpt lat="48.8646" lon="2.34017">
        <ele>90.4</ele>
        <time>2015-03-23T19:25:42.136Z</time>
      </trkpt>
      <trkpt lat="48.86467" lon="2.34019">
        <ele>90.9</ele>
        <time>2015-03-23T19:25:43.173Z</time>
      </trkpt>
      <trkpt lat="48.86475" lon="2.34021">
        <ele>91.8</ele>
        <time>2015-03-23T19:25:44.225Z</time>
      </trkpt>
      <trkpt lat="48.86481" lon="2.34023">
        <ele>92.8</ele>
        <time>2015-03-23T19:25:45.123Z</time>
      </trkpt>
      <trkpt lat="48.86488" lon="2.34028">
        <ele>93.3</ele>
        <time>2015-03-23T19:25:47.149Z</time>
      </trkpt>
      <trkpt lat="48.86489" lon="2.34035">
        <ele>93.5</ele>
        <time>2015-03-23T19:25:48.155Z</time>
      </trkpt>
      <trkpt lat="48.86495" lon="2.34045">
        <ele>94.3</ele>
        <time>2015-03-23T19:25:53.158Z</time>
      </trkpt>
      <trkpt lat="48.86496" lon="2.34046">
        <ele>94.4</ele>
        <time>2015-03-23T19:25:54.186Z</time>
      </trkpt>
      <trkpt lat="48.86502" lon="2.3405">
        <ele>94.7</ele>
        <time>2015-03-23T19:25:57.126Z</time>
      </trkpt>
      <trkpt lat="48.86504" lon="2.34051">
        <ele>94.7</ele>
        <time>2015-03-23T19:25:58.137Z</time>
      </trkpt>
      <trkpt lat="48.86511" lon="2.34056">
        <ele>94.7</ele>
        <time>2015-03-23T19:26:00.186Z</time>
      </trkpt>
      <trkpt lat="48.86517" lon="2.34059">
        <ele>94.4</ele>
        <time>2015-03-23T19:26:01.278Z</time>
      </trkpt>
      <trkpt lat="48.86522" lon="2.34061">
        <ele>94</ele>
        <time>2015-03-23T19:26:02.127Z</time>
      </trkpt>
      <trkpt lat="48.86532" lon="2.34065">
        <ele>92.4</ele>
        <time>2015-03-23T19:26:03.149Z</time>
      </trkpt>
      <trkpt lat="48.86538" lon="2.34068">
        <ele>91.8</ele>
        <time>2015-03-23T19:26:04.169Z</time>
      </trkpt>
      <trkpt lat="48.86544" lon="2.3407">
        <ele>91.3</ele>
        <time>2015-03-23T19:26:05.193Z</time>
      </trkpt>
      <trkpt lat="48.86545" lon="2.34077">
        <ele>90.7</ele>
        <time>2015-03-23T19:26:06.128Z</time>
      </trkpt>
      <trkpt lat="48.86547" lon="2.34083">
        <ele>90.1</ele>
        <time>2015-03-23T19:26:07.151Z</time>
      </trkpt>
      <trkpt lat="48.86551" lon="2.34088">
        <ele>90</ele>
        <time>2015-03-23T19:26:08.173Z</time>
      </trkpt>
      <trkpt lat="48.86555" lon="2.34093">
        <ele>90.1</ele>
        <time>2015-03-23T19:26:09.179Z</time>
      </trkpt>
      <trkpt lat="48.86558" lon="2.34099">
        <ele>89.9</ele>
        <time>2015-03-23T19:26:10.189Z</time>
      </trkpt>
      <trkpt lat="48.86558" lon="2.34107">
        <ele>89.1</ele>
        <time>2015-03-23T19:26:11.200Z</time>
      </trkpt>
      <trkpt lat="48.86561" lon="2.34119">
        <ele>88.6</ele>
        <time>2015-03-23T19:26:13.157Z</time>
      </trkpt>
      <trkpt lat="48.86564" lon="2.34123">
        <ele>88.7</ele>
        <time>2015-03-23T19:26:14.174Z</time>
      </trkpt>
      <trkpt lat="48.86569" lon="2.34129">
        <ele>89</ele>
        <time>2015-03-23T19:26:16.123Z</time>
      </trkpt>
      <trkpt lat="48.86572" lon="2.3413">
        <ele>88.9</ele>
        <time>2015-03-23T19:26:17.144Z</time>
      </trkpt>
      <trkpt lat="48.8658" lon="2.34126">
        <ele>88.7</ele>
        <time>2015-03-23T19:26:19.162Z</time>
      </trkpt>
      <trkpt lat="48.86582" lon="2.34123">
        <ele>88.3</ele>
        <time>2015-03-23T19:26:20.129Z</time>
      </trkpt>
      <trkpt lat="48.86582" lon="2.34112">
        <ele>86.4</ele>
        <time>2015-03-23T19:26:22.168Z</time>
      </trkpt>
      <trkpt lat="48.86582" lon="2.34108">
        <ele>86.6</ele>
        <time>2015-03-23T19:26:23.188Z</time>
      </trkpt>
      <trkpt lat="48.86585" lon="2.34098">
        <ele>86.7</ele>
        <time>2015-03-23T19:26:25.175Z</time>
      </trkpt>
      <trkpt lat="48.86587" lon="2.34093">
        <ele>87.1</ele>
        <time>2015-03-23T19:26:26.193Z</time>
      </trkpt>
      <trkpt lat="48.86592" lon="2.34084">
        <ele>87.8</ele>
        <time>2015-03-23T19:26:28.153Z</time>
      </trkpt>
      <trkpt lat="48.86595" lon="2.34081">
        <ele>87.9</ele>
        <time>2015-03-23T19:26:29.179Z</time>
      </trkpt>
      <trkpt lat="48.86602" lon="2.34072">
        <ele>88.2</ele>
        <time>2015-03-23T19:26:31.180Z</time>
      </trkpt>
      <trkpt lat="48.86605" lon="2.34068">
        <ele>88.4</ele>
        <time>2015-03-23T19:26:32.175Z</time>
      </trkpt>
      <trkpt lat="48.8661" lon="2.34058">
        <ele>88.8</ele>
        <time>2015-03-23T19:26:34.169Z</time>
      </trkpt>
      <trkpt lat="48.86612" lon="2.34054">
        <ele>88.9</ele>
        <time>2015-03-23T19:26:35.111Z</time>
      </trkpt>
      <trkpt lat="48.86616" lon="2.34044">
        <ele>88.8</ele>
        <time>2015-03-23T19:26:37.143Z</time>
      </trkpt>
      <trkpt lat="48.86617" lon="2.34038">
        <ele>88.8</ele>
        <time>2015-03-23T19:26:38.114Z</time>
      </trkpt>
      <trkpt lat="48.8662" lon="2.34028">
        <ele>88.7</ele>
        <time>2015-03-23T19:26:40.130Z</time>
      </trkpt>
      <trkpt lat="48.86622" lon="2.34024">
        <ele>88.7</ele>
        <time>2015-03-23T19:26:41.145Z</time>
      </trkpt>
      <trkpt lat="48.86628" lon="2.34016">
        <ele>88.7</ele>
        <time>2015-03-23T19:26:43.121Z</time>
      </trkpt>
      <trkpt lat="48.86631" lon="2.34011">
        <ele>89</ele>
        <time>2015-03-23T19:26:44.126Z</time>
      </trkpt>
      <trkpt lat="48.86635" lon="2.34008">
        <ele>89.2</ele>
        <time>2015-03-23T19:26:45.243Z</time>
      </trkpt>
      <trkpt lat="48.86651" lon="2.33997">
        <ele>89.8</ele>
        <time>2015-03-23T19:26:48.149Z</time>
      </trkpt>
      <trkpt lat="48.86655" lon="2.33994">
        <ele>89.9</ele>
        <time>2015-03-23T19:26:49.161Z</time>
      </trkpt>
      <trkpt lat="48.8666" lon="2.33991">
        <ele>89.9</ele>
        <time>2015-03-23T19:26:50.170Z</time>
      </trkpt>
      <trkpt lat="48.86665" lon="2.33988">
        <ele>89.9</ele>
        <time>2015-03-23T19:26:51.181Z</time>
      </trkpt>
      <trkpt lat="48.86727" lon="2.339">
        <ele>90.8</ele>
        <time>2015-03-23T19:27:06.140Z</time>
      </trkpt>
      <trkpt lat="48.86726" lon="2.33889">
        <ele>90.9</ele>
        <time>2015-03-23T19:27:07.151Z</time>
      </trkpt>
      <trkpt lat="48.86723" lon="2.33879">
        <ele>91</ele>
        <time>2015-03-23T19:27:08.165Z</time>
      </trkpt>
      <trkpt lat="48.86715" lon="2.33863">
        <ele>91.1</ele>
        <time>2015-03-23T19:27:09.180Z</time>
      </trkpt>
      <trkpt lat="48.86719" lon="2.33786">
        <ele>91.9</ele>
        <time>2015-03-23T19:27:19.201Z</time>
      </trkpt>
      <trkpt lat="48.86712" lon="2.33776">
        <ele>91.9</ele>
        <time>2015-03-23T19:27:20.111Z</time>
      </trkpt>
      <trkpt lat="48.8671" lon="2.33769">
        <ele>92</ele>
        <time>2015-03-23T19:27:21.112Z</time>
      </trkpt>
      <trkpt lat="48.86708" lon="2.33761">
        <ele>91.9</ele>
        <time>2015-03-23T19:27:22.123Z</time>
      </trkpt>
      <trkpt lat="48.86706" lon="2.33754">
        <ele>91.8</ele>
        <time>2015-03-23T19:27:23.136Z</time>
      </trkpt>
      <trkpt lat="48.86707" lon="2.33742">
        <ele>91.7</ele>
        <time>2015-03-23T19:27:25.136Z</time>
      </trkpt>
      <trkpt lat="48.86708" lon="2.33737">
        <ele>91.9</ele>
        <time>2015-03-23T19:27:26.147Z</time>
      </trkpt>
      <trkpt lat="48.86712" lon="2.33727">
        <ele>91.9</ele>
        <time>2015-03-23T19:27:28.170Z</time>
      </trkpt>
      <trkpt lat="48.86716" lon="2.33722">
        <ele>92</ele>
        <time>2015-03-23T19:27:29.178Z</time>
      </trkpt>
      <trkpt lat="48.8672" lon="2.33713">
        <ele>92.2</ele>
        <time>2015-03-23T19:27:31.157Z</time>
      </trkpt>
      <trkpt lat="48.86723" lon="2.33708">
        <ele>92.3</ele>
        <time>2015-03-23T19:27:32.159Z</time>
      </trkpt>
      <trkpt lat="48.86727" lon="2.33703">
        <ele>92.5</ele>
        <time>2015-03-23T19:27:33.181Z</time>
      </trkpt>
      <trkpt lat="48.86731" lon="2.33699">
        <ele>92.6</ele>
        <time>2015-03-23T19:27:34.191Z</time>
      </trkpt>
      <trkpt lat="48.86737" lon="2.3369">
        <ele>92.8</ele>
        <time>2015-03-23T19:27:36.105Z</time>
      </trkpt>
      <trkpt lat="48.86741" lon="2.33687">
        <ele>92.8</ele>
        <time>2015-03-23T19:27:37.149Z</time>
      </trkpt>
      <trkpt lat="48.86748" lon="2.33679">
        <ele>93</ele>
        <time>2015-03-23T19:27:39.108Z</time>
      </trkpt>
      <trkpt lat="48.86751" lon="2.33675">
        <ele>93</ele>
        <time>2015-03-23T19:27:40.194Z</time>
      </trkpt>
      <trkpt lat="48.86754" lon="2.3367">
        <ele>93.1</ele>
        <time>2015-03-23T19:27:41.113Z</time>
      </trkpt>
      <trkpt lat="48.86774" lon="2.33573">
        <ele>92</ele>
        <time>2015-03-23T19:27:56.183Z</time>
      </trkpt>
      <trkpt lat="48.86769" lon="2.33562">
        <ele>91.8</ele>
        <time>2015-03-23T19:27:57.104Z</time>
      </trkpt>
      <trkpt lat="48.86767" lon="2.33553">
        <ele>91.7</ele>
        <time>2015-03-23T19:27:58.104Z</time>
      </trkpt>
      <trkpt lat="48.86765" lon="2.33544">
        <ele>91.6</ele>
        <time>2015-03-23T19:27:59.116Z</time>
      </trkpt>
      <trkpt lat="48.86763" lon="2.33535">
        <ele>91.4</ele>
        <time>2015-03-23T19:28:00.171Z</time>
      </trkpt>
      <trkpt lat="48.86764" lon="2.33527">
        <ele>91.5</ele>
        <time>2015-03-23T19:28:01.158Z</time>
      </trkpt>
      <trkpt lat="48.86764" lon="2.3352">
        <ele>91.6</ele>
        <time>2015-03-23T19:28:02.106Z</time>
      </trkpt>
      <trkpt lat="48.86762" lon="2.3351">
        <ele>91.9</ele>
        <time>2015-03-23T19:28:03.115Z</time>
      </trkpt>
      <trkpt lat="48.86764" lon="2.33505">
        <ele>92</ele>
        <time>2015-03-23T19:28:04.137Z</time>
      </trkpt>
      <trkpt lat="48.86766" lon="2.33492">
        <ele>92.5</ele>
        <time>2015-03-23T19:28:07.227Z</time>
      </trkpt>
      <trkpt lat="48.86766" lon="2.33487">
        <ele>92.6</ele>
        <time>2015-03-23T19:28:08.122Z</time>
      </trkpt>
      <trkpt lat="48.86766" lon="2.33478">
        <ele>92.9</ele>
        <time>2015-03-23T19:28:10.157Z</time>
      </trkpt>
      <trkpt lat="48.86765" lon="2.33472">
        <ele>93</ele>
        <time>2015-03-23T19:28:11.116Z</time>
      </trkpt>
      <trkpt lat="48.86767" lon="2.33462">
        <ele>93.2</ele>
        <time>2015-03-23T19:28:13.156Z</time>
      </trkpt>
      <trkpt lat="48.86768" lon="2.33456">
        <ele>92.9</ele>
        <time>2015-03-23T19:28:14.232Z</time>
      </trkpt>
      <trkpt lat="48.86771" lon="2.33444">
        <ele>92.4</ele>
        <time>2015-03-23T19:28:16.108Z</time>
      </trkpt>
      <trkpt lat="48.86772" lon="2.33438">
        <ele>92.2</ele>
        <time>2015-03-23T19:28:17.114Z</time>
      </trkpt>
      <trkpt lat="48.86771" lon="2.33426">
        <ele>91.7</ele>
        <time>2015-03-23T19:28:19.164Z</time>
      </trkpt>
      <trkpt lat="48.86767" lon="2.33418">
        <ele>90.2</ele>
        <time>2015-03-23T19:28:20.192Z</time>
      </trkpt>
      <trkpt lat="48.86745" lon="2.33405">
        <ele>83.9</ele>
        <time>2015-03-23T19:28:21.129Z</time>
      </trkpt>
      <trkpt lat="48.86745" lon="2.33394">
        <ele>83.6</ele>
        <time>2015-03-23T19:28:23.157Z</time>
      </trkpt>
      <trkpt lat="48.86745" lon="2.33387">
        <ele>85.1</ele>
        <time>2015-03-23T19:28:24.169Z</time>
      </trkpt>
      <trkpt lat="48.86747" lon="2.33374">
        <ele>87</ele>
        <time>2015-03-23T19:28:26.211Z</time>
      </trkpt>
      <trkpt lat="48.86748" lon="2.33368">
        <ele>87.7</ele>
        <time>2015-03-23T19:28:27.139Z</time>
      </trkpt>
      <trkpt lat="48.8675" lon="2.33359">
        <ele>89.2</ele>
        <time>2015-03-23T19:28:28.165Z</time>
      </trkpt>
      <trkpt lat="48.86752" lon="2.33353">
        <ele>89.7</ele>
        <time>2015-03-23T19:28:29.188Z</time>
      </trkpt>
      <trkpt lat="48.86755" lon="2.33343">
        <ele>90.2</ele>
        <time>2015-03-23T19:28:31.223Z</time>
      </trkpt>
      <trkpt lat="48.86758" lon="2.33339">
        <ele>90.4</ele>
        <time>2015-03-23T19:28:32.109Z</time>
      </trkpt>
      <trkpt lat="48.86764" lon="2.33333">
        <ele>90.9</ele>
        <time>2015-03-23T19:28:34.138Z</time>
      </trkpt>
      <trkpt lat="48.86767" lon="2.33328">
        <ele>91.1</ele>
        <time>2015-03-23T19:28:35.339Z</time>
      </trkpt>
      <trkpt lat="48.86771" lon="2.33319">
        <ele>91.3</ele>
        <time>2015-03-23T19:28:37.163Z</time>
      </trkpt>
      <trkpt lat="48.86773" lon="2.33314">
        <ele>91.3</ele>
        <time>2015-03-23T19:28:38.192Z</time>
      </trkpt>
      <trkpt lat="48.86798" lon="2.33241">
        <ele>90.6</ele>
        <time>2015-03-23T19:28:52.088Z</time>
      </trkpt>
      <trkpt lat="48.86797" lon="2.33233">
        <ele>90.6</ele>
        <time>2015-03-23T19:28:53.112Z</time>
      </trkpt>
      <trkpt lat="48.86796" lon="2.33226">
        <ele>90.6</ele>
        <time>2015-03-23T19:28:54.141Z</time>
      </trkpt>
      <trkpt lat="48.86795" lon="2.33219">
        <ele>90.6</ele>
        <time>2015-03-23T19:28:55.172Z</time>
      </trkpt>
      <trkpt lat="48.86795" lon="2.33212">
        <ele>90.6</ele>
        <time>2015-03-23T19:28:56.182Z</time>
      </trkpt>
      <trkpt lat="48.86794" lon="2.33205">
        <ele>90.6</ele>
        <time>2015-03-23T19:28:57.082Z</time>
      </trkpt>
      <trkpt lat="48.86795" lon="2.33198">
        <ele>90.7</ele>
        <time>2015-03-23T19:28:58.121Z</time>
      </trkpt>
      <trkpt lat="48.86796" lon="2.3319">
        <ele>90.7</ele>
        <time>2015-03-23T19:28:59.152Z</time>
      </trkpt>
      <trkpt lat="48.86799" lon="2.33185">
        <ele>90.7</ele>
        <time>2015-03-23T19:29:00.167Z</time>
      </trkpt>
      <trkpt lat="48.86801" lon="2.33172">
        <ele>90.9</ele>
        <time>2015-03-23T19:29:02.183Z</time>
      </trkpt>
      <trkpt lat="48.86804" lon="2.33167">
        <ele>91</ele>
        <time>2015-03-23T19:29:03.200Z</time>
      </trkpt>
      <trkpt lat="48.86836" lon="2.33054">
        <ele>87.7</ele>
        <time>2015-03-23T19:29:21.114Z</time>
      </trkpt>
      <trkpt lat="48.86829" lon="2.33042">
        <ele>86.5</ele>
        <time>2015-03-23T19:29:22.137Z</time>
      </trkpt>
      <trkpt lat="48.86835" lon="2.33022">
        <ele>86.7</ele>
        <time>2015-03-23T19:29:25.145Z</time>
      </trkpt>
      <trkpt lat="48.86837" lon="2.33016">
        <ele>87.1</ele>
        <time>2015-03-23T19:29:26.162Z</time>
      </trkpt>
      <trkpt lat="48.8684" lon="2.3301">
        <ele>87.4</ele>
        <time>2015-03-23T19:29:27.177Z</time>
      </trkpt>
      <trkpt lat="48.86864" lon="2.32976">
        <ele>88.2</ele>
        <time>2015-03-23T19:29:34.182Z</time>
      </trkpt>
      <trkpt lat="48.86871" lon="2.32968">
        <ele>87.8</ele>
        <time>2015-03-23T19:29:36.115Z</time>
      </trkpt>
      <trkpt lat="48.86876" lon="2.32965">
        <ele>87.7</ele>
        <time>2015-03-23T19:29:37.152Z</time>
      </trkpt>
      <trkpt lat="48.86881" lon="2.32962">
        <ele>87.6</ele>
        <time>2015-03-23T19:29:38.169Z</time>
      </trkpt>
      <trkpt lat="48.86886" lon="2.32959">
        <ele>87.5</ele>
        <time>2015-03-23T19:29:39.183Z</time>
      </trkpt>
      <trkpt lat="48.86892" lon="2.3295">
        <ele>87.8</ele>
        <time>2015-03-23T19:29:41.121Z</time>
      </trkpt>
      <trkpt lat="48.86896" lon="2.32946">
        <ele>87.7</ele>
        <time>2015-03-23T19:29:42.129Z</time>
      </trkpt>
      <trkpt lat="48.86898" lon="2.32941">
        <ele>87.8</ele>
        <time>2015-03-23T19:29:43.157Z</time>
      </trkpt>
      <trkpt lat="48.86987" lon="2.32819">
        <ele>89</ele>
        <time>2015-03-23T19:30:15.121Z</time>
      </trkpt>
      <trkpt lat="48.86982" lon="2.32815">
        <ele>89.2</ele>
        <time>2015-03-23T19:30:17.177Z</time>
      </trkpt>
      <trkpt lat="48.86981" lon="2.32814">
        <ele>89.5</ele>
        <time>2015-03-23T19:30:18.091Z</time>
      </trkpt>
      <trkpt lat="48.86981" lon="2.32812">
        <ele>89.9</ele>
        <time>2015-03-23T19:30:19.142Z</time>
      </trkpt>
      <trkpt lat="48.86981" lon="2.32812">
        <ele>89.9</ele>
        <time>2015-03-23T19:30:20.152Z</time>
      </trkpt>
      <trkpt lat="48.86981" lon="2.32812">
        <ele>90.1</ele>
        <time>2015-03-23T19:30:21.181Z</time>
      </trkpt>
      <trkpt lat="48.86982" lon="2.32812">
        <ele>89.9</ele>
        <time>2015-03-23T19:30:25.198Z</time>
      </trkpt>
      <trkpt lat="48.86987" lon="2.32811">
        <ele>90.4</ele>
        <time>2015-03-23T19:30:26.112Z</time>
      </trkpt>
      <trkpt lat="48.86992" lon="2.32802">
        <ele>91.2</ele>
        <time>2015-03-23T19:30:30.156Z</time>
      </trkpt>
      <trkpt lat="48.86995" lon="2.32799">
        <ele>91.4</ele>
        <time>2015-03-23T19:30:31.165Z</time>
      </trkpt>
      <trkpt lat="48.87002" lon="2.32793">
        <ele>91.7</ele>
        <time>2015-03-23T19:30:33.182Z</time>
      </trkpt>
      <trkpt lat="48.87005" lon="2.3279">
        <ele>91.8</ele>
        <time>2015-03-23T19:30:34.087Z</time>
      </trkpt>
      <trkpt lat="48.87011" lon="2.32783">
        <ele>92.2</ele>
        <time>2015-03-23T19:30:36.172Z</time>
      </trkpt>
      <trkpt lat="48.87015" lon="2.3278">
        <ele>92.6</ele>
        <time>2015-03-23T19:30:37.221Z</time>
      </trkpt>
      <trkpt lat="48.87015" lon="2.32774">
        <ele>91.8</ele>
        <time>2015-03-23T19:30:38.109Z</time>
      </trkpt>
      <trkpt lat="48.87011" lon="2.32767">
        <ele>90.4</ele>
        <time>2015-03-23T19:30:39.107Z</time>
      </trkpt>
      <trkpt lat="48.87014" lon="2.32762">
        <ele>90.3</ele>
        <time>2015-03-23T19:30:40.115Z</time>
      </trkpt>
      <trkpt lat="48.87018" lon="2.32758">
        <ele>90.2</ele>
        <time>2015-03-23T19:30:41.124Z</time>
      </trkpt>
      <trkpt lat="48.87023" lon="2.32754">
        <ele>90.2</ele>
        <time>2015-03-23T19:30:42.131Z</time>
      </trkpt>
      <trkpt lat="48.87029" lon="2.3275">
        <ele>90.2</ele>
        <time>2015-03-23T19:30:43.156Z</time>
      </trkpt>
      <trkpt lat="48.87034" lon="2.32747">
        <ele>90.3</ele>
        <time>2015-03-23T19:30:44.175Z</time>
      </trkpt>
      <trkpt lat="48.87038" lon="2.32743">
        <ele>90.3</ele>
        <time>2015-03-23T19:30:45.188Z</time>
      </trkpt>
      <trkpt lat="48.87042" lon="2.32738">
        <ele>90.3</ele>
        <time>2015-03-23T19:30:46.115Z</time>
      </trkpt>
      <trkpt lat="48.87049" lon="2.32735">
        <ele>90.3</ele>
        <time>2015-03-23T19:30:47.113Z</time>
      </trkpt>
      <trkpt lat="48.87053" lon="2.32732">
        <ele>90.4</ele>
        <time>2015-03-23T19:30:48.162Z</time>
      </trkpt>
      <trkpt lat="48.87057" lon="2.32728">
        <ele>90.5</ele>
        <time>2015-03-23T19:30:49.184Z</time>
      </trkpt>
      <trkpt lat="48.87064" lon="2.32723">
        <ele>90.6</ele>
        <time>2015-03-23T19:30:51.130Z</time>
      </trkpt>
      <trkpt lat="48.87066" lon="2.3272">
        <ele>90.7</ele>
        <time>2015-03-23T19:30:52.147Z</time>
      </trkpt>
      <trkpt lat="48.87071" lon="2.32713">
        <ele>90.9</ele>
        <time>2015-03-23T19:30:54.100Z</time>
      </trkpt>
      <trkpt lat="48.87072" lon="2.3271">
        <ele>91</ele>
        <time>2015-03-23T19:30:55.141Z</time>
      </trkpt>
      <trkpt lat="48.87076" lon="2.32702">
        <ele>91.5</ele>
        <time>2015-03-23T19:30:58.102Z</time>
      </trkpt>
      <trkpt lat="48.8708" lon="2.32699">
        <ele>91.7</ele>
        <time>2015-03-23T19:30:59.110Z</time>
      </trkpt>
      <trkpt lat="48.87083" lon="2.32695">
        <ele>91.8</ele>
        <time>2015-03-23T19:31:00.131Z</time>
      </trkpt>
      <trkpt lat="48.87086" lon="2.3269">
        <ele>91.9</ele>
        <time>2015-03-23T19:31:01.137Z</time>
      </trkpt>
      <trkpt lat="48.87091" lon="2.32684">
        <ele>92.1</ele>
        <time>2015-03-23T19:31:02.150Z</time>
      </trkpt>
      <trkpt lat="48.87093" lon="2.32679">
        <ele>92.3</ele>
        <time>2015-03-23T19:31:03.160Z</time>
      </trkpt>
      <trkpt lat="48.87097" lon="2.32673">
        <ele>92.9</ele>
        <time>2015-03-23T19:31:04.168Z</time>
      </trkpt>
      <trkpt lat="48.871" lon="2.32668">
        <ele>93.3</ele>
        <time>2015-03-23T19:31:05.172Z</time>
      </trkpt>
      <trkpt lat="48.87104" lon="2.32665">
        <ele>93.5</ele>
        <time>2015-03-23T19:31:06.185Z</time>
      </trkpt>
      <trkpt lat="48.87109" lon="2.32662">
        <ele>93.8</ele>
        <time>2015-03-23T19:31:07.194Z</time>
      </trkpt>
      <trkpt lat="48.87114" lon="2.32659">
        <ele>93.9</ele>
        <time>2015-03-23T19:31:08.098Z</time>
      </trkpt>
      <trkpt lat="48.8712" lon="2.32657">
        <ele>93.9</ele>
        <time>2015-03-23T19:31:09.124Z</time>
      </trkpt>
      <trkpt lat="48.87125" lon="2.32628">
        <ele>91.4</ele>
        <time>2015-03-23T19:31:15.140Z</time>
      </trkpt>
      <trkpt lat="48.8712" lon="2.3262">
        <ele>90.3</ele>
        <time>2015-03-23T19:31:16.155Z</time>
      </trkpt>
      <trkpt lat="48.87121" lon="2.32613">
        <ele>90.1</ele>
        <time>2015-03-23T19:31:17.160Z</time>
      </trkpt>
      <trkpt lat="48.87123" lon="2.32608">
        <ele>90.1</ele>
        <time>2015-03-23T19:31:18.176Z</time>
      </trkpt>
      <trkpt lat="48.8713" lon="2.32589">
        <ele>90.1</ele>
        <time>2015-03-23T19:31:21.133Z</time>
      </trkpt>
      <trkpt lat="48.87131" lon="2.32581">
        <ele>90</ele>
        <time>2015-03-23T19:31:22.155Z</time>
      </trkpt>
      <trkpt lat="48.87133" lon="2.32575">
        <ele>89.9</ele>
        <time>2015-03-23T19:31:23.168Z</time>
      </trkpt>
      <trkpt lat="48.87134" lon="2.32568">
        <ele>89.9</ele>
        <time>2015-03-23T19:31:24.175Z</time>
      </trkpt>
      <trkpt lat="48.87134" lon="2.32561">
        <ele>89.8</ele>
        <time>2015-03-23T19:31:25.230Z</time>
      </trkpt>
      <trkpt lat="48.87134" lon="2.32555">
        <ele>89.8</ele>
        <time>2015-03-23T19:31:26.130Z</time>
      </trkpt>
      <trkpt lat="48.87132" lon="2.32548">
        <ele>89.6</ele>
        <time>2015-03-23T19:31:27.148Z</time>
      </trkpt>
      <trkpt lat="48.87124" lon="2.32539">
        <ele>88.8</ele>
        <time>2015-03-23T19:31:28.183Z</time>
      </trkpt>
      <trkpt lat="48.87118" lon="2.32531">
        <ele>88.3</ele>
        <time>2015-03-23T19:31:29.187Z</time>
      </trkpt>
      <trkpt lat="48.87099" lon="2.32519">
        <ele>85.5</ele>
        <time>2015-03-23T19:31:30.215Z</time>
      </trkpt>
      <trkpt lat="48.87087" lon="2.32509">
        <ele>85</ele>
        <time>2015-03-23T19:31:31.228Z</time>
      </trkpt>
      <trkpt lat="48.87082" lon="2.32499">
        <ele>85.3</ele>
        <time>2015-03-23T19:31:34.205Z</time>
      </trkpt>
      <trkpt lat="48.87083" lon="2.32498">
        <ele>85.3</ele>
        <time>2015-03-23T19:31:35.118Z</time>
      </trkpt>
      <trkpt lat="48.87084" lon="2.32497">
        <ele>85.1</ele>
        <time>2015-03-23T19:31:46.140Z</time>
      </trkpt>
      <trkpt lat="48.87086" lon="2.32498">
        <ele>85.3</ele>
        <time>2015-03-23T19:31:47.214Z</time>
      </trkpt>
      <trkpt lat="48.8709" lon="2.32487">
        <ele>84.7</ele>
        <time>2015-03-23T19:31:51.156Z</time>
      </trkpt>
      <trkpt lat="48.87091" lon="2.32482">
        <ele>84.5</ele>
        <time>2015-03-23T19:31:52.178Z</time>
      </trkpt>
      <trkpt lat="48.87094" lon="2.32477">
        <ele>84.5</ele>
        <time>2015-03-23T19:31:53.194Z</time>
      </trkpt>
      <trkpt lat="48.87096" lon="2.32471">
        <ele>84.5</ele>
        <time>2015-03-23T19:31:54.200Z</time>
      </trkpt>
      <trkpt lat="48.87099" lon="2.32464">
        <ele>84.2</ele>
        <time>2015-03-23T19:31:55.258Z</time>
      </trkpt>
      <trkpt lat="48.87101" lon="2.32457">
        <ele>84.4</ele>
        <time>2015-03-23T19:31:56.124Z</time>
      </trkpt>
      <trkpt lat="48.87104" lon="2.3245">
        <ele>84.5</ele>
        <time>2015-03-23T19:31:57.194Z</time>
      </trkpt>
      <trkpt lat="48.87108" lon="2.32444">
        <ele>84.7</ele>
        <time>2015-03-23T19:31:58.101Z</time>
      </trkpt>
      <trkpt lat="48.87111" lon="2.32438">
        <ele>84.8</ele>
        <time>2015-03-23T19:31:59.139Z</time>
      </trkpt>
      <trkpt lat="48.87114" lon="2.32433">
        <ele>84.9</ele>
        <time>2015-03-23T19:32:00.161Z</time>
      </trkpt>
      <trkpt lat="48.87116" lon="2.32427">
        <ele>84.9</ele>
        <time>2015-03-23T19:32:01.155Z</time>
      </trkpt>
      <trkpt lat="48.87254" lon="2.32373">
        <ele>87.7</ele>
        <time>2015-03-23T19:32:38.106Z</time>
      </trkpt>
      <trkpt lat="48.87259" lon="2.32374">
        <ele>87.7</ele>
        <time>2015-03-23T19:32:39.187Z</time>
      </trkpt>
      <trkpt lat="48.87333" lon="2.32408">
        <ele>88.1</ele>
        <time>2015-03-23T19:32:57.101Z</time>
      </trkpt>
      <trkpt lat="48.87339" lon="2.32413">
        <ele>88.1</ele>
        <time>2015-03-23T19:32:59.135Z</time>
      </trkpt>
      <trkpt lat="48.87341" lon="2.32416">
        <ele>88.1</ele>
        <time>2015-03-23T19:33:00.179Z</time>
      </trkpt>
      <trkpt lat="48.87351" lon="2.32419">
        <ele>88.2</ele>
        <time>2015-03-23T19:33:03.249Z</time>
      </trkpt>
      <trkpt lat="48.87359" lon="2.32421">
        <ele>88.2</ele>
        <time>2015-03-23T19:33:05.095Z</time>
      </trkpt>
      <trkpt lat="48.87364" lon="2.32422">
        <ele>88.3</ele>
        <time>2015-03-23T19:33:06.177Z</time>
      </trkpt>
      <trkpt lat="48.87373" lon="2.32425">
        <ele>88.3</ele>
        <time>2015-03-23T19:33:08.115Z</time>
      </trkpt>
      <trkpt lat="48.87382" lon="2.32428">
        <ele>88.3</ele>
        <time>2015-03-23T19:33:10.145Z</time>
      </trkpt>
      <trkpt lat="48.87387" lon="2.3243">
        <ele>88.3</ele>
        <time>2015-03-23T19:33:11.138Z</time>
      </trkpt>
      <trkpt lat="48.87393" lon="2.32431">
        <ele>88.3</ele>
        <time>2015-03-23T19:33:12.165Z</time>
      </trkpt>
      <trkpt lat="48.87397" lon="2.32432">
        <ele>88.3</ele>
        <time>2015-03-23T19:33:13.199Z</time>
      </trkpt>
      <trkpt lat="48.87404" lon="2.32433">
        <ele>88.5</ele>
        <time>2015-03-23T19:33:14.095Z</time>
      </trkpt>
      <trkpt lat="48.87409" lon="2.32443">
        <ele>88.5</ele>
        <time>2015-03-23T19:33:16.116Z</time>
      </trkpt>
      <trkpt lat="48.87411" lon="2.32444">
        <ele>88.6</ele>
        <time>2015-03-23T19:33:17.137Z</time>
      </trkpt>
      <trkpt lat="48.87418" lon="2.32449">
        <ele>88.6</ele>
        <time>2015-03-23T19:33:21.122Z</time>
      </trkpt>
      <trkpt lat="48.8742" lon="2.32451">
        <ele>88.6</ele>
        <time>2015-03-23T19:33:22.135Z</time>
      </trkpt>
      <trkpt lat="48.87455" lon="2.32463">
        <ele>88.5</ele>
        <time>2015-03-23T19:33:30.188Z</time>
      </trkpt>
      <trkpt lat="48.8746" lon="2.32465">
        <ele>88.7</ele>
        <time>2015-03-23T19:33:31.198Z</time>
      </trkpt>
      <trkpt lat="48.87465" lon="2.32466">
        <ele>88.7</ele>
        <time>2015-03-23T19:33:32.106Z</time>
      </trkpt>
      <trkpt lat="48.87474" lon="2.32468">
        <ele>88.8</ele>
        <time>2015-03-23T19:33:34.123Z</time>
      </trkpt>
      <trkpt lat="48.87478" lon="2.32466">
        <ele>88.8</ele>
        <time>2015-03-23T19:33:35.136Z</time>
      </trkpt>
      <trkpt lat="48.87483" lon="2.32466">
        <ele>88.8</ele>
        <time>2015-03-23T19:33:36.143Z</time>
      </trkpt>
      <trkpt lat="48.87488" lon="2.32462">
        <ele>88.9</ele>
        <time>2015-03-23T19:33:37.148Z</time>
      </trkpt>
      <trkpt lat="48.87495" lon="2.3246">
        <ele>88.7</ele>
        <time>2015-03-23T19:33:38.422Z</time>
      </trkpt>
      <trkpt lat="48.87497" lon="2.3246">
        <ele>88.7</ele>
        <time>2015-03-23T19:33:39.165Z</time>
      </trkpt>
      <trkpt lat="48.87503" lon="2.32453">
        <ele>88.5</ele>
        <time>2015-03-23T19:33:41.082Z</time>
      </trkpt>
      <trkpt lat="48.87503" lon="2.32449">
        <ele>88.5</ele>
        <time>2015-03-23T19:33:42.151Z</time>
      </trkpt>
      <trkpt lat="48.87505" lon="2.32439">
        <ele>88.5</ele>
        <time>2015-03-23T19:33:44.188Z</time>
      </trkpt>
      <trkpt lat="48.87508" lon="2.32436">
        <ele>88.5</ele>
        <time>2015-03-23T19:33:45.222Z</time>
      </trkpt>
      <trkpt lat="48.87511" lon="2.32426">
        <ele>88.6</ele>
        <time>2015-03-23T19:33:47.104Z</time>
      </trkpt>
      <trkpt lat="48.87513" lon="2.32421">
        <ele>88.6</ele>
        <time>2015-03-23T19:33:48.127Z</time>
      </trkpt>
      <trkpt lat="48.87518" lon="2.32411">
        <ele>88.6</ele>
        <time>2015-03-23T19:33:50.094Z</time>
      </trkpt>
      <trkpt lat="48.87522" lon="2.32408">
        <ele>88.7</ele>
        <time>2015-03-23T19:33:51.183Z</time>
      </trkpt>
      <trkpt lat="48.8753" lon="2.32404">
        <ele>89</ele>
        <time>2015-03-23T19:33:52.094Z</time>
      </trkpt>
      <trkpt lat="48.87537" lon="2.324">
        <ele>89.7</ele>
        <time>2015-03-23T19:33:53.097Z</time>
      </trkpt>
      <trkpt lat="48.87544" lon="2.32399">
        <ele>90.2</ele>
        <time>2015-03-23T19:33:54.137Z</time>
      </trkpt>
      <trkpt lat="48.87551" lon="2.32397">
        <ele>90.6</ele>
        <time>2015-03-23T19:33:55.150Z</time>
      </trkpt>
      <trkpt lat="48.87559" lon="2.32396">
        <ele>91.1</ele>
        <time>2015-03-23T19:33:57.107Z</time>
      </trkpt>
      <trkpt lat="48.8756" lon="2.32394">
        <ele>91</ele>
        <time>2015-03-23T19:33:58.123Z</time>
      </trkpt>
      <trkpt lat="48.87563" lon="2.32385">
        <ele>90.6</ele>
        <time>2015-03-23T19:34:03.125Z</time>
      </trkpt>
      <trkpt lat="48.87564" lon="2.32382">
        <ele>90.5</ele>
        <time>2015-03-23T19:34:04.145Z</time>
      </trkpt>
      <trkpt lat="48.87568" lon="2.32374">
        <ele>90.3</ele>
        <time>2015-03-23T19:34:06.194Z</time>
      </trkpt>
      <trkpt lat="48.87569" lon="2.32367">
        <ele>90.4</ele>
        <time>2015-03-23T19:34:07.286Z</time>
      </trkpt>
      <trkpt lat="48.87593" lon="2.32339">
        <ele>90.5</ele>
        <time>2015-03-23T19:34:12.197Z</time>
      </trkpt>
      <trkpt lat="48.87598" lon="2.32332">
        <ele>91.5</ele>
        <time>2015-03-23T19:34:13.151Z</time>
      </trkpt>
      <trkpt lat="48.87605" lon="2.32325">
        <ele>92.5</ele>
        <time>2015-03-23T19:34:14.111Z</time>
      </trkpt>
      <trkpt lat="48.87611" lon="2.32321">
        <ele>92.9</ele>
        <time>2015-03-23T19:34:15.190Z</time>
      </trkpt>
      <trkpt lat="48.87615" lon="2.32319">
        <ele>93</ele>
        <time>2015-03-23T19:34:16.106Z</time>
      </trkpt>
      <trkpt lat="48.87618" lon="2.32308">
        <ele>93</ele>
        <time>2015-03-23T19:34:19.135Z</time>
      </trkpt>
      <trkpt lat="48.87628" lon="2.32301">
        <ele>94.3</ele>
        <time>2015-03-23T19:34:21.159Z</time>
      </trkpt>
      <trkpt lat="48.87619" lon="2.32298">
        <ele>94.6</ele>
        <time>2015-03-23T19:34:30.188Z</time>
      </trkpt>
      <trkpt lat="48.87616" lon="2.32295">
        <ele>94.2</ele>
        <time>2015-03-23T19:34:32.122Z</time>
      </trkpt>
      <trkpt lat="48.87615" lon="2.32293">
        <ele>94.1</ele>
        <time>2015-03-23T19:34:34.156Z</time>
      </trkpt>
      <trkpt lat="48.87631" lon="2.32218">
        <ele>90.9</ele>
        <time>2015-03-23T19:35:01.177Z</time>
      </trkpt>
      <trkpt lat="48.87634" lon="2.32214">
        <ele>90.9</ele>
        <time>2015-03-23T19:35:02.178Z</time>
      </trkpt>
      <trkpt lat="48.8764" lon="2.32201">
        <ele>90.8</ele>
        <time>2015-03-23T19:35:03.190Z</time>
      </trkpt>
      <trkpt lat="48.87644" lon="2.32195">
        <ele>90.9</ele>
        <time>2015-03-23T19:35:04.128Z</time>
      </trkpt>
      <trkpt lat="48.87647" lon="2.32191">
        <ele>91</ele>
        <time>2015-03-23T19:35:05.161Z</time>
      </trkpt>
      <trkpt lat="48.87653" lon="2.32183">
        <ele>90.9</ele>
        <time>2015-03-23T19:35:07.197Z</time>
      </trkpt>
      <trkpt lat="48.87656" lon="2.3218">
        <ele>91</ele>
        <time>2015-03-23T19:35:08.109Z</time>
      </trkpt>
      <trkpt lat="48.87664" lon="2.32173">
        <ele>91.2</ele>
        <time>2015-03-23T19:35:11.238Z</time>
      </trkpt>
      <trkpt lat="48.87666" lon="2.32174">
        <ele>91.2</ele>
        <time>2015-03-23T19:35:12.125Z</time>
      </trkpt>
      <trkpt lat="48.87672" lon="2.32174">
        <ele>91.2</ele>
        <time>2015-03-23T19:35:14.136Z</time>
      </trkpt>
      <trkpt lat="48.87675" lon="2.32171">
        <ele>91.2</ele>
        <time>2015-03-23T19:35:15.087Z</time>
      </trkpt>
      <trkpt lat="48.87681" lon="2.32167">
        <ele>91.4</ele>
        <time>2015-03-23T19:35:17.182Z</time>
      </trkpt>
      <trkpt lat="48.87684" lon="2.32165">
        <ele>91.5</ele>
        <time>2015-03-23T19:35:18.193Z</time>
      </trkpt>
      <trkpt lat="48.8769" lon="2.32159">
        <ele>91.9</ele>
        <time>2015-03-23T19:35:20.216Z</time>
      </trkpt>
      <trkpt lat="48.87694" lon="2.32156">
        <ele>92.1</ele>
        <time>2015-03-23T19:35:21.129Z</time>
      </trkpt>
      <trkpt lat="48.87698" lon="2.32152">
        <ele>92.5</ele>
        <time>2015-03-23T19:35:23.121Z</time>
      </trkpt>
      <trkpt lat="48.87702" lon="2.32149">
        <ele>92.6</ele>
        <time>2015-03-23T19:35:24.131Z</time>
      </trkpt>
      <trkpt lat="48.86892" lon="2.33198">
        <ele>91.3</ele>
        <time>2015-03-23T19:35:42.193Z</time>
      </trkpt>
      <trkpt lat="48.86986" lon="2.33079">
        <ele>91.4</ele>
        <time>2015-03-23T19:35:43.130Z</time>
      </trkpt>
      <trkpt lat="48.87086" lon="2.32951">
        <ele>91.5</ele>
        <time>2015-03-23T19:35:44.155Z</time>
      </trkpt>
      <trkpt lat="48.87204" lon="2.32802">
        <ele>91.6</ele>
        <time>2015-03-23T19:35:45.167Z</time>
      </trkpt>
      <trkpt lat="48.87304" lon="2.32675">
        <ele>91.7</ele>
        <time>2015-03-23T19:35:46.181Z</time>
      </trkpt>
      <trkpt lat="48.87304" lon="2.32675">
        <ele>91.7</ele>
        <time>2015-03-23T19:35:44.861Z</time>
      </trkpt>
      <trkpt lat="48.87375" lon="2.32586">
        <ele>91.9</ele>
        <time>2015-03-23T19:35:47.197Z</time>
      </trkpt>
      <trkpt lat="48.87452" lon="2.3249">
        <ele>92.1</ele>
        <time>2015-03-23T19:35:48.091Z</time>
      </trkpt>
      <trkpt lat="48.8779" lon="2.32071">
        <ele>92.2</ele>
        <time>2015-03-23T19:35:49.156Z</time>
      </trkpt>
      <trkpt lat="48.87798" lon="2.32065">
        <ele>92.6</ele>
        <time>2015-03-23T19:35:51.196Z</time>
      </trkpt>
      <trkpt lat="48.87802" lon="2.32062">
        <ele>92.7</ele>
        <time>2015-03-23T19:35:52.122Z</time>
      </trkpt>
      <trkpt lat="48.87809" lon="2.32054">
        <ele>92.8</ele>
        <time>2015-03-23T19:35:55.076Z</time>
      </trkpt>
      <trkpt lat="48.87812" lon="2.3205">
        <ele>92.9</ele>
        <time>2015-03-23T19:35:55.170Z</time>
      </trkpt>
      <trkpt lat="48.87818" lon="2.32044">
        <ele>92.9</ele>
        <time>2015-03-23T19:35:57.122Z</time>
      </trkpt>
      <trkpt lat="48.87738" lon="2.32141">
        <ele>93</ele>
        <time>2015-03-23T19:36:01.176Z</time>
      </trkpt>
      <trkpt lat="48.87752" lon="2.32124">
        <ele>93</ele>
        <time>2015-03-23T19:36:02.229Z</time>
      </trkpt>
      <trkpt lat="48.87765" lon="2.32109">
        <ele>93</ele>
        <time>2015-03-23T19:36:03.113Z</time>
      </trkpt>
      <trkpt lat="48.87777" lon="2.32095">
        <ele>93.1</ele>
        <time>2015-03-23T19:36:04.119Z</time>
      </trkpt>
      <trkpt lat="48.87787" lon="2.32082">
        <ele>93.3</ele>
        <time>2015-03-23T19:36:05.129Z</time>
      </trkpt>
      <trkpt lat="48.87787" lon="2.32082">
        <ele>93.3</ele>
        <time>2015-03-23T19:36:05.894Z</time>
      </trkpt>
      <trkpt lat="48.87796" lon="2.32071">
        <ele>93.5</ele>
        <time>2015-03-23T19:36:06.166Z</time>
      </trkpt>
      <trkpt lat="48.87805" lon="2.32059">
        <ele>93.7</ele>
        <time>2015-03-23T19:36:07.182Z</time>
      </trkpt>
      <trkpt lat="48.8781" lon="2.32051">
        <ele>94.1</ele>
        <time>2015-03-23T19:36:08.181Z</time>
      </trkpt>
      <trkpt lat="48.87814" lon="2.32044">
        <ele>94.4</ele>
        <time>2015-03-23T19:36:09.191Z</time>
      </trkpt>
      <trkpt lat="48.87818" lon="2.32037">
        <ele>94.7</ele>
        <time>2015-03-23T19:36:10.967Z</time>
      </trkpt>
      <trkpt lat="48.8782" lon="2.32031">
        <ele>94.8</ele>
        <time>2015-03-23T19:36:11.096Z</time>
      </trkpt>
      <trkpt lat="48.87823" lon="2.32025">
        <ele>94.9</ele>
        <time>2015-03-23T19:36:12.103Z</time>
      </trkpt>
      <trkpt lat="48.87825" lon="2.32019">
        <ele>94.9</ele>
        <time>2015-03-23T19:36:13.119Z</time>
      </trkpt>
      <trkpt lat="48.87828" lon="2.32008">
        <ele>95</ele>
        <time>2015-03-23T19:36:16.335Z</time>
      </trkpt>
      <trkpt lat="48.87829" lon="2.32007">
        <ele>95</ele>
        <time>2015-03-23T19:36:17.111Z</time>
      </trkpt>
      <trkpt lat="48.87825" lon="2.31995">
        <ele>99.5</ele>
        <time>2015-03-23T19:36:32.200Z</time>
      </trkpt>
      <trkpt lat="48.87824" lon="2.31994">
        <ele>99.5</ele>
        <time>2015-03-23T19:36:33.208Z</time>
      </trkpt>
      <trkpt lat="48.8782" lon="2.31983">
        <ele>99.6</ele>
        <time>2015-03-23T19:37:06.191Z</time>
      </trkpt>
      <trkpt lat="48.87819" lon="2.3198">
        <ele>99.5</ele>
        <time>2015-03-23T19:37:07.328Z</time>
      </trkpt>
      <trkpt lat="48.87817" lon="2.31968">
        <ele>98.8</ele>
        <time>2015-03-23T19:37:22.185Z</time>
      </trkpt>
      <trkpt lat="48.87817" lon="2.31966">
        <ele>98.7</ele>
        <time>2015-03-23T19:37:23.101Z</time>
      </trkpt>
      <trkpt lat="48.87822" lon="2.31957">
        <ele>98.3</ele>
        <time>2015-03-23T19:37:35.023Z</time>
      </trkpt>
      <trkpt lat="48.87825" lon="2.31954">
        <ele>98.2</ele>
        <time>2015-03-23T19:37:35.085Z</time>
      </trkpt>
      <trkpt lat="48.87825" lon="2.31954">
        <ele>98.2</ele>
        <time>2015-03-23T19:37:45.268Z</time>
      </trkpt>
      <trkpt lat="48.87966" lon="2.31865">
        <ele>99.2</ele>
        <time>2015-03-23T19:37:52.148Z</time>
      </trkpt>
      <trkpt lat="48.87961" lon="2.3186">
        <ele>99.3</ele>
        <time>2015-03-23T19:37:53.184Z</time>
      </trkpt>
      <trkpt lat="48.87951" lon="2.31854">
        <ele>99.3</ele>
        <time>2015-03-23T19:37:54.081Z</time>
      </trkpt>
      <trkpt lat="48.87944" lon="2.3185">
        <ele>99.3</ele>
        <time>2015-03-23T19:37:55.366Z</time>
      </trkpt>
      <trkpt lat="48.87938" lon="2.31846">
        <ele>99.3</ele>
        <time>2015-03-23T19:37:56.126Z</time>
      </trkpt>
      <trkpt lat="48.87933" lon="2.31835">
        <ele>99.2</ele>
        <time>2015-03-23T19:37:59.155Z</time>
      </trkpt>
      <trkpt lat="48.87932" lon="2.31831">
        <ele>99.2</ele>
        <time>2015-03-23T19:38:00.217Z</time>
      </trkpt>
      <trkpt lat="48.87929" lon="2.3182">
        <ele>99.1</ele>
        <time>2015-03-23T19:38:03.209Z</time>
      </trkpt>
      <trkpt lat="48.87929" lon="2.31817">
        <ele>99</ele>
        <time>2015-03-23T19:38:04.106Z</time>
      </trkpt>
      <trkpt lat="48.87928" lon="2.31806">
        <ele>98.7</ele>
        <time>2015-03-23T19:38:08.104Z</time>
      </trkpt>
      <trkpt lat="48.87926" lon="2.31803">
        <ele>98.7</ele>
        <time>2015-03-23T19:38:09.128Z</time>
      </trkpt>
      <trkpt lat="48.87927" lon="2.31791">
        <ele>98.4</ele>
        <time>2015-03-23T19:38:13.147Z</time>
      </trkpt>
      <trkpt lat="48.88044" lon="2.31713">
        <ele>98.6</ele>
        <time>2015-03-23T19:38:47.172Z</time>
      </trkpt>
      <trkpt lat="48.88052" lon="2.31708">
        <ele>98.8</ele>
        <time>2015-03-23T19:38:49.117Z</time>
      </trkpt>
      <trkpt lat="48.88055" lon="2.31706">
        <ele>98.8</ele>
        <time>2015-03-23T19:38:50.116Z</time>
      </trkpt>
      <trkpt lat="48.88058" lon="2.31705">
        <ele>98.9</ele>
        <time>2015-03-23T19:38:51.123Z</time>
      </trkpt>
      <trkpt lat="48.88064" lon="2.31704">
        <ele>99.1</ele>
        <time>2015-03-23T19:38:52.134Z</time>
      </trkpt>
      <trkpt lat="48.88062" lon="2.31701">
        <ele>99.1</ele>
        <time>2015-03-23T19:39:00.248Z</time>
      </trkpt>
      <trkpt lat="48.88062" lon="2.31702">
        <ele>99.2</ele>
        <time>2015-03-23T19:39:01.154Z</time>
      </trkpt>
      <trkpt lat="48.88061" lon="2.31704">
        <ele>99.2</ele>
        <time>2015-03-23T19:39:02.188Z</time>
      </trkpt>
      <trkpt lat="48.88059" lon="2.31707">
        <ele>99.3</ele>
        <time>2015-03-23T19:39:08.072Z</time>
      </trkpt>
      <trkpt lat="48.88059" lon="2.31706">
        <ele>99.4</ele>
        <time>2015-03-23T19:39:09.075Z</time>
      </trkpt>
      <trkpt lat="48.88059" lon="2.31706">
        <ele>99.4</ele>
        <time>2015-03-23T19:39:10.082Z</time>
      </trkpt>
      <trkpt lat="48.88065" lon="2.31701">
        <ele>101.3</ele>
        <time>2015-03-23T19:39:31.134Z</time>
      </trkpt>
      <trkpt lat="48.88067" lon="2.31698">
        <ele>101.5</ele>
        <time>2015-03-23T19:39:32.128Z</time>
      </trkpt>
      <trkpt lat="48.88069" lon="2.31687">
        <ele>101.2</ele>
        <time>2015-03-23T19:39:36.114Z</time>
      </trkpt>
      <trkpt lat="48.88069" lon="2.31683">
        <ele>101.1</ele>
        <time>2015-03-23T19:39:37.119Z</time>
      </trkpt>
      <trkpt lat="48.88066" lon="2.31671">
        <ele>101.3</ele>
        <time>2015-03-23T19:39:41.136Z</time>
      </trkpt>
      <trkpt lat="48.88065" lon="2.31668">
        <ele>101.3</ele>
        <time>2015-03-23T19:39:42.156Z</time>
      </trkpt>
      <trkpt lat="48.88064" lon="2.31665">
        <ele>101.4</ele>
        <time>2015-03-23T19:39:43.843Z</time>
      </trkpt>
      <trkpt lat="48.88055" lon="2.31642">
        <ele>100.2</ele>
        <time>2015-03-23T19:39:51.076Z</time>
      </trkpt>
      <trkpt lat="48.88048" lon="2.31636">
        <ele>99.9</ele>
        <time>2015-03-23T19:39:53.121Z</time>
      </trkpt>
      <trkpt lat="48.88045" lon="2.31633">
        <ele>99.6</ele>
        <time>2015-03-23T19:39:54.137Z</time>
      </trkpt>
      <trkpt lat="48.8804" lon="2.31627">
        <ele>99.1</ele>
        <time>2015-03-23T19:39:56.069Z</time>
      </trkpt>
      <trkpt lat="48.88036" lon="2.31623">
        <ele>98.8</ele>
        <time>2015-03-23T19:39:57.068Z</time>
      </trkpt>
      <trkpt lat="48.8803" lon="2.31616">
        <ele>98.4</ele>
        <time>2015-03-23T19:39:59.081Z</time>
      </trkpt>
      <trkpt lat="48.88027" lon="2.31613">
        <ele>99</ele>
        <time>2015-03-23T19:40:00.118Z</time>
      </trkpt>
      <trkpt lat="48.88022" lon="2.31603">
        <ele>99.2</ele>
        <time>2015-03-23T19:40:02.130Z</time>
      </trkpt>
      <trkpt lat="48.8802" lon="2.31599">
        <ele>99.4</ele>
        <time>2015-03-23T19:40:03.180Z</time>
      </trkpt>
      <trkpt lat="48.88017" lon="2.3159">
        <ele>99.8</ele>
        <time>2015-03-23T19:40:05.088Z</time>
      </trkpt>
      <trkpt lat="48.88015" lon="2.31585">
        <ele>99.6</ele>
        <time>2015-03-23T19:40:06.088Z</time>
      </trkpt>
      <trkpt lat="48.8801" lon="2.31574">
        <ele>100.8</ele>
        <time>2015-03-23T19:40:08.357Z</time>
      </trkpt>
      <trkpt lat="48.88009" lon="2.31569">
        <ele>100.6</ele>
        <time>2015-03-23T19:40:09.113Z</time>
      </trkpt>
      <trkpt lat="48.88006" lon="2.31559">
        <ele>99.7</ele>
        <time>2015-03-23T19:40:11.303Z</time>
      </trkpt>
      <trkpt lat="48.88005" lon="2.31554">
        <ele>98.6</ele>
        <time>2015-03-23T19:40:12.136Z</time>
      </trkpt>
      <trkpt lat="48.87999" lon="2.31546">
        <ele>98.1</ele>
        <time>2015-03-23T19:40:14.194Z</time>
      </trkpt>
      <trkpt lat="48.87997" lon="2.31542">
        <ele>96</ele>
        <time>2015-03-23T19:40:15.105Z</time>
      </trkpt>
      <trkpt lat="48.87995" lon="2.31537">
        <ele>94.6</ele>
        <time>2015-03-23T19:40:15.859Z</time>
      </trkpt>
      <trkpt lat="48.87991" lon="2.31532">
        <ele>96.6</ele>
        <time>2015-03-23T19:40:17.125Z</time>
      </trkpt>
      <trkpt lat="48.87985" lon="2.31524">
        <ele>96.9</ele>
        <time>2015-03-23T19:40:19.219Z</time>
      </trkpt>
      <trkpt lat="48.87983" lon="2.31519">
        <ele>96.5</ele>
        <time>2015-03-23T19:40:20.180Z</time>
      </trkpt>
      <trkpt lat="48.87977" lon="2.3151">
        <ele>97.1</ele>
        <time>2015-03-23T19:40:22.133Z</time>
      </trkpt>
      <trkpt lat="48.87974" lon="2.31505">
        <ele>97.1</ele>
        <time>2015-03-23T19:40:23.150Z</time>
      </trkpt>
      <trkpt lat="48.87968" lon="2.31496">
        <ele>97</ele>
        <time>2015-03-23T19:40:25.171Z</time>
      </trkpt>
      <trkpt lat="48.87961" lon="2.31479">
        <ele>97.2</ele>
        <time>2015-03-23T19:40:29.101Z</time>
      </trkpt>
      <trkpt lat="48.87957" lon="2.31468">
        <ele>97.4</ele>
        <time>2015-03-23T19:40:31.251Z</time>
      </trkpt>
      <trkpt lat="48.87957" lon="2.31462">
        <ele>97.5</ele>
        <time>2015-03-23T19:40:32.095Z</time>
      </trkpt>
      <trkpt lat="48.87954" lon="2.3145">
        <ele>96.7</ele>
        <time>2015-03-23T19:40:34.152Z</time>
      </trkpt>
      <trkpt lat="48.87952" lon="2.31444">
        <ele>96.6</ele>
        <time>2015-03-23T19:40:35.163Z</time>
      </trkpt>
      <trkpt lat="48.8795" lon="2.31434">
        <ele>96.9</ele>
        <time>2015-03-23T19:40:37.214Z</time>
      </trkpt>
      <trkpt lat="48.87952" lon="2.31427">
        <ele>97.2</ele>
        <time>2015-03-23T19:40:38.270Z</time>
      </trkpt>
      <trkpt lat="48.87946" lon="2.31419">
        <ele>98.1</ele>
        <time>2015-03-23T19:40:40.188Z</time>
      </trkpt>
      <trkpt lat="48.87944" lon="2.31417">
        <ele>99.2</ele>
        <time>2015-03-23T19:40:41.115Z</time>
      </trkpt>
      <trkpt lat="48.87948" lon="2.31411">
        <ele>100.4</ele>
        <time>2015-03-23T19:40:45.090Z</time>
      </trkpt>
      <trkpt lat="48.87948" lon="2.31412">
        <ele>100.7</ele>
        <time>2015-03-23T19:40:46.097Z</time>
      </trkpt>
      <trkpt lat="48.87947" lon="2.31413">
        <ele>101.2</ele>
        <time>2015-03-23T19:40:47.121Z</time>
      </trkpt>
      <trkpt lat="48.87945" lon="2.31415">
        <ele>101.8</ele>
        <time>2015-03-23T19:40:53.104Z</time>
      </trkpt>
      <trkpt lat="48.87939" lon="2.31422">
        <ele>104.7</ele>
        <time>2015-03-23T19:40:54.142Z</time>
      </trkpt>
      <trkpt lat="48.87936" lon="2.31411">
        <ele>103.5</ele>
        <time>2015-03-23T19:41:01.159Z</time>
      </trkpt>
      <trkpt lat="48.87935" lon="2.31408">
        <ele>103.2</ele>
        <time>2015-03-23T19:41:02.158Z</time>
      </trkpt>
      <trkpt lat="48.8793" lon="2.31398">
        <ele>102.6</ele>
        <time>2015-03-23T19:41:06.104Z</time>
      </trkpt>
      <trkpt lat="48.87929" lon="2.31395">
        <ele>102.4</ele>
        <time>2015-03-23T19:41:07.146Z</time>
      </trkpt>
      <trkpt lat="48.87925" lon="2.31385">
        <ele>102.1</ele>
        <time>2015-03-23T19:41:11.091Z</time>
      </trkpt>
      <trkpt lat="48.87924" lon="2.31382">
        <ele>102.2</ele>
        <time>2015-03-23T19:41:12.269Z</time>
      </trkpt>
      <trkpt lat="48.8797" lon="2.31497">
        <ele>102.4</ele>
        <time>2015-03-23T19:41:13.154Z</time>
      </trkpt>
      <trkpt lat="48.87955" lon="2.31459">
        <ele>102.4</ele>
        <time>2015-03-23T19:41:14.168Z</time>
      </trkpt>
      <trkpt lat="48.87945" lon="2.31433">
        <ele>102.2</ele>
        <time>2015-03-23T19:41:15.186Z</time>
      </trkpt>
      <trkpt lat="48.87945" lon="2.31433">
        <ele>102.2</ele>
        <time>2015-03-23T19:41:16.055Z</time>
      </trkpt>
      <trkpt lat="48.87938" lon="2.31415">
        <ele>102</ele>
        <time>2015-03-23T19:41:16.183Z</time>
      </trkpt>
      <trkpt lat="48.87933" lon="2.31401">
        <ele>102</ele>
        <time>2015-03-23T19:41:17.197Z</time>
      </trkpt>
      <trkpt lat="48.87928" lon="2.31389">
        <ele>102</ele>
        <time>2015-03-23T19:41:18.122Z</time>
      </trkpt>
      <trkpt lat="48.87925" lon="2.3138">
        <ele>102.1</ele>
        <time>2015-03-23T19:41:19.141Z</time>
      </trkpt>
      <trkpt lat="48.87922" lon="2.31372">
        <ele>102.1</ele>
        <time>2015-03-23T19:41:20.109Z</time>
      </trkpt>
      <trkpt lat="48.87917" lon="2.31362">
        <ele>102.5</ele>
        <time>2015-03-23T19:41:22.118Z</time>
      </trkpt>
      <trkpt lat="48.87915" lon="2.31357">
        <ele>102.5</ele>
        <time>2015-03-23T19:41:23.148Z</time>
      </trkpt>
      <trkpt lat="48.87912" lon="2.3135">
        <ele>102.4</ele>
        <time>2015-03-23T19:41:26.140Z</time>
      </trkpt>
      <trkpt lat="48.8791" lon="2.31346">
        <ele>102.4</ele>
        <time>2015-03-23T19:41:26.194Z</time>
      </trkpt>
      <trkpt lat="48.87907" lon="2.31338">
        <ele>102.5</ele>
        <time>2015-03-23T19:41:28.164Z</time>
      </trkpt>
      <trkpt lat="48.87906" lon="2.31332">
        <ele>102.5</ele>
        <time>2015-03-23T19:41:29.187Z</time>
      </trkpt>
      <trkpt lat="48.87904" lon="2.31323">
        <ele>102.4</ele>
        <time>2015-03-23T19:41:31.165Z</time>
      </trkpt>
      <trkpt lat="48.87902" lon="2.31318">
        <ele>102.4</ele>
        <time>2015-03-23T19:41:32.172Z</time>
      </trkpt>
      <trkpt lat="48.87899" lon="2.3131">
        <ele>102.3</ele>
        <time>2015-03-23T19:41:35.044Z</time>
      </trkpt>
      <trkpt lat="48.87897" lon="2.31305">
        <ele>102.1</ele>
        <time>2015-03-23T19:41:35.122Z</time>
      </trkpt>
      <trkpt lat="48.87895" lon="2.313">
        <ele>101.9</ele>
        <time>2015-03-23T19:41:36.103Z</time>
      </trkpt>
      <trkpt lat="48.87892" lon="2.31292">
        <ele>101.2</ele>
        <time>2015-03-23T19:41:37.132Z</time>
      </trkpt>
      <trkpt lat="48.87889" lon="2.31286">
        <ele>101.1</ele>
        <time>2015-03-23T19:41:38.127Z</time>
      </trkpt>
      <trkpt lat="48.8788" lon="2.31264">
        <ele>101.1</ele>
        <time>2015-03-23T19:41:39.162Z</time>
      </trkpt>
      <trkpt lat="48.87878" lon="2.31257">
        <ele>100.9</ele>
        <time>2015-03-23T19:41:40.170Z</time>
      </trkpt>
      <trkpt lat="48.87876" lon="2.3125">
        <ele>100.7</ele>
        <time>2015-03-23T19:41:41.192Z</time>
      </trkpt>
      <trkpt lat="48.87872" lon="2.31244">
        <ele>100.3</ele>
        <time>2015-03-23T19:41:42.117Z</time>
      </trkpt>
      <trkpt lat="48.87866" lon="2.31239">
        <ele>99.4</ele>
        <time>2015-03-23T19:41:43.146Z</time>
      </trkpt>
      <trkpt lat="48.87863" lon="2.31233">
        <ele>99.2</ele>
        <time>2015-03-23T19:41:44.096Z</time>
      </trkpt>
      <trkpt lat="48.8786" lon="2.31228">
        <ele>98.9</ele>
        <time>2015-03-23T19:41:45.110Z</time>
      </trkpt>
      <trkpt lat="48.87858" lon="2.31221">
        <ele>98.6</ele>
        <time>2015-03-23T19:41:46.119Z</time>
      </trkpt>
      <trkpt lat="48.87855" lon="2.31215">
        <ele>98.4</ele>
        <time>2015-03-23T19:41:47.144Z</time>
      </trkpt>
      <trkpt lat="48.8785" lon="2.31204">
        <ele>98.3</ele>
        <time>2015-03-23T19:41:49.175Z</time>
      </trkpt>
      <trkpt lat="48.87847" lon="2.312">
        <ele>98.2</ele>
        <time>2015-03-23T19:41:50.089Z</time>
      </trkpt>
      <trkpt lat="48.87845" lon="2.3119">
        <ele>98</ele>
        <time>2015-03-23T19:41:52.103Z</time>
      </trkpt>
      <trkpt lat="48.87843" lon="2.31186">
        <ele>98.1</ele>
        <time>2015-03-23T19:41:53.110Z</time>
      </trkpt>
      <trkpt lat="48.87851" lon="2.31202">
        <ele>98</ele>
        <time>2015-03-23T19:41:54.130Z</time>
      </trkpt>
      <trkpt lat="48.87849" lon="2.31197">
        <ele>97.9</ele>
        <time>2015-03-23T19:41:55.136Z</time>
      </trkpt>
      <trkpt lat="48.87846" lon="2.3119">
        <ele>97.7</ele>
        <time>2015-03-23T19:41:56.146Z</time>
      </trkpt>
      <trkpt lat="48.87842" lon="2.31184">
        <ele>97.5</ele>
        <time>2015-03-23T19:41:57.212Z</time>
      </trkpt>
      <trkpt lat="48.87839" lon="2.31178">
        <ele>97.4</ele>
        <time>2015-03-23T19:41:58.099Z</time>
      </trkpt>
      <trkpt lat="48.87836" lon="2.31171">
        <ele>97.3</ele>
        <time>2015-03-23T19:41:59.103Z</time>
      </trkpt>
      <trkpt lat="48.87834" lon="2.31164">
        <ele>97.3</ele>
        <time>2015-03-23T19:42:00.131Z</time>
      </trkpt>
      <trkpt lat="48.87832" lon="2.31158">
        <ele>97.3</ele>
        <time>2015-03-23T19:42:01.143Z</time>
      </trkpt>
      <trkpt lat="48.8783" lon="2.31148">
        <ele>97.5</ele>
        <time>2015-03-23T19:42:02.156Z</time>
      </trkpt>
      <trkpt lat="48.87828" lon="2.3114">
        <ele>97.9</ele>
        <time>2015-03-23T19:42:03.181Z</time>
      </trkpt>
      <trkpt lat="48.87827" lon="2.31133">
        <ele>98.2</ele>
        <time>2015-03-23T19:42:04.190Z</time>
      </trkpt>
      <trkpt lat="48.87826" lon="2.31122">
        <ele>98.6</ele>
        <time>2015-03-23T19:42:06.781Z</time>
      </trkpt>
      <trkpt lat="48.87825" lon="2.31116">
        <ele>98.8</ele>
        <time>2015-03-23T19:42:07.144Z</time>
      </trkpt>
      <trkpt lat="48.87824" lon="2.31107">
        <ele>99.1</ele>
        <time>2015-03-23T19:42:09.176Z</time>
      </trkpt>
      <trkpt lat="48.87823" lon="2.31102">
        <ele>99.3</ele>
        <time>2015-03-23T19:42:10.191Z</time>
      </trkpt>
      <trkpt lat="48.87821" lon="2.31089">
        <ele>100.7</ele>
        <time>2015-03-23T19:42:14.320Z</time>
      </trkpt>
      <trkpt lat="48.8782" lon="2.31086">
        <ele>101.5</ele>
        <time>2015-03-23T19:42:15.074Z</time>
      </trkpt>
      <trkpt lat="48.87817" lon="2.31079">
        <ele>103.6</ele>
        <time>2015-03-23T19:42:18.179Z</time>
      </trkpt>
      <trkpt lat="48.87813" lon="2.31076">
        <ele>102.7</ele>
        <time>2015-03-23T19:42:19.176Z</time>
      </trkpt>
      <trkpt lat="48.87805" lon="2.31074">
        <ele>102.7</ele>
        <time>2015-03-23T19:42:22.186Z</time>
      </trkpt>
      <trkpt lat="48.87804" lon="2.31074">
        <ele>102.7</ele>
        <time>2015-03-23T19:42:23.175Z</time>
      </trkpt>
      <trkpt lat="48.87798" lon="2.31074">
        <ele>102.8</ele>
        <time>2015-03-23T19:42:30.138Z</time>
      </trkpt>
      <trkpt lat="48.87793" lon="2.31074">
        <ele>102.8</ele>
        <time>2015-03-23T19:42:31.152Z</time>
      </trkpt>
      <trkpt lat="48.87785" lon="2.31073">
        <ele>105.8</ele>
        <time>2015-03-23T19:42:45.254Z</time>
      </trkpt>
      <trkpt lat="48.87784" lon="2.31073">
        <ele>105.8</ele>
        <time>2015-03-23T19:42:46.164Z</time>
      </trkpt>
      <trkpt lat="48.8778" lon="2.31073">
        <ele>105.8</ele>
        <time>2015-03-23T19:42:49.167Z</time>
      </trkpt>
      <trkpt lat="48.87773" lon="2.31072">
        <ele>105.8</ele>
        <time>2015-03-23T19:42:50.282Z</time>
      </trkpt>
      <trkpt lat="48.87772" lon="2.31061">
        <ele>101.1</ele>
        <time>2015-03-23T19:43:13.135Z</time>
      </trkpt>
      <trkpt lat="48.87772" lon="2.31057">
        <ele>101</ele>
        <time>2015-03-23T19:43:14.161Z</time>
      </trkpt>
      <trkpt lat="48.87774" lon="2.31045">
        <ele>100.5</ele>
        <time>2015-03-23T19:43:16.077Z</time>
      </trkpt>
      <trkpt lat="48.87775" lon="2.31042">
        <ele>100.3</ele>
        <time>2015-03-23T19:43:17.111Z</time>
      </trkpt>
      <trkpt lat="48.87779" lon="2.3103">
        <ele>99.1</ele>
        <time>2015-03-23T19:43:23.132Z</time>
      </trkpt>
      <trkpt lat="48.87779" lon="2.31028">
        <ele>99</ele>
        <time>2015-03-23T19:43:24.142Z</time>
      </trkpt>
      <trkpt lat="48.87775" lon="2.31016">
        <ele>98.1</ele>
        <time>2015-03-23T19:43:29.883Z</time>
      </trkpt>
      <trkpt lat="48.87773" lon="2.31012">
        <ele>97.9</ele>
        <time>2015-03-23T19:43:30.169Z</time>
      </trkpt>
      <trkpt lat="48.87768" lon="2.31004">
        <ele>97.5</ele>
        <time>2015-03-23T19:43:32.102Z</time>
      </trkpt>
      <trkpt lat="48.87766" lon="2.31001">
        <ele>97.4</ele>
        <time>2015-03-23T19:43:33.102Z</time>
      </trkpt>
      <trkpt lat="48.8776" lon="2.30994">
        <ele>97.3</ele>
        <time>2015-03-23T19:43:35.122Z</time>
      </trkpt>
      <trkpt lat="48.87757" lon="2.30991">
        <ele>97.3</ele>
        <time>2015-03-23T19:43:36.131Z</time>
      </trkpt>
      <trkpt lat="48.8775" lon="2.30984">
        <ele>97.6</ele>
        <time>2015-03-23T19:43:39.093Z</time>
      </trkpt>
      <trkpt lat="48.87747" lon="2.30982">
        <ele>97.7</ele>
        <time>2015-03-23T19:43:40.131Z</time>
      </trkpt>
      <trkpt lat="48.87743" lon="2.30977">
        <ele>98</ele>
        <time>2015-03-23T19:43:42.160Z</time>
      </trkpt>
      <trkpt lat="48.8774" lon="2.30973">
        <ele>98.2</ele>
        <time>2015-03-23T19:43:43.178Z</time>
      </trkpt>
      <trkpt lat="48.87734" lon="2.30967">
        <ele>98.4</ele>
        <time>2015-03-23T19:43:45.176Z</time>
      </trkpt>
      <trkpt lat="48.87731" lon="2.30965">
        <ele>98.4</ele>
        <time>2015-03-23T19:43:46.088Z</time>
      </trkpt>
      <trkpt lat="48.87726" lon="2.30959">
        <ele>98.9</ele>
        <time>2015-03-23T19:43:49.147Z</time>
      </trkpt>
      <trkpt lat="48.87724" lon="2.30955">
        <ele>99.1</ele>
        <time>2015-03-23T19:43:50.161Z</time>
      </trkpt>
      <trkpt lat="48.8772" lon="2.30947">
        <ele>99.2</ele>
        <time>2015-03-23T19:43:52.092Z</time>
      </trkpt>
      <trkpt lat="48.87718" lon="2.30944">
        <ele>99.2</ele>
        <time>2015-03-23T19:43:53.100Z</time>
      </trkpt>
      <trkpt lat="48.87715" lon="2.30935">
        <ele>99</ele>
        <time>2015-03-23T19:43:55.334Z</time>
      </trkpt>
      <trkpt lat="48.87713" lon="2.30931">
        <ele>98.8</ele>
        <time>2015-03-23T19:43:56.154Z</time>
      </trkpt>
      <trkpt lat="48.87708" lon="2.30921">
        <ele>96.7</ele>
        <time>2015-03-23T19:43:58.173Z</time>
      </trkpt>
      <trkpt lat="48.87705" lon="2.30917">
        <ele>96.5</ele>
        <time>2015-03-23T19:43:59.117Z</time>
      </trkpt>
      <trkpt lat="48.87701" lon="2.30907">
        <ele>96.8</ele>
        <time>2015-03-23T19:44:01.205Z</time>
      </trkpt>
      <trkpt lat="48.87699" lon="2.30902">
        <ele>97</ele>
        <time>2015-03-23T19:44:02.080Z</time>
      </trkpt>
      <trkpt lat="48.87694" lon="2.30891">
        <ele>97.5</ele>
        <time>2015-03-23T19:44:04.104Z</time>
      </trkpt>
      <trkpt lat="48.87691" lon="2.30886">
        <ele>97.6</ele>
        <time>2015-03-23T19:44:05.117Z</time>
      </trkpt>
      <trkpt lat="48.87688" lon="2.30877">
        <ele>97.5</ele>
        <time>2015-03-23T19:44:07.142Z</time>
      </trkpt>
      <trkpt lat="48.87686" lon="2.30873">
        <ele>97.3</ele>
        <time>2015-03-23T19:44:08.153Z</time>
      </trkpt>
      <trkpt lat="48.87682" lon="2.30861">
        <ele>97.4</ele>
        <time>2015-03-23T19:44:11.117Z</time>
      </trkpt>
      <trkpt lat="48.8768" lon="2.30857">
        <ele>97.4</ele>
        <time>2015-03-23T19:44:12.151Z</time>
      </trkpt>
      <trkpt lat="48.87675" lon="2.30847">
        <ele>97.7</ele>
        <time>2015-03-23T19:44:14.190Z</time>
      </trkpt>
      <trkpt lat="48.87673" lon="2.30844">
        <ele>97.7</ele>
        <time>2015-03-23T19:44:15.089Z</time>
      </trkpt>
      <trkpt lat="48.87668" lon="2.30833">
        <ele>97.8</ele>
        <time>2015-03-23T19:44:18.171Z</time>
      </trkpt>
      <trkpt lat="48.87667" lon="2.30831">
        <ele>97.7</ele>
        <time>2015-03-23T19:44:19.190Z</time>
      </trkpt>
      <trkpt lat="48.87664" lon="2.3082">
        <ele>98.2</ele>
        <time>2015-03-23T19:44:24.144Z</time>
      </trkpt>
      <trkpt lat="48.87663" lon="2.30812">
        <ele>98.4</ele>
        <time>2015-03-23T19:44:25.171Z</time>
      </trkpt>
      <trkpt lat="48.87657" lon="2.30805">
        <ele>100.7</ele>
        <time>2015-03-23T19:44:33.159Z</time>
      </trkpt>
      <trkpt lat="48.87656" lon="2.30802">
        <ele>102.1</ele>
        <time>2015-03-23T19:44:34.101Z</time>
      </trkpt>
      <trkpt lat="48.87656" lon="2.3079">
        <ele>103.5</ele>
        <time>2015-03-23T19:44:38.223Z</time>
      </trkpt>
      <trkpt lat="48.87658" lon="2.30788">
        <ele>103.7</ele>
        <time>2015-03-23T19:44:39.094Z</time>
      </trkpt>
      <trkpt lat="48.87662" lon="2.30781">
        <ele>104.3</ele>
        <time>2015-03-23T19:44:41.105Z</time>
      </trkpt>
      <trkpt lat="48.87665" lon="2.30778">
        <ele>104.8</ele>
        <time>2015-03-23T19:44:42.121Z</time>
      </trkpt>
      <trkpt lat="48.8767" lon="2.30772">
        <ele>105</ele>
        <time>2015-03-23T19:44:44.167Z</time>
      </trkpt>
      <trkpt lat="48.87673" lon="2.30769">
        <ele>105.1</ele>
        <time>2015-03-23T19:44:45.205Z</time>
      </trkpt>
      <trkpt lat="48.8768" lon="2.30763">
        <ele>105.3</ele>
        <time>2015-03-23T19:44:47.083Z</time>
      </trkpt>
      <trkpt lat="48.87683" lon="2.3076">
        <ele>105.3</ele>
        <time>2015-03-23T19:44:48.106Z</time>
      </trkpt>
      <trkpt lat="48.87696" lon="2.30751">
        <ele>105.4</ele>
        <time>2015-03-23T19:44:49.128Z</time>
      </trkpt>
      <trkpt lat="48.87704" lon="2.30745">
        <ele>105.5</ele>
        <time>2015-03-23T19:44:51.175Z</time>
      </trkpt>
      <trkpt lat="48.87705" lon="2.30742">
        <ele>105.7</ele>
        <time>2015-03-23T19:44:52.189Z</time>
      </trkpt>
      <trkpt lat="48.87702" lon="2.30734">
        <ele>106.3</ele>
        <time>2015-03-23T19:44:55.185Z</time>
      </trkpt>
      <trkpt lat="48.87699" lon="2.30731">
        <ele>106.3</ele>
        <time>2015-03-23T19:44:56.106Z</time>
      </trkpt>
      <trkpt lat="48.87701" lon="2.30718">
        <ele>108.1</ele>
        <time>2015-03-23T19:45:03.257Z</time>
      </trkpt>
      <trkpt lat="48.87702" lon="2.30714">
        <ele>108.1</ele>
        <time>2015-03-23T19:45:05.197Z</time>
      </trkpt>
      <trkpt lat="48.87704" lon="2.30701">
        <ele>109</ele>
        <time>2015-03-23T19:45:08.270Z</time>
      </trkpt>
      <trkpt lat="48.87705" lon="2.30696">
        <ele>109.3</ele>
        <time>2015-03-23T19:45:09.145Z</time>
      </trkpt>
      <trkpt lat="48.87706" lon="2.30687">
        <ele>109.8</ele>
        <time>2015-03-23T19:45:11.206Z</time>
      </trkpt>
      <trkpt lat="48.87706" lon="2.30681">
        <ele>110</ele>
        <time>2015-03-23T19:45:12.105Z</time>
      </trkpt>
      <trkpt lat="48.87708" lon="2.30671">
        <ele>110.3</ele>
        <time>2015-03-23T19:45:14.138Z</time>
      </trkpt>
      <trkpt lat="48.8771" lon="2.30667">
        <ele>110.4</ele>
        <time>2015-03-23T19:45:15.150Z</time>
      </trkpt>
      <trkpt lat="48.87715" lon="2.30658">
        <ele>110.8</ele>
        <time>2015-03-23T19:45:17.065Z</time>
      </trkpt>
      <trkpt lat="48.87731" lon="2.3063">
        <ele>110.9</ele>
        <time>2015-03-23T19:45:18.090Z</time>
      </trkpt>
      <trkpt lat="48.87737" lon="2.30624">
        <ele>111</ele>
        <time>2015-03-23T19:45:19.151Z</time>
      </trkpt>
      <trkpt lat="48.87742" lon="2.30618">
        <ele>111.2</ele>
        <time>2015-03-23T19:45:20.172Z</time>
      </trkpt>
      <trkpt lat="48.87747" lon="2.30612">
        <ele>111.4</ele>
        <time>2015-03-23T19:45:21.092Z</time>
      </trkpt>
      <trkpt lat="48.87752" lon="2.30606">
        <ele>111.4</ele>
        <time>2015-03-23T19:45:22.084Z</time>
      </trkpt>
      <trkpt lat="48.87756" lon="2.306">
        <ele>111.6</ele>
        <time>2015-03-23T19:45:23.499Z</time>
      </trkpt>
      <trkpt lat="48.87761" lon="2.30594">
        <ele>111.8</ele>
        <time>2015-03-23T19:45:24.101Z</time>
      </trkpt>
      <trkpt lat="48.87765" lon="2.30588">
        <ele>111.9</ele>
        <time>2015-03-23T19:45:25.115Z</time>
      </trkpt>
      <trkpt lat="48.87769" lon="2.30582">
        <ele>112</ele>
        <time>2015-03-23T19:45:26.117Z</time>
      </trkpt>
      <trkpt lat="48.87774" lon="2.30578">
        <ele>112.1</ele>
        <time>2015-03-23T19:45:27.165Z</time>
      </trkpt>
      <trkpt lat="48.87779" lon="2.30574">
        <ele>112.1</ele>
        <time>2015-03-23T19:45:28.091Z</time>
      </trkpt>
      <trkpt lat="48.87786" lon="2.30569">
        <ele>112.1</ele>
        <time>2015-03-23T19:45:29.102Z</time>
      </trkpt>
      <trkpt lat="48.87792" lon="2.30564">
        <ele>112.1</ele>
        <time>2015-03-23T19:45:30.108Z</time>
      </trkpt>
      <trkpt lat="48.87798" lon="2.30558">
        <ele>112.1</ele>
        <time>2015-03-23T19:45:31.123Z</time>
      </trkpt>
      <trkpt lat="48.87805" lon="2.30553">
        <ele>112.2</ele>
        <time>2015-03-23T19:45:32.125Z</time>
      </trkpt>
      <trkpt lat="48.8781" lon="2.30549">
        <ele>112.3</ele>
        <time>2015-03-23T19:45:33.133Z</time>
      </trkpt>
      <trkpt lat="48.87815" lon="2.30547">
        <ele>112.5</ele>
        <time>2015-03-23T19:45:34.136Z</time>
      </trkpt>
      <trkpt lat="48.8782" lon="2.30544">
        <ele>112.8</ele>
        <time>2015-03-23T19:45:35.159Z</time>
      </trkpt>
      <trkpt lat="48.87824" lon="2.30541">
        <ele>113</ele>
        <time>2015-03-23T19:45:36.162Z</time>
      </trkpt>
      <trkpt lat="48.8783" lon="2.30532">
        <ele>113</ele>
        <time>2015-03-23T19:45:40.114Z</time>
      </trkpt>
      <trkpt lat="48.87833" lon="2.30528">
        <ele>113.4</ele>
        <time>2015-03-23T19:45:41.232Z</time>
      </trkpt>
      <trkpt lat="48.87821" lon="2.30523">
        <ele>110</ele>
        <time>2015-03-23T19:45:42.214Z</time>
      </trkpt>
      <trkpt lat="48.87816" lon="2.30518">
        <ele>108.8</ele>
        <time>2015-03-23T19:45:43.244Z</time>
      </trkpt>
      <trkpt lat="48.87813" lon="2.30514">
        <ele>108.6</ele>
        <time>2015-03-23T19:45:44.116Z</time>
      </trkpt>
      <trkpt lat="48.87808" lon="2.30503">
        <ele>107</ele>
        <time>2015-03-23T19:45:46.145Z</time>
      </trkpt>
      <trkpt lat="48.87809" lon="2.30498">
        <ele>107</ele>
        <time>2015-03-23T19:45:47.158Z</time>
      </trkpt>
      <trkpt lat="48.87812" lon="2.30487">
        <ele>107.2</ele>
        <time>2015-03-23T19:45:51.085Z</time>
      </trkpt>
      <trkpt lat="48.87814" lon="2.30485">
        <ele>107.3</ele>
        <time>2015-03-23T19:45:52.101Z</time>
      </trkpt>
      <trkpt lat="48.87819" lon="2.30479">
        <ele>107.4</ele>
        <time>2015-03-23T19:45:54.122Z</time>
      </trkpt>
      <trkpt lat="48.87822" lon="2.30476">
        <ele>107.3</ele>
        <time>2015-03-23T19:45:55.166Z</time>
      </trkpt>
      <trkpt lat="48.87826" lon="2.30473">
        <ele>107.3</ele>
        <time>2015-03-23T19:45:56.070Z</time>
      </trkpt>
      <trkpt lat="48.87831" lon="2.3047">
        <ele>107.3</ele>
        <time>2015-03-23T19:45:57.090Z</time>
      </trkpt>
      <trkpt lat="48.87838" lon="2.30464">
        <ele>107.5</ele>
        <time>2015-03-23T19:45:59.135Z</time>
      </trkpt>
      <trkpt lat="48.87841" lon="2.30461">
        <ele>107.5</ele>
        <time>2015-03-23T19:46:00.167Z</time>
      </trkpt>
      <trkpt lat="48.87847" lon="2.30451">
        <ele>107.6</ele>
        <time>2015-03-23T19:46:02.185Z</time>
      </trkpt>
      <trkpt lat="48.87816" lon="2.30505">
        <ele>107.9</ele>
        <time>2015-03-23T19:46:03.201Z</time>
      </trkpt>
      <trkpt lat="48.87823" lon="2.30493">
        <ele>108</ele>
        <time>2015-03-23T19:46:04.096Z</time>
      </trkpt>
      <trkpt lat="48.87829" lon="2.30482">
        <ele>108.2</ele>
        <time>2015-03-23T19:46:05.101Z</time>
      </trkpt>
      <trkpt lat="48.87835" lon="2.30472">
        <ele>108.4</ele>
        <time>2015-03-23T19:46:06.127Z</time>
      </trkpt>
      <trkpt lat="48.87841" lon="2.30462">
        <ele>108.5</ele>
        <time>2015-03-23T19:46:07.142Z</time>
      </trkpt>
      <trkpt lat="48.87841" lon="2.30461">
        <ele>108.3</ele>
        <time>2015-03-23T19:46:08.157Z</time>
      </trkpt>
      <trkpt lat="48.87841" lon="2.30461">
        <ele>108.3</ele>
        <time>2015-03-23T19:46:11.118Z</time>
      </trkpt>
      <trkpt lat="48.87899" lon="2.30381">
        <ele>107.7</ele>
        <time>2015-03-23T19:46:15.128Z</time>
      </trkpt>
      <trkpt lat="48.87894" lon="2.30374">
        <ele>107.6</ele>
        <time>2015-03-23T19:46:16.191Z</time>
      </trkpt>
      <trkpt lat="48.87885" lon="2.30366">
        <ele>107.7</ele>
        <time>2015-03-23T19:46:17.107Z</time>
      </trkpt>
      <trkpt lat="48.87886" lon="2.30354">
        <ele>107.9</ele>
        <time>2015-03-23T19:46:19.198Z</time>
      </trkpt>
      <trkpt lat="48.87888" lon="2.30348">
        <ele>108</ele>
        <time>2015-03-23T19:46:20.088Z</time>
      </trkpt>
      <trkpt lat="48.87891" lon="2.30341">
        <ele>107.9</ele>
        <time>2015-03-23T19:46:21.302Z</time>
      </trkpt>
      <trkpt lat="48.87894" lon="2.30337">
        <ele>107.9</ele>
        <time>2015-03-23T19:46:22.132Z</time>
      </trkpt>
      <trkpt lat="48.87901" lon="2.30331">
        <ele>107.9</ele>
        <time>2015-03-23T19:46:24.161Z</time>
      </trkpt>
      <trkpt lat="48.87887" lon="2.30363">
        <ele>107.8</ele>
        <time>2015-03-23T19:46:25.191Z</time>
      </trkpt>
      <trkpt lat="48.87893" lon="2.30352">
        <ele>108</ele>
        <time>2015-03-23T19:46:27.085Z</time>
      </trkpt>
      <trkpt lat="48.87895" lon="2.30348">
        <ele>108.4</ele>
        <time>2015-03-23T19:46:28.087Z</time>
      </trkpt>
      <trkpt lat="48.87899" lon="2.30337">
        <ele>108.9</ele>
        <time>2015-03-23T19:46:31.184Z</time>
      </trkpt>
      <trkpt lat="48.87899" lon="2.30335">
        <ele>109.3</ele>
        <time>2015-03-23T19:46:32.067Z</time>
      </trkpt>
      <trkpt lat="48.87907" lon="2.30328">
        <ele>110.7</ele>
        <time>2015-03-23T19:46:38.071Z</time>
      </trkpt>
      <trkpt lat="48.87908" lon="2.30327">
        <ele>110.8</ele>
        <time>2015-03-23T19:46:39.135Z</time>
      </trkpt>
      <trkpt lat="48.87911" lon="2.30325">
        <ele>111</ele>
        <time>2015-03-23T19:46:41.180Z</time>
      </trkpt>
      <trkpt lat="48.87916" lon="2.3032">
        <ele>111.1</ele>
        <time>2015-03-23T19:46:42.193Z</time>
      </trkpt>
      <trkpt lat="48.87919" lon="2.30308">
        <ele>112.5</ele>
        <time>2015-03-23T19:46:49.131Z</time>
      </trkpt>
      <trkpt lat="48.87919" lon="2.30305">
        <ele>112.4</ele>
        <time>2015-03-23T19:46:50.139Z</time>
      </trkpt>
      <trkpt lat="48.87922" lon="2.30295">
        <ele>112.5</ele>
        <time>2015-03-23T19:46:54.151Z</time>
      </trkpt>
      <trkpt lat="48.87923" lon="2.30292">
        <ele>112.4</ele>
        <time>2015-03-23T19:46:55.171Z</time>
      </trkpt>
      <trkpt lat="48.87928" lon="2.30282">
        <ele>112.2</ele>
        <time>2015-03-23T19:46:59.141Z</time>
      </trkpt>
      <trkpt lat="48.8793" lon="2.30279">
        <ele>112.1</ele>
        <time>2015-03-23T19:47:00.162Z</time>
      </trkpt>
      <trkpt lat="48.87936" lon="2.30274">
        <ele>112</ele>
        <time>2015-03-23T19:47:02.090Z</time>
      </trkpt>
      <trkpt lat="48.87938" lon="2.30272">
        <ele>112</ele>
        <time>2015-03-23T19:47:03.094Z</time>
      </trkpt>
      <trkpt lat="48.87944" lon="2.30268">
        <ele>112</ele>
        <time>2015-03-23T19:47:05.887Z</time>
      </trkpt>
      <trkpt lat="48.87948" lon="2.30266">
        <ele>111.9</ele>
        <time>2015-03-23T19:47:06.127Z</time>
      </trkpt>
      <trkpt lat="48.87954" lon="2.30261">
        <ele>111.9</ele>
        <time>2015-03-23T19:47:08.158Z</time>
      </trkpt>
      <trkpt lat="48.87958" lon="2.30259">
        <ele>111.9</ele>
        <time>2015-03-23T19:47:09.111Z</time>
      </trkpt>
      <trkpt lat="48.87964" lon="2.30254">
        <ele>111.9</ele>
        <time>2015-03-23T19:47:11.150Z</time>
      </trkpt>
      <trkpt lat="48.87968" lon="2.30251">
        <ele>112</ele>
        <time>2015-03-23T19:47:12.170Z</time>
      </trkpt>
      <trkpt lat="48.87974" lon="2.30244">
        <ele>112.1</ele>
        <time>2015-03-23T19:47:14.117Z</time>
      </trkpt>
      <trkpt lat="48.87977" lon="2.30241">
        <ele>112.1</ele>
        <time>2015-03-23T19:47:15.133Z</time>
      </trkpt>
      <trkpt lat="48.87983" lon="2.30233">
        <ele>112.2</ele>
        <time>2015-03-23T19:47:17.179Z</time>
      </trkpt>
      <trkpt lat="48.87986" lon="2.3023">
        <ele>112.2</ele>
        <time>2015-03-23T19:47:18.063Z</time>
      </trkpt>
      <trkpt lat="48.87993" lon="2.30222">
        <ele>112.2</ele>
        <time>2015-03-23T19:47:20.118Z</time>
      </trkpt>
      <trkpt lat="48.87997" lon="2.30218">
        <ele>112</ele>
        <time>2015-03-23T19:47:21.188Z</time>
      </trkpt>
      <trkpt lat="48.88003" lon="2.30211">
        <ele>111.2</ele>
        <time>2015-03-23T19:47:24.125Z</time>
      </trkpt>
      <trkpt lat="48.88007" lon="2.30206">
        <ele>111</ele>
        <time>2015-03-23T19:47:25.139Z</time>
      </trkpt>
      <trkpt lat="48.88012" lon="2.30199">
        <ele>109</ele>
        <time>2015-03-23T19:47:31.125Z</time>
      </trkpt>
      <trkpt lat="48.88016" lon="2.30192">
        <ele>109</ele>
        <time>2015-03-23T19:47:32.133Z</time>
      </trkpt>
      <trkpt lat="48.88019" lon="2.30187">
        <ele>108.9</ele>
        <time>2015-03-23T19:47:33.157Z</time>
      </trkpt>
      <trkpt lat="48.88024" lon="2.3018">
        <ele>108.9</ele>
        <time>2015-03-23T19:47:34.181Z</time>
      </trkpt>
      <trkpt lat="48.88028" lon="2.30175">
        <ele>108.8</ele>
        <time>2015-03-23T19:47:35.056Z</time>
      </trkpt>
      <trkpt lat="48.88031" lon="2.3017">
        <ele>108.9</ele>
        <time>2015-03-23T19:47:36.095Z</time>
      </trkpt>
      <trkpt lat="48.88036" lon="2.30164">
        <ele>108.7</ele>
        <time>2015-03-23T19:47:37.103Z</time>
      </trkpt>
      <trkpt lat="48.88041" lon="2.30158">
        <ele>108.7</ele>
        <time>2015-03-23T19:47:38.107Z</time>
      </trkpt>
      <trkpt lat="48.88045" lon="2.30153">
        <ele>108.6</ele>
        <time>2015-03-23T19:47:40.059Z</time>
      </trkpt>
      <trkpt lat="48.88048" lon="2.30148">
        <ele>108.6</ele>
        <time>2015-03-23T19:47:40.131Z</time>
      </trkpt>
      <trkpt lat="48.88055" lon="2.3014">
        <ele>108.7</ele>
        <time>2015-03-23T19:47:42.149Z</time>
      </trkpt>
      <trkpt lat="48.88059" lon="2.30136">
        <ele>108.7</ele>
        <time>2015-03-23T19:47:43.180Z</time>
      </trkpt>
      <trkpt lat="48.88064" lon="2.30131">
        <ele>108.8</ele>
        <time>2015-03-23T19:47:44.102Z</time>
      </trkpt>
      <trkpt lat="48.88068" lon="2.30127">
        <ele>108.9</ele>
        <time>2015-03-23T19:47:45.114Z</time>
      </trkpt>
      <trkpt lat="48.88072" lon="2.30123">
        <ele>109</ele>
        <time>2015-03-23T19:47:46.124Z</time>
      </trkpt>
      <trkpt lat="48.88076" lon="2.30119">
        <ele>109.1</ele>
        <time>2015-03-23T19:47:47.145Z</time>
      </trkpt>
      <trkpt lat="48.8808" lon="2.30116">
        <ele>109.4</ele>
        <time>2015-03-23T19:47:48.161Z</time>
      </trkpt>
      <trkpt lat="48.88084" lon="2.30112">
        <ele>109.7</ele>
        <time>2015-03-23T19:47:49.170Z</time>
      </trkpt>
      <trkpt lat="48.88088" lon="2.30109">
        <ele>109.9</ele>
        <time>2015-03-23T19:47:50.197Z</time>
      </trkpt>
      <trkpt lat="48.88092" lon="2.30106">
        <ele>110.1</ele>
        <time>2015-03-23T19:47:51.189Z</time>
      </trkpt>
      <trkpt lat="48.88097" lon="2.30102">
        <ele>110</ele>
        <time>2015-03-23T19:47:52.125Z</time>
      </trkpt>
      <trkpt lat="48.88104" lon="2.30098">
        <ele>110</ele>
        <time>2015-03-23T19:47:53.101Z</time>
      </trkpt>
      <trkpt lat="48.88112" lon="2.30093">
        <ele>109.8</ele>
        <time>2015-03-23T19:47:54.103Z</time>
      </trkpt>
      <trkpt lat="48.88119" lon="2.3009">
        <ele>109.8</ele>
        <time>2015-03-23T19:47:55.162Z</time>
      </trkpt>
      <trkpt lat="48.88126" lon="2.30087">
        <ele>109.9</ele>
        <time>2015-03-23T19:47:56.099Z</time>
      </trkpt>
      <trkpt lat="48.88132" lon="2.30084">
        <ele>110</ele>
        <time>2015-03-23T19:47:57.103Z</time>
      </trkpt>
      <trkpt lat="48.88136" lon="2.30081">
        <ele>110.1</ele>
        <time>2015-03-23T19:47:58.115Z</time>
      </trkpt>
      <trkpt lat="48.8814" lon="2.30079">
        <ele>110.2</ele>
        <time>2015-03-23T19:47:59.126Z</time>
      </trkpt>
      <trkpt lat="48.88144" lon="2.30076">
        <ele>110.2</ele>
        <time>2015-03-23T19:48:00.494Z</time>
      </trkpt>
      <trkpt lat="48.88149" lon="2.30074">
        <ele>110.2</ele>
        <time>2015-03-23T19:48:01.147Z</time>
      </trkpt>
      <trkpt lat="48.88151" lon="2.30072">
        <ele>109.9</ele>
        <time>2015-03-23T19:48:05.182Z</time>
      </trkpt>
      <trkpt lat="48.88162" lon="2.30061">
        <ele>109.9</ele>
        <time>2015-03-23T19:48:06.096Z</time>
      </trkpt>
      <trkpt lat="48.88169" lon="2.30054">
        <ele>109.8</ele>
        <time>2015-03-23T19:48:07.207Z</time>
      </trkpt>
      <trkpt lat="48.88173" lon="2.30051">
        <ele>109.8</ele>
        <time>2015-03-23T19:48:08.143Z</time>
      </trkpt>
      <trkpt lat="48.8818" lon="2.30043">
        <ele>109.8</ele>
        <time>2015-03-23T19:48:10.537Z</time>
      </trkpt>
      <trkpt lat="48.88183" lon="2.3004">
        <ele>109.8</ele>
        <time>2015-03-23T19:48:11.188Z</time>
      </trkpt>
      <trkpt lat="48.8819" lon="2.30031">
        <ele>109.8</ele>
        <time>2015-03-23T19:48:14.178Z</time>
      </trkpt>
      <trkpt lat="48.8819" lon="2.30031">
        <ele>109.7</ele>
        <time>2015-03-23T19:48:15.064Z</time>
      </trkpt>
      <trkpt lat="48.88196" lon="2.30022">
        <ele>109</ele>
        <time>2015-03-23T19:48:26.182Z</time>
      </trkpt>
      <trkpt lat="48.88197" lon="2.3002">
        <ele>108.9</ele>
        <time>2015-03-23T19:48:27.087Z</time>
      </trkpt>
      <trkpt lat="48.88202" lon="2.30013">
        <ele>108.9</ele>
        <time>2015-03-23T19:48:30.154Z</time>
      </trkpt>
      <trkpt lat="48.88205" lon="2.3001">
        <ele>108.9</ele>
        <time>2015-03-23T19:48:31.102Z</time>
      </trkpt>
      <trkpt lat="48.8821" lon="2.30005">
        <ele>108.8</ele>
        <time>2015-03-23T19:48:33.126Z</time>
      </trkpt>
      <trkpt lat="48.88212" lon="2.30002">
        <ele>108.8</ele>
        <time>2015-03-23T19:48:34.143Z</time>
      </trkpt>
      <trkpt lat="48.88219" lon="2.29994">
        <ele>108.7</ele>
        <time>2015-03-23T19:48:37.139Z</time>
      </trkpt>
      <trkpt lat="48.88238" lon="2.29974">
        <ele>108.6</ele>
        <time>2015-03-23T19:48:38.127Z</time>
      </trkpt>
      <trkpt lat="48.88249" lon="2.29961">
        <ele>108.4</ele>
        <time>2015-03-23T19:48:39.167Z</time>
      </trkpt>
      <trkpt lat="48.88249" lon="2.29961">
        <ele>108.4</ele>
        <time>2015-03-23T19:48:39.959Z</time>
      </trkpt>
      <trkpt lat="48.88257" lon="2.29953">
        <ele>108.4</ele>
        <time>2015-03-23T19:48:40.071Z</time>
      </trkpt>
      <trkpt lat="48.88264" lon="2.29946">
        <ele>108.4</ele>
        <time>2015-03-23T19:48:41.095Z</time>
      </trkpt>
      <trkpt lat="48.8827" lon="2.29938">
        <ele>108.3</ele>
        <time>2015-03-23T19:48:42.106Z</time>
      </trkpt>
      <trkpt lat="48.88276" lon="2.29932">
        <ele>108.3</ele>
        <time>2015-03-23T19:48:43.117Z</time>
      </trkpt>
      <trkpt lat="48.88283" lon="2.29925">
        <ele>108.2</ele>
        <time>2015-03-23T19:48:44.127Z</time>
      </trkpt>
      <trkpt lat="48.88288" lon="2.2992">
        <ele>108.3</ele>
        <time>2015-03-23T19:48:45.129Z</time>
      </trkpt>
      <trkpt lat="48.88293" lon="2.29914">
        <ele>108.3</ele>
        <time>2015-03-23T19:48:46.141Z</time>
      </trkpt>
      <trkpt lat="48.88298" lon="2.2991">
        <ele>108.3</ele>
        <time>2015-03-23T19:48:48.170Z</time>
      </trkpt>
      <trkpt lat="48.88303" lon="2.29904">
        <ele>108.2</ele>
        <time>2015-03-23T19:48:49.177Z</time>
      </trkpt>
      <trkpt lat="48.88308" lon="2.29899">
        <ele>108.2</ele>
        <time>2015-03-23T19:48:50.063Z</time>
      </trkpt>
      <trkpt lat="48.88312" lon="2.29895">
        <ele>108.1</ele>
        <time>2015-03-23T19:48:51.127Z</time>
      </trkpt>
      <trkpt lat="48.88316" lon="2.2989">
        <ele>108.1</ele>
        <time>2015-03-23T19:48:52.166Z</time>
      </trkpt>
      <trkpt lat="48.88319" lon="2.29886">
        <ele>108</ele>
        <time>2015-03-23T19:48:53.159Z</time>
      </trkpt>
      <trkpt lat="48.88325" lon="2.29879">
        <ele>108</ele>
        <time>2015-03-23T19:48:55.181Z</time>
      </trkpt>
      <trkpt lat="48.88327" lon="2.29876">
        <ele>108.1</ele>
        <time>2015-03-23T19:48:56.115Z</time>
      </trkpt>
      <trkpt lat="48.88332" lon="2.29867">
        <ele>108.2</ele>
        <time>2015-03-23T19:48:58.085Z</time>
      </trkpt>
      <trkpt lat="48.88335" lon="2.29863">
        <ele>108.3</ele>
        <time>2015-03-23T19:48:59.117Z</time>
      </trkpt>
      <trkpt lat="48.88339" lon="2.29855">
        <ele>108.5</ele>
        <time>2015-03-23T19:49:01.189Z</time>
      </trkpt>
      <trkpt lat="48.88341" lon="2.29851">
        <ele>108.4</ele>
        <time>2015-03-23T19:49:02.121Z</time>
      </trkpt>
      <trkpt lat="48.88346" lon="2.29843">
        <ele>107.7</ele>
        <time>2015-03-23T19:49:12.128Z</time>
      </trkpt>
      <trkpt lat="48.88348" lon="2.29841">
        <ele>107.7</ele>
        <time>2015-03-23T19:49:13.141Z</time>
      </trkpt>
      <trkpt lat="48.88354" lon="2.29836">
        <ele>107.5</ele>
        <time>2015-03-23T19:49:17.084Z</time>
      </trkpt>
      <trkpt lat="48.88355" lon="2.29834">
        <ele>107.5</ele>
        <time>2015-03-23T19:49:18.121Z</time>
      </trkpt>
      <trkpt lat="48.88362" lon="2.29829">
        <ele>107.5</ele>
        <time>2015-03-23T19:49:21.061Z</time>
      </trkpt>
      <trkpt lat="48.88364" lon="2.29827">
        <ele>107.5</ele>
        <time>2015-03-23T19:49:22.121Z</time>
      </trkpt>
      <trkpt lat="48.8837" lon="2.29823">
        <ele>107.3</ele>
        <time>2015-03-23T19:49:24.136Z</time>
      </trkpt>
      <trkpt lat="48.88374" lon="2.29821">
        <ele>107.3</ele>
        <time>2015-03-23T19:49:25.153Z</time>
      </trkpt>
      <trkpt lat="48.88382" lon="2.29818">
        <ele>107.3</ele>
        <time>2015-03-23T19:49:27.078Z</time>
      </trkpt>
      <trkpt lat="48.88386" lon="2.29817">
        <ele>107.4</ele>
        <time>2015-03-23T19:49:28.111Z</time>
      </trkpt>
      <trkpt lat="48.88423" lon="2.29803">
        <ele>107.3</ele>
        <time>2015-03-23T19:49:29.149Z</time>
      </trkpt>
      <trkpt lat="48.88423" lon="2.29803">
        <ele>107.3</ele>
        <time>2015-03-23T19:49:29.951Z</time>
      </trkpt>
      <trkpt lat="48.88441" lon="2.29797">
        <ele>107.2</ele>
        <time>2015-03-23T19:49:30.155Z</time>
      </trkpt>
      <trkpt lat="48.88451" lon="2.29794">
        <ele>107</ele>
        <time>2015-03-23T19:49:31.165Z</time>
      </trkpt>
      <trkpt lat="48.88461" lon="2.29792">
        <ele>106.9</ele>
        <time>2015-03-23T19:49:32.082Z</time>
      </trkpt>
      <trkpt lat="48.88468" lon="2.29791">
        <ele>106.8</ele>
        <time>2015-03-23T19:49:33.081Z</time>
      </trkpt>
      <trkpt lat="48.88473" lon="2.2979">
        <ele>106.7</ele>
        <time>2015-03-23T19:49:34.088Z</time>
      </trkpt>
      <trkpt lat="48.88481" lon="2.29786">
        <ele>106.4</ele>
        <time>2015-03-23T19:49:37.146Z</time>
      </trkpt>
      <trkpt lat="48.88483" lon="2.29785">
        <ele>106.3</ele>
        <time>2015-03-23T19:49:38.163Z</time>
      </trkpt>
      <trkpt lat="48.88488" lon="2.29777">
        <ele>106</ele>
        <time>2015-03-23T19:49:41.148Z</time>
      </trkpt>
      <trkpt lat="48.8849" lon="2.29774">
        <ele>105.8</ele>
        <time>2015-03-23T19:49:42.121Z</time>
      </trkpt>
      <trkpt lat="48.88494" lon="2.29764">
        <ele>105.5</ele>
        <time>2015-03-23T19:49:45.216Z</time>
      </trkpt>
      <trkpt lat="48.88496" lon="2.29761">
        <ele>105.5</ele>
        <time>2015-03-23T19:49:46.105Z</time>
      </trkpt>
      <trkpt lat="48.88499" lon="2.29749">
        <ele>104.6</ele>
        <time>2015-03-23T19:49:50.330Z</time>
      </trkpt>
      <trkpt lat="48.885" lon="2.29746">
        <ele>104.3</ele>
        <time>2015-03-23T19:49:51.109Z</time>
      </trkpt>
      <trkpt lat="48.88498" lon="2.29734">
        <ele>100.3</ele>
        <time>2015-03-23T19:49:59.200Z</time>
      </trkpt>
      <trkpt lat="48.88498" lon="2.29732">
        <ele>100.2</ele>
        <time>2015-03-23T19:50:00.132Z</time>
      </trkpt>
      <trkpt lat="48.88501" lon="2.29723">
        <ele>100.7</ele>
        <time>2015-03-23T19:50:07.165Z</time>
      </trkpt>
      <trkpt lat="48.88504" lon="2.29719">
        <ele>101</ele>
        <time>2015-03-23T19:50:08.191Z</time>
      </trkpt>
      <trkpt lat="48.88508" lon="2.29712">
        <ele>101.6</ele>
        <time>2015-03-23T19:50:10.735Z</time>
      </trkpt>
      <trkpt lat="48.8851" lon="2.29709">
        <ele>101.6</ele>
        <time>2015-03-23T19:50:11.131Z</time>
      </trkpt>
      <trkpt lat="48.88515" lon="2.29699">
        <ele>101.6</ele>
        <time>2015-03-23T19:50:14.167Z</time>
      </trkpt>
      <trkpt lat="48.88516" lon="2.29698">
        <ele>101.6</ele>
        <time>2015-03-23T19:50:15.186Z</time>
      </trkpt>
      <trkpt lat="48.88521" lon="2.29692">
        <ele>97.9</ele>
        <time>2015-03-23T19:50:24.176Z</time>
      </trkpt>
      <trkpt lat="48.88524" lon="2.2969">
        <ele>97.8</ele>
        <time>2015-03-23T19:50:25.176Z</time>
      </trkpt>
      <trkpt lat="48.88528" lon="2.29679">
        <ele>96.8</ele>
        <time>2015-03-23T19:50:40.218Z</time>
      </trkpt>
      <trkpt lat="48.88527" lon="2.29677">
        <ele>96.8</ele>
        <time>2015-03-23T19:50:41.104Z</time>
      </trkpt>
      <trkpt lat="48.88531" lon="2.29666">
        <ele>95.6</ele>
        <time>2015-03-23T19:50:51.147Z</time>
      </trkpt>
      <trkpt lat="48.88532" lon="2.29665">
        <ele>95.5</ele>
        <time>2015-03-23T19:50:52.181Z</time>
      </trkpt>
      <trkpt lat="48.88535" lon="2.29663">
        <ele>95.3</ele>
        <time>2015-03-23T19:50:54.090Z</time>
      </trkpt>
      <trkpt lat="48.88543" lon="2.29655">
        <ele>95.3</ele>
        <time>2015-03-23T19:50:55.159Z</time>
      </trkpt>
      <trkpt lat="48.88549" lon="2.2965">
        <ele>95.4</ele>
        <time>2015-03-23T19:50:56.089Z</time>
      </trkpt>
      <trkpt lat="48.88554" lon="2.29645">
        <ele>95.6</ele>
        <time>2015-03-23T19:50:57.081Z</time>
      </trkpt>
      <trkpt lat="48.8856" lon="2.29641">
        <ele>95.8</ele>
        <time>2015-03-23T19:50:58.087Z</time>
      </trkpt>
      <trkpt lat="48.88566" lon="2.29637">
        <ele>96</ele>
        <time>2015-03-23T19:50:59.100Z</time>
      </trkpt>
      <trkpt lat="48.88574" lon="2.29633">
        <ele>96.3</ele>
        <time>2015-03-23T19:51:00.195Z</time>
      </trkpt>
      <trkpt lat="48.88582" lon="2.29628">
        <ele>96.6</ele>
        <time>2015-03-23T19:51:01.150Z</time>
      </trkpt>
      <trkpt lat="48.88589" lon="2.29624">
        <ele>97</ele>
        <time>2015-03-23T19:51:02.659Z</time>
      </trkpt>
      <trkpt lat="48.88596" lon="2.29619">
        <ele>97.3</ele>
        <time>2015-03-23T19:51:03.175Z</time>
      </trkpt>
      <trkpt lat="48.88604" lon="2.29614">
        <ele>97.4</ele>
        <time>2015-03-23T19:51:04.063Z</time>
      </trkpt>
      <trkpt lat="48.88611" lon="2.29609">
        <ele>97.5</ele>
        <time>2015-03-23T19:51:05.149Z</time>
      </trkpt>
      <trkpt lat="48.88618" lon="2.29605">
        <ele>97.6</ele>
        <time>2015-03-23T19:51:06.104Z</time>
      </trkpt>
      <trkpt lat="48.88623" lon="2.29601">
        <ele>97.9</ele>
        <time>2015-03-23T19:51:07.146Z</time>
      </trkpt>
      <trkpt lat="48.88628" lon="2.29597">
        <ele>98.1</ele>
        <time>2015-03-23T19:51:08.141Z</time>
      </trkpt>
      <trkpt lat="48.88632" lon="2.29593">
        <ele>98.3</ele>
        <time>2015-03-23T19:51:09.147Z</time>
      </trkpt>
      <trkpt lat="48.88637" lon="2.29589">
        <ele>98.5</ele>
        <time>2015-03-23T19:51:10.572Z</time>
      </trkpt>
      <trkpt lat="48.88641" lon="2.29585">
        <ele>98.7</ele>
        <time>2015-03-23T19:51:11.170Z</time>
      </trkpt>
      <trkpt lat="48.88647" lon="2.29578">
        <ele>98.8</ele>
        <time>2015-03-23T19:51:13.185Z</time>
      </trkpt>
      <trkpt lat="48.8865" lon="2.29575">
        <ele>98.8</ele>
        <time>2015-03-23T19:51:14.242Z</time>
      </trkpt>
      <trkpt lat="48.88655" lon="2.29567">
        <ele>98.6</ele>
        <time>2015-03-23T19:51:17.137Z</time>
      </trkpt>
      <trkpt lat="48.88657" lon="2.29564">
        <ele>98.5</ele>
        <time>2015-03-23T19:51:18.165Z</time>
      </trkpt>
      <trkpt lat="48.88662" lon="2.29554">
        <ele>98.1</ele>
        <time>2015-03-23T19:51:22.184Z</time>
      </trkpt>
      <trkpt lat="48.88664" lon="2.29551">
        <ele>97.9</ele>
        <time>2015-03-23T19:51:23.205Z</time>
      </trkpt>
      <trkpt lat="48.88668" lon="2.29545">
        <ele>96.3</ele>
        <time>2015-03-23T19:51:26.169Z</time>
      </trkpt>
      <trkpt lat="48.88671" lon="2.29543">
        <ele>96</ele>
        <time>2015-03-23T19:51:27.100Z</time>
      </trkpt>
      <trkpt lat="48.88675" lon="2.2954">
        <ele>95.4</ele>
        <time>2015-03-23T19:51:28.098Z</time>
      </trkpt>
      <trkpt lat="48.8868" lon="2.29536">
        <ele>95.1</ele>
        <time>2015-03-23T19:51:29.148Z</time>
      </trkpt>
      <trkpt lat="48.88687" lon="2.2953">
        <ele>95.1</ele>
        <time>2015-03-23T19:51:31.205Z</time>
      </trkpt>
      <trkpt lat="48.88693" lon="2.29526">
        <ele>94.9</ele>
        <time>2015-03-23T19:51:32.130Z</time>
      </trkpt>
      <trkpt lat="48.88698" lon="2.29523">
        <ele>94.8</ele>
        <time>2015-03-23T19:51:33.104Z</time>
      </trkpt>
      <trkpt lat="48.88703" lon="2.29519">
        <ele>94.7</ele>
        <time>2015-03-23T19:51:34.103Z</time>
      </trkpt>
      <trkpt lat="48.8871" lon="2.29513">
        <ele>94.6</ele>
        <time>2015-03-23T19:51:35.172Z</time>
      </trkpt>
      <trkpt lat="48.88717" lon="2.29508">
        <ele>94.6</ele>
        <time>2015-03-23T19:51:36.127Z</time>
      </trkpt>
      <trkpt lat="48.88723" lon="2.29503">
        <ele>94.6</ele>
        <time>2015-03-23T19:51:37.144Z</time>
      </trkpt>
      <trkpt lat="48.88727" lon="2.29499">
        <ele>94.6</ele>
        <time>2015-03-23T19:51:38.153Z</time>
      </trkpt>
      <trkpt lat="48.88732" lon="2.29495">
        <ele>94.6</ele>
        <time>2015-03-23T19:51:39.169Z</time>
      </trkpt>
      <trkpt lat="48.88738" lon="2.2949">
        <ele>94.5</ele>
        <time>2015-03-23T19:51:40.203Z</time>
      </trkpt>
      <trkpt lat="48.88745" lon="2.29483">
        <ele>94.4</ele>
        <time>2015-03-23T19:51:41.099Z</time>
      </trkpt>
      <trkpt lat="48.88751" lon="2.29477">
        <ele>94.3</ele>
        <time>2015-03-23T19:51:42.136Z</time>
      </trkpt>
      <trkpt lat="48.88767" lon="2.29461">
        <ele>94.1</ele>
        <time>2015-03-23T19:51:43.141Z</time>
      </trkpt>
      <trkpt lat="48.88774" lon="2.29452">
        <ele>93.8</ele>
        <time>2015-03-23T19:51:45.294Z</time>
      </trkpt>
      <trkpt lat="48.88777" lon="2.29448">
        <ele>93.6</ele>
        <time>2015-03-23T19:51:46.227Z</time>
      </trkpt>
      <trkpt lat="48.88784" lon="2.29442">
        <ele>93.4</ele>
        <time>2015-03-23T19:51:48.109Z</time>
      </trkpt>
      <trkpt lat="48.88788" lon="2.29439">
        <ele>93.5</ele>
        <time>2015-03-23T19:51:49.140Z</time>
      </trkpt>
      <trkpt lat="48.88791" lon="2.29436">
        <ele>93.6</ele>
        <time>2015-03-23T19:51:50.151Z</time>
      </trkpt>
      <trkpt lat="48.88797" lon="2.29433">
        <ele>93.7</ele>
        <time>2015-03-23T19:51:51.159Z</time>
      </trkpt>
      <trkpt lat="48.88803" lon="2.29429">
        <ele>93.9</ele>
        <time>2015-03-23T19:51:52.187Z</time>
      </trkpt>
      <trkpt lat="48.88809" lon="2.29425">
        <ele>94</ele>
        <time>2015-03-23T19:51:53.073Z</time>
      </trkpt>
      <trkpt lat="48.88815" lon="2.2942">
        <ele>94.1</ele>
        <time>2015-03-23T19:51:54.134Z</time>
      </trkpt>
      <trkpt lat="48.88821" lon="2.29416">
        <ele>94.3</ele>
        <time>2015-03-23T19:51:55.163Z</time>
      </trkpt>
      <trkpt lat="48.888" lon="2.29432">
        <ele>94.3</ele>
        <time>2015-03-23T19:51:56.173Z</time>
      </trkpt>
      <trkpt lat="48.8881" lon="2.29424">
        <ele>94.3</ele>
        <time>2015-03-23T19:51:57.177Z</time>
      </trkpt>
      <trkpt lat="48.88817" lon="2.29418">
        <ele>94.2</ele>
        <time>2015-03-23T19:51:58.189Z</time>
      </trkpt>
      <trkpt lat="48.88823" lon="2.29413">
        <ele>94.3</ele>
        <time>2015-03-23T19:51:59.211Z</time>
      </trkpt>
      <trkpt lat="48.8883" lon="2.29406">
        <ele>94.1</ele>
        <time>2015-03-23T19:51:59.996Z</time>
      </trkpt>
      <trkpt lat="48.88836" lon="2.294">
        <ele>94.2</ele>
        <time>2015-03-23T19:52:01.157Z</time>
      </trkpt>
      <trkpt lat="48.88854" lon="2.29382">
        <ele>94.3</ele>
        <time>2015-03-23T19:52:02.164Z</time>
      </trkpt>
      <trkpt lat="48.88861" lon="2.29377">
        <ele>94.1</ele>
        <time>2015-03-23T19:52:06.108Z</time>
      </trkpt>
      <trkpt lat="48.88866" lon="2.29374">
        <ele>94</ele>
        <time>2015-03-23T19:52:07.165Z</time>
      </trkpt>
      <trkpt lat="48.8887" lon="2.29371">
        <ele>93.9</ele>
        <time>2015-03-23T19:52:08.090Z</time>
      </trkpt>
      <trkpt lat="48.88875" lon="2.29367">
        <ele>93.8</ele>
        <time>2015-03-23T19:52:09.109Z</time>
      </trkpt>
      <trkpt lat="48.88882" lon="2.2936">
        <ele>93.7</ele>
        <time>2015-03-23T19:52:11.160Z</time>
      </trkpt>
      <trkpt lat="48.88885" lon="2.29356">
        <ele>93.6</ele>
        <time>2015-03-23T19:52:12.173Z</time>
      </trkpt>
      <trkpt lat="48.88889" lon="2.29351">
        <ele>93.6</ele>
        <time>2015-03-23T19:52:13.558Z</time>
      </trkpt>
      <trkpt lat="48.88892" lon="2.29346">
        <ele>93.6</ele>
        <time>2015-03-23T19:52:14.194Z</time>
      </trkpt>
      <trkpt lat="48.88896" lon="2.2934">
        <ele>93.6</ele>
        <time>2015-03-23T19:52:18.668Z</time>
      </trkpt>
      <trkpt lat="48.88902" lon="2.29325">
        <ele>93.6</ele>
        <time>2015-03-23T19:52:19.192Z</time>
      </trkpt>
      <trkpt lat="48.88905" lon="2.29319">
        <ele>94</ele>
        <time>2015-03-23T19:52:20.110Z</time>
      </trkpt>
      <trkpt lat="48.88908" lon="2.29314">
        <ele>94.1</ele>
        <time>2015-03-23T19:52:21.102Z</time>
      </trkpt>
      <trkpt lat="48.88914" lon="2.29305">
        <ele>94.3</ele>
        <time>2015-03-23T19:52:23.120Z</time>
      </trkpt>
      <trkpt lat="48.88917" lon="2.29301">
        <ele>94.4</ele>
        <time>2015-03-23T19:52:24.122Z</time>
      </trkpt>
      <trkpt lat="48.88923" lon="2.29295">
        <ele>92.4</ele>
        <time>2015-03-23T19:52:26.139Z</time>
      </trkpt>
      <trkpt lat="48.88927" lon="2.29293">
        <ele>90.9</ele>
        <time>2015-03-23T19:52:27.181Z</time>
      </trkpt>
      <trkpt lat="48.88931" lon="2.2929">
        <ele>90.6</ele>
        <time>2015-03-23T19:52:28.900Z</time>
      </trkpt>
      <trkpt lat="48.88935" lon="2.29287">
        <ele>90.7</ele>
        <time>2015-03-23T19:52:29.098Z</time>
      </trkpt>
      <trkpt lat="48.8894" lon="2.29284">
        <ele>90.8</ele>
        <time>2015-03-23T19:52:30.072Z</time>
      </trkpt>
      <trkpt lat="48.88945" lon="2.29281">
        <ele>90.9</ele>
        <time>2015-03-23T19:52:31.159Z</time>
      </trkpt>
      <trkpt lat="48.88952" lon="2.29276">
        <ele>91</ele>
        <time>2015-03-23T19:52:33.106Z</time>
      </trkpt>
      <trkpt lat="48.88954" lon="2.29274">
        <ele>91</ele>
        <time>2015-03-23T19:52:34.106Z</time>
      </trkpt>
      <trkpt lat="48.8896" lon="2.29269">
        <ele>91.6</ele>
        <time>2015-03-23T19:52:38.096Z</time>
      </trkpt>
      <trkpt lat="48.88964" lon="2.29265">
        <ele>91.6</ele>
        <time>2015-03-23T19:52:39.099Z</time>
      </trkpt>
      <trkpt lat="48.8897" lon="2.29258">
        <ele>91.8</ele>
        <time>2015-03-23T19:52:41.095Z</time>
      </trkpt>
      <trkpt lat="48.88972" lon="2.29255">
        <ele>91.8</ele>
        <time>2015-03-23T19:52:42.121Z</time>
      </trkpt>
      <trkpt lat="48.88977" lon="2.29248">
        <ele>92</ele>
        <time>2015-03-23T19:52:44.175Z</time>
      </trkpt>
      <trkpt lat="48.88979" lon="2.29245">
        <ele>92.3</ele>
        <time>2015-03-23T19:52:45.189Z</time>
      </trkpt>
      <trkpt lat="48.88985" lon="2.29238">
        <ele>93</ele>
        <time>2015-03-23T19:52:48.143Z</time>
      </trkpt>
      <trkpt lat="48.88986" lon="2.29235">
        <ele>93.3</ele>
        <time>2015-03-23T19:52:49.154Z</time>
      </trkpt>
      <trkpt lat="48.88992" lon="2.29227">
        <ele>93.9</ele>
        <time>2015-03-23T19:52:51.167Z</time>
      </trkpt>
      <trkpt lat="48.88993" lon="2.29225">
        <ele>93.8</ele>
        <time>2015-03-23T19:52:52.178Z</time>
      </trkpt>
      <trkpt lat="48.88997" lon="2.29213">
        <ele>93.2</ele>
        <time>2015-03-23T19:53:00.489Z</time>
      </trkpt>
      <trkpt lat="48.88998" lon="2.29211">
        <ele>93.1</ele>
        <time>2015-03-23T19:53:01.229Z</time>
      </trkpt>
      <trkpt lat="48.89003" lon="2.29204">
        <ele>93.1</ele>
        <time>2015-03-23T19:53:04.158Z</time>
      </trkpt>
      <trkpt lat="48.89005" lon="2.29202">
        <ele>92.9</ele>
        <time>2015-03-23T19:53:05.180Z</time>
      </trkpt>
      <trkpt lat="48.89012" lon="2.29195">
        <ele>93</ele>
        <time>2015-03-23T19:53:08.165Z</time>
      </trkpt>
      <trkpt lat="48.89014" lon="2.29192">
        <ele>93.2</ele>
        <time>2015-03-23T19:53:09.216Z</time>
      </trkpt>
      <trkpt lat="48.8902" lon="2.29182">
        <ele>92.9</ele>
        <time>2015-03-23T19:53:18.128Z</time>
      </trkpt>
      <trkpt lat="48.8902" lon="2.29181">
        <ele>92.8</ele>
        <time>2015-03-23T19:53:19.216Z</time>
      </trkpt>
      <trkpt lat="48.89027" lon="2.2917">
        <ele>92.7</ele>
        <time>2015-03-23T19:53:20.103Z</time>
      </trkpt>
      <trkpt lat="48.89034" lon="2.29163">
        <ele>92.4</ele>
        <time>2015-03-23T19:53:22.133Z</time>
      </trkpt>
      <trkpt lat="48.89037" lon="2.2916">
        <ele>92.3</ele>
        <time>2015-03-23T19:53:23.152Z</time>
      </trkpt>
      <trkpt lat="48.89045" lon="2.29154">
        <ele>92</ele>
        <time>2015-03-23T19:53:25.946Z</time>
      </trkpt>
      <trkpt lat="48.89049" lon="2.29152">
        <ele>91.8</ele>
        <time>2015-03-23T19:53:26.070Z</time>
      </trkpt>
      <trkpt lat="48.89053" lon="2.29149">
        <ele>91.6</ele>
        <time>2015-03-23T19:53:27.099Z</time>
      </trkpt>
      <trkpt lat="48.89058" lon="2.29147">
        <ele>91.5</ele>
        <time>2015-03-23T19:53:28.127Z</time>
      </trkpt>
      <trkpt lat="48.89082" lon="2.29134">
        <ele>91.3</ele>
        <time>2015-03-23T19:53:29.182Z</time>
      </trkpt>
      <trkpt lat="48.89087" lon="2.2913">
        <ele>91.2</ele>
        <time>2015-03-23T19:53:30.200Z</time>
      </trkpt>
      <trkpt lat="48.8914" lon="2.2909">
        <ele>90.2</ele>
        <time>2015-03-23T19:53:40.113Z</time>
      </trkpt>
      <trkpt lat="48.89146" lon="2.29086">
        <ele>90.3</ele>
        <time>2015-03-23T19:53:41.141Z</time>
      </trkpt>
      <trkpt lat="48.89151" lon="2.29082">
        <ele>90.5</ele>
        <time>2015-03-23T19:53:42.145Z</time>
      </trkpt>
      <trkpt lat="48.89156" lon="2.29078">
        <ele>90.6</ele>
        <time>2015-03-23T19:53:43.155Z</time>
      </trkpt>
      <trkpt lat="48.89161" lon="2.29073">
        <ele>90.7</ele>
        <time>2015-03-23T19:53:44.176Z</time>
      </trkpt>
      <trkpt lat="48.89167" lon="2.29068">
        <ele>90.9</ele>
        <time>2015-03-23T19:53:45.089Z</time>
      </trkpt>
      <trkpt lat="48.89172" lon="2.29063">
        <ele>91.1</ele>
        <time>2015-03-23T19:53:46.098Z</time>
      </trkpt>
      <trkpt lat="48.89177" lon="2.29058">
        <ele>91.3</ele>
        <time>2015-03-23T19:53:47.109Z</time>
      </trkpt>
      <trkpt lat="48.89182" lon="2.29054">
        <ele>91.4</ele>
        <time>2015-03-23T19:53:48.127Z</time>
      </trkpt>
      <trkpt lat="48.89186" lon="2.2905">
        <ele>91.5</ele>
        <time>2015-03-23T19:53:49.142Z</time>
      </trkpt>
      <trkpt lat="48.89191" lon="2.29046">
        <ele>91.6</ele>
        <time>2015-03-23T19:53:50.147Z</time>
      </trkpt>
      <trkpt lat="48.89195" lon="2.29042">
        <ele>91.7</ele>
        <time>2015-03-23T19:53:51.161Z</time>
      </trkpt>
      <trkpt lat="48.89198" lon="2.29038">
        <ele>91.8</ele>
        <time>2015-03-23T19:53:52.181Z</time>
      </trkpt>
      <trkpt lat="48.89202" lon="2.29035">
        <ele>91.9</ele>
        <time>2015-03-23T19:53:53.090Z</time>
      </trkpt>
      <trkpt lat="48.89207" lon="2.29031">
        <ele>92.1</ele>
        <time>2015-03-23T19:53:54.093Z</time>
      </trkpt>
      <trkpt lat="48.89214" lon="2.29025">
        <ele>92.4</ele>
        <time>2015-03-23T19:53:56.160Z</time>
      </trkpt>
      <trkpt lat="48.89218" lon="2.29022">
        <ele>92.6</ele>
        <time>2015-03-23T19:53:57.181Z</time>
      </trkpt>
      <trkpt lat="48.89223" lon="2.29019">
        <ele>92.7</ele>
        <time>2015-03-23T19:53:58.104Z</time>
      </trkpt>
      <trkpt lat="48.89226" lon="2.29016">
        <ele>92.9</ele>
        <time>2015-03-23T19:53:59.175Z</time>
      </trkpt>
      <trkpt lat="48.89232" lon="2.29008">
        <ele>92.8</ele>
        <time>2015-03-23T19:54:02.144Z</time>
      </trkpt>
      <trkpt lat="48.89235" lon="2.29005">
        <ele>92.8</ele>
        <time>2015-03-23T19:54:03.149Z</time>
      </trkpt>
      <trkpt lat="48.89239" lon="2.29">
        <ele>92.6</ele>
        <time>2015-03-23T19:54:04.182Z</time>
      </trkpt>
      <trkpt lat="48.89242" lon="2.28995">
        <ele>92.6</ele>
        <time>2015-03-23T19:54:05.102Z</time>
      </trkpt>
      <trkpt lat="48.89248" lon="2.28986">
        <ele>92.6</ele>
        <time>2015-03-23T19:54:07.126Z</time>
      </trkpt>
      <trkpt lat="48.8925" lon="2.28983">
        <ele>92.7</ele>
        <time>2015-03-23T19:54:08.101Z</time>
      </trkpt>
      <trkpt lat="48.89255" lon="2.28978">
        <ele>93</ele>
        <time>2015-03-23T19:54:09.120Z</time>
      </trkpt>
      <trkpt lat="48.8926" lon="2.28973">
        <ele>93.3</ele>
        <time>2015-03-23T19:54:10.126Z</time>
      </trkpt>
      <trkpt lat="48.89267" lon="2.28967">
        <ele>93.2</ele>
        <time>2015-03-23T19:54:11.137Z</time>
      </trkpt>
      <trkpt lat="48.89275" lon="2.28959">
        <ele>92.8</ele>
        <time>2015-03-23T19:54:12.144Z</time>
      </trkpt>
      <trkpt lat="48.89279" lon="2.28955">
        <ele>92.7</ele>
        <time>2015-03-23T19:54:13.159Z</time>
      </trkpt>
      <trkpt lat="48.89288" lon="2.28951">
        <ele>93.3</ele>
        <time>2015-03-23T19:54:14.180Z</time>
      </trkpt>
      <trkpt lat="48.89297" lon="2.28947">
        <ele>93.6</ele>
        <time>2015-03-23T19:54:15.087Z</time>
      </trkpt>
      <trkpt lat="48.8931" lon="2.28942">
        <ele>94.3</ele>
        <time>2015-03-23T19:54:16.096Z</time>
      </trkpt>
      <trkpt lat="48.89318" lon="2.28937">
        <ele>94.7</ele>
        <time>2015-03-23T19:54:17.116Z</time>
      </trkpt>
      <trkpt lat="48.89322" lon="2.28933">
        <ele>94.9</ele>
        <time>2015-03-23T19:54:18.129Z</time>
      </trkpt>
      <trkpt lat="48.8933" lon="2.28926">
        <ele>95</ele>
        <time>2015-03-23T19:54:20.178Z</time>
      </trkpt>
      <trkpt lat="48.89332" lon="2.28925">
        <ele>95.1</ele>
        <time>2015-03-23T19:54:21.190Z</time>
      </trkpt>
      <trkpt lat="48.89339" lon="2.28919">
        <ele>95.5</ele>
        <time>2015-03-23T19:54:25.151Z</time>
      </trkpt>
      <trkpt lat="48.8934" lon="2.28917">
        <ele>95.7</ele>
        <time>2015-03-23T19:54:26.160Z</time>
      </trkpt>
      <trkpt lat="48.89344" lon="2.28912">
        <ele>95.2</ele>
        <time>2015-03-23T19:54:28.091Z</time>
      </trkpt>
      <trkpt lat="48.89347" lon="2.28907">
        <ele>94.7</ele>
        <time>2015-03-23T19:54:29.102Z</time>
      </trkpt>
      <trkpt lat="48.89351" lon="2.28901">
        <ele>94.4</ele>
        <time>2015-03-23T19:54:30.132Z</time>
      </trkpt>
      <trkpt lat="48.89353" lon="2.28897">
        <ele>94.4</ele>
        <time>2015-03-23T19:54:31.138Z</time>
      </trkpt>
      <trkpt lat="48.89358" lon="2.28887">
        <ele>94.4</ele>
        <time>2015-03-23T19:54:33.097Z</time>
      </trkpt>
      <trkpt lat="48.89361" lon="2.28882">
        <ele>94.5</ele>
        <time>2015-03-23T19:54:34.109Z</time>
      </trkpt>
      <trkpt lat="48.89365" lon="2.28874">
        <ele>94.7</ele>
        <time>2015-03-23T19:54:36.139Z</time>
      </trkpt>
      <trkpt lat="48.8937" lon="2.28867">
        <ele>94.7</ele>
        <time>2015-03-23T19:54:37.151Z</time>
      </trkpt>
      <trkpt lat="48.89377" lon="2.28863">
        <ele>94.8</ele>
        <time>2015-03-23T19:54:38.183Z</time>
      </trkpt>
      <trkpt lat="48.89383" lon="2.28856">
        <ele>95.4</ele>
        <time>2015-03-23T19:54:39.088Z</time>
      </trkpt>
      <trkpt lat="48.89389" lon="2.28851">
        <ele>95.8</ele>
        <time>2015-03-23T19:54:40.091Z</time>
      </trkpt>
      <trkpt lat="48.89393" lon="2.28847">
        <ele>96</ele>
        <time>2015-03-23T19:54:41.092Z</time>
      </trkpt>
      <trkpt lat="48.89398" lon="2.28842">
        <ele>96.2</ele>
        <time>2015-03-23T19:54:42.101Z</time>
      </trkpt>
      <trkpt lat="48.89403" lon="2.28838">
        <ele>96.4</ele>
        <time>2015-03-23T19:54:43.134Z</time>
      </trkpt>
      <trkpt lat="48.89407" lon="2.28835">
        <ele>96.4</ele>
        <time>2015-03-23T19:54:44.143Z</time>
      </trkpt>
      <trkpt lat="48.89411" lon="2.28831">
        <ele>96.5</ele>
        <time>2015-03-23T19:54:45.160Z</time>
      </trkpt>
      <trkpt lat="48.89415" lon="2.28825">
        <ele>96.6</ele>
        <time>2015-03-23T19:54:47.091Z</time>
      </trkpt>
      <trkpt lat="48.89418" lon="2.28821">
        <ele>96.6</ele>
        <time>2015-03-23T19:54:48.101Z</time>
      </trkpt>
      <trkpt lat="48.89425" lon="2.28815">
        <ele>96.5</ele>
        <time>2015-03-23T19:54:50.137Z</time>
      </trkpt>
      <trkpt lat="48.89611" lon="2.28657">
        <ele>95.3</ele>
        <time>2015-03-23T19:55:32.145Z</time>
      </trkpt>
      <trkpt lat="48.89617" lon="2.28651">
        <ele>95.4</ele>
        <time>2015-03-23T19:55:33.110Z</time>
      </trkpt>
      <trkpt lat="48.89624" lon="2.28646">
        <ele>95.5</ele>
        <time>2015-03-23T19:55:34.115Z</time>
      </trkpt>
      <trkpt lat="48.89624" lon="2.28646">
        <ele>95.5</ele>
        <time>2015-03-23T19:55:34.939Z</time>
      </trkpt>
      <trkpt lat="48.89632" lon="2.28639">
        <ele>95.7</ele>
        <time>2015-03-23T19:55:35.125Z</time>
      </trkpt>
      <trkpt lat="48.89638" lon="2.28633">
        <ele>95.8</ele>
        <time>2015-03-23T19:55:36.135Z</time>
      </trkpt>
      <trkpt lat="48.89643" lon="2.28627">
        <ele>95.9</ele>
        <time>2015-03-23T19:55:37.145Z</time>
      </trkpt>
      <trkpt lat="48.89648" lon="2.28621">
        <ele>96</ele>
        <time>2015-03-23T19:55:38.163Z</time>
      </trkpt>
      <trkpt lat="48.89653" lon="2.28614">
        <ele>96.1</ele>
        <time>2015-03-23T19:55:39.175Z</time>
      </trkpt>
      <trkpt lat="48.89655" lon="2.28608">
        <ele>96.2</ele>
        <time>2015-03-23T19:55:40.086Z</time>
      </trkpt>
      <trkpt lat="48.89661" lon="2.28601">
        <ele>96.2</ele>
        <time>2015-03-23T19:55:41.089Z</time>
      </trkpt>
      <trkpt lat="48.89664" lon="2.28593">
        <ele>96.3</ele>
        <time>2015-03-23T19:55:42.112Z</time>
      </trkpt>
      <trkpt lat="48.89665" lon="2.28587">
        <ele>96.2</ele>
        <time>2015-03-23T19:55:43.125Z</time>
      </trkpt>
      <trkpt lat="48.89655" lon="2.28579">
        <ele>96.4</ele>
        <time>2015-03-23T19:55:44.138Z</time>
      </trkpt>
      <trkpt lat="48.89648" lon="2.28573">
        <ele>96.5</ele>
        <time>2015-03-23T19:55:45.162Z</time>
      </trkpt>
      <trkpt lat="48.89642" lon="2.28566">
        <ele>96.5</ele>
        <time>2015-03-23T19:55:46.178Z</time>
      </trkpt>
      <trkpt lat="48.89634" lon="2.28559">
        <ele>96.5</ele>
        <time>2015-03-23T19:55:47.089Z</time>
      </trkpt>
      <trkpt lat="48.89632" lon="2.28548">
        <ele>96.4</ele>
        <time>2015-03-23T19:55:49.144Z</time>
      </trkpt>
      <trkpt lat="48.89631" lon="2.28543">
        <ele>96.5</ele>
        <time>2015-03-23T19:55:50.253Z</time>
      </trkpt>
      <trkpt lat="48.89628" lon="2.28535">
        <ele>96.5</ele>
        <time>2015-03-23T19:55:51.070Z</time>
      </trkpt>
      <trkpt lat="48.89628" lon="2.28528">
        <ele>96.6</ele>
        <time>2015-03-23T19:55:52.085Z</time>
      </trkpt>
      <trkpt lat="48.89625" lon="2.28515">
        <ele>96.5</ele>
        <time>2015-03-23T19:55:54.130Z</time>
      </trkpt>
      <trkpt lat="48.89624" lon="2.28509">
        <ele>96.4</ele>
        <time>2015-03-23T19:55:55.147Z</time>
      </trkpt>
      <trkpt lat="48.89622" lon="2.28497">
        <ele>96.3</ele>
        <time>2015-03-23T19:55:57.078Z</time>
      </trkpt>
      <trkpt lat="48.89621" lon="2.28491">
        <ele>96.3</ele>
        <time>2015-03-23T19:55:58.138Z</time>
      </trkpt>
      <trkpt lat="48.89623" lon="2.28479">
        <ele>96</ele>
        <time>2015-03-23T19:56:00.087Z</time>
      </trkpt>
      <trkpt lat="48.89623" lon="2.28473">
        <ele>96.1</ele>
        <time>2015-03-23T19:56:01.215Z</time>
      </trkpt>
      <trkpt lat="48.89622" lon="2.2846">
        <ele>95.9</ele>
        <time>2015-03-23T19:56:04.125Z</time>
      </trkpt>
      <trkpt lat="48.89622" lon="2.28456">
        <ele>96</ele>
        <time>2015-03-23T19:56:05.079Z</time>
      </trkpt>
      <trkpt lat="48.89621" lon="2.28447">
        <ele>96</ele>
        <time>2015-03-23T19:56:07.122Z</time>
      </trkpt>
      <trkpt lat="48.89599" lon="2.2844">
        <ele>97.1</ele>
        <time>2015-03-23T19:56:08.133Z</time>
      </trkpt>
      <trkpt lat="48.89597" lon="2.28431">
        <ele>97.5</ele>
        <time>2015-03-23T19:56:10.182Z</time>
      </trkpt>
      <trkpt lat="48.89595" lon="2.28426">
        <ele>97.7</ele>
        <time>2015-03-23T19:56:11.102Z</time>
      </trkpt>
      <trkpt lat="48.89595" lon="2.28413">
        <ele>98.1</ele>
        <time>2015-03-23T19:56:14.156Z</time>
      </trkpt>
      <trkpt lat="48.89596" lon="2.28409">
        <ele>98.2</ele>
        <time>2015-03-23T19:56:15.102Z</time>
      </trkpt>
      <trkpt lat="48.89599" lon="2.28399">
        <ele>97.9</ele>
        <time>2015-03-23T19:56:17.136Z</time>
      </trkpt>
      <trkpt lat="48.896" lon="2.28395">
        <ele>97.8</ele>
        <time>2015-03-23T19:56:18.150Z</time>
      </trkpt>
      <trkpt lat="48.89603" lon="2.28382">
        <ele>97.1</ele>
        <time>2015-03-23T19:56:21.069Z</time>
      </trkpt>
      <trkpt lat="48.89603" lon="2.28378">
        <ele>96.8</ele>
        <time>2015-03-23T19:56:22.101Z</time>
      </trkpt>
      <trkpt lat="48.896" lon="2.28366">
        <ele>96.1</ele>
        <time>2015-03-23T19:56:25.204Z</time>
      </trkpt>
      <trkpt lat="48.89598" lon="2.28363">
        <ele>95.9</ele>
        <time>2015-03-23T19:56:26.100Z</time>
      </trkpt>
      <trkpt lat="48.89595" lon="2.2835">
        <ele>95.5</ele>
        <time>2015-03-23T19:56:30.154Z</time>
      </trkpt>
      <trkpt lat="48.89594" lon="2.28346">
        <ele>95.5</ele>
        <time>2015-03-23T19:56:31.167Z</time>
      </trkpt>
      <trkpt lat="48.89592" lon="2.28334">
        <ele>95.4</ele>
        <time>2015-03-23T19:56:34.097Z</time>
      </trkpt>
      <trkpt lat="48.8959" lon="2.28331">
        <ele>95.4</ele>
        <time>2015-03-23T19:56:35.163Z</time>
      </trkpt>
      <trkpt lat="48.89586" lon="2.28324">
        <ele>95.3</ele>
        <time>2015-03-23T19:56:37.216Z</time>
      </trkpt>
      <trkpt lat="48.89583" lon="2.2832">
        <ele>95.3</ele>
        <time>2015-03-23T19:56:38.097Z</time>
      </trkpt>
      <trkpt lat="48.89578" lon="2.28309">
        <ele>95.4</ele>
        <time>2015-03-23T19:56:41.126Z</time>
      </trkpt>
      <trkpt lat="48.89576" lon="2.28306">
        <ele>95.5</ele>
        <time>2015-03-23T19:56:42.194Z</time>
      </trkpt>
      <trkpt lat="48.89573" lon="2.28294">
        <ele>95.6</ele>
        <time>2015-03-23T19:56:46.099Z</time>
      </trkpt>
      <trkpt lat="48.89571" lon="2.28291">
        <ele>95.6</ele>
        <time>2015-03-23T19:56:47.110Z</time>
      </trkpt>
      <trkpt lat="48.89567" lon="2.28284">
        <ele>95.5</ele>
        <time>2015-03-23T19:56:49.156Z</time>
      </trkpt>
      <trkpt lat="48.89563" lon="2.28282">
        <ele>95.9</ele>
        <time>2015-03-23T19:56:50.182Z</time>
      </trkpt>
      <trkpt lat="48.89557" lon="2.28272">
        <ele>96.6</ele>
        <time>2015-03-23T19:56:54.114Z</time>
      </trkpt>
      <trkpt lat="48.89556" lon="2.28268">
        <ele>96.6</ele>
        <time>2015-03-23T19:56:55.139Z</time>
      </trkpt>
      <trkpt lat="48.89553" lon="2.28258">
        <ele>96.6</ele>
        <time>2015-03-23T19:56:58.133Z</time>
      </trkpt>
      <trkpt lat="48.89551" lon="2.28255">
        <ele>96.5</ele>
        <time>2015-03-23T19:56:59.093Z</time>
      </trkpt>
      <trkpt lat="48.89547" lon="2.28246">
        <ele>96.6</ele>
        <time>2015-03-23T19:57:02.092Z</time>
      </trkpt>
      <trkpt lat="48.89547" lon="2.28242">
        <ele>96.4</ele>
        <time>2015-03-23T19:57:03.137Z</time>
      </trkpt>
      <trkpt lat="48.89542" lon="2.28232">
        <ele>96.4</ele>
        <time>2015-03-23T19:57:08.087Z</time>
      </trkpt>
      <trkpt lat="48.89541" lon="2.28231">
        <ele>96.5</ele>
        <time>2015-03-23T19:57:09.104Z</time>
      </trkpt>
      <trkpt lat="48.89535" lon="2.28222">
        <ele>95.5</ele>
        <time>2015-03-23T19:57:16.089Z</time>
      </trkpt>
      <trkpt lat="48.89534" lon="2.28221">
        <ele>95.4</ele>
        <time>2015-03-23T19:57:17.113Z</time>
      </trkpt>
      <trkpt lat="48.89529" lon="2.28211">
        <ele>95.1</ele>
        <time>2015-03-23T19:57:24.111Z</time>
      </trkpt>
      <trkpt lat="48.89529" lon="2.28209">
        <ele>95.1</ele>
        <time>2015-03-23T19:57:25.131Z</time>
      </trkpt>
      <trkpt lat="48.89534" lon="2.28198">
        <ele>94.9</ele>
        <time>2015-03-23T19:57:30.133Z</time>
      </trkpt>
      <trkpt lat="48.89535" lon="2.28197">
        <ele>94.9</ele>
        <time>2015-03-23T19:57:31.164Z</time>
      </trkpt>
      <trkpt lat="48.89533" lon="2.28184">
        <ele>94.8</ele>
        <time>2015-03-23T19:57:36.145Z</time>
      </trkpt>
      <trkpt lat="48.89532" lon="2.28181">
        <ele>94.9</ele>
        <time>2015-03-23T19:57:37.180Z</time>
      </trkpt>
      <trkpt lat="48.89526" lon="2.28172">
        <ele>94.8</ele>
        <time>2015-03-23T19:57:39.100Z</time>
      </trkpt>
      <trkpt lat="48.89523" lon="2.28168">
        <ele>94.8</ele>
        <time>2015-03-23T19:57:40.108Z</time>
      </trkpt>
      <trkpt lat="48.89518" lon="2.28164">
        <ele>94.9</ele>
        <time>2015-03-23T19:57:41.133Z</time>
      </trkpt>
      <trkpt lat="48.89513" lon="2.28159">
        <ele>94.9</ele>
        <time>2015-03-23T19:57:42.158Z</time>
      </trkpt>
      <trkpt lat="48.89509" lon="2.28154">
        <ele>95</ele>
        <time>2015-03-23T19:57:43.177Z</time>
      </trkpt>
      <trkpt lat="48.89503" lon="2.28148">
        <ele>95.2</ele>
        <time>2015-03-23T19:57:44.084Z</time>
      </trkpt>
      <trkpt lat="48.89496" lon="2.28142">
        <ele>95.4</ele>
        <time>2015-03-23T19:57:45.095Z</time>
      </trkpt>
      <trkpt lat="48.8949" lon="2.28136">
        <ele>95.4</ele>
        <time>2015-03-23T19:57:46.122Z</time>
      </trkpt>
      <trkpt lat="48.89484" lon="2.28128">
        <ele>95.8</ele>
        <time>2015-03-23T19:57:48.078Z</time>
      </trkpt>
      <trkpt lat="48.89481" lon="2.28124">
        <ele>95.9</ele>
        <time>2015-03-23T19:57:49.139Z</time>
      </trkpt>
      <trkpt lat="48.8948" lon="2.28115">
        <ele>96.2</ele>
        <time>2015-03-23T19:57:51.087Z</time>
      </trkpt>
      <trkpt lat="48.89478" lon="2.28109">
        <ele>96.3</ele>
        <time>2015-03-23T19:57:52.099Z</time>
      </trkpt>
      <trkpt lat="48.89476" lon="2.28099">
        <ele>96.4</ele>
        <time>2015-03-23T19:57:54.128Z</time>
      </trkpt>
      <trkpt lat="48.89478" lon="2.28095">
        <ele>96.5</ele>
        <time>2015-03-23T19:57:55.165Z</time>
      </trkpt>
      <trkpt lat="48.89485" lon="2.28091">
        <ele>96.9</ele>
        <time>2015-03-23T19:57:56.177Z</time>
      </trkpt>
      <trkpt lat="48.89486" lon="2.28086">
        <ele>96.9</ele>
        <time>2015-03-23T19:57:57.091Z</time>
      </trkpt>
      <trkpt lat="48.89488" lon="2.28077">
        <ele>97.1</ele>
        <time>2015-03-23T19:57:59.124Z</time>
      </trkpt>
      <trkpt lat="48.8949" lon="2.28072">
        <ele>97.4</ele>
        <time>2015-03-23T19:58:00.130Z</time>
      </trkpt>
      <trkpt lat="48.89492" lon="2.28061">
        <ele>97.8</ele>
        <time>2015-03-23T19:58:02.087Z</time>
      </trkpt>
      <trkpt lat="48.89491" lon="2.28054">
        <ele>97.8</ele>
        <time>2015-03-23T19:58:03.096Z</time>
      </trkpt>
      <trkpt lat="48.89488" lon="2.28042">
        <ele>97.8</ele>
        <time>2015-03-23T19:58:05.089Z</time>
      </trkpt>
      <trkpt lat="48.89487" lon="2.28037">
        <ele>97.7</ele>
        <time>2015-03-23T19:58:06.131Z</time>
      </trkpt>
      <trkpt lat="48.89485" lon="2.28032">
        <ele>97.7</ele>
        <time>2015-03-23T19:58:07.140Z</time>
      </trkpt>
      <trkpt lat="48.8955" lon="2.28246">
        <ele>97.8</ele>
        <time>2015-03-23T19:58:08.157Z</time>
      </trkpt>
      <trkpt lat="48.89544" lon="2.28226">
        <ele>97.9</ele>
        <time>2015-03-23T19:58:09.150Z</time>
      </trkpt>
      <trkpt lat="48.89537" lon="2.28204">
        <ele>97.9</ele>
        <time>2015-03-23T19:58:10.095Z</time>
      </trkpt>
      <trkpt lat="48.89531" lon="2.28186">
        <ele>98</ele>
        <time>2015-03-23T19:58:11.123Z</time>
      </trkpt>
      <trkpt lat="48.89525" lon="2.28166">
        <ele>97.9</ele>
        <time>2015-03-23T19:58:12.137Z</time>
      </trkpt>
      <trkpt lat="48.89517" lon="2.28143">
        <ele>97.9</ele>
        <time>2015-03-23T19:58:13.156Z</time>
      </trkpt>
      <trkpt lat="48.89509" lon="2.2812">
        <ele>97.8</ele>
        <time>2015-03-23T19:58:14.080Z</time>
      </trkpt>
      <trkpt lat="48.89502" lon="2.281">
        <ele>97.7</ele>
        <time>2015-03-23T19:58:15.063Z</time>
      </trkpt>
      <trkpt lat="48.89496" lon="2.28083">
        <ele>97.8</ele>
        <time>2015-03-23T19:58:16.060Z</time>
      </trkpt>
      <trkpt lat="48.89496" lon="2.28083">
        <ele>97.8</ele>
        <time>2015-03-23T19:58:15.686Z</time>
      </trkpt>
      <trkpt lat="48.8949" lon="2.28066">
        <ele>97.7</ele>
        <time>2015-03-23T19:58:17.062Z</time>
      </trkpt>
      <trkpt lat="48.89486" lon="2.28054">
        <ele>97.7</ele>
        <time>2015-03-23T19:58:18.075Z</time>
      </trkpt>
      <trkpt lat="48.89482" lon="2.28043">
        <ele>97.8</ele>
        <time>2015-03-23T19:58:19.089Z</time>
      </trkpt>
      <trkpt lat="48.89478" lon="2.28031">
        <ele>97.9</ele>
        <time>2015-03-23T19:58:20.123Z</time>
      </trkpt>
      <trkpt lat="48.89474" lon="2.28021">
        <ele>97.8</ele>
        <time>2015-03-23T19:58:21.136Z</time>
      </trkpt>
      <trkpt lat="48.89471" lon="2.28012">
        <ele>97.7</ele>
        <time>2015-03-23T19:58:22.153Z</time>
      </trkpt>
      <trkpt lat="48.89468" lon="2.28003">
        <ele>97.8</ele>
        <time>2015-03-23T19:58:23.167Z</time>
      </trkpt>
      <trkpt lat="48.89465" lon="2.27995">
        <ele>97.7</ele>
        <time>2015-03-23T19:58:24.072Z</time>
      </trkpt>
      <trkpt lat="48.89463" lon="2.27987">
        <ele>97.7</ele>
        <time>2015-03-23T19:58:26.056Z</time>
      </trkpt>
      <trkpt lat="48.89459" lon="2.2798">
        <ele>98.4</ele>
        <time>2015-03-23T19:58:26.158Z</time>
      </trkpt>
      <trkpt lat="48.89455" lon="2.27973">
        <ele>98.4</ele>
        <time>2015-03-23T19:58:27.125Z</time>
      </trkpt>
      <trkpt lat="48.89434" lon="2.27934">
        <ele>98.3</ele>
        <time>2015-03-23T19:58:28.128Z</time>
      </trkpt>
      <trkpt lat="48.89428" lon="2.27929">
        <ele>98.4</ele>
        <time>2015-03-23T19:58:29.071Z</time>
      </trkpt>
      <trkpt lat="48.89421" lon="2.27923">
        <ele>98.4</ele>
        <time>2015-03-23T19:58:30.096Z</time>
      </trkpt>
      <trkpt lat="48.89421" lon="2.27923">
        <ele>98.4</ele>
        <time>2015-03-23T19:58:30.123Z</time>
      </trkpt>
      <trkpt lat="48.89412" lon="2.27912">
        <ele>98.2</ele>
        <time>2015-03-23T19:58:32.119Z</time>
      </trkpt>
      <trkpt lat="48.89407" lon="2.27902">
        <ele>98.1</ele>
        <time>2015-03-23T19:58:34.140Z</time>
      </trkpt>
      <trkpt lat="48.89403" lon="2.27898">
        <ele>98.1</ele>
        <time>2015-03-23T19:58:35.092Z</time>
      </trkpt>
      <trkpt lat="48.89399" lon="2.27892">
        <ele>98.2</ele>
        <time>2015-03-23T19:58:36.077Z</time>
      </trkpt>
      <trkpt lat="48.89395" lon="2.27886">
        <ele>98.3</ele>
        <time>2015-03-23T19:58:37.088Z</time>
      </trkpt>
      <trkpt lat="48.89391" lon="2.2788">
        <ele>98.6</ele>
        <time>2015-03-23T19:58:38.111Z</time>
      </trkpt>
      <trkpt lat="48.89386" lon="2.27874">
        <ele>98.8</ele>
        <time>2015-03-23T19:58:39.121Z</time>
      </trkpt>
      <trkpt lat="48.89377" lon="2.27866">
        <ele>99.1</ele>
        <time>2015-03-23T19:58:40.131Z</time>
      </trkpt>
      <trkpt lat="48.89368" lon="2.2786">
        <ele>99.4</ele>
        <time>2015-03-23T19:58:41.160Z</time>
      </trkpt>
      <trkpt lat="48.89361" lon="2.27854">
        <ele>99.8</ele>
        <time>2015-03-23T19:58:42.182Z</time>
      </trkpt>
      <trkpt lat="48.89357" lon="2.27848">
        <ele>100</ele>
        <time>2015-03-23T19:58:43.195Z</time>
      </trkpt>
      <trkpt lat="48.89357" lon="2.27835">
        <ele>100.3</ele>
        <time>2015-03-23T19:58:45.091Z</time>
      </trkpt>
      <trkpt lat="48.89356" lon="2.2783">
        <ele>100.3</ele>
        <time>2015-03-23T19:58:46.110Z</time>
      </trkpt>
      <trkpt lat="48.89353" lon="2.27821">
        <ele>100.6</ele>
        <time>2015-03-23T19:58:48.150Z</time>
      </trkpt>
      <trkpt lat="48.89352" lon="2.27816">
        <ele>100.6</ele>
        <time>2015-03-23T19:58:49.146Z</time>
      </trkpt>
      <trkpt lat="48.8935" lon="2.27806">
        <ele>100.7</ele>
        <time>2015-03-23T19:58:51.087Z</time>
      </trkpt>
      <trkpt lat="48.8935" lon="2.278">
        <ele>100.9</ele>
        <time>2015-03-23T19:58:52.104Z</time>
      </trkpt>
      <trkpt lat="48.89347" lon="2.27789">
        <ele>101.1</ele>
        <time>2015-03-23T19:58:54.184Z</time>
      </trkpt>
      <trkpt lat="48.89345" lon="2.27784">
        <ele>101.4</ele>
        <time>2015-03-23T19:58:55.240Z</time>
      </trkpt>
      <trkpt lat="48.89343" lon="2.27773">
        <ele>101.6</ele>
        <time>2015-03-23T19:58:57.139Z</time>
      </trkpt>
      <trkpt lat="48.89343" lon="2.27768">
        <ele>101.9</ele>
        <time>2015-03-23T19:58:58.150Z</time>
      </trkpt>
      <trkpt lat="48.89343" lon="2.27756">
        <ele>102.1</ele>
        <time>2015-03-23T19:59:00.082Z</time>
      </trkpt>
      <trkpt lat="48.89342" lon="2.2775">
        <ele>102.1</ele>
        <time>2015-03-23T19:59:01.160Z</time>
      </trkpt>
      <trkpt lat="48.89341" lon="2.27741">
        <ele>102.3</ele>
        <time>2015-03-23T19:59:03.088Z</time>
      </trkpt>
      <trkpt lat="48.8934" lon="2.27736">
        <ele>102.4</ele>
        <time>2015-03-23T19:59:04.099Z</time>
      </trkpt>
      <trkpt lat="48.8934" lon="2.27725">
        <ele>102.6</ele>
        <time>2015-03-23T19:59:06.113Z</time>
      </trkpt>
      <trkpt lat="48.89341" lon="2.27718">
        <ele>103.3</ele>
        <time>2015-03-23T19:59:07.135Z</time>
      </trkpt>
      <trkpt lat="48.89343" lon="2.2771">
        <ele>104.7</ele>
        <time>2015-03-23T19:59:08.095Z</time>
      </trkpt>
      <trkpt lat="48.89342" lon="2.27705">
        <ele>105</ele>
        <time>2015-03-23T19:59:09.115Z</time>
      </trkpt>
      <trkpt lat="48.89339" lon="2.27693">
        <ele>105.5</ele>
        <time>2015-03-23T19:59:11.159Z</time>
      </trkpt>
      <trkpt lat="48.89337" lon="2.27687">
        <ele>105.1</ele>
        <time>2015-03-23T19:59:12.224Z</time>
      </trkpt>
      <trkpt lat="48.89334" lon="2.27675">
        <ele>104.4</ele>
        <time>2015-03-23T19:59:14.148Z</time>
      </trkpt>
      <trkpt lat="48.89333" lon="2.2767">
        <ele>104.2</ele>
        <time>2015-03-23T19:59:15.165Z</time>
      </trkpt>
      <trkpt lat="48.89329" lon="2.27662">
        <ele>104.1</ele>
        <time>2015-03-23T19:59:17.084Z</time>
      </trkpt>
      <trkpt lat="48.89327" lon="2.27657">
        <ele>104.1</ele>
        <time>2015-03-23T19:59:18.102Z</time>
      </trkpt>
      <trkpt lat="48.89323" lon="2.27647">
        <ele>104.1</ele>
        <time>2015-03-23T19:59:20.059Z</time>
      </trkpt>
      <trkpt lat="48.8932" lon="2.27642">
        <ele>104.1</ele>
        <time>2015-03-23T19:59:21.091Z</time>
      </trkpt>
      <trkpt lat="48.89315" lon="2.27632">
        <ele>104.2</ele>
        <time>2015-03-23T19:59:23.126Z</time>
      </trkpt>
      <trkpt lat="48.89314" lon="2.27626">
        <ele>104.2</ele>
        <time>2015-03-23T19:59:24.100Z</time>
      </trkpt>
      <trkpt lat="48.8931" lon="2.27614">
        <ele>104.2</ele>
        <time>2015-03-23T19:59:27.110Z</time>
      </trkpt>
      <trkpt lat="48.89309" lon="2.2761">
        <ele>104.1</ele>
        <time>2015-03-23T19:59:28.109Z</time>
      </trkpt>
      <trkpt lat="48.89305" lon="2.27601">
        <ele>103.9</ele>
        <time>2015-03-23T19:59:30.162Z</time>
      </trkpt>
      <trkpt lat="48.89304" lon="2.27597">
        <ele>103.8</ele>
        <time>2015-03-23T19:59:31.178Z</time>
      </trkpt>
      <trkpt lat="48.89302" lon="2.27585">
        <ele>104.3</ele>
        <time>2015-03-23T19:59:33.109Z</time>
      </trkpt>
      <trkpt lat="48.89301" lon="2.2758">
        <ele>104.5</ele>
        <time>2015-03-23T19:59:34.124Z</time>
      </trkpt>
      <trkpt lat="48.89298" lon="2.27569">
        <ele>104.6</ele>
        <time>2015-03-23T19:59:36.144Z</time>
      </trkpt>
      <trkpt lat="48.89296" lon="2.27565">
        <ele>104.7</ele>
        <time>2015-03-23T19:59:37.168Z</time>
      </trkpt>
      <trkpt lat="48.89292" lon="2.27556">
        <ele>104.7</ele>
        <time>2015-03-23T19:59:39.092Z</time>
      </trkpt>
      <trkpt lat="48.89288" lon="2.27551">
        <ele>104.7</ele>
        <time>2015-03-23T19:59:40.107Z</time>
      </trkpt>
      <trkpt lat="48.89284" lon="2.27541">
        <ele>104.6</ele>
        <time>2015-03-23T19:59:42.080Z</time>
      </trkpt>
      <trkpt lat="48.8928" lon="2.27536">
        <ele>104.6</ele>
        <time>2015-03-23T19:59:43.144Z</time>
      </trkpt>
      <trkpt lat="48.89276" lon="2.27533">
        <ele>104.4</ele>
        <time>2015-03-23T19:59:44.182Z</time>
      </trkpt>
      <trkpt lat="48.89272" lon="2.27529">
        <ele>104.4</ele>
        <time>2015-03-23T19:59:45.095Z</time>
      </trkpt>
      <trkpt lat="48.89267" lon="2.27521">
        <ele>104</ele>
        <time>2015-03-23T19:59:47.110Z</time>
      </trkpt>
      <trkpt lat="48.89315" lon="2.27642">
        <ele>103.8</ele>
        <time>2015-03-23T19:59:48.161Z</time>
      </trkpt>
      <trkpt lat="48.89305" lon="2.27617">
        <ele>103.8</ele>
        <time>2015-03-23T19:59:49.211Z</time>
      </trkpt>
      <trkpt lat="48.89296" lon="2.27594">
        <ele>103.8</ele>
        <time>2015-03-23T19:59:50.104Z</time>
      </trkpt>
      <trkpt lat="48.8929" lon="2.27579">
        <ele>103.8</ele>
        <time>2015-03-23T19:59:51.137Z</time>
      </trkpt>
      <trkpt lat="48.89285" lon="2.27563">
        <ele>103.8</ele>
        <time>2015-03-23T19:59:52.199Z</time>
      </trkpt>
      <trkpt lat="48.89285" lon="2.27563">
        <ele>103.8</ele>
        <time>2015-03-23T19:59:50.730Z</time>
      </trkpt>
      <trkpt lat="48.89279" lon="2.27546">
        <ele>103.7</ele>
        <time>2015-03-23T19:59:53.106Z</time>
      </trkpt>
      <trkpt lat="48.89274" lon="2.27532">
        <ele>103.6</ele>
        <time>2015-03-23T19:59:54.102Z</time>
      </trkpt>
      <trkpt lat="48.8927" lon="2.27519">
        <ele>103.6</ele>
        <time>2015-03-23T19:59:55.146Z</time>
      </trkpt>
      <trkpt lat="48.89267" lon="2.27508">
        <ele>103.4</ele>
        <time>2015-03-23T19:59:56.147Z</time>
      </trkpt>
      <trkpt lat="48.89265" lon="2.27497">
        <ele>103.2</ele>
        <time>2015-03-23T19:59:57.151Z</time>
      </trkpt>
      <trkpt lat="48.89263" lon="2.27489">
        <ele>103.2</ele>
        <time>2015-03-23T19:59:58.170Z</time>
      </trkpt>
      <trkpt lat="48.89262" lon="2.27481">
        <ele>103.2</ele>
        <time>2015-03-23T19:59:59.181Z</time>
      </trkpt>
      <trkpt lat="48.89261" lon="2.27474">
        <ele>103.2</ele>
        <time>2015-03-23T20:00:00.885Z</time>
      </trkpt>
      <trkpt lat="48.8926" lon="2.27467">
        <ele>103.1</ele>
        <time>2015-03-23T20:00:01.137Z</time>
      </trkpt>
      <trkpt lat="48.89257" lon="2.27455">
        <ele>102.9</ele>
        <time>2015-03-23T20:00:03.153Z</time>
      </trkpt>
      <trkpt lat="48.89255" lon="2.27448">
        <ele>102.8</ele>
        <time>2015-03-23T20:00:04.167Z</time>
      </trkpt>
      <trkpt lat="48.89251" lon="2.27436">
        <ele>102.4</ele>
        <time>2015-03-23T20:00:06.123Z</time>
      </trkpt>
      <trkpt lat="48.89248" lon="2.2743">
        <ele>102.2</ele>
        <time>2015-03-23T20:00:07.171Z</time>
      </trkpt>
      <trkpt lat="48.89244" lon="2.27419">
        <ele>101.9</ele>
        <time>2015-03-23T20:00:09.112Z</time>
      </trkpt>
      <trkpt lat="48.89241" lon="2.27413">
        <ele>101.7</ele>
        <time>2015-03-23T20:00:10.132Z</time>
      </trkpt>
      <trkpt lat="48.89236" lon="2.27404">
        <ele>101.4</ele>
        <time>2015-03-23T20:00:12.172Z</time>
      </trkpt>
      <trkpt lat="48.89234" lon="2.27398">
        <ele>101.1</ele>
        <time>2015-03-23T20:00:13.247Z</time>
      </trkpt>
      <trkpt lat="48.8923" lon="2.27388">
        <ele>101</ele>
        <time>2015-03-23T20:00:15.105Z</time>
      </trkpt>
      <trkpt lat="48.89227" lon="2.27383">
        <ele>101.1</ele>
        <time>2015-03-23T20:00:16.216Z</time>
      </trkpt>
      <trkpt lat="48.89223" lon="2.27373">
        <ele>101.1</ele>
        <time>2015-03-23T20:00:18.111Z</time>
      </trkpt>
      <trkpt lat="48.89221" lon="2.27369">
        <ele>100.9</ele>
        <time>2015-03-23T20:00:19.119Z</time>
      </trkpt>
      <trkpt lat="48.89217" lon="2.27358">
        <ele>101</ele>
        <time>2015-03-23T20:00:21.361Z</time>
      </trkpt>
      <trkpt lat="48.89215" lon="2.27354">
        <ele>101</ele>
        <time>2015-03-23T20:00:22.159Z</time>
      </trkpt>
      <trkpt lat="48.89213" lon="2.27343">
        <ele>101</ele>
        <time>2015-03-23T20:00:24.075Z</time>
      </trkpt>
      <trkpt lat="48.89212" lon="2.27338">
        <ele>101</ele>
        <time>2015-03-23T20:00:25.185Z</time>
      </trkpt>
      <trkpt lat="48.89209" lon="2.27326">
        <ele>101.6</ele>
        <time>2015-03-23T20:00:28.105Z</time>
      </trkpt>
      <trkpt lat="48.89208" lon="2.27323">
        <ele>101.8</ele>
        <time>2015-03-23T20:00:29.124Z</time>
      </trkpt>
      <trkpt lat="48.89206" lon="2.27313">
        <ele>102.1</ele>
        <time>2015-03-23T20:00:31.184Z</time>
      </trkpt>
      <trkpt lat="48.89206" lon="2.27307">
        <ele>102.2</ele>
        <time>2015-03-23T20:00:32.090Z</time>
      </trkpt>
      <trkpt lat="48.89205" lon="2.27297">
        <ele>102.6</ele>
        <time>2015-03-23T20:00:34.094Z</time>
      </trkpt>
      <trkpt lat="48.89205" lon="2.27291">
        <ele>102.9</ele>
        <time>2015-03-23T20:00:35.108Z</time>
      </trkpt>
      <trkpt lat="48.89205" lon="2.27279">
        <ele>103.1</ele>
        <time>2015-03-23T20:00:37.157Z</time>
      </trkpt>
      <trkpt lat="48.89207" lon="2.27253">
        <ele>103.2</ele>
        <time>2015-03-23T20:00:38.177Z</time>
      </trkpt>
      <trkpt lat="48.89207" lon="2.27246">
        <ele>103.4</ele>
        <time>2015-03-23T20:00:39.064Z</time>
      </trkpt>
      <trkpt lat="48.8921" lon="2.27238">
        <ele>103.5</ele>
        <time>2015-03-23T20:00:40.093Z</time>
      </trkpt>
      <trkpt lat="48.89212" lon="2.2723">
        <ele>103.7</ele>
        <time>2015-03-23T20:00:41.096Z</time>
      </trkpt>
      <trkpt lat="48.89216" lon="2.27222">
        <ele>103.8</ele>
        <time>2015-03-23T20:00:42.105Z</time>
      </trkpt>
      <trkpt lat="48.89219" lon="2.27213">
        <ele>103.9</ele>
        <time>2015-03-23T20:00:43.134Z</time>
      </trkpt>
      <trkpt lat="48.89225" lon="2.27205">
        <ele>103.5</ele>
        <time>2015-03-23T20:00:44.137Z</time>
      </trkpt>
      <trkpt lat="48.89231" lon="2.27197">
        <ele>103.2</ele>
        <time>2015-03-23T20:00:45.643Z</time>
      </trkpt>
      <trkpt lat="48.89235" lon="2.27188">
        <ele>103.2</ele>
        <time>2015-03-23T20:00:46.100Z</time>
      </trkpt>
      <trkpt lat="48.89239" lon="2.2718">
        <ele>103.1</ele>
        <time>2015-03-23T20:00:47.134Z</time>
      </trkpt>
      <trkpt lat="48.89242" lon="2.27168">
        <ele>102.7</ele>
        <time>2015-03-23T20:00:48.262Z</time>
      </trkpt>
      <trkpt lat="48.89245" lon="2.27161">
        <ele>102.8</ele>
        <time>2015-03-23T20:00:49.132Z</time>
      </trkpt>
      <trkpt lat="48.89247" lon="2.27154">
        <ele>102.7</ele>
        <time>2015-03-23T20:00:50.148Z</time>
      </trkpt>
      <trkpt lat="48.89247" lon="2.27146">
        <ele>102.3</ele>
        <time>2015-03-23T20:00:51.095Z</time>
      </trkpt>
      <trkpt lat="48.89246" lon="2.27138">
        <ele>101.9</ele>
        <time>2015-03-23T20:00:52.094Z</time>
      </trkpt>
      <trkpt lat="48.89242" lon="2.27127">
        <ele>100.7</ele>
        <time>2015-03-23T20:00:54.115Z</time>
      </trkpt>
      <trkpt lat="48.8924" lon="2.27123">
        <ele>99.8</ele>
        <time>2015-03-23T20:00:55.139Z</time>
      </trkpt>
      <trkpt lat="48.89236" lon="2.27115">
        <ele>98.2</ele>
        <time>2015-03-23T20:00:57.069Z</time>
      </trkpt>
      <trkpt lat="48.89234" lon="2.2711">
        <ele>97.3</ele>
        <time>2015-03-23T20:00:58.089Z</time>
      </trkpt>
      <trkpt lat="48.89232" lon="2.27101">
        <ele>95.9</ele>
        <time>2015-03-23T20:01:00.124Z</time>
      </trkpt>
      <trkpt lat="48.89226" lon="2.27095">
        <ele>94.6</ele>
        <time>2015-03-23T20:01:01.142Z</time>
      </trkpt>
      <trkpt lat="48.89221" lon="2.27091">
        <ele>93.6</ele>
        <time>2015-03-23T20:01:02.149Z</time>
      </trkpt>
      <trkpt lat="48.89218" lon="2.27088">
        <ele>93.1</ele>
        <time>2015-03-23T20:01:03.181Z</time>
      </trkpt>
      <trkpt lat="48.89214" lon="2.27085">
        <ele>92.6</ele>
        <time>2015-03-23T20:01:04.097Z</time>
      </trkpt>
      <trkpt lat="48.89209" lon="2.27082">
        <ele>92.8</ele>
        <time>2015-03-23T20:01:05.108Z</time>
      </trkpt>
      <trkpt lat="48.892" lon="2.27079">
        <ele>93.6</ele>
        <time>2015-03-23T20:01:07.139Z</time>
      </trkpt>
      <trkpt lat="48.89196" lon="2.27078">
        <ele>93.9</ele>
        <time>2015-03-23T20:01:08.155Z</time>
      </trkpt>
      <trkpt lat="48.89192" lon="2.27076">
        <ele>94.2</ele>
        <time>2015-03-23T20:01:09.176Z</time>
      </trkpt>
      <trkpt lat="48.89186" lon="2.27073">
        <ele>94.5</ele>
        <time>2015-03-23T20:01:10.081Z</time>
      </trkpt>
      <trkpt lat="48.8918" lon="2.27071">
        <ele>94.8</ele>
        <time>2015-03-23T20:01:12.097Z</time>
      </trkpt>
      <trkpt lat="48.89162" lon="2.27066">
        <ele>97.1</ele>
        <time>2015-03-23T20:01:13.132Z</time>
      </trkpt>
      <trkpt lat="48.89152" lon="2.27064">
        <ele>98.2</ele>
        <time>2015-03-23T20:01:14.168Z</time>
      </trkpt>
      <trkpt lat="48.89152" lon="2.27064">
        <ele>98.3</ele>
        <time>2015-03-23T20:01:22.133Z</time>
      </trkpt>
      <trkpt lat="48.89133" lon="2.27057">
        <ele>99.3</ele>
        <time>2015-03-23T20:01:23.151Z</time>
      </trkpt>
      <trkpt lat="48.89131" lon="2.27056">
        <ele>99.3</ele>
        <time>2015-03-23T20:01:24.079Z</time>
      </trkpt>
      <trkpt lat="48.89128" lon="2.27055">
        <ele>99.4</ele>
        <time>2015-03-23T20:01:25.115Z</time>
      </trkpt>
      <trkpt lat="48.89125" lon="2.27053">
        <ele>99.1</ele>
        <time>2015-03-23T20:01:30.098Z</time>
      </trkpt>
      <trkpt lat="48.89107" lon="2.27052">
        <ele>93.5</ele>
        <time>2015-03-23T20:01:31.138Z</time>
      </trkpt>
      <trkpt lat="48.89105" lon="2.27052">
        <ele>93.5</ele>
        <time>2015-03-23T20:01:32.170Z</time>
      </trkpt>
      <trkpt lat="48.89103" lon="2.27052">
        <ele>93.4</ele>
        <time>2015-03-23T20:01:33.087Z</time>
      </trkpt>
      <trkpt lat="48.89096" lon="2.27047">
        <ele>90</ele>
        <time>2015-03-23T20:01:47.158Z</time>
      </trkpt>
      <trkpt lat="48.89095" lon="2.27047">
        <ele>89.9</ele>
        <time>2015-03-23T20:01:48.094Z</time>
      </trkpt>
      <trkpt lat="48.89093" lon="2.27048">
        <ele>89.4</ele>
        <time>2015-03-23T20:01:57.122Z</time>
      </trkpt>
      <trkpt lat="48.8909" lon="2.27049">
        <ele>90.4</ele>
        <time>2015-03-23T20:01:58.133Z</time>
      </trkpt>
      <trkpt lat="48.8909" lon="2.27048">
        <ele>90.5</ele>
        <time>2015-03-23T20:01:59.097Z</time>
      </trkpt>
      <trkpt lat="48.89087" lon="2.27049">
        <ele>92.2</ele>
        <time>2015-03-23T20:02:00.104Z</time>
      </trkpt>
      <trkpt lat="48.89085" lon="2.27049">
        <ele>91.7</ele>
        <time>2015-03-23T20:02:08.327Z</time>
      </trkpt>
      <trkpt lat="48.89084" lon="2.27049">
        <ele>91.7</ele>
        <time>2015-03-23T20:02:09.251Z</time>
      </trkpt>
      <trkpt lat="48.89081" lon="2.27037">
        <ele>91.3</ele>
        <time>2015-03-23T20:02:17.221Z</time>
      </trkpt>
      <trkpt lat="48.89082" lon="2.27033">
        <ele>91.1</ele>
        <time>2015-03-23T20:02:18.108Z</time>
      </trkpt>
      <trkpt lat="48.89084" lon="2.27025">
        <ele>90.5</ele>
        <time>2015-03-23T20:02:20.188Z</time>
      </trkpt>
      <trkpt lat="48.89085" lon="2.27019">
        <ele>90.2</ele>
        <time>2015-03-23T20:02:21.112Z</time>
      </trkpt>
      <trkpt lat="48.89085" lon="2.27007">
        <ele>89.6</ele>
        <time>2015-03-23T20:02:23.170Z</time>
      </trkpt>
      <trkpt lat="48.89086" lon="2.27003">
        <ele>89.4</ele>
        <time>2015-03-23T20:02:24.097Z</time>
      </trkpt>
      <trkpt lat="48.8909" lon="2.26995">
        <ele>89.2</ele>
        <time>2015-03-23T20:02:26.179Z</time>
      </trkpt>
      <trkpt lat="48.8909" lon="2.26988">
        <ele>89</ele>
        <time>2015-03-23T20:02:27.165Z</time>
      </trkpt>
      <trkpt lat="48.89087" lon="2.26975">
        <ele>88.5</ele>
        <time>2015-03-23T20:02:29.180Z</time>
      </trkpt>
      <trkpt lat="48.89086" lon="2.26969">
        <ele>88.3</ele>
        <time>2015-03-23T20:02:30.185Z</time>
      </trkpt>
      <trkpt lat="48.89083" lon="2.26959">
        <ele>88</ele>
        <time>2015-03-23T20:02:32.112Z</time>
      </trkpt>
      <trkpt lat="48.89083" lon="2.26954">
        <ele>87.7</ele>
        <time>2015-03-23T20:02:33.101Z</time>
      </trkpt>
      <trkpt lat="48.89084" lon="2.26943">
        <ele>87.4</ele>
        <time>2015-03-23T20:02:35.107Z</time>
      </trkpt>
      <trkpt lat="48.89086" lon="2.26933">
        <ele>87.3</ele>
        <time>2015-03-23T20:02:37.104Z</time>
      </trkpt>
      <trkpt lat="48.89085" lon="2.26927">
        <ele>87.1</ele>
        <time>2015-03-23T20:02:38.114Z</time>
      </trkpt>
      <trkpt lat="48.89079" lon="2.26921">
        <ele>86.8</ele>
        <time>2015-03-23T20:02:39.128Z</time>
      </trkpt>
      <trkpt lat="48.89074" lon="2.26911">
        <ele>86.5</ele>
        <time>2015-03-23T20:02:40.160Z</time>
      </trkpt>
      <trkpt lat="48.89069" lon="2.26902">
        <ele>86.2</ele>
        <time>2015-03-23T20:02:41.165Z</time>
      </trkpt>
      <trkpt lat="48.89061" lon="2.26893">
        <ele>85.8</ele>
        <time>2015-03-23T20:02:42.086Z</time>
      </trkpt>
      <trkpt lat="48.89061" lon="2.26893">
        <ele>85.8</ele>
        <time>2015-03-23T20:02:40.194Z</time>
      </trkpt>
      <trkpt lat="48.89053" lon="2.26882">
        <ele>85.4</ele>
        <time>2015-03-23T20:02:43.138Z</time>
      </trkpt>
      <trkpt lat="48.89046" lon="2.26872">
        <ele>85.1</ele>
        <time>2015-03-23T20:02:44.153Z</time>
      </trkpt>
      <trkpt lat="48.89039" lon="2.26862">
        <ele>84.9</ele>
        <time>2015-03-23T20:02:45.176Z</time>
      </trkpt>
      <trkpt lat="48.89039" lon="2.26862">
        <ele>84.9</ele>
        <time>2015-03-23T20:02:45.213Z</time>
      </trkpt>
      <trkpt lat="48.89032" lon="2.26853">
        <ele>85.1</ele>
        <time>2015-03-23T20:02:46.186Z</time>
      </trkpt>
      <trkpt lat="48.89025" lon="2.26844">
        <ele>85.3</ele>
        <time>2015-03-23T20:02:47.110Z</time>
      </trkpt>
      <trkpt lat="48.89019" lon="2.26837">
        <ele>85.8</ele>
        <time>2015-03-23T20:02:48.135Z</time>
      </trkpt>
      <trkpt lat="48.89012" lon="2.2683">
        <ele>86.7</ele>
        <time>2015-03-23T20:02:49.151Z</time>
      </trkpt>
      <trkpt lat="48.89005" lon="2.26824">
        <ele>87.5</ele>
        <time>2015-03-23T20:02:50.229Z</time>
      </trkpt>
      <trkpt lat="48.88999" lon="2.26816">
        <ele>87.6</ele>
        <time>2015-03-23T20:02:51.100Z</time>
      </trkpt>
      <trkpt lat="48.88995" lon="2.26809">
        <ele>87.5</ele>
        <time>2015-03-23T20:02:52.129Z</time>
      </trkpt>
      <trkpt lat="48.88992" lon="2.26801">
        <ele>87.7</ele>
        <time>2015-03-23T20:02:53.142Z</time>
      </trkpt>
      <trkpt lat="48.88988" lon="2.26794">
        <ele>88.2</ele>
        <time>2015-03-23T20:02:54.186Z</time>
      </trkpt>
      <trkpt lat="48.88984" lon="2.26786">
        <ele>88.4</ele>
        <time>2015-03-23T20:02:55.202Z</time>
      </trkpt>
      <trkpt lat="48.8898" lon="2.26777">
        <ele>89</ele>
        <time>2015-03-23T20:02:56.095Z</time>
      </trkpt>
      <trkpt lat="48.88976" lon="2.26768">
        <ele>90</ele>
        <time>2015-03-23T20:02:57.095Z</time>
      </trkpt>
      <trkpt lat="48.88973" lon="2.26759">
        <ele>90</ele>
        <time>2015-03-23T20:02:58.099Z</time>
      </trkpt>
      <trkpt lat="48.88971" lon="2.26749">
        <ele>88.8</ele>
        <time>2015-03-23T20:02:59.102Z</time>
      </trkpt>
      <trkpt lat="48.88967" lon="2.2674">
        <ele>87.7</ele>
        <time>2015-03-23T20:03:00.189Z</time>
      </trkpt>
      <trkpt lat="48.88966" lon="2.26731">
        <ele>85.2</ele>
        <time>2015-03-23T20:03:01.210Z</time>
      </trkpt>
      <trkpt lat="48.88961" lon="2.26723">
        <ele>82.6</ele>
        <time>2015-03-23T20:03:02.096Z</time>
      </trkpt>
      <trkpt lat="48.88955" lon="2.26713">
        <ele>75.4</ele>
        <time>2015-03-23T20:03:03.138Z</time>
      </trkpt>
      <trkpt lat="48.88951" lon="2.26707">
        <ele>75.4</ele>
        <time>2015-03-23T20:03:04.163Z</time>
      </trkpt>
      <trkpt lat="48.88945" lon="2.26699">
        <ele>76.2</ele>
        <time>2015-03-23T20:03:05.176Z</time>
      </trkpt>
      <trkpt lat="48.88938" lon="2.26692">
        <ele>76.6</ele>
        <time>2015-03-23T20:03:06.092Z</time>
      </trkpt>
      <trkpt lat="48.88931" lon="2.26685">
        <ele>77.7</ele>
        <time>2015-03-23T20:03:07.131Z</time>
      </trkpt>
      <trkpt lat="48.88922" lon="2.26678">
        <ele>81.1</ele>
        <time>2015-03-23T20:03:08.147Z</time>
      </trkpt>
      <trkpt lat="48.88914" lon="2.26671">
        <ele>81.9</ele>
        <time>2015-03-23T20:03:09.152Z</time>
      </trkpt>
      <trkpt lat="48.88907" lon="2.26663">
        <ele>83</ele>
        <time>2015-03-23T20:03:10.175Z</time>
      </trkpt>
      <trkpt lat="48.88904" lon="2.26655">
        <ele>83.4</ele>
        <time>2015-03-23T20:03:11.080Z</time>
      </trkpt>
      <trkpt lat="48.88897" lon="2.26647">
        <ele>84</ele>
        <time>2015-03-23T20:03:12.086Z</time>
      </trkpt>
      <trkpt lat="48.88893" lon="2.26638">
        <ele>84.1</ele>
        <time>2015-03-23T20:03:13.117Z</time>
      </trkpt>
      <trkpt lat="48.88884" lon="2.26626">
        <ele>85.3</ele>
        <time>2015-03-23T20:03:14.115Z</time>
      </trkpt>
      <trkpt lat="48.8888" lon="2.26616">
        <ele>85.4</ele>
        <time>2015-03-23T20:03:15.128Z</time>
      </trkpt>
      <trkpt lat="48.88876" lon="2.26608">
        <ele>85.5</ele>
        <time>2015-03-23T20:03:16.136Z</time>
      </trkpt>
      <trkpt lat="48.88872" lon="2.26598">
        <ele>85.3</ele>
        <time>2015-03-23T20:03:17.145Z</time>
      </trkpt>
      <trkpt lat="48.88867" lon="2.26586">
        <ele>85.5</ele>
        <time>2015-03-23T20:03:18.156Z</time>
      </trkpt>
      <trkpt lat="48.88862" lon="2.26577">
        <ele>85.7</ele>
        <time>2015-03-23T20:03:19.160Z</time>
      </trkpt>
      <trkpt lat="48.88858" lon="2.26568">
        <ele>85.6</ele>
        <time>2015-03-23T20:03:20.167Z</time>
      </trkpt>
      <trkpt lat="48.88855" lon="2.26558">
        <ele>85.7</ele>
        <time>2015-03-23T20:03:21.174Z</time>
      </trkpt>
      <trkpt lat="48.88852" lon="2.26548">
        <ele>85.6</ele>
        <time>2015-03-23T20:03:22.080Z</time>
      </trkpt>
      <trkpt lat="48.8885" lon="2.26538">
        <ele>85.5</ele>
        <time>2015-03-23T20:03:23.092Z</time>
      </trkpt>
      <trkpt lat="48.88847" lon="2.2653">
        <ele>85.7</ele>
        <time>2015-03-23T20:03:24.106Z</time>
      </trkpt>
      <trkpt lat="48.88845" lon="2.26523">
        <ele>85.9</ele>
        <time>2015-03-23T20:03:25.131Z</time>
      </trkpt>
      <trkpt lat="48.88842" lon="2.26515">
        <ele>86.2</ele>
        <time>2015-03-23T20:03:26.135Z</time>
      </trkpt>
      <trkpt lat="48.8884" lon="2.26507">
        <ele>86.3</ele>
        <time>2015-03-23T20:03:27.155Z</time>
      </trkpt>
      <trkpt lat="48.88837" lon="2.26501">
        <ele>86.4</ele>
        <time>2015-03-23T20:03:28.200Z</time>
      </trkpt>
      <trkpt lat="48.88833" lon="2.2649">
        <ele>86.3</ele>
        <time>2015-03-23T20:03:30.090Z</time>
      </trkpt>
      <trkpt lat="48.88831" lon="2.26485">
        <ele>86.1</ele>
        <time>2015-03-23T20:03:31.153Z</time>
      </trkpt>
      <trkpt lat="48.88829" lon="2.26474">
        <ele>86.4</ele>
        <time>2015-03-23T20:03:33.081Z</time>
      </trkpt>
      <trkpt lat="48.88828" lon="2.2647">
        <ele>86.6</ele>
        <time>2015-03-23T20:03:34.089Z</time>
      </trkpt>
      <trkpt lat="48.88825" lon="2.2646">
        <ele>86.5</ele>
        <time>2015-03-23T20:03:39.101Z</time>
      </trkpt>
      <trkpt lat="48.88825" lon="2.26459">
        <ele>86.3</ele>
        <time>2015-03-23T20:03:40.125Z</time>
      </trkpt>
      <trkpt lat="48.88824" lon="2.2646">
        <ele>86.5</ele>
        <time>2015-03-23T20:03:47.159Z</time>
      </trkpt>
      <trkpt lat="48.88824" lon="2.2646">
        <ele>87.3</ele>
        <time>2015-03-23T20:03:48.174Z</time>
      </trkpt>
      <trkpt lat="48.8882" lon="2.26449">
        <ele>86.5</ele>
        <time>2015-03-23T20:03:55.144Z</time>
      </trkpt>
      <trkpt lat="48.8882" lon="2.26445">
        <ele>86.3</ele>
        <time>2015-03-23T20:03:56.152Z</time>
      </trkpt>
      <trkpt lat="48.88817" lon="2.26437">
        <ele>85.9</ele>
        <time>2015-03-23T20:03:58.093Z</time>
      </trkpt>
      <trkpt lat="48.88816" lon="2.26432">
        <ele>85.6</ele>
        <time>2015-03-23T20:03:59.096Z</time>
      </trkpt>
      <trkpt lat="48.88812" lon="2.26425">
        <ele>85.2</ele>
        <time>2015-03-23T20:04:01.150Z</time>
      </trkpt>
      <trkpt lat="48.88811" lon="2.2642">
        <ele>85.1</ele>
        <time>2015-03-23T20:04:02.151Z</time>
      </trkpt>
      <trkpt lat="48.88849" lon="2.26509">
        <ele>85.1</ele>
        <time>2015-03-23T20:04:03.187Z</time>
      </trkpt>
      <trkpt lat="48.8884" lon="2.26487">
        <ele>85.3</ele>
        <time>2015-03-23T20:04:04.085Z</time>
      </trkpt>
      <trkpt lat="48.8883" lon="2.26463">
        <ele>85.5</ele>
        <time>2015-03-23T20:04:05.091Z</time>
      </trkpt>
      <trkpt lat="48.8883" lon="2.26463">
        <ele>85.5</ele>
        <time>2015-03-23T20:04:05.790Z</time>
      </trkpt>
      <trkpt lat="48.88822" lon="2.26446">
        <ele>85.5</ele>
        <time>2015-03-23T20:04:06.101Z</time>
      </trkpt>
      <trkpt lat="48.88817" lon="2.26433">
        <ele>85.5</ele>
        <time>2015-03-23T20:04:07.113Z</time>
      </trkpt>
      <trkpt lat="48.88811" lon="2.26421">
        <ele>85.5</ele>
        <time>2015-03-23T20:04:08.145Z</time>
      </trkpt>
      <trkpt lat="48.88807" lon="2.26412">
        <ele>85.7</ele>
        <time>2015-03-23T20:04:09.077Z</time>
      </trkpt>
      <trkpt lat="48.88803" lon="2.26404">
        <ele>85.9</ele>
        <time>2015-03-23T20:04:10.085Z</time>
      </trkpt>
      <trkpt lat="48.888" lon="2.26398">
        <ele>86</ele>
        <time>2015-03-23T20:04:11.087Z</time>
      </trkpt>
      <trkpt lat="48.88796" lon="2.26393">
        <ele>86.2</ele>
        <time>2015-03-23T20:04:12.105Z</time>
      </trkpt>
      <trkpt lat="48.8879" lon="2.26383">
        <ele>86.1</ele>
        <time>2015-03-23T20:04:14.154Z</time>
      </trkpt>
      <trkpt lat="48.88786" lon="2.26378">
        <ele>86</ele>
        <time>2015-03-23T20:04:15.120Z</time>
      </trkpt>
      <trkpt lat="48.88783" lon="2.26374">
        <ele>85.9</ele>
        <time>2015-03-23T20:04:16.147Z</time>
      </trkpt>
      <trkpt lat="48.88772" lon="2.26358">
        <ele>85.8</ele>
        <time>2015-03-23T20:04:17.154Z</time>
      </trkpt>
      <trkpt lat="48.88768" lon="2.2635">
        <ele>85.5</ele>
        <time>2015-03-23T20:04:18.168Z</time>
      </trkpt>
      <trkpt lat="48.88765" lon="2.26342">
        <ele>85.3</ele>
        <time>2015-03-23T20:04:19.180Z</time>
      </trkpt>
      <trkpt lat="48.88762" lon="2.26335">
        <ele>85.1</ele>
        <time>2015-03-23T20:04:21.077Z</time>
      </trkpt>
      <trkpt lat="48.88759" lon="2.26326">
        <ele>85</ele>
        <time>2015-03-23T20:04:21.107Z</time>
      </trkpt>
      <trkpt lat="48.88758" lon="2.26318">
        <ele>84.8</ele>
        <time>2015-03-23T20:04:22.087Z</time>
      </trkpt>
      <trkpt lat="48.88755" lon="2.26311">
        <ele>84.8</ele>
        <time>2015-03-23T20:04:23.099Z</time>
      </trkpt>
      <trkpt lat="48.88753" lon="2.26304">
        <ele>84.8</ele>
        <time>2015-03-23T20:04:24.113Z</time>
      </trkpt>
      <trkpt lat="48.88752" lon="2.26297">
        <ele>84.8</ele>
        <time>2015-03-23T20:04:25.124Z</time>
      </trkpt>
      <trkpt lat="48.88751" lon="2.2629">
        <ele>84.8</ele>
        <time>2015-03-23T20:04:26.128Z</time>
      </trkpt>
      <trkpt lat="48.8875" lon="2.26283">
        <ele>84.9</ele>
        <time>2015-03-23T20:04:27.138Z</time>
      </trkpt>
      <trkpt lat="48.88749" lon="2.26275">
        <ele>85.1</ele>
        <time>2015-03-23T20:04:28.142Z</time>
      </trkpt>
      <trkpt lat="48.88746" lon="2.26268">
        <ele>85</ele>
        <time>2015-03-23T20:04:29.148Z</time>
      </trkpt>
      <trkpt lat="48.88744" lon="2.26262">
        <ele>85.1</ele>
        <time>2015-03-23T20:04:30.159Z</time>
      </trkpt>
      <trkpt lat="48.8874" lon="2.26254">
        <ele>85</ele>
        <time>2015-03-23T20:04:31.169Z</time>
      </trkpt>
      <trkpt lat="48.88734" lon="2.26247">
        <ele>85</ele>
        <time>2015-03-23T20:04:32.068Z</time>
      </trkpt>
      <trkpt lat="48.88646" lon="2.26143">
        <ele>88.7</ele>
        <time>2015-03-23T20:04:50.094Z</time>
      </trkpt>
      <trkpt lat="48.88641" lon="2.2614">
        <ele>89.1</ele>
        <time>2015-03-23T20:04:51.102Z</time>
      </trkpt>
      <trkpt lat="48.88636" lon="2.26137">
        <ele>89.2</ele>
        <time>2015-03-23T20:04:52.193Z</time>
      </trkpt>
      <trkpt lat="48.88631" lon="2.26134">
        <ele>89.3</ele>
        <time>2015-03-23T20:04:53.074Z</time>
      </trkpt>
      <trkpt lat="48.88626" lon="2.26132">
        <ele>89.3</ele>
        <time>2015-03-23T20:04:54.076Z</time>
      </trkpt>
      <trkpt lat="48.88619" lon="2.2613">
        <ele>89.4</ele>
        <time>2015-03-23T20:04:56.101Z</time>
      </trkpt>
      <trkpt lat="48.88608" lon="2.26127">
        <ele>90.1</ele>
        <time>2015-03-23T20:04:57.117Z</time>
      </trkpt>
      <trkpt lat="48.88601" lon="2.26124">
        <ele>90.3</ele>
        <time>2015-03-23T20:04:58.151Z</time>
      </trkpt>
      <trkpt lat="48.88595" lon="2.2612">
        <ele>90.5</ele>
        <time>2015-03-23T20:04:59.171Z</time>
      </trkpt>
      <trkpt lat="48.88588" lon="2.26115">
        <ele>90.7</ele>
        <time>2015-03-23T20:05:02.168Z</time>
      </trkpt>
      <trkpt lat="48.88585" lon="2.26114">
        <ele>90.7</ele>
        <time>2015-03-23T20:05:03.147Z</time>
      </trkpt>
      <trkpt lat="48.88581" lon="2.26115">
        <ele>90.4</ele>
        <time>2015-03-23T20:05:04.087Z</time>
      </trkpt>
      <trkpt lat="48.88476" lon="2.26074">
        <ele>94.9</ele>
        <time>2015-03-23T20:05:29.185Z</time>
      </trkpt>
      <trkpt lat="48.88482" lon="2.26066">
        <ele>97.3</ele>
        <time>2015-03-23T20:05:35.166Z</time>
      </trkpt>
      <trkpt lat="48.88485" lon="2.26066">
        <ele>97.9</ele>
        <time>2015-03-23T20:05:36.200Z</time>
      </trkpt>
      <trkpt lat="48.88489" lon="2.26065">
        <ele>98.6</ele>
        <time>2015-03-23T20:05:37.213Z</time>
      </trkpt>
      <trkpt lat="48.88491" lon="2.26064">
        <ele>98.9</ele>
        <time>2015-03-23T20:05:38.093Z</time>
      </trkpt>
      <trkpt lat="48.88491" lon="2.26063">
        <ele>99.1</ele>
        <time>2015-03-23T20:05:39.108Z</time>
      </trkpt>
      <trkpt lat="48.88496" lon="2.2606">
        <ele>99.3</ele>
        <time>2015-03-23T20:05:45.199Z</time>
      </trkpt>
      <trkpt lat="48.88497" lon="2.2606">
        <ele>99.3</ele>
        <time>2015-03-23T20:05:46.115Z</time>
      </trkpt>
      <trkpt lat="48.88497" lon="2.2606">
        <ele>99.3</ele>
        <time>2015-03-23T20:05:58.110Z</time>
      </trkpt>
      <trkpt lat="48.885" lon="2.26059">
        <ele>100</ele>
        <time>2015-03-23T20:05:59.124Z</time>
      </trkpt>
      <trkpt lat="48.88494" lon="2.26052">
        <ele>101.3</ele>
        <time>2015-03-23T20:06:05.185Z</time>
      </trkpt>
      <trkpt lat="48.88492" lon="2.2605">
        <ele>101.4</ele>
        <time>2015-03-23T20:06:06.106Z</time>
      </trkpt>
      <trkpt lat="48.88485" lon="2.26045">
        <ele>100.7</ele>
        <time>2015-03-23T20:06:08.166Z</time>
      </trkpt>
      <trkpt lat="48.88483" lon="2.26042">
        <ele>100.7</ele>
        <time>2015-03-23T20:06:09.107Z</time>
      </trkpt>
      <trkpt lat="48.88475" lon="2.26037">
        <ele>101.1</ele>
        <time>2015-03-23T20:06:12.160Z</time>
      </trkpt>
      <trkpt lat="48.88472" lon="2.26036">
        <ele>101.3</ele>
        <time>2015-03-23T20:06:13.175Z</time>
      </trkpt>
      <trkpt lat="48.88464" lon="2.26032">
        <ele>101.6</ele>
        <time>2015-03-23T20:06:16.173Z</time>
      </trkpt>
      <trkpt lat="48.88463" lon="2.26031">
        <ele>101.5</ele>
        <time>2015-03-23T20:06:17.161Z</time>
      </trkpt>
      <trkpt lat="48.8847" lon="2.26031">
        <ele>100.1</ele>
        <time>2015-03-23T20:06:18.178Z</time>
      </trkpt>
      <trkpt lat="48.88481" lon="2.26032">
        <ele>98.4</ele>
        <time>2015-03-23T20:06:19.158Z</time>
      </trkpt>
      <trkpt lat="48.88482" lon="2.26031">
        <ele>98.1</ele>
        <time>2015-03-23T20:06:20.178Z</time>
      </trkpt>
      <trkpt lat="48.88483" lon="2.26032">
        <ele>97.8</ele>
        <time>2015-03-23T20:06:24.151Z</time>
      </trkpt>
      <trkpt lat="48.88474" lon="2.26041">
        <ele>92.4</ele>
        <time>2015-03-23T20:07:31.152Z</time>
      </trkpt>
      <trkpt lat="48.88471" lon="2.26052">
        <ele>91.6</ele>
        <time>2015-03-23T20:07:36.133Z</time>
      </trkpt>
      <trkpt lat="48.8847" lon="2.26054">
        <ele>91.5</ele>
        <time>2015-03-23T20:07:37.138Z</time>
      </trkpt>
      <trkpt lat="48.88463" lon="2.26056">
        <ele>91.2</ele>
        <time>2015-03-23T20:07:43.112Z</time>
      </trkpt>
      <trkpt lat="48.8846" lon="2.26052">
        <ele>91.2</ele>
        <time>2015-03-23T20:07:44.099Z</time>
      </trkpt>
      <trkpt lat="48.88455" lon="2.26046">
        <ele>91.3</ele>
        <time>2015-03-23T20:07:46.109Z</time>
      </trkpt>
      <trkpt lat="48.88453" lon="2.26044">
        <ele>91.2</ele>
        <time>2015-03-23T20:07:47.122Z</time>
      </trkpt>
      <trkpt lat="48.88448" lon="2.26039">
        <ele>91.1</ele>
        <time>2015-03-23T20:07:49.165Z</time>
      </trkpt>
      <trkpt lat="48.88443" lon="2.26037">
        <ele>91</ele>
        <time>2015-03-23T20:07:50.055Z</time>
      </trkpt>
      <trkpt lat="48.88438" lon="2.26035">
        <ele>91.1</ele>
        <time>2015-03-23T20:07:51.091Z</time>
      </trkpt>
      <trkpt lat="48.88431" lon="2.26032">
        <ele>91</ele>
        <time>2015-03-23T20:07:52.097Z</time>
      </trkpt>
      <trkpt lat="48.88377" lon="2.25995">
        <ele>90.6</ele>
        <time>2015-03-23T20:08:03.170Z</time>
      </trkpt>
      <trkpt lat="48.88112" lon="2.2587">
        <ele>91.9</ele>
        <time>2015-03-23T20:08:44.077Z</time>
      </trkpt>
      <trkpt lat="48.88107" lon="2.25869">
        <ele>92.2</ele>
        <time>2015-03-23T20:08:45.167Z</time>
      </trkpt>
      <trkpt lat="48.88101" lon="2.25867">
        <ele>92.6</ele>
        <time>2015-03-23T20:08:46.136Z</time>
      </trkpt>
      <trkpt lat="48.88096" lon="2.25863">
        <ele>92.1</ele>
        <time>2015-03-23T20:08:51.121Z</time>
      </trkpt>
      <trkpt lat="48.8809" lon="2.2586">
        <ele>92</ele>
        <time>2015-03-23T20:08:54.226Z</time>
      </trkpt>
      <trkpt lat="48.88082" lon="2.25856">
        <ele>91.9</ele>
        <time>2015-03-23T20:08:58.092Z</time>
      </trkpt>
      <trkpt lat="48.8808" lon="2.25855">
        <ele>91.8</ele>
        <time>2015-03-23T20:08:59.108Z</time>
      </trkpt>
      <trkpt lat="48.88074" lon="2.25847">
        <ele>92</ele>
        <time>2015-03-23T20:09:04.106Z</time>
      </trkpt>
      <trkpt lat="48.88072" lon="2.25844">
        <ele>92.2</ele>
        <time>2015-03-23T20:09:05.114Z</time>
      </trkpt>
      <trkpt lat="48.88066" lon="2.25838">
        <ele>92.1</ele>
        <time>2015-03-23T20:09:07.160Z</time>
      </trkpt>
      <trkpt lat="48.88063" lon="2.25836">
        <ele>91.9</ele>
        <time>2015-03-23T20:09:08.181Z</time>
      </trkpt>
      <trkpt lat="48.88058" lon="2.25834">
        <ele>91.9</ele>
        <time>2015-03-23T20:09:09.134Z</time>
      </trkpt>
      <trkpt lat="48.88054" lon="2.25832">
        <ele>91.9</ele>
        <time>2015-03-23T20:09:10.145Z</time>
      </trkpt>
      <trkpt lat="48.88046" lon="2.25833">
        <ele>92.2</ele>
        <time>2015-03-23T20:09:11.062Z</time>
      </trkpt>
      <trkpt lat="48.88041" lon="2.25829">
        <ele>92.3</ele>
        <time>2015-03-23T20:09:12.078Z</time>
      </trkpt>
      <trkpt lat="48.88037" lon="2.25825">
        <ele>92.4</ele>
        <time>2015-03-23T20:09:13.103Z</time>
      </trkpt>
      <trkpt lat="48.88032" lon="2.25822">
        <ele>92.3</ele>
        <time>2015-03-23T20:09:14.127Z</time>
      </trkpt>
      <trkpt lat="48.88028" lon="2.25818">
        <ele>92.3</ele>
        <time>2015-03-23T20:09:15.143Z</time>
      </trkpt>
      <trkpt lat="48.88023" lon="2.25816">
        <ele>92.3</ele>
        <time>2015-03-23T20:09:16.147Z</time>
      </trkpt>
      <trkpt lat="48.88017" lon="2.25814">
        <ele>92.1</ele>
        <time>2015-03-23T20:09:17.156Z</time>
      </trkpt>
      <trkpt lat="48.88011" lon="2.25812">
        <ele>91.4</ele>
        <time>2015-03-23T20:09:18.052Z</time>
      </trkpt>
      <trkpt lat="48.88003" lon="2.2581">
        <ele>91.6</ele>
        <time>2015-03-23T20:09:19.137Z</time>
      </trkpt>
      <trkpt lat="48.87998" lon="2.25809">
        <ele>91.7</ele>
        <time>2015-03-23T20:09:20.148Z</time>
      </trkpt>
      <trkpt lat="48.87993" lon="2.25806">
        <ele>91.5</ele>
        <time>2015-03-23T20:09:21.072Z</time>
      </trkpt>
      <trkpt lat="48.87988" lon="2.25804">
        <ele>91.2</ele>
        <time>2015-03-23T20:09:22.041Z</time>
      </trkpt>
      <trkpt lat="48.87983" lon="2.25801">
        <ele>91.2</ele>
        <time>2015-03-23T20:09:23.077Z</time>
      </trkpt>
      <trkpt lat="48.87978" lon="2.25799">
        <ele>91.1</ele>
        <time>2015-03-23T20:09:24.103Z</time>
      </trkpt>
      <trkpt lat="48.87973" lon="2.25797">
        <ele>91.1</ele>
        <time>2015-03-23T20:09:25.185Z</time>
      </trkpt>
      <trkpt lat="48.87968" lon="2.25794">
        <ele>91.2</ele>
        <time>2015-03-23T20:09:26.062Z</time>
      </trkpt>
      <trkpt lat="48.87963" lon="2.25791">
        <ele>91.3</ele>
        <time>2015-03-23T20:09:27.077Z</time>
      </trkpt>
      <trkpt lat="48.87956" lon="2.25789">
        <ele>91.4</ele>
        <time>2015-03-23T20:09:28.106Z</time>
      </trkpt>
      <trkpt lat="48.87952" lon="2.25786">
        <ele>91.4</ele>
        <time>2015-03-23T20:09:29.064Z</time>
      </trkpt>
      <trkpt lat="48.87946" lon="2.25784">
        <ele>91.5</ele>
        <time>2015-03-23T20:09:30.074Z</time>
      </trkpt>
      <trkpt lat="48.87938" lon="2.25781">
        <ele>91.6</ele>
        <time>2015-03-23T20:09:31.117Z</time>
      </trkpt>
      <trkpt lat="48.87933" lon="2.25779">
        <ele>91.5</ele>
        <time>2015-03-23T20:09:32.119Z</time>
      </trkpt>
      <trkpt lat="48.87927" lon="2.25775">
        <ele>91.4</ele>
        <time>2015-03-23T20:09:33.128Z</time>
      </trkpt>
      <trkpt lat="48.87922" lon="2.25771">
        <ele>91.3</ele>
        <time>2015-03-23T20:09:34.133Z</time>
      </trkpt>
      <trkpt lat="48.87916" lon="2.25767">
        <ele>91.3</ele>
        <time>2015-03-23T20:09:35.137Z</time>
      </trkpt>
      <trkpt lat="48.87911" lon="2.25764">
        <ele>91.3</ele>
        <time>2015-03-23T20:09:36.141Z</time>
      </trkpt>
      <trkpt lat="48.87905" lon="2.25766">
        <ele>91.9</ele>
        <time>2015-03-23T20:09:37.156Z</time>
      </trkpt>
      <trkpt lat="48.8789" lon="2.25762">
        <ele>92.8</ele>
        <time>2015-03-23T20:09:38.072Z</time>
      </trkpt>
      <trkpt lat="48.87884" lon="2.25759">
        <ele>92.8</ele>
        <time>2015-03-23T20:09:39.059Z</time>
      </trkpt>
      <trkpt lat="48.87878" lon="2.25756">
        <ele>92.7</ele>
        <time>2015-03-23T20:09:40.065Z</time>
      </trkpt>
      <trkpt lat="48.87872" lon="2.25753">
        <ele>92.7</ele>
        <time>2015-03-23T20:09:41.099Z</time>
      </trkpt>
      <trkpt lat="48.87867" lon="2.25749">
        <ele>92.6</ele>
        <time>2015-03-23T20:09:42.111Z</time>
      </trkpt>
      <trkpt lat="48.87862" lon="2.25747">
        <ele>92.6</ele>
        <time>2015-03-23T20:09:43.122Z</time>
      </trkpt>
      <trkpt lat="48.87857" lon="2.25744">
        <ele>92.5</ele>
        <time>2015-03-23T20:09:44.144Z</time>
      </trkpt>
      <trkpt lat="48.87852" lon="2.25739">
        <ele>92.4</ele>
        <time>2015-03-23T20:09:45.145Z</time>
      </trkpt>
      <trkpt lat="48.87846" lon="2.25736">
        <ele>92.4</ele>
        <time>2015-03-23T20:09:46.153Z</time>
      </trkpt>
      <trkpt lat="48.87839" lon="2.25732">
        <ele>92.5</ele>
        <time>2015-03-23T20:09:47.084Z</time>
      </trkpt>
      <trkpt lat="48.87831" lon="2.25729">
        <ele>92.3</ele>
        <time>2015-03-23T20:09:48.112Z</time>
      </trkpt>
      <trkpt lat="48.87826" lon="2.25725">
        <ele>92.2</ele>
        <time>2015-03-23T20:09:49.149Z</time>
      </trkpt>
      <trkpt lat="48.87821" lon="2.25723">
        <ele>92.1</ele>
        <time>2015-03-23T20:09:50.168Z</time>
      </trkpt>
      <trkpt lat="48.87815" lon="2.2572">
        <ele>92</ele>
        <time>2015-03-23T20:09:51.086Z</time>
      </trkpt>
      <trkpt lat="48.87807" lon="2.25717">
        <ele>92</ele>
        <time>2015-03-23T20:09:52.089Z</time>
      </trkpt>
      <trkpt lat="48.878" lon="2.25714">
        <ele>91.9</ele>
        <time>2015-03-23T20:09:53.136Z</time>
      </trkpt>
      <trkpt lat="48.87793" lon="2.2571">
        <ele>91.8</ele>
        <time>2015-03-23T20:09:54.154Z</time>
      </trkpt>
      <trkpt lat="48.87787" lon="2.25706">
        <ele>91.6</ele>
        <time>2015-03-23T20:09:55.162Z</time>
      </trkpt>
      <trkpt lat="48.8778" lon="2.25703">
        <ele>91.6</ele>
        <time>2015-03-23T20:09:56.087Z</time>
      </trkpt>
      <trkpt lat="48.87774" lon="2.257">
        <ele>91.6</ele>
        <time>2015-03-23T20:09:57.193Z</time>
      </trkpt>
      <trkpt lat="48.87768" lon="2.25695">
        <ele>91.5</ele>
        <time>2015-03-23T20:09:58.075Z</time>
      </trkpt>
      <trkpt lat="48.87762" lon="2.25691">
        <ele>91.6</ele>
        <time>2015-03-23T20:09:59.072Z</time>
      </trkpt>
      <trkpt lat="48.87756" lon="2.25688">
        <ele>91.6</ele>
        <time>2015-03-23T20:10:00.186Z</time>
      </trkpt>
      <trkpt lat="48.87749" lon="2.25684">
        <ele>91.7</ele>
        <time>2015-03-23T20:10:01.291Z</time>
      </trkpt>
      <trkpt lat="48.87744" lon="2.25681">
        <ele>91.5</ele>
        <time>2015-03-23T20:10:02.100Z</time>
      </trkpt>
      <trkpt lat="48.87738" lon="2.25677">
        <ele>91.4</ele>
        <time>2015-03-23T20:10:03.198Z</time>
      </trkpt>
      <trkpt lat="48.87732" lon="2.25673">
        <ele>91.4</ele>
        <time>2015-03-23T20:10:04.104Z</time>
      </trkpt>
      <trkpt lat="48.87726" lon="2.2567">
        <ele>91.4</ele>
        <time>2015-03-23T20:10:05.152Z</time>
      </trkpt>
      <trkpt lat="48.87721" lon="2.25667">
        <ele>91.4</ele>
        <time>2015-03-23T20:10:06.160Z</time>
      </trkpt>
      <trkpt lat="48.87714" lon="2.25663">
        <ele>91.5</ele>
        <time>2015-03-23T20:10:07.168Z</time>
      </trkpt>
      <trkpt lat="48.8771" lon="2.25661">
        <ele>91.1</ele>
        <time>2015-03-23T20:10:08.088Z</time>
      </trkpt>
      <trkpt lat="48.87705" lon="2.25658">
        <ele>91.3</ele>
        <time>2015-03-23T20:10:09.078Z</time>
      </trkpt>
      <trkpt lat="48.87701" lon="2.25655">
        <ele>91.3</ele>
        <time>2015-03-23T20:10:10.076Z</time>
      </trkpt>
      <trkpt lat="48.87696" lon="2.25652">
        <ele>91.4</ele>
        <time>2015-03-23T20:10:11.088Z</time>
      </trkpt>
      <trkpt lat="48.87689" lon="2.25648">
        <ele>91.4</ele>
        <time>2015-03-23T20:10:12.092Z</time>
      </trkpt>
      <trkpt lat="48.87682" lon="2.25645">
        <ele>91.4</ele>
        <time>2015-03-23T20:10:13.112Z</time>
      </trkpt>
      <trkpt lat="48.87675" lon="2.25641">
        <ele>91.4</ele>
        <time>2015-03-23T20:10:14.130Z</time>
      </trkpt>
      <trkpt lat="48.87669" lon="2.25638">
        <ele>91.6</ele>
        <time>2015-03-23T20:10:15.080Z</time>
      </trkpt>
      <trkpt lat="48.87662" lon="2.25634">
        <ele>91.8</ele>
        <time>2015-03-23T20:10:16.091Z</time>
      </trkpt>
      <trkpt lat="48.87655" lon="2.25631">
        <ele>92</ele>
        <time>2015-03-23T20:10:17.115Z</time>
      </trkpt>
      <trkpt lat="48.87648" lon="2.25628">
        <ele>92.3</ele>
        <time>2015-03-23T20:10:18.128Z</time>
      </trkpt>
      <trkpt lat="48.8764" lon="2.25625">
        <ele>92.5</ele>
        <time>2015-03-23T20:10:19.151Z</time>
      </trkpt>
      <trkpt lat="48.87633" lon="2.25622">
        <ele>92.7</ele>
        <time>2015-03-23T20:10:20.068Z</time>
      </trkpt>
      <trkpt lat="48.87626" lon="2.25618">
        <ele>92.9</ele>
        <time>2015-03-23T20:10:21.047Z</time>
      </trkpt>
      <trkpt lat="48.8762" lon="2.25615">
        <ele>93</ele>
        <time>2015-03-23T20:10:22.071Z</time>
      </trkpt>
      <trkpt lat="48.87614" lon="2.25612">
        <ele>93</ele>
        <time>2015-03-23T20:10:23.076Z</time>
      </trkpt>
      <trkpt lat="48.87608" lon="2.25609">
        <ele>93.1</ele>
        <time>2015-03-23T20:10:24.076Z</time>
      </trkpt>
      <trkpt lat="48.87602" lon="2.25605">
        <ele>93.2</ele>
        <time>2015-03-23T20:10:25.163Z</time>
      </trkpt>
      <trkpt lat="48.87597" lon="2.25601">
        <ele>93.3</ele>
        <time>2015-03-23T20:10:26.165Z</time>
      </trkpt>
      <trkpt lat="48.87592" lon="2.25598">
        <ele>93.4</ele>
        <time>2015-03-23T20:10:27.079Z</time>
      </trkpt>
      <trkpt lat="48.87587" lon="2.25594">
        <ele>93.4</ele>
        <time>2015-03-23T20:10:28.082Z</time>
      </trkpt>
      <trkpt lat="48.87581" lon="2.25591">
        <ele>93.5</ele>
        <time>2015-03-23T20:10:29.099Z</time>
      </trkpt>
      <trkpt lat="48.87575" lon="2.25587">
        <ele>93.6</ele>
        <time>2015-03-23T20:10:30.148Z</time>
      </trkpt>
      <trkpt lat="48.8757" lon="2.25583">
        <ele>93.8</ele>
        <time>2015-03-23T20:10:31.159Z</time>
      </trkpt>
      <trkpt lat="48.87566" lon="2.25581">
        <ele>94.1</ele>
        <time>2015-03-23T20:10:32.058Z</time>
      </trkpt>
      <trkpt lat="48.87558" lon="2.25577">
        <ele>94.4</ele>
        <time>2015-03-23T20:10:34.073Z</time>
      </trkpt>
      <trkpt lat="48.87554" lon="2.25576">
        <ele>94.6</ele>
        <time>2015-03-23T20:10:35.091Z</time>
      </trkpt>
      <trkpt lat="48.87548" lon="2.25573">
        <ele>94.9</ele>
        <time>2015-03-23T20:10:37.108Z</time>
      </trkpt>
      <trkpt lat="48.87545" lon="2.25571">
        <ele>94.9</ele>
        <time>2015-03-23T20:10:38.119Z</time>
      </trkpt>
      <trkpt lat="48.87539" lon="2.25568">
        <ele>94.9</ele>
        <time>2015-03-23T20:10:39.137Z</time>
      </trkpt>
      <trkpt lat="48.87531" lon="2.25566">
        <ele>94.8</ele>
        <time>2015-03-23T20:10:40.159Z</time>
      </trkpt>
      <trkpt lat="48.87524" lon="2.25561">
        <ele>94.8</ele>
        <time>2015-03-23T20:10:42.099Z</time>
      </trkpt>
      <trkpt lat="48.87521" lon="2.2556">
        <ele>94.8</ele>
        <time>2015-03-23T20:10:43.151Z</time>
      </trkpt>
      <trkpt lat="48.87513" lon="2.25555">
        <ele>94.7</ele>
        <time>2015-03-23T20:10:46.087Z</time>
      </trkpt>
      <trkpt lat="48.87511" lon="2.25554">
        <ele>94.6</ele>
        <time>2015-03-23T20:10:47.104Z</time>
      </trkpt>
      <trkpt lat="48.87503" lon="2.25548">
        <ele>94.4</ele>
        <time>2015-03-23T20:10:49.151Z</time>
      </trkpt>
      <trkpt lat="48.87501" lon="2.25547">
        <ele>94.5</ele>
        <time>2015-03-23T20:10:50.086Z</time>
      </trkpt>
      <trkpt lat="48.87493" lon="2.25544">
        <ele>94.7</ele>
        <time>2015-03-23T20:10:52.095Z</time>
      </trkpt>
      <trkpt lat="48.87489" lon="2.25543">
        <ele>94.6</ele>
        <time>2015-03-23T20:10:53.106Z</time>
      </trkpt>
      <trkpt lat="48.87481" lon="2.25542">
        <ele>95</ele>
        <time>2015-03-23T20:10:55.120Z</time>
      </trkpt>
      <trkpt lat="48.87478" lon="2.25542">
        <ele>95.1</ele>
        <time>2015-03-23T20:10:56.127Z</time>
      </trkpt>
      <trkpt lat="48.87473" lon="2.25539">
        <ele>95.2</ele>
        <time>2015-03-23T20:10:58.071Z</time>
      </trkpt>
      <trkpt lat="48.87469" lon="2.25537">
        <ele>95.1</ele>
        <time>2015-03-23T20:10:59.177Z</time>
      </trkpt>
      <trkpt lat="48.87463" lon="2.25535">
        <ele>95.3</ele>
        <time>2015-03-23T20:11:01.167Z</time>
      </trkpt>
      <trkpt lat="48.8746" lon="2.25534">
        <ele>95.3</ele>
        <time>2015-03-23T20:11:02.177Z</time>
      </trkpt>
      <trkpt lat="48.87452" lon="2.25529">
        <ele>95.5</ele>
        <time>2015-03-23T20:11:05.099Z</time>
      </trkpt>
      <trkpt lat="48.8745" lon="2.25529">
        <ele>95.6</ele>
        <time>2015-03-23T20:11:06.118Z</time>
      </trkpt>
      <trkpt lat="48.87443" lon="2.25527">
        <ele>95.8</ele>
        <time>2015-03-23T20:11:09.162Z</time>
      </trkpt>
      <trkpt lat="48.87441" lon="2.25526">
        <ele>95.8</ele>
        <time>2015-03-23T20:11:10.105Z</time>
      </trkpt>
      <trkpt lat="48.87436" lon="2.25519">
        <ele>96.3</ele>
        <time>2015-03-23T20:11:14.159Z</time>
      </trkpt>
      <trkpt lat="48.87433" lon="2.25517">
        <ele>96.5</ele>
        <time>2015-03-23T20:11:15.097Z</time>
      </trkpt>
      <trkpt lat="48.87428" lon="2.25509">
        <ele>96.8</ele>
        <time>2015-03-23T20:11:18.105Z</time>
      </trkpt>
      <trkpt lat="48.87426" lon="2.25507">
        <ele>96.8</ele>
        <time>2015-03-23T20:11:19.148Z</time>
      </trkpt>
      <trkpt lat="48.87422" lon="2.25503">
        <ele>97.3</ele>
        <time>2015-03-23T20:11:22.183Z</time>
      </trkpt>
      <trkpt lat="48.87421" lon="2.25503">
        <ele>97.4</ele>
        <time>2015-03-23T20:11:23.104Z</time>
      </trkpt>
      <trkpt lat="48.87421" lon="2.25499">
        <ele>95.8</ele>
        <time>2015-03-23T20:11:39.093Z</time>
      </trkpt>
      <trkpt lat="48.87413" lon="2.25497">
        <ele>92.5</ele>
        <time>2015-03-23T20:11:40.093Z</time>
      </trkpt>
      <trkpt lat="48.87412" lon="2.25497">
        <ele>91.7</ele>
        <time>2015-03-23T20:11:41.109Z</time>
      </trkpt>
      <trkpt lat="48.87413" lon="2.25497">
        <ele>90.6</ele>
        <time>2015-03-23T20:11:42.166Z</time>
      </trkpt>
      <trkpt lat="48.87413" lon="2.25497">
        <ele>89.7</ele>
        <time>2015-03-23T20:12:43.148Z</time>
      </trkpt>
      <trkpt lat="48.87413" lon="2.25499">
        <ele>87.5</ele>
        <time>2015-03-23T20:12:44.167Z</time>
      </trkpt>
      <trkpt lat="48.87406" lon="2.25503">
        <ele>87.4</ele>
        <time>2015-03-23T20:12:49.159Z</time>
      </trkpt>
      <trkpt lat="48.87404" lon="2.25505">
        <ele>87.5</ele>
        <time>2015-03-23T20:12:50.173Z</time>
      </trkpt>
      <trkpt lat="48.874" lon="2.25516">
        <ele>86.9</ele>
        <time>2015-03-23T20:12:55.164Z</time>
      </trkpt>
      <trkpt lat="48.87399" lon="2.25519">
        <ele>86.6</ele>
        <time>2015-03-23T20:12:56.098Z</time>
      </trkpt>
      <trkpt lat="48.87394" lon="2.25529">
        <ele>86.3</ele>
        <time>2015-03-23T20:12:59.094Z</time>
      </trkpt>
      <trkpt lat="48.87392" lon="2.25533">
        <ele>86.2</ele>
        <time>2015-03-23T20:13:00.167Z</time>
      </trkpt>
      <trkpt lat="48.87388" lon="2.25542">
        <ele>86</ele>
        <time>2015-03-23T20:13:03.098Z</time>
      </trkpt>
      <trkpt lat="48.87386" lon="2.25544">
        <ele>85.9</ele>
        <time>2015-03-23T20:13:04.134Z</time>
      </trkpt>
      <trkpt lat="48.87379" lon="2.25553">
        <ele>85.9</ele>
        <time>2015-03-23T20:13:07.120Z</time>
      </trkpt>
      <trkpt lat="48.87376" lon="2.25556">
        <ele>85.8</ele>
        <time>2015-03-23T20:13:08.120Z</time>
      </trkpt>
      <trkpt lat="48.8737" lon="2.25563">
        <ele>85.2</ele>
        <time>2015-03-23T20:13:10.140Z</time>
      </trkpt>
      <trkpt lat="48.87368" lon="2.25566">
        <ele>85</ele>
        <time>2015-03-23T20:13:11.159Z</time>
      </trkpt>
      <trkpt lat="48.87363" lon="2.25572">
        <ele>84.8</ele>
        <time>2015-03-23T20:13:13.109Z</time>
      </trkpt>
      <trkpt lat="48.87361" lon="2.25575">
        <ele>84.9</ele>
        <time>2015-03-23T20:13:14.132Z</time>
      </trkpt>
      <trkpt lat="48.87358" lon="2.25577">
        <ele>84.9</ele>
        <time>2015-03-23T20:13:15.147Z</time>
      </trkpt>
      <trkpt lat="48.87454" lon="2.25576">
        <ele>84.9</ele>
        <time>2015-03-23T20:13:16.155Z</time>
      </trkpt>
      <trkpt lat="48.87409" lon="2.2558">
        <ele>84.9</ele>
        <time>2015-03-23T20:13:17.078Z</time>
      </trkpt>
      <trkpt lat="48.87385" lon="2.25582">
        <ele>84.9</ele>
        <time>2015-03-23T20:13:18.086Z</time>
      </trkpt>
      <trkpt lat="48.87365" lon="2.25585">
        <ele>85</ele>
        <time>2015-03-23T20:13:19.126Z</time>
      </trkpt>
      <trkpt lat="48.87357" lon="2.25587">
        <ele>85</ele>
        <time>2015-03-23T20:13:20.147Z</time>
      </trkpt>
      <trkpt lat="48.87352" lon="2.2559">
        <ele>85.1</ele>
        <time>2015-03-23T20:13:21.160Z</time>
      </trkpt>
      <trkpt lat="48.87344" lon="2.25595">
        <ele>85.2</ele>
        <time>2015-03-23T20:13:23.085Z</time>
      </trkpt>
      <trkpt lat="48.87337" lon="2.25602">
        <ele>85.3</ele>
        <time>2015-03-23T20:13:24.089Z</time>
      </trkpt>
      <trkpt lat="48.87332" lon="2.25608">
        <ele>85.1</ele>
        <time>2015-03-23T20:13:28.089Z</time>
      </trkpt>
      <trkpt lat="48.87329" lon="2.25612">
        <ele>85.1</ele>
        <time>2015-03-23T20:13:29.100Z</time>
      </trkpt>
      <trkpt lat="48.87322" lon="2.2562">
        <ele>84.9</ele>
        <time>2015-03-23T20:13:31.122Z</time>
      </trkpt>
      <trkpt lat="48.87316" lon="2.25626">
        <ele>84.8</ele>
        <time>2015-03-23T20:13:32.080Z</time>
      </trkpt>
      <trkpt lat="48.87314" lon="2.25628">
        <ele>84.6</ele>
        <time>2015-03-23T20:13:35.049Z</time>
      </trkpt>
      <trkpt lat="48.87308" lon="2.25635">
        <ele>84.6</ele>
        <time>2015-03-23T20:13:35.113Z</time>
      </trkpt>
      <trkpt lat="48.87302" lon="2.25643">
        <ele>84.9</ele>
        <time>2015-03-23T20:13:39.156Z</time>
      </trkpt>
      <trkpt lat="48.87298" lon="2.25647">
        <ele>85.3</ele>
        <time>2015-03-23T20:13:40.056Z</time>
      </trkpt>
      <trkpt lat="48.87293" lon="2.25654">
        <ele>85.6</ele>
        <time>2015-03-23T20:13:42.094Z</time>
      </trkpt>
      <trkpt lat="48.87289" lon="2.25658">
        <ele>85.5</ele>
        <time>2015-03-23T20:13:43.119Z</time>
      </trkpt>
      <trkpt lat="48.87284" lon="2.25665">
        <ele>85.3</ele>
        <time>2015-03-23T20:13:45.228Z</time>
      </trkpt>
      <trkpt lat="48.8728" lon="2.2567">
        <ele>85.2</ele>
        <time>2015-03-23T20:13:46.097Z</time>
      </trkpt>
      <trkpt lat="48.87275" lon="2.25679">
        <ele>85.4</ele>
        <time>2015-03-23T20:13:48.097Z</time>
      </trkpt>
      <trkpt lat="48.87271" lon="2.25684">
        <ele>85.6</ele>
        <time>2015-03-23T20:13:49.128Z</time>
      </trkpt>
      <trkpt lat="48.87266" lon="2.25692">
        <ele>85.4</ele>
        <time>2015-03-23T20:13:51.133Z</time>
      </trkpt>
      <trkpt lat="48.87262" lon="2.25696">
        <ele>85.4</ele>
        <time>2015-03-23T20:13:52.144Z</time>
      </trkpt>
      <trkpt lat="48.87257" lon="2.25704">
        <ele>85.3</ele>
        <time>2015-03-23T20:13:54.176Z</time>
      </trkpt>
      <trkpt lat="48.87253" lon="2.25708">
        <ele>85.1</ele>
        <time>2015-03-23T20:13:55.197Z</time>
      </trkpt>
      <trkpt lat="48.87248" lon="2.25715">
        <ele>84.9</ele>
        <time>2015-03-23T20:13:57.150Z</time>
      </trkpt>
      <trkpt lat="48.87244" lon="2.2572">
        <ele>84.9</ele>
        <time>2015-03-23T20:13:58.162Z</time>
      </trkpt>
      <trkpt lat="48.87237" lon="2.25728">
        <ele>85.2</ele>
        <time>2015-03-23T20:14:00.510Z</time>
      </trkpt>
      <trkpt lat="48.87234" lon="2.25731">
        <ele>85.1</ele>
        <time>2015-03-23T20:14:01.124Z</time>
      </trkpt>
      <trkpt lat="48.8723" lon="2.25736">
        <ele>85.3</ele>
        <time>2015-03-23T20:14:02.129Z</time>
      </trkpt>
      <trkpt lat="48.87226" lon="2.2574">
        <ele>85.5</ele>
        <time>2015-03-23T20:14:03.151Z</time>
      </trkpt>
      <trkpt lat="48.8722" lon="2.25748">
        <ele>85.7</ele>
        <time>2015-03-23T20:14:05.588Z</time>
      </trkpt>
      <trkpt lat="48.87217" lon="2.25753">
        <ele>85.5</ele>
        <time>2015-03-23T20:14:06.138Z</time>
      </trkpt>
      <trkpt lat="48.87208" lon="2.25765">
        <ele>85.5</ele>
        <time>2015-03-23T20:14:07.170Z</time>
      </trkpt>
      <trkpt lat="48.87204" lon="2.2577">
        <ele>85.6</ele>
        <time>2015-03-23T20:14:08.085Z</time>
      </trkpt>
      <trkpt lat="48.872" lon="2.25774">
        <ele>85.5</ele>
        <time>2015-03-23T20:14:09.117Z</time>
      </trkpt>
      <trkpt lat="48.87193" lon="2.25782">
        <ele>85.7</ele>
        <time>2015-03-23T20:14:11.105Z</time>
      </trkpt>
      <trkpt lat="48.87189" lon="2.25786">
        <ele>85.5</ele>
        <time>2015-03-23T20:14:12.108Z</time>
      </trkpt>
      <trkpt lat="48.87184" lon="2.25791">
        <ele>85.6</ele>
        <time>2015-03-23T20:14:15.792Z</time>
      </trkpt>
      <trkpt lat="48.87175" lon="2.25802">
        <ele>85.7</ele>
        <time>2015-03-23T20:14:16.079Z</time>
      </trkpt>
      <trkpt lat="48.87167" lon="2.25806">
        <ele>85.8</ele>
        <time>2015-03-23T20:14:18.200Z</time>
      </trkpt>
      <trkpt lat="48.87164" lon="2.25807">
        <ele>85.7</ele>
        <time>2015-03-23T20:14:19.207Z</time>
      </trkpt>
      <trkpt lat="48.87157" lon="2.25814">
        <ele>85.7</ele>
        <time>2015-03-23T20:14:22.109Z</time>
      </trkpt>
      <trkpt lat="48.87157" lon="2.25816">
        <ele>85.7</ele>
        <time>2015-03-23T20:14:23.127Z</time>
      </trkpt>
      <trkpt lat="48.87164" lon="2.25822">
        <ele>84.7</ele>
        <time>2015-03-23T20:14:29.101Z</time>
      </trkpt>
      <trkpt lat="48.87165" lon="2.25821">
        <ele>84.6</ele>
        <time>2015-03-23T20:14:30.068Z</time>
      </trkpt>
      <trkpt lat="48.87168" lon="2.25824">
        <ele>84.7</ele>
        <time>2015-03-23T20:14:39.167Z</time>
      </trkpt>
      <trkpt lat="48.87168" lon="2.25824">
        <ele>84.6</ele>
        <time>2015-03-23T20:14:40.096Z</time>
      </trkpt>
      <trkpt lat="48.87169" lon="2.25822">
        <ele>84.5</ele>
        <time>2015-03-23T20:14:41.187Z</time>
      </trkpt>
      <trkpt lat="48.87162" lon="2.25813">
        <ele>82.6</ele>
        <time>2015-03-23T20:14:46.163Z</time>
      </trkpt>
      <trkpt lat="48.8716" lon="2.25813">
        <ele>82.6</ele>
        <time>2015-03-23T20:14:47.182Z</time>
      </trkpt>
      <trkpt lat="48.87156" lon="2.2582">
        <ele>83.7</ele>
        <time>2015-03-23T20:14:54.117Z</time>
      </trkpt>
      <trkpt lat="48.87156" lon="2.2582">
        <ele>83.8</ele>
        <time>2015-03-23T20:14:55.144Z</time>
      </trkpt>
      <trkpt lat="48.87156" lon="2.2582">
        <ele>83.7</ele>
        <time>2015-03-23T20:15:08.096Z</time>
      </trkpt>
      <trkpt lat="48.87157" lon="2.25819">
        <ele>83.9</ele>
        <time>2015-03-23T20:15:09.115Z</time>
      </trkpt>
      <trkpt lat="48.87164" lon="2.25813">
        <ele>83.8</ele>
        <time>2015-03-23T20:15:14.165Z</time>
      </trkpt>
      <trkpt lat="48.87166" lon="2.25812">
        <ele>83.8</ele>
        <time>2015-03-23T20:15:15.109Z</time>
      </trkpt>
      <trkpt lat="48.87172" lon="2.25808">
        <ele>83.8</ele>
        <time>2015-03-23T20:15:18.103Z</time>
      </trkpt>
      <trkpt lat="48.87174" lon="2.25806">
        <ele>83.9</ele>
        <time>2015-03-23T20:15:19.225Z</time>
      </trkpt>
      <trkpt lat="48.87181" lon="2.25798">
        <ele>84</ele>
        <time>2015-03-23T20:15:23.069Z</time>
      </trkpt>
      <trkpt lat="48.87183" lon="2.25797">
        <ele>84.1</ele>
        <time>2015-03-23T20:15:24.101Z</time>
      </trkpt>
      <trkpt lat="48.87189" lon="2.25791">
        <ele>84.4</ele>
        <time>2015-03-23T20:15:27.155Z</time>
      </trkpt>
      <trkpt lat="48.87191" lon="2.2579">
        <ele>84.5</ele>
        <time>2015-03-23T20:15:28.187Z</time>
      </trkpt>
      <trkpt lat="48.87197" lon="2.25785">
        <ele>84.5</ele>
        <time>2015-03-23T20:15:30.091Z</time>
      </trkpt>
      <trkpt lat="48.87199" lon="2.25783">
        <ele>84.5</ele>
        <time>2015-03-23T20:15:31.154Z</time>
      </trkpt>
      <trkpt lat="48.87205" lon="2.25773">
        <ele>84.7</ele>
        <time>2015-03-23T20:15:39.092Z</time>
      </trkpt>
      <trkpt lat="48.87207" lon="2.25769">
        <ele>84.8</ele>
        <time>2015-03-23T20:15:40.086Z</time>
      </trkpt>
      <trkpt lat="48.87214" lon="2.25762">
        <ele>85.1</ele>
        <time>2015-03-23T20:15:41.104Z</time>
      </trkpt>
      <trkpt lat="48.8722" lon="2.25755">
        <ele>85.4</ele>
        <time>2015-03-23T20:15:42.120Z</time>
      </trkpt>
      <trkpt lat="48.87228" lon="2.25748">
        <ele>85.7</ele>
        <time>2015-03-23T20:15:43.143Z</time>
      </trkpt>
      <trkpt lat="48.87233" lon="2.25744">
        <ele>85.9</ele>
        <time>2015-03-23T20:15:44.146Z</time>
      </trkpt>
      <trkpt lat="48.87237" lon="2.2574">
        <ele>85.9</ele>
        <time>2015-03-23T20:15:45.162Z</time>
      </trkpt>
      <trkpt lat="48.87241" lon="2.25736">
        <ele>86</ele>
        <time>2015-03-23T20:15:46.120Z</time>
      </trkpt>
      <trkpt lat="48.87245" lon="2.25733">
        <ele>86.1</ele>
        <time>2015-03-23T20:15:47.089Z</time>
      </trkpt>
      <trkpt lat="48.87249" lon="2.25728">
        <ele>86.1</ele>
        <time>2015-03-23T20:15:48.156Z</time>
      </trkpt>
      <trkpt lat="48.87254" lon="2.25723">
        <ele>86.1</ele>
        <time>2015-03-23T20:15:49.198Z</time>
      </trkpt>
      <trkpt lat="48.87259" lon="2.25719">
        <ele>86.1</ele>
        <time>2015-03-23T20:15:50.148Z</time>
      </trkpt>
      <trkpt lat="48.87262" lon="2.25715">
        <ele>86.1</ele>
        <time>2015-03-23T20:15:51.087Z</time>
      </trkpt>
      <trkpt lat="48.87266" lon="2.25711">
        <ele>86.1</ele>
        <time>2015-03-23T20:15:52.088Z</time>
      </trkpt>
      <trkpt lat="48.8727" lon="2.25708">
        <ele>86.1</ele>
        <time>2015-03-23T20:15:53.121Z</time>
      </trkpt>
      <trkpt lat="48.87275" lon="2.257">
        <ele>86.1</ele>
        <time>2015-03-23T20:15:54.129Z</time>
      </trkpt>
      <trkpt lat="48.87281" lon="2.25695">
        <ele>86</ele>
        <time>2015-03-23T20:15:56.153Z</time>
      </trkpt>
      <trkpt lat="48.87287" lon="2.25689">
        <ele>86.2</ele>
        <time>2015-03-23T20:15:57.162Z</time>
      </trkpt>
      <trkpt lat="48.87294" lon="2.25683">
        <ele>86.4</ele>
        <time>2015-03-23T20:15:58.080Z</time>
      </trkpt>
      <trkpt lat="48.87303" lon="2.25677">
        <ele>86.6</ele>
        <time>2015-03-23T20:15:59.077Z</time>
      </trkpt>
      <trkpt lat="48.87312" lon="2.25672">
        <ele>86.7</ele>
        <time>2015-03-23T20:16:00.204Z</time>
      </trkpt>
      <trkpt lat="48.8732" lon="2.25669">
        <ele>86.7</ele>
        <time>2015-03-23T20:16:01.146Z</time>
      </trkpt>
      <trkpt lat="48.87328" lon="2.25665">
        <ele>86.8</ele>
        <time>2015-03-23T20:16:02.147Z</time>
      </trkpt>
      <trkpt lat="48.87334" lon="2.25663">
        <ele>86.9</ele>
        <time>2015-03-23T20:16:03.088Z</time>
      </trkpt>
      <trkpt lat="48.87338" lon="2.25661">
        <ele>86.9</ele>
        <time>2015-03-23T20:16:04.100Z</time>
      </trkpt>
      <trkpt lat="48.87344" lon="2.25655">
        <ele>86.9</ele>
        <time>2015-03-23T20:16:06.141Z</time>
      </trkpt>
      <trkpt lat="48.87346" lon="2.25651">
        <ele>86.9</ele>
        <time>2015-03-23T20:16:07.159Z</time>
      </trkpt>
      <trkpt lat="48.87349" lon="2.25642">
        <ele>87.3</ele>
        <time>2015-03-23T20:16:09.070Z</time>
      </trkpt>
      <trkpt lat="48.87351" lon="2.25638">
        <ele>87.1</ele>
        <time>2015-03-23T20:16:10.248Z</time>
      </trkpt>
      <trkpt lat="48.87352" lon="2.25636">
        <ele>87</ele>
        <time>2015-03-23T20:16:11.060Z</time>
      </trkpt>
      <trkpt lat="48.87353" lon="2.25634">
        <ele>86.9</ele>
        <time>2015-03-23T20:16:12.102Z</time>
      </trkpt>
      <trkpt lat="48.87355" lon="2.2563">
        <ele>86.9</ele>
        <time>2015-03-23T20:16:13.136Z</time>
      </trkpt>
      <trkpt lat="48.87358" lon="2.25622">
        <ele>86.7</ele>
        <time>2015-03-23T20:16:15.178Z</time>
      </trkpt>
      <trkpt lat="48.8736" lon="2.25617">
        <ele>86.7</ele>
        <time>2015-03-23T20:16:16.095Z</time>
      </trkpt>
      <trkpt lat="48.87363" lon="2.25612">
        <ele>86.6</ele>
        <time>2015-03-23T20:16:17.091Z</time>
      </trkpt>
      <trkpt lat="48.87366" lon="2.25606">
        <ele>86.5</ele>
        <time>2015-03-23T20:16:18.089Z</time>
      </trkpt>
      <trkpt lat="48.8737" lon="2.25596">
        <ele>86.4</ele>
        <time>2015-03-23T20:16:20.143Z</time>
      </trkpt>
      <trkpt lat="48.87372" lon="2.25591">
        <ele>86.3</ele>
        <time>2015-03-23T20:16:21.174Z</time>
      </trkpt>
      <trkpt lat="48.87376" lon="2.2558">
        <ele>85.8</ele>
        <time>2015-03-23T20:16:23.088Z</time>
      </trkpt>
      <trkpt lat="48.87378" lon="2.25573">
        <ele>85.6</ele>
        <time>2015-03-23T20:16:24.444Z</time>
      </trkpt>
      <trkpt lat="48.8738" lon="2.25566">
        <ele>85.4</ele>
        <time>2015-03-23T20:16:25.161Z</time>
      </trkpt>
      <trkpt lat="48.87381" lon="2.25557">
        <ele>84.6</ele>
        <time>2015-03-23T20:16:26.063Z</time>
      </trkpt>
      <trkpt lat="48.87383" lon="2.25545">
        <ele>83.8</ele>
        <time>2015-03-23T20:16:27.084Z</time>
      </trkpt>
      <trkpt lat="48.87384" lon="2.25538">
        <ele>83.9</ele>
        <time>2015-03-23T20:16:28.101Z</time>
      </trkpt>
      <trkpt lat="48.8738" lon="2.25527">
        <ele>83.7</ele>
        <time>2015-03-23T20:16:31.165Z</time>
      </trkpt>
      <trkpt lat="48.87379" lon="2.25524">
        <ele>83.5</ele>
        <time>2015-03-23T20:16:32.061Z</time>
      </trkpt>
      <trkpt lat="48.87374" lon="2.25514">
        <ele>82.9</ele>
        <time>2015-03-23T20:16:36.116Z</time>
      </trkpt>
      <trkpt lat="48.87373" lon="2.25512">
        <ele>82.9</ele>
        <time>2015-03-23T20:16:37.132Z</time>
      </trkpt>
      <trkpt lat="48.87374" lon="2.25499">
        <ele>83</ele>
        <time>2015-03-23T20:16:55.162Z</time>
      </trkpt>
      <trkpt lat="48.87372" lon="2.25497">
        <ele>83.1</ele>
        <time>2015-03-23T20:16:56.176Z</time>
      </trkpt>
      <trkpt lat="48.87367" lon="2.25489">
        <ele>83.2</ele>
        <time>2015-03-23T20:16:59.099Z</time>
      </trkpt>
      <trkpt lat="48.87365" lon="2.25488">
        <ele>83.2</ele>
        <time>2015-03-23T20:17:00.112Z</time>
      </trkpt>
      <trkpt lat="48.87357" lon="2.2548">
        <ele>82.9</ele>
        <time>2015-03-23T20:17:03.091Z</time>
      </trkpt>
      <trkpt lat="48.87355" lon="2.25478">
        <ele>82.9</ele>
        <time>2015-03-23T20:17:04.116Z</time>
      </trkpt>
      <trkpt lat="48.87347" lon="2.25471">
        <ele>82.9</ele>
        <time>2015-03-23T20:17:07.147Z</time>
      </trkpt>
      <trkpt lat="48.87344" lon="2.25468">
        <ele>83</ele>
        <time>2015-03-23T20:17:08.060Z</time>
      </trkpt>
      <trkpt lat="48.87338" lon="2.25463">
        <ele>82.8</ele>
        <time>2015-03-23T20:17:10.119Z</time>
      </trkpt>
      <trkpt lat="48.87334" lon="2.2546">
        <ele>82.8</ele>
        <time>2015-03-23T20:17:11.058Z</time>
      </trkpt>
      <trkpt lat="48.87328" lon="2.25456">
        <ele>82.8</ele>
        <time>2015-03-23T20:17:13.144Z</time>
      </trkpt>
      <trkpt lat="48.87324" lon="2.25455">
        <ele>82.9</ele>
        <time>2015-03-23T20:17:14.157Z</time>
      </trkpt>
      <trkpt lat="48.87317" lon="2.25453">
        <ele>82.6</ele>
        <time>2015-03-23T20:17:16.056Z</time>
      </trkpt>
      <trkpt lat="48.87313" lon="2.25451">
        <ele>82.7</ele>
        <time>2015-03-23T20:17:17.092Z</time>
      </trkpt>
      <trkpt lat="48.87306" lon="2.25448">
        <ele>82.8</ele>
        <time>2015-03-23T20:17:19.111Z</time>
      </trkpt>
      <trkpt lat="48.87302" lon="2.25447">
        <ele>82.8</ele>
        <time>2015-03-23T20:17:20.129Z</time>
      </trkpt>
      <trkpt lat="48.87297" lon="2.25445">
        <ele>82.8</ele>
        <time>2015-03-23T20:17:21.144Z</time>
      </trkpt>
      <trkpt lat="48.87293" lon="2.25442">
        <ele>82.8</ele>
        <time>2015-03-23T20:17:22.141Z</time>
      </trkpt>
      <trkpt lat="48.87288" lon="2.25439">
        <ele>82.7</ele>
        <time>2015-03-23T20:17:23.074Z</time>
      </trkpt>
      <trkpt lat="48.87284" lon="2.25437">
        <ele>82.8</ele>
        <time>2015-03-23T20:17:24.081Z</time>
      </trkpt>
      <trkpt lat="48.8728" lon="2.25434">
        <ele>82.8</ele>
        <time>2015-03-23T20:17:25.219Z</time>
      </trkpt>
      <trkpt lat="48.87276" lon="2.25431">
        <ele>82.8</ele>
        <time>2015-03-23T20:17:26.137Z</time>
      </trkpt>
      <trkpt lat="48.8727" lon="2.25428">
        <ele>82.8</ele>
        <time>2015-03-23T20:17:27.107Z</time>
      </trkpt>
      <trkpt lat="48.87265" lon="2.25424">
        <ele>83.3</ele>
        <time>2015-03-23T20:17:28.045Z</time>
      </trkpt>
      <trkpt lat="48.87259" lon="2.2542">
        <ele>84</ele>
        <time>2015-03-23T20:17:29.057Z</time>
      </trkpt>
      <trkpt lat="48.87254" lon="2.25416">
        <ele>84.2</ele>
        <time>2015-03-23T20:17:30.061Z</time>
      </trkpt>
      <trkpt lat="48.87248" lon="2.25413">
        <ele>84.2</ele>
        <time>2015-03-23T20:17:31.134Z</time>
      </trkpt>
      <trkpt lat="48.87242" lon="2.2541">
        <ele>84.1</ele>
        <time>2015-03-23T20:17:32.155Z</time>
      </trkpt>
      <trkpt lat="48.87236" lon="2.25407">
        <ele>84</ele>
        <time>2015-03-23T20:17:33.083Z</time>
      </trkpt>
      <trkpt lat="48.8723" lon="2.25403">
        <ele>84.1</ele>
        <time>2015-03-23T20:17:34.064Z</time>
      </trkpt>
      <trkpt lat="48.87224" lon="2.25399">
        <ele>84.1</ele>
        <time>2015-03-23T20:17:35.086Z</time>
      </trkpt>
      <trkpt lat="48.87217" lon="2.25394">
        <ele>84</ele>
        <time>2015-03-23T20:17:36.098Z</time>
      </trkpt>
      <trkpt lat="48.87211" lon="2.25389">
        <ele>83.9</ele>
        <time>2015-03-23T20:17:37.117Z</time>
      </trkpt>
      <trkpt lat="48.87203" lon="2.25383">
        <ele>83.9</ele>
        <time>2015-03-23T20:17:38.122Z</time>
      </trkpt>
      <trkpt lat="48.87196" lon="2.25377">
        <ele>84.5</ele>
        <time>2015-03-23T20:17:39.144Z</time>
      </trkpt>
      <trkpt lat="48.8719" lon="2.2537">
        <ele>85</ele>
        <time>2015-03-23T20:17:40.062Z</time>
      </trkpt>
      <trkpt lat="48.87181" lon="2.25362">
        <ele>85.7</ele>
        <time>2015-03-23T20:17:41.039Z</time>
      </trkpt>
      <trkpt lat="48.87173" lon="2.25353">
        <ele>85.5</ele>
        <time>2015-03-23T20:17:42.070Z</time>
      </trkpt>
      <trkpt lat="48.87165" lon="2.25347">
        <ele>85.7</ele>
        <time>2015-03-23T20:17:43.096Z</time>
      </trkpt>
      <trkpt lat="48.87157" lon="2.2534">
        <ele>85.3</ele>
        <time>2015-03-23T20:17:44.108Z</time>
      </trkpt>
      <trkpt lat="48.87147" lon="2.25335">
        <ele>85.2</ele>
        <time>2015-03-23T20:17:45.066Z</time>
      </trkpt>
      <trkpt lat="48.87139" lon="2.25329">
        <ele>85.2</ele>
        <time>2015-03-23T20:17:46.065Z</time>
      </trkpt>
      <trkpt lat="48.87131" lon="2.25324">
        <ele>85.3</ele>
        <time>2015-03-23T20:17:47.067Z</time>
      </trkpt>
      <trkpt lat="48.87123" lon="2.25318">
        <ele>85.4</ele>
        <time>2015-03-23T20:17:48.072Z</time>
      </trkpt>
      <trkpt lat="48.87116" lon="2.25312">
        <ele>85.3</ele>
        <time>2015-03-23T20:17:49.133Z</time>
      </trkpt>
      <trkpt lat="48.8711" lon="2.25305">
        <ele>84.9</ele>
        <time>2015-03-23T20:17:50.145Z</time>
      </trkpt>
      <trkpt lat="48.87103" lon="2.25301">
        <ele>84.8</ele>
        <time>2015-03-23T20:17:51.044Z</time>
      </trkpt>
      <trkpt lat="48.87096" lon="2.25296">
        <ele>84.7</ele>
        <time>2015-03-23T20:17:52.047Z</time>
      </trkpt>
      <trkpt lat="48.87089" lon="2.25292">
        <ele>84.5</ele>
        <time>2015-03-23T20:17:53.054Z</time>
      </trkpt>
      <trkpt lat="48.87082" lon="2.25287">
        <ele>84.4</ele>
        <time>2015-03-23T20:17:54.054Z</time>
      </trkpt>
      <trkpt lat="48.87074" lon="2.25282">
        <ele>83.9</ele>
        <time>2015-03-23T20:17:55.118Z</time>
      </trkpt>
      <trkpt lat="48.87066" lon="2.25278">
        <ele>83.7</ele>
        <time>2015-03-23T20:17:56.076Z</time>
      </trkpt>
      <trkpt lat="48.87059" lon="2.25274">
        <ele>83.5</ele>
        <time>2015-03-23T20:17:57.068Z</time>
      </trkpt>
      <trkpt lat="48.87052" lon="2.25269">
        <ele>83.1</ele>
        <time>2015-03-23T20:17:58.075Z</time>
      </trkpt>
      <trkpt lat="48.87044" lon="2.25265">
        <ele>83.1</ele>
        <time>2015-03-23T20:17:59.081Z</time>
      </trkpt>
      <trkpt lat="48.87036" lon="2.25261">
        <ele>83.1</ele>
        <time>2015-03-23T20:18:00.090Z</time>
      </trkpt>
      <trkpt lat="48.87029" lon="2.25256">
        <ele>83</ele>
        <time>2015-03-23T20:18:01.143Z</time>
      </trkpt>
      <trkpt lat="48.87021" lon="2.25251">
        <ele>82.8</ele>
        <time>2015-03-23T20:18:02.149Z</time>
      </trkpt>
      <trkpt lat="48.87015" lon="2.25246">
        <ele>82.6</ele>
        <time>2015-03-23T20:18:03.099Z</time>
      </trkpt>
      <trkpt lat="48.87008" lon="2.2524">
        <ele>82.5</ele>
        <time>2015-03-23T20:18:04.116Z</time>
      </trkpt>
      <trkpt lat="48.87" lon="2.25233">
        <ele>82.3</ele>
        <time>2015-03-23T20:18:05.123Z</time>
      </trkpt>
      <trkpt lat="48.86993" lon="2.2523">
        <ele>83.1</ele>
        <time>2015-03-23T20:18:06.129Z</time>
      </trkpt>
      <trkpt lat="48.86984" lon="2.25228">
        <ele>83.8</ele>
        <time>2015-03-23T20:18:07.145Z</time>
      </trkpt>
      <trkpt lat="48.86977" lon="2.25228">
        <ele>84.8</ele>
        <time>2015-03-23T20:18:08.157Z</time>
      </trkpt>
      <trkpt lat="48.86969" lon="2.25225">
        <ele>85.4</ele>
        <time>2015-03-23T20:18:09.056Z</time>
      </trkpt>
      <trkpt lat="48.86963" lon="2.2522">
        <ele>85.6</ele>
        <time>2015-03-23T20:18:10.075Z</time>
      </trkpt>
      <trkpt lat="48.86955" lon="2.25218">
        <ele>86.1</ele>
        <time>2015-03-23T20:18:11.087Z</time>
      </trkpt>
      <trkpt lat="48.86948" lon="2.25214">
        <ele>86.2</ele>
        <time>2015-03-23T20:18:12.083Z</time>
      </trkpt>
      <trkpt lat="48.86942" lon="2.2521">
        <ele>86.3</ele>
        <time>2015-03-23T20:18:13.241Z</time>
      </trkpt>
      <trkpt lat="48.86935" lon="2.25205">
        <ele>86.3</ele>
        <time>2015-03-23T20:18:14.112Z</time>
      </trkpt>
      <trkpt lat="48.86929" lon="2.252">
        <ele>86.4</ele>
        <time>2015-03-23T20:18:15.125Z</time>
      </trkpt>
      <trkpt lat="48.86922" lon="2.25196">
        <ele>86.6</ele>
        <time>2015-03-23T20:18:16.130Z</time>
      </trkpt>
      <trkpt lat="48.86915" lon="2.25192">
        <ele>86.5</ele>
        <time>2015-03-23T20:18:17.140Z</time>
      </trkpt>
      <trkpt lat="48.86909" lon="2.25188">
        <ele>86.6</ele>
        <time>2015-03-23T20:18:18.147Z</time>
      </trkpt>
      <trkpt lat="48.86903" lon="2.25183">
        <ele>86.3</ele>
        <time>2015-03-23T20:18:19.160Z</time>
      </trkpt>
      <trkpt lat="48.86897" lon="2.25178">
        <ele>85.9</ele>
        <time>2015-03-23T20:18:20.053Z</time>
      </trkpt>
      <trkpt lat="48.86891" lon="2.25173">
        <ele>85.7</ele>
        <time>2015-03-23T20:18:21.077Z</time>
      </trkpt>
      <trkpt lat="48.86886" lon="2.25169">
        <ele>85.7</ele>
        <time>2015-03-23T20:18:22.094Z</time>
      </trkpt>
      <trkpt lat="48.86881" lon="2.25165">
        <ele>85.7</ele>
        <time>2015-03-23T20:18:23.118Z</time>
      </trkpt>
      <trkpt lat="48.86875" lon="2.2516">
        <ele>85.1</ele>
        <time>2015-03-23T20:18:24.132Z</time>
      </trkpt>
      <trkpt lat="48.8687" lon="2.25155">
        <ele>84.4</ele>
        <time>2015-03-23T20:18:25.156Z</time>
      </trkpt>
      <trkpt lat="48.86864" lon="2.25151">
        <ele>83.2</ele>
        <time>2015-03-23T20:18:26.079Z</time>
      </trkpt>
      <trkpt lat="48.86859" lon="2.25147">
        <ele>82.3</ele>
        <time>2015-03-23T20:18:27.118Z</time>
      </trkpt>
      <trkpt lat="48.86855" lon="2.25142">
        <ele>81.5</ele>
        <time>2015-03-23T20:18:28.131Z</time>
      </trkpt>
      <trkpt lat="48.8685" lon="2.25138">
        <ele>80.9</ele>
        <time>2015-03-23T20:18:29.132Z</time>
      </trkpt>
      <trkpt lat="48.86845" lon="2.25134">
        <ele>80.7</ele>
        <time>2015-03-23T20:18:30.146Z</time>
      </trkpt>
      <trkpt lat="48.8684" lon="2.2513">
        <ele>80.5</ele>
        <time>2015-03-23T20:18:31.153Z</time>
      </trkpt>
      <trkpt lat="48.86835" lon="2.25128">
        <ele>80.5</ele>
        <time>2015-03-23T20:18:32.053Z</time>
      </trkpt>
      <trkpt lat="48.8683" lon="2.25125">
        <ele>80.7</ele>
        <time>2015-03-23T20:18:33.057Z</time>
      </trkpt>
      <trkpt lat="48.86826" lon="2.2512">
        <ele>80.9</ele>
        <time>2015-03-23T20:18:34.062Z</time>
      </trkpt>
      <trkpt lat="48.86821" lon="2.25117">
        <ele>81.1</ele>
        <time>2015-03-23T20:18:35.090Z</time>
      </trkpt>
      <trkpt lat="48.86815" lon="2.25113">
        <ele>81.3</ele>
        <time>2015-03-23T20:18:36.090Z</time>
      </trkpt>
      <trkpt lat="48.8681" lon="2.25111">
        <ele>81.7</ele>
        <time>2015-03-23T20:18:37.090Z</time>
      </trkpt>
      <trkpt lat="48.86806" lon="2.25106">
        <ele>82.2</ele>
        <time>2015-03-23T20:18:38.084Z</time>
      </trkpt>
      <trkpt lat="48.86801" lon="2.25103">
        <ele>82.7</ele>
        <time>2015-03-23T20:18:39.100Z</time>
      </trkpt>
      <trkpt lat="48.86797" lon="2.251">
        <ele>83.3</ele>
        <time>2015-03-23T20:18:40.110Z</time>
      </trkpt>
      <trkpt lat="48.8679" lon="2.25096">
        <ele>84.1</ele>
        <time>2015-03-23T20:18:42.182Z</time>
      </trkpt>
      <trkpt lat="48.86786" lon="2.25094">
        <ele>84.4</ele>
        <time>2015-03-23T20:18:43.168Z</time>
      </trkpt>
      <trkpt lat="48.8678" lon="2.2509">
        <ele>84.5</ele>
        <time>2015-03-23T20:18:45.063Z</time>
      </trkpt>
      <trkpt lat="48.86778" lon="2.25087">
        <ele>84.6</ele>
        <time>2015-03-23T20:18:46.081Z</time>
      </trkpt>
      <trkpt lat="48.86774" lon="2.25081">
        <ele>88.4</ele>
        <time>2015-03-23T20:20:06.169Z</time>
      </trkpt>
      <trkpt lat="48.86767" lon="2.25085">
        <ele>90</ele>
        <time>2015-03-23T20:20:07.193Z</time>
      </trkpt>
      <trkpt lat="48.86763" lon="2.25076">
        <ele>89.9</ele>
        <time>2015-03-23T20:20:10.095Z</time>
      </trkpt>
      <trkpt lat="48.86761" lon="2.25072">
        <ele>90.1</ele>
        <time>2015-03-23T20:20:11.127Z</time>
      </trkpt>
      <trkpt lat="48.86757" lon="2.25063">
        <ele>90.3</ele>
        <time>2015-03-23T20:20:13.149Z</time>
      </trkpt>
      <trkpt lat="48.86755" lon="2.25058">
        <ele>90.7</ele>
        <time>2015-03-23T20:20:14.094Z</time>
      </trkpt>
      <trkpt lat="48.86752" lon="2.25048">
        <ele>90.8</ele>
        <time>2015-03-23T20:20:16.110Z</time>
      </trkpt>
      <trkpt lat="48.86751" lon="2.25043">
        <ele>91.1</ele>
        <time>2015-03-23T20:20:17.125Z</time>
      </trkpt>
      <trkpt lat="48.86748" lon="2.25034">
        <ele>91.5</ele>
        <time>2015-03-23T20:20:19.203Z</time>
      </trkpt>
      <trkpt lat="48.86747" lon="2.25029">
        <ele>91.7</ele>
        <time>2015-03-23T20:20:20.090Z</time>
      </trkpt>
      <trkpt lat="48.86743" lon="2.25018">
        <ele>91.8</ele>
        <time>2015-03-23T20:20:22.051Z</time>
      </trkpt>
      <trkpt lat="48.86742" lon="2.25013">
        <ele>91.6</ele>
        <time>2015-03-23T20:20:23.085Z</time>
      </trkpt>
      <trkpt lat="48.86763" lon="2.25053">
        <ele>91.5</ele>
        <time>2015-03-23T20:20:24.087Z</time>
      </trkpt>
      <trkpt lat="48.86754" lon="2.25035">
        <ele>91.5</ele>
        <time>2015-03-23T20:20:25.153Z</time>
      </trkpt>
      <trkpt lat="48.86747" lon="2.25021">
        <ele>91.3</ele>
        <time>2015-03-23T20:20:26.070Z</time>
      </trkpt>
      <trkpt lat="48.86741" lon="2.25008">
        <ele>91.2</ele>
        <time>2015-03-23T20:20:27.089Z</time>
      </trkpt>
      <trkpt lat="48.86737" lon="2.25">
        <ele>91.2</ele>
        <time>2015-03-23T20:20:27.858Z</time>
      </trkpt>
      <trkpt lat="48.86734" lon="2.24992">
        <ele>91.3</ele>
        <time>2015-03-23T20:20:29.122Z</time>
      </trkpt>
      <trkpt lat="48.86734" lon="2.24992">
        <ele>91.3</ele>
        <time>2015-03-23T20:20:29.992Z</time>
      </trkpt>
      <trkpt lat="48.86728" lon="2.24975">
        <ele>91.3</ele>
        <time>2015-03-23T20:20:30.138Z</time>
      </trkpt>
      <trkpt lat="48.86727" lon="2.24968">
        <ele>91.2</ele>
        <time>2015-03-23T20:20:31.158Z</time>
      </trkpt>
      <trkpt lat="48.86724" lon="2.24961">
        <ele>90.9</ele>
        <time>2015-03-23T20:20:32.069Z</time>
      </trkpt>
      <trkpt lat="48.86721" lon="2.2495">
        <ele>90.8</ele>
        <time>2015-03-23T20:20:35.064Z</time>
      </trkpt>
      <trkpt lat="48.86718" lon="2.24944">
        <ele>90.8</ele>
        <time>2015-03-23T20:20:35.162Z</time>
      </trkpt>
      <trkpt lat="48.86717" lon="2.24937">
        <ele>90.8</ele>
        <time>2015-03-23T20:20:36.034Z</time>
      </trkpt>
      <trkpt lat="48.86714" lon="2.24931">
        <ele>90.5</ele>
        <time>2015-03-23T20:20:37.104Z</time>
      </trkpt>
      <trkpt lat="48.86712" lon="2.24924">
        <ele>90.4</ele>
        <time>2015-03-23T20:20:38.148Z</time>
      </trkpt>
      <trkpt lat="48.8671" lon="2.24917">
        <ele>90.2</ele>
        <time>2015-03-23T20:20:39.154Z</time>
      </trkpt>
      <trkpt lat="48.86708" lon="2.2491">
        <ele>90</ele>
        <time>2015-03-23T20:20:40.036Z</time>
      </trkpt>
      <trkpt lat="48.86706" lon="2.24905">
        <ele>90</ele>
        <time>2015-03-23T20:20:41.081Z</time>
      </trkpt>
      <trkpt lat="48.86703" lon="2.24898">
        <ele>90</ele>
        <time>2015-03-23T20:20:42.110Z</time>
      </trkpt>
      <trkpt lat="48.867" lon="2.24892">
        <ele>90</ele>
        <time>2015-03-23T20:20:43.135Z</time>
      </trkpt>
      <trkpt lat="48.86698" lon="2.24887">
        <ele>90</ele>
        <time>2015-03-23T20:20:44.057Z</time>
      </trkpt>
      <trkpt lat="48.86695" lon="2.2488">
        <ele>90</ele>
        <time>2015-03-23T20:20:45.063Z</time>
      </trkpt>
      <trkpt lat="48.86692" lon="2.24874">
        <ele>89.8</ele>
        <time>2015-03-23T20:20:46.069Z</time>
      </trkpt>
      <trkpt lat="48.8669" lon="2.24867">
        <ele>89.8</ele>
        <time>2015-03-23T20:20:47.078Z</time>
      </trkpt>
      <trkpt lat="48.86686" lon="2.24856">
        <ele>89.8</ele>
        <time>2015-03-23T20:20:49.112Z</time>
      </trkpt>
      <trkpt lat="48.86683" lon="2.24849">
        <ele>89.8</ele>
        <time>2015-03-23T20:20:50.124Z</time>
      </trkpt>
      <trkpt lat="48.86681" lon="2.24842">
        <ele>89.6</ele>
        <time>2015-03-23T20:20:51.148Z</time>
      </trkpt>
      <trkpt lat="48.86679" lon="2.24835">
        <ele>89.5</ele>
        <time>2015-03-23T20:20:52.062Z</time>
      </trkpt>
      <trkpt lat="48.86676" lon="2.24828">
        <ele>89.6</ele>
        <time>2015-03-23T20:20:53.061Z</time>
      </trkpt>
      <trkpt lat="48.86673" lon="2.24821">
        <ele>89.7</ele>
        <time>2015-03-23T20:20:54.062Z</time>
      </trkpt>
      <trkpt lat="48.86671" lon="2.24814">
        <ele>89.8</ele>
        <time>2015-03-23T20:20:55.099Z</time>
      </trkpt>
      <trkpt lat="48.86668" lon="2.24808">
        <ele>90</ele>
        <time>2015-03-23T20:20:56.102Z</time>
      </trkpt>
      <trkpt lat="48.86665" lon="2.24801">
        <ele>90.4</ele>
        <time>2015-03-23T20:20:57.133Z</time>
      </trkpt>
      <trkpt lat="48.86663" lon="2.24795">
        <ele>90.7</ele>
        <time>2015-03-23T20:20:58.114Z</time>
      </trkpt>
      <trkpt lat="48.86659" lon="2.24788">
        <ele>90.9</ele>
        <time>2015-03-23T20:20:59.124Z</time>
      </trkpt>
      <trkpt lat="48.86655" lon="2.24781">
        <ele>91</ele>
        <time>2015-03-23T20:21:00.145Z</time>
      </trkpt>
      <trkpt lat="48.86652" lon="2.24775">
        <ele>91.2</ele>
        <time>2015-03-23T20:21:01.161Z</time>
      </trkpt>
      <trkpt lat="48.86648" lon="2.24769">
        <ele>91.5</ele>
        <time>2015-03-23T20:21:02.051Z</time>
      </trkpt>
      <trkpt lat="48.86644" lon="2.2476">
        <ele>91.9</ele>
        <time>2015-03-23T20:21:03.051Z</time>
      </trkpt>
      <trkpt lat="48.8664" lon="2.24749">
        <ele>92.2</ele>
        <time>2015-03-23T20:21:04.065Z</time>
      </trkpt>
      <trkpt lat="48.86637" lon="2.2474">
        <ele>92.4</ele>
        <time>2015-03-23T20:21:05.070Z</time>
      </trkpt>
      <trkpt lat="48.86634" lon="2.2473">
        <ele>92.5</ele>
        <time>2015-03-23T20:21:06.086Z</time>
      </trkpt>
      <trkpt lat="48.86631" lon="2.2472">
        <ele>92.6</ele>
        <time>2015-03-23T20:21:07.098Z</time>
      </trkpt>
      <trkpt lat="48.86627" lon="2.24709">
        <ele>92.8</ele>
        <time>2015-03-23T20:21:08.106Z</time>
      </trkpt>
      <trkpt lat="48.86624" lon="2.24699">
        <ele>92.8</ele>
        <time>2015-03-23T20:21:09.117Z</time>
      </trkpt>
      <trkpt lat="48.86621" lon="2.24688">
        <ele>92.8</ele>
        <time>2015-03-23T20:21:10.153Z</time>
      </trkpt>
      <trkpt lat="48.86617" lon="2.24677">
        <ele>92.5</ele>
        <time>2015-03-23T20:21:11.058Z</time>
      </trkpt>
      <trkpt lat="48.86614" lon="2.24666">
        <ele>92.6</ele>
        <time>2015-03-23T20:21:12.067Z</time>
      </trkpt>
      <trkpt lat="48.8661" lon="2.24655">
        <ele>92.6</ele>
        <time>2015-03-23T20:21:13.095Z</time>
      </trkpt>
      <trkpt lat="48.86607" lon="2.24644">
        <ele>92.4</ele>
        <time>2015-03-23T20:21:14.109Z</time>
      </trkpt>
      <trkpt lat="48.86603" lon="2.24634">
        <ele>92.2</ele>
        <time>2015-03-23T20:21:15.125Z</time>
      </trkpt>
      <trkpt lat="48.866" lon="2.24624">
        <ele>92.1</ele>
        <time>2015-03-23T20:21:16.121Z</time>
      </trkpt>
      <trkpt lat="48.86597" lon="2.24614">
        <ele>92</ele>
        <time>2015-03-23T20:21:17.138Z</time>
      </trkpt>
      <trkpt lat="48.86592" lon="2.24604">
        <ele>92</ele>
        <time>2015-03-23T20:21:18.050Z</time>
      </trkpt>
      <trkpt lat="48.86588" lon="2.24594">
        <ele>92</ele>
        <time>2015-03-23T20:21:19.173Z</time>
      </trkpt>
      <trkpt lat="48.86583" lon="2.24583">
        <ele>91.9</ele>
        <time>2015-03-23T20:21:20.051Z</time>
      </trkpt>
      <trkpt lat="48.8658" lon="2.24573">
        <ele>91.8</ele>
        <time>2015-03-23T20:21:21.052Z</time>
      </trkpt>
      <trkpt lat="48.86576" lon="2.24562">
        <ele>91.7</ele>
        <time>2015-03-23T20:21:22.064Z</time>
      </trkpt>
      <trkpt lat="48.86573" lon="2.24551">
        <ele>92</ele>
        <time>2015-03-23T20:21:23.160Z</time>
      </trkpt>
      <trkpt lat="48.8657" lon="2.24539">
        <ele>92.4</ele>
        <time>2015-03-23T20:21:24.047Z</time>
      </trkpt>
      <trkpt lat="48.86566" lon="2.24528">
        <ele>92.3</ele>
        <time>2015-03-23T20:21:25.095Z</time>
      </trkpt>
      <trkpt lat="48.86563" lon="2.24518">
        <ele>92.1</ele>
        <time>2015-03-23T20:21:26.115Z</time>
      </trkpt>
      <trkpt lat="48.8656" lon="2.24508">
        <ele>92.2</ele>
        <time>2015-03-23T20:21:27.053Z</time>
      </trkpt>
      <trkpt lat="48.86556" lon="2.24498">
        <ele>92.1</ele>
        <time>2015-03-23T20:21:28.052Z</time>
      </trkpt>
      <trkpt lat="48.86553" lon="2.24489">
        <ele>91.8</ele>
        <time>2015-03-23T20:21:29.056Z</time>
      </trkpt>
      <trkpt lat="48.86549" lon="2.24481">
        <ele>91.7</ele>
        <time>2015-03-23T20:21:30.061Z</time>
      </trkpt>
      <trkpt lat="48.86546" lon="2.24472">
        <ele>91.8</ele>
        <time>2015-03-23T20:21:31.123Z</time>
      </trkpt>
      <trkpt lat="48.86543" lon="2.24463">
        <ele>91.6</ele>
        <time>2015-03-23T20:21:32.067Z</time>
      </trkpt>
      <trkpt lat="48.8654" lon="2.24454">
        <ele>91.4</ele>
        <time>2015-03-23T20:21:33.133Z</time>
      </trkpt>
      <trkpt lat="48.86537" lon="2.24445">
        <ele>91.3</ele>
        <time>2015-03-23T20:21:34.070Z</time>
      </trkpt>
      <trkpt lat="48.86533" lon="2.24436">
        <ele>91.1</ele>
        <time>2015-03-23T20:21:35.108Z</time>
      </trkpt>
      <trkpt lat="48.8653" lon="2.24426">
        <ele>91.1</ele>
        <time>2015-03-23T20:21:36.113Z</time>
      </trkpt>
      <trkpt lat="48.86527" lon="2.24417">
        <ele>91.1</ele>
        <time>2015-03-23T20:21:37.122Z</time>
      </trkpt>
      <trkpt lat="48.86523" lon="2.24407">
        <ele>91.1</ele>
        <time>2015-03-23T20:21:38.154Z</time>
      </trkpt>
      <trkpt lat="48.86519" lon="2.24397">
        <ele>91.1</ele>
        <time>2015-03-23T20:21:39.055Z</time>
      </trkpt>
      <trkpt lat="48.86516" lon="2.24387">
        <ele>91.2</ele>
        <time>2015-03-23T20:21:40.058Z</time>
      </trkpt>
      <trkpt lat="48.86512" lon="2.24377">
        <ele>91.2</ele>
        <time>2015-03-23T20:21:41.052Z</time>
      </trkpt>
      <trkpt lat="48.86508" lon="2.24367">
        <ele>91.4</ele>
        <time>2015-03-23T20:21:42.084Z</time>
      </trkpt>
      <trkpt lat="48.86504" lon="2.24357">
        <ele>91.6</ele>
        <time>2015-03-23T20:21:43.103Z</time>
      </trkpt>
      <trkpt lat="48.865" lon="2.24347">
        <ele>91.9</ele>
        <time>2015-03-23T20:21:44.130Z</time>
      </trkpt>
      <trkpt lat="48.86496" lon="2.24337">
        <ele>92.1</ele>
        <time>2015-03-23T20:21:45.150Z</time>
      </trkpt>
      <trkpt lat="48.86492" lon="2.24327">
        <ele>92.3</ele>
        <time>2015-03-23T20:21:46.056Z</time>
      </trkpt>
      <trkpt lat="48.86489" lon="2.24316">
        <ele>92.4</ele>
        <time>2015-03-23T20:21:47.057Z</time>
      </trkpt>
      <trkpt lat="48.86485" lon="2.24306">
        <ele>92.5</ele>
        <time>2015-03-23T20:21:48.065Z</time>
      </trkpt>
      <trkpt lat="48.86482" lon="2.24296">
        <ele>92.5</ele>
        <time>2015-03-23T20:21:49.195Z</time>
      </trkpt>
      <trkpt lat="48.86478" lon="2.24287">
        <ele>92.7</ele>
        <time>2015-03-23T20:21:50.135Z</time>
      </trkpt>
      <trkpt lat="48.86474" lon="2.24277">
        <ele>93.1</ele>
        <time>2015-03-23T20:21:51.065Z</time>
      </trkpt>
      <trkpt lat="48.86471" lon="2.24267">
        <ele>93.3</ele>
        <time>2015-03-23T20:21:52.090Z</time>
      </trkpt>
      <trkpt lat="48.86467" lon="2.24258">
        <ele>93.3</ele>
        <time>2015-03-23T20:21:53.135Z</time>
      </trkpt>
      <trkpt lat="48.86464" lon="2.24248">
        <ele>93.2</ele>
        <time>2015-03-23T20:21:54.177Z</time>
      </trkpt>
      <trkpt lat="48.86461" lon="2.24239">
        <ele>93</ele>
        <time>2015-03-23T20:21:55.125Z</time>
      </trkpt>
      <trkpt lat="48.86457" lon="2.2423">
        <ele>92.9</ele>
        <time>2015-03-23T20:21:56.112Z</time>
      </trkpt>
      <trkpt lat="48.86454" lon="2.24221">
        <ele>92.9</ele>
        <time>2015-03-23T20:21:57.129Z</time>
      </trkpt>
      <trkpt lat="48.8645" lon="2.24212">
        <ele>92.9</ele>
        <time>2015-03-23T20:21:58.069Z</time>
      </trkpt>
      <trkpt lat="48.86447" lon="2.24202">
        <ele>92.8</ele>
        <time>2015-03-23T20:21:59.072Z</time>
      </trkpt>
      <trkpt lat="48.86444" lon="2.24193">
        <ele>92.8</ele>
        <time>2015-03-23T20:22:00.076Z</time>
      </trkpt>
      <trkpt lat="48.86441" lon="2.24184">
        <ele>92.5</ele>
        <time>2015-03-23T20:22:01.113Z</time>
      </trkpt>
      <trkpt lat="48.86438" lon="2.24175">
        <ele>92.2</ele>
        <time>2015-03-23T20:22:02.105Z</time>
      </trkpt>
      <trkpt lat="48.86434" lon="2.24167">
        <ele>91.9</ele>
        <time>2015-03-23T20:22:03.117Z</time>
      </trkpt>
      <trkpt lat="48.86431" lon="2.24158">
        <ele>91.6</ele>
        <time>2015-03-23T20:22:04.127Z</time>
      </trkpt>
      <trkpt lat="48.86428" lon="2.24149">
        <ele>91.4</ele>
        <time>2015-03-23T20:22:05.155Z</time>
      </trkpt>
      <trkpt lat="48.86426" lon="2.24141">
        <ele>91.7</ele>
        <time>2015-03-23T20:22:06.055Z</time>
      </trkpt>
      <trkpt lat="48.86423" lon="2.24133">
        <ele>91.8</ele>
        <time>2015-03-23T20:22:07.121Z</time>
      </trkpt>
      <trkpt lat="48.86421" lon="2.24126">
        <ele>92</ele>
        <time>2015-03-23T20:22:08.132Z</time>
      </trkpt>
      <trkpt lat="48.86418" lon="2.24118">
        <ele>92.1</ele>
        <time>2015-03-23T20:22:09.055Z</time>
      </trkpt>
      <trkpt lat="48.86416" lon="2.2411">
        <ele>92.3</ele>
        <time>2015-03-23T20:22:10.056Z</time>
      </trkpt>
      <trkpt lat="48.86414" lon="2.24104">
        <ele>92.1</ele>
        <time>2015-03-23T20:22:11.067Z</time>
      </trkpt>
      <trkpt lat="48.86411" lon="2.24097">
        <ele>92.3</ele>
        <time>2015-03-23T20:22:12.090Z</time>
      </trkpt>
      <trkpt lat="48.86407" lon="2.24091">
        <ele>92.3</ele>
        <time>2015-03-23T20:22:13.119Z</time>
      </trkpt>
      <trkpt lat="48.86404" lon="2.24084">
        <ele>92.3</ele>
        <time>2015-03-23T20:22:14.147Z</time>
      </trkpt>
      <trkpt lat="48.86402" lon="2.24076">
        <ele>92.2</ele>
        <time>2015-03-23T20:22:15.072Z</time>
      </trkpt>
      <trkpt lat="48.86399" lon="2.24069">
        <ele>92.2</ele>
        <time>2015-03-23T20:22:16.111Z</time>
      </trkpt>
      <trkpt lat="48.86398" lon="2.2406">
        <ele>92.1</ele>
        <time>2015-03-23T20:22:17.129Z</time>
      </trkpt>
      <trkpt lat="48.86396" lon="2.24052">
        <ele>92.3</ele>
        <time>2015-03-23T20:22:18.152Z</time>
      </trkpt>
      <trkpt lat="48.86393" lon="2.24045">
        <ele>92.3</ele>
        <time>2015-03-23T20:22:19.169Z</time>
      </trkpt>
      <trkpt lat="48.86391" lon="2.24039">
        <ele>92.1</ele>
        <time>2015-03-23T20:22:20.070Z</time>
      </trkpt>
      <trkpt lat="48.86389" lon="2.24032">
        <ele>92.2</ele>
        <time>2015-03-23T20:22:21.144Z</time>
      </trkpt>
      <trkpt lat="48.86387" lon="2.24024">
        <ele>92.3</ele>
        <time>2015-03-23T20:22:22.148Z</time>
      </trkpt>
      <trkpt lat="48.86384" lon="2.24016">
        <ele>92.4</ele>
        <time>2015-03-23T20:22:23.119Z</time>
      </trkpt>
      <trkpt lat="48.86382" lon="2.24008">
        <ele>92.6</ele>
        <time>2015-03-23T20:22:24.069Z</time>
      </trkpt>
      <trkpt lat="48.86379" lon="2.23995">
        <ele>92</ele>
        <time>2015-03-23T20:22:26.129Z</time>
      </trkpt>
      <trkpt lat="48.86378" lon="2.23988">
        <ele>92</ele>
        <time>2015-03-23T20:22:27.137Z</time>
      </trkpt>
      <trkpt lat="48.86374" lon="2.23977">
        <ele>92.1</ele>
        <time>2015-03-23T20:22:29.080Z</time>
      </trkpt>
      <trkpt lat="48.86373" lon="2.23971">
        <ele>91.9</ele>
        <time>2015-03-23T20:22:30.091Z</time>
      </trkpt>
      <trkpt lat="48.8637" lon="2.23962">
        <ele>91.8</ele>
        <time>2015-03-23T20:22:32.060Z</time>
      </trkpt>
      <trkpt lat="48.86369" lon="2.23958">
        <ele>91.9</ele>
        <time>2015-03-23T20:22:33.064Z</time>
      </trkpt>
      <trkpt lat="48.86368" lon="2.23947">
        <ele>92.5</ele>
        <time>2015-03-23T20:22:36.135Z</time>
      </trkpt>
      <trkpt lat="48.86368" lon="2.23943">
        <ele>92.6</ele>
        <time>2015-03-23T20:22:37.147Z</time>
      </trkpt>
      <trkpt lat="48.86365" lon="2.23933">
        <ele>93</ele>
        <time>2015-03-23T20:22:40.080Z</time>
      </trkpt>
      <trkpt lat="48.86364" lon="2.23931">
        <ele>93.1</ele>
        <time>2015-03-23T20:22:41.095Z</time>
      </trkpt>
      <trkpt lat="48.86355" lon="2.23931">
        <ele>86.4</ele>
        <time>2015-03-23T20:22:49.201Z</time>
      </trkpt>
      <trkpt lat="48.86353" lon="2.23932">
        <ele>86.5</ele>
        <time>2015-03-23T20:22:50.088Z</time>
      </trkpt>
      <trkpt lat="48.86346" lon="2.23927">
        <ele>86.4</ele>
        <time>2015-03-23T20:22:54.095Z</time>
      </trkpt>
      <trkpt lat="48.86344" lon="2.23925">
        <ele>86.5</ele>
        <time>2015-03-23T20:22:55.215Z</time>
      </trkpt>
      <trkpt lat="48.86338" lon="2.23923">
        <ele>81.3</ele>
        <time>2015-03-23T20:23:53.108Z</time>
      </trkpt>
      <trkpt lat="48.86335" lon="2.23922">
        <ele>81.3</ele>
        <time>2015-03-23T20:23:54.119Z</time>
      </trkpt>
      <trkpt lat="48.86329" lon="2.23914">
        <ele>81.2</ele>
        <time>2015-03-23T20:23:57.097Z</time>
      </trkpt>
      <trkpt lat="48.86319" lon="2.23897">
        <ele>81.1</ele>
        <time>2015-03-23T20:24:02.181Z</time>
      </trkpt>
      <trkpt lat="48.86316" lon="2.23892">
        <ele>81.1</ele>
        <time>2015-03-23T20:24:03.107Z</time>
      </trkpt>
      <trkpt lat="48.86297" lon="2.23871">
        <ele>81.2</ele>
        <time>2015-03-23T20:24:09.091Z</time>
      </trkpt>
      <trkpt lat="48.8629" lon="2.23865">
        <ele>81.1</ele>
        <time>2015-03-23T20:24:11.137Z</time>
      </trkpt>
      <trkpt lat="48.86287" lon="2.23862">
        <ele>81</ele>
        <time>2015-03-23T20:24:12.148Z</time>
      </trkpt>
      <trkpt lat="48.8628" lon="2.23856">
        <ele>80.8</ele>
        <time>2015-03-23T20:24:14.079Z</time>
      </trkpt>
      <trkpt lat="48.86276" lon="2.23854">
        <ele>81</ele>
        <time>2015-03-23T20:24:15.081Z</time>
      </trkpt>
      <trkpt lat="48.86269" lon="2.23849">
        <ele>81.2</ele>
        <time>2015-03-23T20:24:17.140Z</time>
      </trkpt>
      <trkpt lat="48.86266" lon="2.23847">
        <ele>81.2</ele>
        <time>2015-03-23T20:24:18.070Z</time>
      </trkpt>
      <trkpt lat="48.86259" lon="2.23841">
        <ele>81.1</ele>
        <time>2015-03-23T20:24:20.083Z</time>
      </trkpt>
      <trkpt lat="48.86256" lon="2.23839">
        <ele>81.1</ele>
        <time>2015-03-23T20:24:21.104Z</time>
      </trkpt>
      <trkpt lat="48.86248" lon="2.23838">
        <ele>80.9</ele>
        <time>2015-03-23T20:24:23.173Z</time>
      </trkpt>
      <trkpt lat="48.86245" lon="2.23839">
        <ele>80.8</ele>
        <time>2015-03-23T20:24:24.091Z</time>
      </trkpt>
      <trkpt lat="48.86236" lon="2.23838">
        <ele>81.2</ele>
        <time>2015-03-23T20:24:36.107Z</time>
      </trkpt>
      <trkpt lat="48.86233" lon="2.2382">
        <ele>80.5</ele>
        <time>2015-03-23T20:24:37.192Z</time>
      </trkpt>
      <trkpt lat="48.8623" lon="2.23808">
        <ele>80.4</ele>
        <time>2015-03-23T20:24:40.155Z</time>
      </trkpt>
      <trkpt lat="48.86229" lon="2.23806">
        <ele>80.4</ele>
        <time>2015-03-23T20:24:41.103Z</time>
      </trkpt>
      <trkpt lat="48.86222" lon="2.238">
        <ele>80.1</ele>
        <time>2015-03-23T20:24:45.135Z</time>
      </trkpt>
      <trkpt lat="48.86221" lon="2.23798">
        <ele>80</ele>
        <time>2015-03-23T20:24:46.101Z</time>
      </trkpt>
      <trkpt lat="48.86213" lon="2.23793">
        <ele>80.9</ele>
        <time>2015-03-23T20:24:51.101Z</time>
      </trkpt>
      <trkpt lat="48.86212" lon="2.23794">
        <ele>80.8</ele>
        <time>2015-03-23T20:24:52.114Z</time>
      </trkpt>
      <trkpt lat="48.86203" lon="2.23796">
        <ele>80.5</ele>
        <time>2015-03-23T20:25:34.093Z</time>
      </trkpt>
      <trkpt lat="48.86201" lon="2.23795">
        <ele>80.6</ele>
        <time>2015-03-23T20:25:35.127Z</time>
      </trkpt>
      <trkpt lat="48.86192" lon="2.23793">
        <ele>80</ele>
        <time>2015-03-23T20:25:38.165Z</time>
      </trkpt>
      <trkpt lat="48.86189" lon="2.23792">
        <ele>79.9</ele>
        <time>2015-03-23T20:25:39.084Z</time>
      </trkpt>
      <trkpt lat="48.8618" lon="2.23788">
        <ele>79.6</ele>
        <time>2015-03-23T20:25:41.105Z</time>
      </trkpt>
      <trkpt lat="48.86176" lon="2.23787">
        <ele>79.5</ele>
        <time>2015-03-23T20:25:42.116Z</time>
      </trkpt>
      <trkpt lat="48.86172" lon="2.23785">
        <ele>79.5</ele>
        <time>2015-03-23T20:25:43.139Z</time>
      </trkpt>
      <trkpt lat="48.86144" lon="2.2377">
        <ele>79.2</ele>
        <time>2015-03-23T20:25:49.175Z</time>
      </trkpt>
      <trkpt lat="48.86139" lon="2.23767">
        <ele>79.2</ele>
        <time>2015-03-23T20:25:50.072Z</time>
      </trkpt>
      <trkpt lat="48.86132" lon="2.23764">
        <ele>79.1</ele>
        <time>2015-03-23T20:25:51.074Z</time>
      </trkpt>
      <trkpt lat="48.86126" lon="2.23762">
        <ele>79.2</ele>
        <time>2015-03-23T20:25:52.094Z</time>
      </trkpt>
      <trkpt lat="48.8612" lon="2.23758">
        <ele>79.4</ele>
        <time>2015-03-23T20:25:53.129Z</time>
      </trkpt>
      <trkpt lat="48.86097" lon="2.23746">
        <ele>79.4</ele>
        <time>2015-03-23T20:25:57.157Z</time>
      </trkpt>
      <trkpt lat="48.8609" lon="2.23743">
        <ele>79.5</ele>
        <time>2015-03-23T20:25:58.070Z</time>
      </trkpt>
      <trkpt lat="48.86084" lon="2.23739">
        <ele>79.6</ele>
        <time>2015-03-23T20:25:59.067Z</time>
      </trkpt>
      <trkpt lat="48.86077" lon="2.23735">
        <ele>79.8</ele>
        <time>2015-03-23T20:26:00.106Z</time>
      </trkpt>
      <trkpt lat="48.8607" lon="2.2373">
        <ele>80</ele>
        <time>2015-03-23T20:26:01.105Z</time>
      </trkpt>
      <trkpt lat="48.86063" lon="2.23728">
        <ele>80</ele>
        <time>2015-03-23T20:26:02.090Z</time>
      </trkpt>
      <trkpt lat="48.86056" lon="2.23727">
        <ele>79.9</ele>
        <time>2015-03-23T20:26:03.104Z</time>
      </trkpt>
      <trkpt lat="48.86049" lon="2.23726">
        <ele>79.7</ele>
        <time>2015-03-23T20:26:04.119Z</time>
      </trkpt>
      <trkpt lat="48.85939" lon="2.23693">
        <ele>79.6</ele>
        <time>2015-03-23T20:26:21.079Z</time>
      </trkpt>
      <trkpt lat="48.85932" lon="2.23694">
        <ele>79.9</ele>
        <time>2015-03-23T20:26:22.103Z</time>
      </trkpt>
      <trkpt lat="48.85926" lon="2.23695">
        <ele>80</ele>
        <time>2015-03-23T20:26:23.112Z</time>
      </trkpt>
      <trkpt lat="48.85919" lon="2.23695">
        <ele>80.2</ele>
        <time>2015-03-23T20:26:24.064Z</time>
      </trkpt>
      <trkpt lat="48.85912" lon="2.23695">
        <ele>80.5</ele>
        <time>2015-03-23T20:26:25.105Z</time>
      </trkpt>
      <trkpt lat="48.85904" lon="2.23696">
        <ele>80.7</ele>
        <time>2015-03-23T20:26:26.147Z</time>
      </trkpt>
      <trkpt lat="48.85897" lon="2.23696">
        <ele>81</ele>
        <time>2015-03-23T20:26:27.064Z</time>
      </trkpt>
      <trkpt lat="48.8589" lon="2.23695">
        <ele>81.3</ele>
        <time>2015-03-23T20:26:28.064Z</time>
      </trkpt>
      <trkpt lat="48.85883" lon="2.23696">
        <ele>81.6</ele>
        <time>2015-03-23T20:26:29.077Z</time>
      </trkpt>
      <trkpt lat="48.85876" lon="2.23698">
        <ele>82</ele>
        <time>2015-03-23T20:26:30.105Z</time>
      </trkpt>
      <trkpt lat="48.85869" lon="2.23699">
        <ele>82.2</ele>
        <time>2015-03-23T20:26:31.164Z</time>
      </trkpt>
      <trkpt lat="48.85863" lon="2.23701">
        <ele>82.1</ele>
        <time>2015-03-23T20:26:32.101Z</time>
      </trkpt>
      <trkpt lat="48.85856" lon="2.23702">
        <ele>82.1</ele>
        <time>2015-03-23T20:26:33.100Z</time>
      </trkpt>
      <trkpt lat="48.85849" lon="2.23704">
        <ele>82.1</ele>
        <time>2015-03-23T20:26:34.134Z</time>
      </trkpt>
      <trkpt lat="48.85843" lon="2.23706">
        <ele>82.2</ele>
        <time>2015-03-23T20:26:35.101Z</time>
      </trkpt>
      <trkpt lat="48.85837" lon="2.23707">
        <ele>82.3</ele>
        <time>2015-03-23T20:26:36.074Z</time>
      </trkpt>
      <trkpt lat="48.85831" lon="2.23709">
        <ele>82.1</ele>
        <time>2015-03-23T20:26:37.088Z</time>
      </trkpt>
      <trkpt lat="48.85824" lon="2.23711">
        <ele>82</ele>
        <time>2015-03-23T20:26:38.101Z</time>
      </trkpt>
      <trkpt lat="48.85818" lon="2.23714">
        <ele>81.8</ele>
        <time>2015-03-23T20:26:39.065Z</time>
      </trkpt>
      <trkpt lat="48.85811" lon="2.23716">
        <ele>81.9</ele>
        <time>2015-03-23T20:26:40.086Z</time>
      </trkpt>
      <trkpt lat="48.85804" lon="2.23718">
        <ele>81.7</ele>
        <time>2015-03-23T20:26:41.124Z</time>
      </trkpt>
      <trkpt lat="48.85799" lon="2.23718">
        <ele>81.9</ele>
        <time>2015-03-23T20:26:42.055Z</time>
      </trkpt>
      <trkpt lat="48.85792" lon="2.23718">
        <ele>81.7</ele>
        <time>2015-03-23T20:26:43.094Z</time>
      </trkpt>
      <trkpt lat="48.85785" lon="2.23719">
        <ele>81.7</ele>
        <time>2015-03-23T20:26:44.104Z</time>
      </trkpt>
      <trkpt lat="48.85778" lon="2.2372">
        <ele>81.7</ele>
        <time>2015-03-23T20:26:45.124Z</time>
      </trkpt>
      <trkpt lat="48.85772" lon="2.2372">
        <ele>81.3</ele>
        <time>2015-03-23T20:26:46.058Z</time>
      </trkpt>
      <trkpt lat="48.85766" lon="2.23722">
        <ele>81.3</ele>
        <time>2015-03-23T20:26:47.054Z</time>
      </trkpt>
      <trkpt lat="48.8576" lon="2.23724">
        <ele>81.3</ele>
        <time>2015-03-23T20:26:48.079Z</time>
      </trkpt>
      <trkpt lat="48.85753" lon="2.23726">
        <ele>81</ele>
        <time>2015-03-23T20:26:49.117Z</time>
      </trkpt>
      <trkpt lat="48.85747" lon="2.23727">
        <ele>80.9</ele>
        <time>2015-03-23T20:26:50.145Z</time>
      </trkpt>
      <trkpt lat="48.85741" lon="2.23728">
        <ele>81.2</ele>
        <time>2015-03-23T20:26:51.085Z</time>
      </trkpt>
      <trkpt lat="48.85734" lon="2.23729">
        <ele>81.3</ele>
        <time>2015-03-23T20:26:52.127Z</time>
      </trkpt>
      <trkpt lat="48.85728" lon="2.23731">
        <ele>81.3</ele>
        <time>2015-03-23T20:26:53.147Z</time>
      </trkpt>
      <trkpt lat="48.85722" lon="2.23733">
        <ele>81.3</ele>
        <time>2015-03-23T20:26:54.156Z</time>
      </trkpt>
      <trkpt lat="48.85715" lon="2.23734">
        <ele>81.3</ele>
        <time>2015-03-23T20:26:55.166Z</time>
      </trkpt>
      <trkpt lat="48.85709" lon="2.23735">
        <ele>81</ele>
        <time>2015-03-23T20:26:56.080Z</time>
      </trkpt>
      <trkpt lat="48.85703" lon="2.23736">
        <ele>81.2</ele>
        <time>2015-03-23T20:26:57.073Z</time>
      </trkpt>
      <trkpt lat="48.85696" lon="2.23738">
        <ele>81.4</ele>
        <time>2015-03-23T20:26:58.091Z</time>
      </trkpt>
      <trkpt lat="48.8569" lon="2.23739">
        <ele>81.5</ele>
        <time>2015-03-23T20:26:59.102Z</time>
      </trkpt>
      <trkpt lat="48.85683" lon="2.2374">
        <ele>81.4</ele>
        <time>2015-03-23T20:27:00.134Z</time>
      </trkpt>
      <trkpt lat="48.85677" lon="2.23742">
        <ele>81.3</ele>
        <time>2015-03-23T20:27:01.153Z</time>
      </trkpt>
      <trkpt lat="48.85671" lon="2.23743">
        <ele>81.2</ele>
        <time>2015-03-23T20:27:02.068Z</time>
      </trkpt>
      <trkpt lat="48.85665" lon="2.23744">
        <ele>81.6</ele>
        <time>2015-03-23T20:27:03.072Z</time>
      </trkpt>
      <trkpt lat="48.85659" lon="2.23745">
        <ele>81.6</ele>
        <time>2015-03-23T20:27:04.093Z</time>
      </trkpt>
      <trkpt lat="48.85654" lon="2.23745">
        <ele>81.6</ele>
        <time>2015-03-23T20:27:05.098Z</time>
      </trkpt>
      <trkpt lat="48.85648" lon="2.23746">
        <ele>81.6</ele>
        <time>2015-03-23T20:27:06.120Z</time>
      </trkpt>
      <trkpt lat="48.85642" lon="2.23746">
        <ele>81.4</ele>
        <time>2015-03-23T20:27:07.187Z</time>
      </trkpt>
      <trkpt lat="48.85635" lon="2.23747">
        <ele>81.5</ele>
        <time>2015-03-23T20:27:08.071Z</time>
      </trkpt>
      <trkpt lat="48.85629" lon="2.23748">
        <ele>81.7</ele>
        <time>2015-03-23T20:27:09.086Z</time>
      </trkpt>
      <trkpt lat="48.85624" lon="2.23749">
        <ele>82</ele>
        <time>2015-03-23T20:27:10.103Z</time>
      </trkpt>
      <trkpt lat="48.85618" lon="2.23749">
        <ele>82.2</ele>
        <time>2015-03-23T20:27:11.116Z</time>
      </trkpt>
      <trkpt lat="48.85612" lon="2.23748">
        <ele>82.2</ele>
        <time>2015-03-23T20:27:12.105Z</time>
      </trkpt>
      <trkpt lat="48.85606" lon="2.23748">
        <ele>82.3</ele>
        <time>2015-03-23T20:27:13.134Z</time>
      </trkpt>
      <trkpt lat="48.856" lon="2.23747">
        <ele>82.4</ele>
        <time>2015-03-23T20:27:14.077Z</time>
      </trkpt>
      <trkpt lat="48.85595" lon="2.23746">
        <ele>82.7</ele>
        <time>2015-03-23T20:27:15.081Z</time>
      </trkpt>
      <trkpt lat="48.85589" lon="2.23745">
        <ele>82.4</ele>
        <time>2015-03-23T20:27:16.086Z</time>
      </trkpt>
      <trkpt lat="48.85584" lon="2.23745">
        <ele>82.5</ele>
        <time>2015-03-23T20:27:17.085Z</time>
      </trkpt>
      <trkpt lat="48.85579" lon="2.23745">
        <ele>82.8</ele>
        <time>2015-03-23T20:27:18.099Z</time>
      </trkpt>
      <trkpt lat="48.85573" lon="2.23745">
        <ele>82.8</ele>
        <time>2015-03-23T20:27:19.121Z</time>
      </trkpt>
      <trkpt lat="48.85567" lon="2.23745">
        <ele>82.6</ele>
        <time>2015-03-23T20:27:20.139Z</time>
      </trkpt>
      <trkpt lat="48.85562" lon="2.23744">
        <ele>82.6</ele>
        <time>2015-03-23T20:27:21.136Z</time>
      </trkpt>
      <trkpt lat="48.85557" lon="2.23743">
        <ele>82.7</ele>
        <time>2015-03-23T20:27:22.158Z</time>
      </trkpt>
      <trkpt lat="48.85552" lon="2.23742">
        <ele>82.7</ele>
        <time>2015-03-23T20:27:23.084Z</time>
      </trkpt>
      <trkpt lat="48.85547" lon="2.23741">
        <ele>82.8</ele>
        <time>2015-03-23T20:27:24.076Z</time>
      </trkpt>
      <trkpt lat="48.85541" lon="2.23741">
        <ele>83</ele>
        <time>2015-03-23T20:27:25.121Z</time>
      </trkpt>
      <trkpt lat="48.85536" lon="2.2374">
        <ele>83.4</ele>
        <time>2015-03-23T20:27:26.132Z</time>
      </trkpt>
      <trkpt lat="48.85531" lon="2.2374">
        <ele>83.6</ele>
        <time>2015-03-23T20:27:27.142Z</time>
      </trkpt>
      <trkpt lat="48.85526" lon="2.2374">
        <ele>83.9</ele>
        <time>2015-03-23T20:27:28.162Z</time>
      </trkpt>
      <trkpt lat="48.85521" lon="2.2374">
        <ele>84</ele>
        <time>2015-03-23T20:27:29.115Z</time>
      </trkpt>
      <trkpt lat="48.85516" lon="2.23739">
        <ele>83.9</ele>
        <time>2015-03-23T20:27:30.095Z</time>
      </trkpt>
      <trkpt lat="48.8551" lon="2.23739">
        <ele>83.8</ele>
        <time>2015-03-23T20:27:31.139Z</time>
      </trkpt>
      <trkpt lat="48.85504" lon="2.23739">
        <ele>83.8</ele>
        <time>2015-03-23T20:27:32.153Z</time>
      </trkpt>
      <trkpt lat="48.85498" lon="2.23739">
        <ele>83.9</ele>
        <time>2015-03-23T20:27:33.074Z</time>
      </trkpt>
      <trkpt lat="48.85493" lon="2.2374">
        <ele>83.8</ele>
        <time>2015-03-23T20:27:34.076Z</time>
      </trkpt>
      <trkpt lat="48.85488" lon="2.2374">
        <ele>83.9</ele>
        <time>2015-03-23T20:27:35.126Z</time>
      </trkpt>
      <trkpt lat="48.85482" lon="2.2374">
        <ele>84</ele>
        <time>2015-03-23T20:27:36.155Z</time>
      </trkpt>
      <trkpt lat="48.85476" lon="2.2374">
        <ele>83.9</ele>
        <time>2015-03-23T20:27:37.162Z</time>
      </trkpt>
      <trkpt lat="48.85471" lon="2.2374">
        <ele>84.2</ele>
        <time>2015-03-23T20:27:38.081Z</time>
      </trkpt>
      <trkpt lat="48.85465" lon="2.2374">
        <ele>84.3</ele>
        <time>2015-03-23T20:27:39.156Z</time>
      </trkpt>
      <trkpt lat="48.8546" lon="2.2374">
        <ele>84.3</ele>
        <time>2015-03-23T20:27:40.072Z</time>
      </trkpt>
      <trkpt lat="48.85454" lon="2.2374">
        <ele>84.2</ele>
        <time>2015-03-23T20:27:41.069Z</time>
      </trkpt>
      <trkpt lat="48.85449" lon="2.23739">
        <ele>84.2</ele>
        <time>2015-03-23T20:27:42.097Z</time>
      </trkpt>
      <trkpt lat="48.85443" lon="2.23739">
        <ele>84.2</ele>
        <time>2015-03-23T20:27:43.147Z</time>
      </trkpt>
      <trkpt lat="48.85438" lon="2.23737">
        <ele>84.2</ele>
        <time>2015-03-23T20:27:44.077Z</time>
      </trkpt>
      <trkpt lat="48.85432" lon="2.23735">
        <ele>84.4</ele>
        <time>2015-03-23T20:27:45.077Z</time>
      </trkpt>
      <trkpt lat="48.85426" lon="2.23733">
        <ele>84.4</ele>
        <time>2015-03-23T20:27:46.089Z</time>
      </trkpt>
      <trkpt lat="48.85421" lon="2.23731">
        <ele>84.6</ele>
        <time>2015-03-23T20:27:47.094Z</time>
      </trkpt>
      <trkpt lat="48.85415" lon="2.23731">
        <ele>84.8</ele>
        <time>2015-03-23T20:27:48.142Z</time>
      </trkpt>
      <trkpt lat="48.85409" lon="2.23729">
        <ele>84.9</ele>
        <time>2015-03-23T20:27:49.154Z</time>
      </trkpt>
      <trkpt lat="48.85403" lon="2.23727">
        <ele>84.8</ele>
        <time>2015-03-23T20:27:50.150Z</time>
      </trkpt>
      <trkpt lat="48.85397" lon="2.23725">
        <ele>84.7</ele>
        <time>2015-03-23T20:27:51.096Z</time>
      </trkpt>
      <trkpt lat="48.85392" lon="2.23723">
        <ele>84.7</ele>
        <time>2015-03-23T20:27:52.104Z</time>
      </trkpt>
      <trkpt lat="48.85385" lon="2.23721">
        <ele>84.4</ele>
        <time>2015-03-23T20:27:53.116Z</time>
      </trkpt>
      <trkpt lat="48.85378" lon="2.23719">
        <ele>84.3</ele>
        <time>2015-03-23T20:27:54.145Z</time>
      </trkpt>
      <trkpt lat="48.85372" lon="2.23717">
        <ele>84.1</ele>
        <time>2015-03-23T20:27:55.156Z</time>
      </trkpt>
      <trkpt lat="48.85366" lon="2.23716">
        <ele>83.7</ele>
        <time>2015-03-23T20:27:56.237Z</time>
      </trkpt>
      <trkpt lat="48.8536" lon="2.23714">
        <ele>83.3</ele>
        <time>2015-03-23T20:27:57.083Z</time>
      </trkpt>
      <trkpt lat="48.85354" lon="2.23711">
        <ele>82.9</ele>
        <time>2015-03-23T20:27:58.092Z</time>
      </trkpt>
      <trkpt lat="48.85348" lon="2.2371">
        <ele>82.5</ele>
        <time>2015-03-23T20:27:59.111Z</time>
      </trkpt>
      <trkpt lat="48.85342" lon="2.23707">
        <ele>82</ele>
        <time>2015-03-23T20:28:00.071Z</time>
      </trkpt>
      <trkpt lat="48.85336" lon="2.23705">
        <ele>81.8</ele>
        <time>2015-03-23T20:28:01.177Z</time>
      </trkpt>
      <trkpt lat="48.85329" lon="2.23703">
        <ele>81.8</ele>
        <time>2015-03-23T20:28:02.063Z</time>
      </trkpt>
      <trkpt lat="48.85323" lon="2.23701">
        <ele>81.6</ele>
        <time>2015-03-23T20:28:03.060Z</time>
      </trkpt>
      <trkpt lat="48.85316" lon="2.23699">
        <ele>81.4</ele>
        <time>2015-03-23T20:28:04.075Z</time>
      </trkpt>
      <trkpt lat="48.8531" lon="2.23695">
        <ele>81.3</ele>
        <time>2015-03-23T20:28:05.100Z</time>
      </trkpt>
      <trkpt lat="48.85304" lon="2.23692">
        <ele>81</ele>
        <time>2015-03-23T20:28:06.114Z</time>
      </trkpt>
      <trkpt lat="48.85298" lon="2.23688">
        <ele>81</ele>
        <time>2015-03-23T20:28:07.141Z</time>
      </trkpt>
      <trkpt lat="48.85291" lon="2.23685">
        <ele>80.9</ele>
        <time>2015-03-23T20:28:08.162Z</time>
      </trkpt>
      <trkpt lat="48.85285" lon="2.23683">
        <ele>80.6</ele>
        <time>2015-03-23T20:28:09.091Z</time>
      </trkpt>
      <trkpt lat="48.85278" lon="2.23681">
        <ele>80.3</ele>
        <time>2015-03-23T20:28:10.090Z</time>
      </trkpt>
      <trkpt lat="48.85272" lon="2.23679">
        <ele>79.9</ele>
        <time>2015-03-23T20:28:11.104Z</time>
      </trkpt>
      <trkpt lat="48.85265" lon="2.23677">
        <ele>79.7</ele>
        <time>2015-03-23T20:28:12.075Z</time>
      </trkpt>
      <trkpt lat="48.85258" lon="2.23675">
        <ele>79.3</ele>
        <time>2015-03-23T20:28:13.173Z</time>
      </trkpt>
      <trkpt lat="48.85251" lon="2.23674">
        <ele>80</ele>
        <time>2015-03-23T20:28:14.084Z</time>
      </trkpt>
      <trkpt lat="48.85244" lon="2.23673">
        <ele>79.8</ele>
        <time>2015-03-23T20:28:15.086Z</time>
      </trkpt>
      <trkpt lat="48.85237" lon="2.23674">
        <ele>79.9</ele>
        <time>2015-03-23T20:28:16.101Z</time>
      </trkpt>
      <trkpt lat="48.8523" lon="2.23674">
        <ele>80.3</ele>
        <time>2015-03-23T20:28:17.129Z</time>
      </trkpt>
      <trkpt lat="48.85223" lon="2.23676">
        <ele>80.3</ele>
        <time>2015-03-23T20:28:18.161Z</time>
      </trkpt>
      <trkpt lat="48.85215" lon="2.23677">
        <ele>80.6</ele>
        <time>2015-03-23T20:28:19.204Z</time>
      </trkpt>
      <trkpt lat="48.85209" lon="2.23678">
        <ele>80.8</ele>
        <time>2015-03-23T20:28:20.072Z</time>
      </trkpt>
      <trkpt lat="48.85201" lon="2.2368">
        <ele>82</ele>
        <time>2015-03-23T20:28:21.100Z</time>
      </trkpt>
      <trkpt lat="48.85194" lon="2.23683">
        <ele>82.6</ele>
        <time>2015-03-23T20:28:22.086Z</time>
      </trkpt>
      <trkpt lat="48.85187" lon="2.23684">
        <ele>82.7</ele>
        <time>2015-03-23T20:28:23.112Z</time>
      </trkpt>
      <trkpt lat="48.8518" lon="2.23685">
        <ele>83.1</ele>
        <time>2015-03-23T20:28:24.162Z</time>
      </trkpt>
      <trkpt lat="48.85173" lon="2.23684">
        <ele>82.8</ele>
        <time>2015-03-23T20:28:25.176Z</time>
      </trkpt>
      <trkpt lat="48.85167" lon="2.23681">
        <ele>82.5</ele>
        <time>2015-03-23T20:28:26.048Z</time>
      </trkpt>
      <trkpt lat="48.85162" lon="2.23676">
        <ele>82.6</ele>
        <time>2015-03-23T20:28:27.074Z</time>
      </trkpt>
      <trkpt lat="48.85157" lon="2.2367">
        <ele>82.7</ele>
        <time>2015-03-23T20:28:28.085Z</time>
      </trkpt>
      <trkpt lat="48.85152" lon="2.23663">
        <ele>82.9</ele>
        <time>2015-03-23T20:28:29.097Z</time>
      </trkpt>
      <trkpt lat="48.85148" lon="2.23655">
        <ele>83</ele>
        <time>2015-03-23T20:28:30.135Z</time>
      </trkpt>
      <trkpt lat="48.85145" lon="2.23647">
        <ele>83.3</ele>
        <time>2015-03-23T20:28:31.145Z</time>
      </trkpt>
      <trkpt lat="48.85143" lon="2.23638">
        <ele>83.1</ele>
        <time>2015-03-23T20:28:32.083Z</time>
      </trkpt>
      <trkpt lat="48.85143" lon="2.23627">
        <ele>82.9</ele>
        <time>2015-03-23T20:28:33.053Z</time>
      </trkpt>
      <trkpt lat="48.85142" lon="2.23618">
        <ele>82.8</ele>
        <time>2015-03-23T20:28:34.087Z</time>
      </trkpt>
      <trkpt lat="48.85142" lon="2.23609">
        <ele>83</ele>
        <time>2015-03-23T20:28:35.091Z</time>
      </trkpt>
      <trkpt lat="48.85142" lon="2.236">
        <ele>83</ele>
        <time>2015-03-23T20:28:36.107Z</time>
      </trkpt>
      <trkpt lat="48.85141" lon="2.2359">
        <ele>82.7</ele>
        <time>2015-03-23T20:28:37.113Z</time>
      </trkpt>
      <trkpt lat="48.85141" lon="2.23581">
        <ele>82.6</ele>
        <time>2015-03-23T20:28:38.124Z</time>
      </trkpt>
      <trkpt lat="48.85142" lon="2.23572">
        <ele>82.6</ele>
        <time>2015-03-23T20:28:39.131Z</time>
      </trkpt>
      <trkpt lat="48.85143" lon="2.23564">
        <ele>82.5</ele>
        <time>2015-03-23T20:28:40.059Z</time>
      </trkpt>
      <trkpt lat="48.85145" lon="2.23556">
        <ele>82.4</ele>
        <time>2015-03-23T20:28:41.068Z</time>
      </trkpt>
      <trkpt lat="48.85145" lon="2.23547">
        <ele>82.2</ele>
        <time>2015-03-23T20:28:42.078Z</time>
      </trkpt>
      <trkpt lat="48.85146" lon="2.23538">
        <ele>81.9</ele>
        <time>2015-03-23T20:28:43.106Z</time>
      </trkpt>
      <trkpt lat="48.85146" lon="2.23529">
        <ele>81.7</ele>
        <time>2015-03-23T20:28:44.107Z</time>
      </trkpt>
      <trkpt lat="48.85147" lon="2.2352">
        <ele>81.5</ele>
        <time>2015-03-23T20:28:45.119Z</time>
      </trkpt>
      <trkpt lat="48.85148" lon="2.23512">
        <ele>81.3</ele>
        <time>2015-03-23T20:28:46.124Z</time>
      </trkpt>
      <trkpt lat="48.8515" lon="2.23503">
        <ele>81.2</ele>
        <time>2015-03-23T20:28:47.138Z</time>
      </trkpt>
      <trkpt lat="48.85151" lon="2.23495">
        <ele>81.1</ele>
        <time>2015-03-23T20:28:48.110Z</time>
      </trkpt>
      <trkpt lat="48.8515" lon="2.23485">
        <ele>81</ele>
        <time>2015-03-23T20:28:49.131Z</time>
      </trkpt>
      <trkpt lat="48.85151" lon="2.23476">
        <ele>81.2</ele>
        <time>2015-03-23T20:28:50.150Z</time>
      </trkpt>
      <trkpt lat="48.85153" lon="2.23467">
        <ele>81.4</ele>
        <time>2015-03-23T20:28:51.080Z</time>
      </trkpt>
      <trkpt lat="48.85153" lon="2.23458">
        <ele>81.5</ele>
        <time>2015-03-23T20:28:52.110Z</time>
      </trkpt>
      <trkpt lat="48.85153" lon="2.23448">
        <ele>81.7</ele>
        <time>2015-03-23T20:28:53.188Z</time>
      </trkpt>
      <trkpt lat="48.85152" lon="2.23438">
        <ele>81.8</ele>
        <time>2015-03-23T20:28:54.147Z</time>
      </trkpt>
      <trkpt lat="48.85151" lon="2.23428">
        <ele>81.7</ele>
        <time>2015-03-23T20:28:55.152Z</time>
      </trkpt>
      <trkpt lat="48.85152" lon="2.23419">
        <ele>81.7</ele>
        <time>2015-03-23T20:28:56.175Z</time>
      </trkpt>
      <trkpt lat="48.85153" lon="2.23409">
        <ele>81.6</ele>
        <time>2015-03-23T20:28:57.081Z</time>
      </trkpt>
      <trkpt lat="48.85154" lon="2.234">
        <ele>81.7</ele>
        <time>2015-03-23T20:28:58.074Z</time>
      </trkpt>
      <trkpt lat="48.85157" lon="2.23391">
        <ele>81.8</ele>
        <time>2015-03-23T20:28:59.086Z</time>
      </trkpt>
      <trkpt lat="48.85159" lon="2.23384">
        <ele>81.9</ele>
        <time>2015-03-23T20:29:00.234Z</time>
      </trkpt>
      <trkpt lat="48.85162" lon="2.23377">
        <ele>82.1</ele>
        <time>2015-03-23T20:29:01.186Z</time>
      </trkpt>
      <trkpt lat="48.85164" lon="2.23367">
        <ele>82</ele>
        <time>2015-03-23T20:29:02.078Z</time>
      </trkpt>
      <trkpt lat="48.85167" lon="2.23358">
        <ele>82</ele>
        <time>2015-03-23T20:29:03.084Z</time>
      </trkpt>
      <trkpt lat="48.8517" lon="2.23349">
        <ele>81.9</ele>
        <time>2015-03-23T20:29:04.104Z</time>
      </trkpt>
      <trkpt lat="48.85174" lon="2.2334">
        <ele>82</ele>
        <time>2015-03-23T20:29:05.114Z</time>
      </trkpt>
      <trkpt lat="48.85177" lon="2.23332">
        <ele>81.8</ele>
        <time>2015-03-23T20:29:06.059Z</time>
      </trkpt>
      <trkpt lat="48.85181" lon="2.23321">
        <ele>79.3</ele>
        <time>2015-03-23T20:29:07.185Z</time>
      </trkpt>
      <trkpt lat="48.85183" lon="2.23312">
        <ele>78.7</ele>
        <time>2015-03-23T20:29:08.151Z</time>
      </trkpt>
      <trkpt lat="48.85185" lon="2.23303">
        <ele>77.7</ele>
        <time>2015-03-23T20:29:09.061Z</time>
      </trkpt>
      <trkpt lat="48.85187" lon="2.23294">
        <ele>77.8</ele>
        <time>2015-03-23T20:29:10.067Z</time>
      </trkpt>
      <trkpt lat="48.85188" lon="2.23285">
        <ele>77.8</ele>
        <time>2015-03-23T20:29:11.069Z</time>
      </trkpt>
      <trkpt lat="48.8519" lon="2.23276">
        <ele>77.4</ele>
        <time>2015-03-23T20:29:12.086Z</time>
      </trkpt>
      <trkpt lat="48.85192" lon="2.23268">
        <ele>76.8</ele>
        <time>2015-03-23T20:29:13.104Z</time>
      </trkpt>
      <trkpt lat="48.85193" lon="2.23259">
        <ele>76.6</ele>
        <time>2015-03-23T20:29:14.105Z</time>
      </trkpt>
      <trkpt lat="48.85194" lon="2.23249">
        <ele>76.5</ele>
        <time>2015-03-23T20:29:15.162Z</time>
      </trkpt>
      <trkpt lat="48.85195" lon="2.2324">
        <ele>76.2</ele>
        <time>2015-03-23T20:29:16.079Z</time>
      </trkpt>
      <trkpt lat="48.85196" lon="2.23231">
        <ele>76</ele>
        <time>2015-03-23T20:29:17.077Z</time>
      </trkpt>
      <trkpt lat="48.85198" lon="2.23222">
        <ele>75.7</ele>
        <time>2015-03-23T20:29:18.079Z</time>
      </trkpt>
      <trkpt lat="48.852" lon="2.23214">
        <ele>75.2</ele>
        <time>2015-03-23T20:29:19.119Z</time>
      </trkpt>
      <trkpt lat="48.85203" lon="2.23205">
        <ele>75.4</ele>
        <time>2015-03-23T20:29:20.128Z</time>
      </trkpt>
      <trkpt lat="48.85207" lon="2.23198">
        <ele>75.7</ele>
        <time>2015-03-23T20:29:21.132Z</time>
      </trkpt>
      <trkpt lat="48.85211" lon="2.23191">
        <ele>75.7</ele>
        <time>2015-03-23T20:29:22.166Z</time>
      </trkpt>
      <trkpt lat="48.85214" lon="2.23183">
        <ele>75.5</ele>
        <time>2015-03-23T20:29:23.075Z</time>
      </trkpt>
      <trkpt lat="48.85215" lon="2.23174">
        <ele>74.7</ele>
        <time>2015-03-23T20:29:24.080Z</time>
      </trkpt>
      <trkpt lat="48.85217" lon="2.23166">
        <ele>74</ele>
        <time>2015-03-23T20:29:25.204Z</time>
      </trkpt>
      <trkpt lat="48.85219" lon="2.23158">
        <ele>74</ele>
        <time>2015-03-23T20:29:26.074Z</time>
      </trkpt>
      <trkpt lat="48.85222" lon="2.2315">
        <ele>74.1</ele>
        <time>2015-03-23T20:29:27.085Z</time>
      </trkpt>
      <trkpt lat="48.85224" lon="2.23142">
        <ele>74.2</ele>
        <time>2015-03-23T20:29:28.099Z</time>
      </trkpt>
      <trkpt lat="48.85227" lon="2.23135">
        <ele>74.4</ele>
        <time>2015-03-23T20:29:29.137Z</time>
      </trkpt>
      <trkpt lat="48.8523" lon="2.23128">
        <ele>74.6</ele>
        <time>2015-03-23T20:29:30.079Z</time>
      </trkpt>
      <trkpt lat="48.85234" lon="2.2312">
        <ele>74.9</ele>
        <time>2015-03-23T20:29:31.122Z</time>
      </trkpt>
      <trkpt lat="48.85239" lon="2.23114">
        <ele>74.8</ele>
        <time>2015-03-23T20:29:32.133Z</time>
      </trkpt>
      <trkpt lat="48.85243" lon="2.23108">
        <ele>74.6</ele>
        <time>2015-03-23T20:29:33.042Z</time>
      </trkpt>
      <trkpt lat="48.85248" lon="2.23103">
        <ele>74.5</ele>
        <time>2015-03-23T20:29:34.076Z</time>
      </trkpt>
      <trkpt lat="48.85253" lon="2.23098">
        <ele>74.4</ele>
        <time>2015-03-23T20:29:35.087Z</time>
      </trkpt>
      <trkpt lat="48.85258" lon="2.23093">
        <ele>74.7</ele>
        <time>2015-03-23T20:29:36.123Z</time>
      </trkpt>
      <trkpt lat="48.85263" lon="2.23088">
        <ele>74.7</ele>
        <time>2015-03-23T20:29:37.129Z</time>
      </trkpt>
      <trkpt lat="48.85267" lon="2.2308">
        <ele>74.3</ele>
        <time>2015-03-23T20:29:38.149Z</time>
      </trkpt>
      <trkpt lat="48.85272" lon="2.23072">
        <ele>74</ele>
        <time>2015-03-23T20:29:39.073Z</time>
      </trkpt>
      <trkpt lat="48.85277" lon="2.23064">
        <ele>73.6</ele>
        <time>2015-03-23T20:29:40.060Z</time>
      </trkpt>
      <trkpt lat="48.85282" lon="2.23056">
        <ele>73.6</ele>
        <time>2015-03-23T20:29:41.066Z</time>
      </trkpt>
      <trkpt lat="48.85287" lon="2.23048">
        <ele>73.7</ele>
        <time>2015-03-23T20:29:42.082Z</time>
      </trkpt>
      <trkpt lat="48.85292" lon="2.2304">
        <ele>73.7</ele>
        <time>2015-03-23T20:29:43.163Z</time>
      </trkpt>
      <trkpt lat="48.85297" lon="2.23033">
        <ele>73.7</ele>
        <time>2015-03-23T20:29:44.050Z</time>
      </trkpt>
      <trkpt lat="48.85302" lon="2.23024">
        <ele>73.6</ele>
        <time>2015-03-23T20:29:45.065Z</time>
      </trkpt>
      <trkpt lat="48.85306" lon="2.23016">
        <ele>73.5</ele>
        <time>2015-03-23T20:29:46.079Z</time>
      </trkpt>
      <trkpt lat="48.85311" lon="2.23008">
        <ele>73.4</ele>
        <time>2015-03-23T20:29:47.094Z</time>
      </trkpt>
      <trkpt lat="48.85316" lon="2.23001">
        <ele>73.2</ele>
        <time>2015-03-23T20:29:48.114Z</time>
      </trkpt>
      <trkpt lat="48.85321" lon="2.22994">
        <ele>73.3</ele>
        <time>2015-03-23T20:29:49.119Z</time>
      </trkpt>
      <trkpt lat="48.85325" lon="2.22988">
        <ele>73.4</ele>
        <time>2015-03-23T20:29:50.128Z</time>
      </trkpt>
      <trkpt lat="48.8533" lon="2.22982">
        <ele>73.4</ele>
        <time>2015-03-23T20:29:51.135Z</time>
      </trkpt>
      <trkpt lat="48.85335" lon="2.22977">
        <ele>73.9</ele>
        <time>2015-03-23T20:29:52.146Z</time>
      </trkpt>
      <trkpt lat="48.8534" lon="2.22973">
        <ele>74</ele>
        <time>2015-03-23T20:29:53.161Z</time>
      </trkpt>
      <trkpt lat="48.85345" lon="2.2297">
        <ele>73.7</ele>
        <time>2015-03-23T20:29:54.058Z</time>
      </trkpt>
      <trkpt lat="48.85349" lon="2.22966">
        <ele>73.6</ele>
        <time>2015-03-23T20:29:55.119Z</time>
      </trkpt>
      <trkpt lat="48.85354" lon="2.22962">
        <ele>73.7</ele>
        <time>2015-03-23T20:29:56.154Z</time>
      </trkpt>
      <trkpt lat="48.85358" lon="2.22958">
        <ele>73.8</ele>
        <time>2015-03-23T20:29:57.088Z</time>
      </trkpt>
      <trkpt lat="48.85363" lon="2.22954">
        <ele>73.8</ele>
        <time>2015-03-23T20:29:58.076Z</time>
      </trkpt>
      <trkpt lat="48.85367" lon="2.22949">
        <ele>73.6</ele>
        <time>2015-03-23T20:29:59.084Z</time>
      </trkpt>
      <trkpt lat="48.85371" lon="2.22944">
        <ele>73.5</ele>
        <time>2015-03-23T20:30:00.107Z</time>
      </trkpt>
      <trkpt lat="48.85376" lon="2.2294">
        <ele>73.4</ele>
        <time>2015-03-23T20:30:01.206Z</time>
      </trkpt>
      <trkpt lat="48.85381" lon="2.22936">
        <ele>73.3</ele>
        <time>2015-03-23T20:30:02.080Z</time>
      </trkpt>
      <trkpt lat="48.85385" lon="2.22932">
        <ele>73.1</ele>
        <time>2015-03-23T20:30:03.094Z</time>
      </trkpt>
      <trkpt lat="48.85391" lon="2.2293">
        <ele>73.6</ele>
        <time>2015-03-23T20:30:04.155Z</time>
      </trkpt>
      <trkpt lat="48.85397" lon="2.22928">
        <ele>73.6</ele>
        <time>2015-03-23T20:30:05.061Z</time>
      </trkpt>
      <trkpt lat="48.85402" lon="2.22925">
        <ele>73.5</ele>
        <time>2015-03-23T20:30:06.074Z</time>
      </trkpt>
      <trkpt lat="48.85407" lon="2.22922">
        <ele>73.3</ele>
        <time>2015-03-23T20:30:07.112Z</time>
      </trkpt>
      <trkpt lat="48.85412" lon="2.2292">
        <ele>73.1</ele>
        <time>2015-03-23T20:30:08.224Z</time>
      </trkpt>
      <trkpt lat="48.85417" lon="2.22916">
        <ele>73.3</ele>
        <time>2015-03-23T20:30:09.059Z</time>
      </trkpt>
      <trkpt lat="48.85422" lon="2.22913">
        <ele>73.2</ele>
        <time>2015-03-23T20:30:10.097Z</time>
      </trkpt>
      <trkpt lat="48.85428" lon="2.22911">
        <ele>73.4</ele>
        <time>2015-03-23T20:30:11.102Z</time>
      </trkpt>
      <trkpt lat="48.85433" lon="2.22907">
        <ele>73.1</ele>
        <time>2015-03-23T20:30:12.115Z</time>
      </trkpt>
      <trkpt lat="48.85437" lon="2.22904">
        <ele>73.2</ele>
        <time>2015-03-23T20:30:13.149Z</time>
      </trkpt>
      <trkpt lat="48.85442" lon="2.22901">
        <ele>73.3</ele>
        <time>2015-03-23T20:30:14.046Z</time>
      </trkpt>
      <trkpt lat="48.85447" lon="2.22897">
        <ele>73.5</ele>
        <time>2015-03-23T20:30:15.057Z</time>
      </trkpt>
      <trkpt lat="48.85452" lon="2.22894">
        <ele>73.7</ele>
        <time>2015-03-23T20:30:16.072Z</time>
      </trkpt>
      <trkpt lat="48.85457" lon="2.2289">
        <ele>73.7</ele>
        <time>2015-03-23T20:30:17.085Z</time>
      </trkpt>
      <trkpt lat="48.85462" lon="2.22886">
        <ele>73.7</ele>
        <time>2015-03-23T20:30:18.053Z</time>
      </trkpt>
      <trkpt lat="48.85469" lon="2.22883">
        <ele>73.5</ele>
        <time>2015-03-23T20:30:19.158Z</time>
      </trkpt>
      <trkpt lat="48.85475" lon="2.22878">
        <ele>73.5</ele>
        <time>2015-03-23T20:30:20.143Z</time>
      </trkpt>
      <trkpt lat="48.85481" lon="2.22876">
        <ele>73.4</ele>
        <time>2015-03-23T20:30:21.062Z</time>
      </trkpt>
      <trkpt lat="48.85487" lon="2.22873">
        <ele>73.4</ele>
        <time>2015-03-23T20:30:22.083Z</time>
      </trkpt>
      <trkpt lat="48.85493" lon="2.22872">
        <ele>73.4</ele>
        <time>2015-03-23T20:30:23.119Z</time>
      </trkpt>
      <trkpt lat="48.85498" lon="2.2287">
        <ele>73.5</ele>
        <time>2015-03-23T20:30:24.142Z</time>
      </trkpt>
      <trkpt lat="48.85503" lon="2.22868">
        <ele>73.5</ele>
        <time>2015-03-23T20:30:25.154Z</time>
      </trkpt>
      <trkpt lat="48.85508" lon="2.22866">
        <ele>73.3</ele>
        <time>2015-03-23T20:30:26.060Z</time>
      </trkpt>
      <trkpt lat="48.85514" lon="2.22864">
        <ele>73.1</ele>
        <time>2015-03-23T20:30:27.073Z</time>
      </trkpt>
      <trkpt lat="48.85519" lon="2.22863">
        <ele>72.6</ele>
        <time>2015-03-23T20:30:28.138Z</time>
      </trkpt>
      <trkpt lat="48.85525" lon="2.22863">
        <ele>72.7</ele>
        <time>2015-03-23T20:30:29.146Z</time>
      </trkpt>
      <trkpt lat="48.85532" lon="2.22862">
        <ele>72.8</ele>
        <time>2015-03-23T20:30:30.077Z</time>
      </trkpt>
      <trkpt lat="48.85539" lon="2.22865">
        <ele>73.1</ele>
        <time>2015-03-23T20:30:31.186Z</time>
      </trkpt>
      <trkpt lat="48.85545" lon="2.22866">
        <ele>73.4</ele>
        <time>2015-03-23T20:30:32.075Z</time>
      </trkpt>
      <trkpt lat="48.8555" lon="2.22865">
        <ele>73.8</ele>
        <time>2015-03-23T20:30:33.084Z</time>
      </trkpt>
      <trkpt lat="48.85556" lon="2.22864">
        <ele>73.8</ele>
        <time>2015-03-23T20:30:34.096Z</time>
      </trkpt>
      <trkpt lat="48.85561" lon="2.22864">
        <ele>74</ele>
        <time>2015-03-23T20:30:35.114Z</time>
      </trkpt>
      <trkpt lat="48.85566" lon="2.22863">
        <ele>74.3</ele>
        <time>2015-03-23T20:30:36.144Z</time>
      </trkpt>
      <trkpt lat="48.85571" lon="2.22862">
        <ele>74.4</ele>
        <time>2015-03-23T20:30:37.113Z</time>
      </trkpt>
      <trkpt lat="48.85576" lon="2.22861">
        <ele>74.3</ele>
        <time>2015-03-23T20:30:38.139Z</time>
      </trkpt>
      <trkpt lat="48.85581" lon="2.22859">
        <ele>74.3</ele>
        <time>2015-03-23T20:30:39.142Z</time>
      </trkpt>
      <trkpt lat="48.85587" lon="2.22858">
        <ele>74.4</ele>
        <time>2015-03-23T20:30:40.072Z</time>
      </trkpt>
      <trkpt lat="48.85592" lon="2.22857">
        <ele>74.7</ele>
        <time>2015-03-23T20:30:41.070Z</time>
      </trkpt>
      <trkpt lat="48.85597" lon="2.22856">
        <ele>74.8</ele>
        <time>2015-03-23T20:30:42.087Z</time>
      </trkpt>
      <trkpt lat="48.85603" lon="2.22857">
        <ele>75</ele>
        <time>2015-03-23T20:30:43.106Z</time>
      </trkpt>
      <trkpt lat="48.85609" lon="2.22858">
        <ele>75.3</ele>
        <time>2015-03-23T20:30:44.110Z</time>
      </trkpt>
      <trkpt lat="48.85614" lon="2.22858">
        <ele>75.6</ele>
        <time>2015-03-23T20:30:45.127Z</time>
      </trkpt>
      <trkpt lat="48.8562" lon="2.22859">
        <ele>76.1</ele>
        <time>2015-03-23T20:30:46.157Z</time>
      </trkpt>
      <trkpt lat="48.85625" lon="2.22859">
        <ele>76.6</ele>
        <time>2015-03-23T20:30:47.068Z</time>
      </trkpt>
      <trkpt lat="48.85628" lon="2.2286">
        <ele>77</ele>
        <time>2015-03-23T20:30:48.071Z</time>
      </trkpt>
      <trkpt lat="48.85635" lon="2.22863">
        <ele>77.2</ele>
        <time>2015-03-23T20:30:49.145Z</time>
      </trkpt>
      <trkpt lat="48.8564" lon="2.22864">
        <ele>77.4</ele>
        <time>2015-03-23T20:30:50.115Z</time>
      </trkpt>
      <trkpt lat="48.85646" lon="2.22865">
        <ele>77.8</ele>
        <time>2015-03-23T20:30:51.115Z</time>
      </trkpt>
      <trkpt lat="48.85651" lon="2.22866">
        <ele>78.3</ele>
        <time>2015-03-23T20:30:52.137Z</time>
      </trkpt>
      <trkpt lat="48.85656" lon="2.22866">
        <ele>78.6</ele>
        <time>2015-03-23T20:30:53.151Z</time>
      </trkpt>
      <trkpt lat="48.85664" lon="2.22868">
        <ele>79.1</ele>
        <time>2015-03-23T20:30:55.168Z</time>
      </trkpt>
      <trkpt lat="48.85668" lon="2.22869">
        <ele>79.4</ele>
        <time>2015-03-23T20:30:56.084Z</time>
      </trkpt>
      <trkpt lat="48.85675" lon="2.22867">
        <ele>79.2</ele>
        <time>2015-03-23T20:30:58.090Z</time>
      </trkpt>
      <trkpt lat="48.85679" lon="2.22867">
        <ele>79.1</ele>
        <time>2015-03-23T20:30:59.114Z</time>
      </trkpt>
      <trkpt lat="48.85682" lon="2.22867">
        <ele>78.9</ele>
        <time>2015-03-23T20:31:00.128Z</time>
      </trkpt>
      <trkpt lat="48.85795" lon="2.23303">
        <ele>78.3</ele>
        <time>2015-03-23T20:31:01.264Z</time>
      </trkpt>
      <trkpt lat="48.85754" lon="2.23129">
        <ele>78</ele>
        <time>2015-03-23T20:31:02.102Z</time>
      </trkpt>
      <trkpt lat="48.85695" lon="2.2287">
        <ele>77.8</ele>
        <time>2015-03-23T20:31:03.082Z</time>
      </trkpt>
      <trkpt lat="48.85703" lon="2.22876">
        <ele>77.7</ele>
        <time>2015-03-23T20:31:04.679Z</time>
      </trkpt>
      <trkpt lat="48.85704" lon="2.22879">
        <ele>77.6</ele>
        <time>2015-03-23T20:31:06.145Z</time>
      </trkpt>
      <trkpt lat="48.85709" lon="2.22885">
        <ele>77.2</ele>
        <time>2015-03-23T20:31:08.975Z</time>
      </trkpt>
      <trkpt lat="48.85711" lon="2.22888">
        <ele>76.8</ele>
        <time>2015-03-23T20:31:09.051Z</time>
      </trkpt>
      <trkpt lat="48.85719" lon="2.22892">
        <ele>75.3</ele>
        <time>2015-03-23T20:31:12.062Z</time>
      </trkpt>
      <trkpt lat="48.85723" lon="2.22894">
        <ele>74.7</ele>
        <time>2015-03-23T20:31:13.109Z</time>
      </trkpt>
      <trkpt lat="48.85729" lon="2.22897">
        <ele>74.3</ele>
        <time>2015-03-23T20:31:14.104Z</time>
      </trkpt>
      <trkpt lat="48.85733" lon="2.229">
        <ele>73.8</ele>
        <time>2015-03-23T20:31:15.130Z</time>
      </trkpt>
      <trkpt lat="48.85739" lon="2.22902">
        <ele>73.7</ele>
        <time>2015-03-23T20:31:16.083Z</time>
      </trkpt>
      <trkpt lat="48.85743" lon="2.22902">
        <ele>73.6</ele>
        <time>2015-03-23T20:31:17.092Z</time>
      </trkpt>
      <trkpt lat="48.85749" lon="2.22902">
        <ele>73.7</ele>
        <time>2015-03-23T20:31:18.102Z</time>
      </trkpt>
      <trkpt lat="48.85763" lon="2.22902">
        <ele>73.6</ele>
        <time>2015-03-23T20:31:19.183Z</time>
      </trkpt>
      <trkpt lat="48.85771" lon="2.22902">
        <ele>73.4</ele>
        <time>2015-03-23T20:31:20.087Z</time>
      </trkpt>
      <trkpt lat="48.85778" lon="2.22901">
        <ele>73.3</ele>
        <time>2015-03-23T20:31:21.095Z</time>
      </trkpt>
      <trkpt lat="48.85784" lon="2.229">
        <ele>73.3</ele>
        <time>2015-03-23T20:31:22.103Z</time>
      </trkpt>
      <trkpt lat="48.85791" lon="2.22899">
        <ele>73.4</ele>
        <time>2015-03-23T20:31:23.111Z</time>
      </trkpt>
      <trkpt lat="48.85798" lon="2.22898">
        <ele>73.1</ele>
        <time>2015-03-23T20:31:24.285Z</time>
      </trkpt>
      <trkpt lat="48.85804" lon="2.22897">
        <ele>73</ele>
        <time>2015-03-23T20:31:25.139Z</time>
      </trkpt>
      <trkpt lat="48.85808" lon="2.22897">
        <ele>73.1</ele>
        <time>2015-03-23T20:31:26.147Z</time>
      </trkpt>
      <trkpt lat="48.85813" lon="2.22898">
        <ele>73.3</ele>
        <time>2015-03-23T20:31:27.154Z</time>
      </trkpt>
      <trkpt lat="48.85818" lon="2.22898">
        <ele>73.4</ele>
        <time>2015-03-23T20:31:28.157Z</time>
      </trkpt>
      <trkpt lat="48.85823" lon="2.22899">
        <ele>73.5</ele>
        <time>2015-03-23T20:31:29.163Z</time>
      </trkpt>
      <trkpt lat="48.85828" lon="2.229">
        <ele>73.7</ele>
        <time>2015-03-23T20:31:30.175Z</time>
      </trkpt>
      <trkpt lat="48.85832" lon="2.22901">
        <ele>73.5</ele>
        <time>2015-03-23T20:31:31.178Z</time>
      </trkpt>
      <trkpt lat="48.85841" lon="2.22904">
        <ele>73.4</ele>
        <time>2015-03-23T20:31:33.101Z</time>
      </trkpt>
      <trkpt lat="48.85845" lon="2.22906">
        <ele>73.5</ele>
        <time>2015-03-23T20:31:34.107Z</time>
      </trkpt>
      <trkpt lat="48.85849" lon="2.22909">
        <ele>73.4</ele>
        <time>2015-03-23T20:31:35.131Z</time>
      </trkpt>
      <trkpt lat="48.85853" lon="2.22912">
        <ele>73.4</ele>
        <time>2015-03-23T20:31:36.138Z</time>
      </trkpt>
      <trkpt lat="48.85857" lon="2.22914">
        <ele>73</ele>
        <time>2015-03-23T20:31:37.164Z</time>
      </trkpt>
      <trkpt lat="48.85864" lon="2.22917">
        <ele>72.3</ele>
        <time>2015-03-23T20:31:38.079Z</time>
      </trkpt>
      <trkpt lat="48.8587" lon="2.22917">
        <ele>72.2</ele>
        <time>2015-03-23T20:31:39.092Z</time>
      </trkpt>
      <trkpt lat="48.85875" lon="2.22918">
        <ele>72.3</ele>
        <time>2015-03-23T20:31:40.114Z</time>
      </trkpt>
      <trkpt lat="48.8588" lon="2.22919">
        <ele>72.3</ele>
        <time>2015-03-23T20:31:41.082Z</time>
      </trkpt>
      <trkpt lat="48.85885" lon="2.22921">
        <ele>72.4</ele>
        <time>2015-03-23T20:31:42.086Z</time>
      </trkpt>
      <trkpt lat="48.85893" lon="2.22925">
        <ele>72.6</ele>
        <time>2015-03-23T20:31:44.167Z</time>
      </trkpt>
      <trkpt lat="48.85898" lon="2.22928">
        <ele>73</ele>
        <time>2015-03-23T20:31:45.096Z</time>
      </trkpt>
      <trkpt lat="48.85905" lon="2.22931">
        <ele>73.2</ele>
        <time>2015-03-23T20:31:47.099Z</time>
      </trkpt>
      <trkpt lat="48.8591" lon="2.22933">
        <ele>73.7</ele>
        <time>2015-03-23T20:31:48.104Z</time>
      </trkpt>
      <trkpt lat="48.85914" lon="2.22934">
        <ele>73.9</ele>
        <time>2015-03-23T20:31:49.147Z</time>
      </trkpt>
      <trkpt lat="48.85918" lon="2.22936">
        <ele>74.5</ele>
        <time>2015-03-23T20:31:50.166Z</time>
      </trkpt>
      <trkpt lat="48.85927" lon="2.22939">
        <ele>75.6</ele>
        <time>2015-03-23T20:31:52.109Z</time>
      </trkpt>
      <trkpt lat="48.85932" lon="2.2294">
        <ele>76</ele>
        <time>2015-03-23T20:31:53.129Z</time>
      </trkpt>
      <trkpt lat="48.8594" lon="2.22944">
        <ele>76.5</ele>
        <time>2015-03-23T20:31:55.150Z</time>
      </trkpt>
      <trkpt lat="48.85944" lon="2.22947">
        <ele>76.4</ele>
        <time>2015-03-23T20:31:56.166Z</time>
      </trkpt>
      <trkpt lat="48.85949" lon="2.2295">
        <ele>76.7</ele>
        <time>2015-03-23T20:31:57.084Z</time>
      </trkpt>
      <trkpt lat="48.85955" lon="2.22952">
        <ele>76.6</ele>
        <time>2015-03-23T20:31:58.091Z</time>
      </trkpt>
      <trkpt lat="48.85959" lon="2.22955">
        <ele>76.8</ele>
        <time>2015-03-23T20:31:59.107Z</time>
      </trkpt>
      <trkpt lat="48.85964" lon="2.22957">
        <ele>76.9</ele>
        <time>2015-03-23T20:32:00.111Z</time>
      </trkpt>
      <trkpt lat="48.85971" lon="2.22961">
        <ele>76.7</ele>
        <time>2015-03-23T20:32:02.144Z</time>
      </trkpt>
      <trkpt lat="48.85975" lon="2.22963">
        <ele>76.6</ele>
        <time>2015-03-23T20:32:03.136Z</time>
      </trkpt>
      <trkpt lat="48.85982" lon="2.22968">
        <ele>76.7</ele>
        <time>2015-03-23T20:32:05.098Z</time>
      </trkpt>
      <trkpt lat="48.85987" lon="2.22971">
        <ele>76.5</ele>
        <time>2015-03-23T20:32:06.079Z</time>
      </trkpt>
      <trkpt lat="48.85993" lon="2.22975">
        <ele>76.2</ele>
        <time>2015-03-23T20:32:08.114Z</time>
      </trkpt>
      <trkpt lat="48.85996" lon="2.22977">
        <ele>76</ele>
        <time>2015-03-23T20:32:09.125Z</time>
      </trkpt>
      <trkpt lat="48.86004" lon="2.22981">
        <ele>75.7</ele>
        <time>2015-03-23T20:32:11.064Z</time>
      </trkpt>
      <trkpt lat="48.86008" lon="2.22983">
        <ele>75.4</ele>
        <time>2015-03-23T20:32:12.060Z</time>
      </trkpt>
      <trkpt lat="48.86016" lon="2.22986">
        <ele>75.1</ele>
        <time>2015-03-23T20:32:14.112Z</time>
      </trkpt>
      <trkpt lat="48.8602" lon="2.22988">
        <ele>75.1</ele>
        <time>2015-03-23T20:32:15.129Z</time>
      </trkpt>
      <trkpt lat="48.86028" lon="2.22993">
        <ele>74.8</ele>
        <time>2015-03-23T20:32:17.159Z</time>
      </trkpt>
      <trkpt lat="48.86032" lon="2.22993">
        <ele>75</ele>
        <time>2015-03-23T20:32:18.168Z</time>
      </trkpt>
      <trkpt lat="48.8604" lon="2.22996">
        <ele>75.2</ele>
        <time>2015-03-23T20:32:20.080Z</time>
      </trkpt>
      <trkpt lat="48.86045" lon="2.22997">
        <ele>75.7</ele>
        <time>2015-03-23T20:32:21.093Z</time>
      </trkpt>
      <trkpt lat="48.8605" lon="2.22998">
        <ele>76.2</ele>
        <time>2015-03-23T20:32:22.103Z</time>
      </trkpt>
      <trkpt lat="48.86055" lon="2.22999">
        <ele>76.7</ele>
        <time>2015-03-23T20:32:23.107Z</time>
      </trkpt>
      <trkpt lat="48.8606" lon="2.22999">
        <ele>77</ele>
        <time>2015-03-23T20:32:24.113Z</time>
      </trkpt>
      <trkpt lat="48.86065" lon="2.22999">
        <ele>77.5</ele>
        <time>2015-03-23T20:32:25.124Z</time>
      </trkpt>
      <trkpt lat="48.8607" lon="2.23">
        <ele>77.8</ele>
        <time>2015-03-23T20:32:26.163Z</time>
      </trkpt>
      <trkpt lat="48.86076" lon="2.23002">
        <ele>78.1</ele>
        <time>2015-03-23T20:32:27.058Z</time>
      </trkpt>
      <trkpt lat="48.86081" lon="2.23003">
        <ele>78.5</ele>
        <time>2015-03-23T20:32:28.117Z</time>
      </trkpt>
      <trkpt lat="48.86086" lon="2.23004">
        <ele>78.9</ele>
        <time>2015-03-23T20:32:29.122Z</time>
      </trkpt>
      <trkpt lat="48.86091" lon="2.23005">
        <ele>79.4</ele>
        <time>2015-03-23T20:32:30.170Z</time>
      </trkpt>
      <trkpt lat="48.86097" lon="2.23008">
        <ele>79.5</ele>
        <time>2015-03-23T20:32:31.184Z</time>
      </trkpt>
      <trkpt lat="48.86103" lon="2.2301">
        <ele>79.7</ele>
        <time>2015-03-23T20:32:32.226Z</time>
      </trkpt>
      <trkpt lat="48.86107" lon="2.23012">
        <ele>79.8</ele>
        <time>2015-03-23T20:32:33.129Z</time>
      </trkpt>
      <trkpt lat="48.86113" lon="2.23015">
        <ele>79.8</ele>
        <time>2015-03-23T20:32:34.141Z</time>
      </trkpt>
      <trkpt lat="48.86117" lon="2.23017">
        <ele>79.8</ele>
        <time>2015-03-23T20:32:35.144Z</time>
      </trkpt>
      <trkpt lat="48.86126" lon="2.23021">
        <ele>80.2</ele>
        <time>2015-03-23T20:32:37.162Z</time>
      </trkpt>
      <trkpt lat="48.8613" lon="2.2302">
        <ele>81</ele>
        <time>2015-03-23T20:32:38.078Z</time>
      </trkpt>
      <trkpt lat="48.86139" lon="2.23021">
        <ele>80.3</ele>
        <time>2015-03-23T20:32:40.065Z</time>
      </trkpt>
      <trkpt lat="48.86143" lon="2.23023">
        <ele>80.3</ele>
        <time>2015-03-23T20:32:41.081Z</time>
      </trkpt>
      <trkpt lat="48.8615" lon="2.23027">
        <ele>80.5</ele>
        <time>2015-03-23T20:32:43.128Z</time>
      </trkpt>
      <trkpt lat="48.86155" lon="2.23031">
        <ele>80.6</ele>
        <time>2015-03-23T20:32:44.134Z</time>
      </trkpt>
      <trkpt lat="48.8616" lon="2.23033">
        <ele>81.1</ele>
        <time>2015-03-23T20:32:45.159Z</time>
      </trkpt>
      <trkpt lat="48.86164" lon="2.23034">
        <ele>81.3</ele>
        <time>2015-03-23T20:32:46.070Z</time>
      </trkpt>
      <trkpt lat="48.86173" lon="2.23037">
        <ele>82</ele>
        <time>2015-03-23T20:32:48.079Z</time>
      </trkpt>
      <trkpt lat="48.86176" lon="2.23039">
        <ele>81.9</ele>
        <time>2015-03-23T20:32:49.133Z</time>
      </trkpt>
      <trkpt lat="48.86181" lon="2.23041">
        <ele>82</ele>
        <time>2015-03-23T20:32:50.146Z</time>
      </trkpt>
      <trkpt lat="48.86186" lon="2.23044">
        <ele>82.3</ele>
        <time>2015-03-23T20:32:51.159Z</time>
      </trkpt>
      <trkpt lat="48.86191" lon="2.23046">
        <ele>82.9</ele>
        <time>2015-03-23T20:32:52.044Z</time>
      </trkpt>
      <trkpt lat="48.86196" lon="2.23049">
        <ele>83.6</ele>
        <time>2015-03-23T20:32:53.073Z</time>
      </trkpt>
      <trkpt lat="48.86201" lon="2.23051">
        <ele>83.7</ele>
        <time>2015-03-23T20:32:54.071Z</time>
      </trkpt>
      <trkpt lat="48.86205" lon="2.23053">
        <ele>84</ele>
        <time>2015-03-23T20:32:55.120Z</time>
      </trkpt>
      <trkpt lat="48.86213" lon="2.23057">
        <ele>84.7</ele>
        <time>2015-03-23T20:32:57.128Z</time>
      </trkpt>
      <trkpt lat="48.86217" lon="2.2306">
        <ele>85</ele>
        <time>2015-03-23T20:32:58.148Z</time>
      </trkpt>
      <trkpt lat="48.86226" lon="2.23064">
        <ele>85.3</ele>
        <time>2015-03-23T20:33:00.080Z</time>
      </trkpt>
      <trkpt lat="48.86229" lon="2.23066">
        <ele>85.3</ele>
        <time>2015-03-23T20:33:01.151Z</time>
      </trkpt>
      <trkpt lat="48.86237" lon="2.23072">
        <ele>85.2</ele>
        <time>2015-03-23T20:33:03.066Z</time>
      </trkpt>
      <trkpt lat="48.86241" lon="2.23075">
        <ele>85</ele>
        <time>2015-03-23T20:33:04.078Z</time>
      </trkpt>
      <trkpt lat="48.86244" lon="2.23077">
        <ele>84.6</ele>
        <time>2015-03-23T20:33:05.072Z</time>
      </trkpt>
      <trkpt lat="48.8625" lon="2.23082">
        <ele>83.3</ele>
        <time>2015-03-23T20:33:06.075Z</time>
      </trkpt>
      <trkpt lat="48.86257" lon="2.23088">
        <ele>82.2</ele>
        <time>2015-03-23T20:33:07.110Z</time>
      </trkpt>
      <trkpt lat="48.86261" lon="2.23092">
        <ele>81.8</ele>
        <time>2015-03-23T20:33:08.117Z</time>
      </trkpt>
      <trkpt lat="48.86267" lon="2.23097">
        <ele>81.1</ele>
        <time>2015-03-23T20:33:09.040Z</time>
      </trkpt>
      <trkpt lat="48.86272" lon="2.23102">
        <ele>80.8</ele>
        <time>2015-03-23T20:33:10.065Z</time>
      </trkpt>
      <trkpt lat="48.86276" lon="2.23107">
        <ele>80.7</ele>
        <time>2015-03-23T20:33:11.078Z</time>
      </trkpt>
      <trkpt lat="48.8628" lon="2.23111">
        <ele>79.9</ele>
        <time>2015-03-23T20:33:12.125Z</time>
      </trkpt>
      <trkpt lat="48.86284" lon="2.23116">
        <ele>79.6</ele>
        <time>2015-03-23T20:33:13.184Z</time>
      </trkpt>
      <trkpt lat="48.86288" lon="2.2312">
        <ele>79.4</ele>
        <time>2015-03-23T20:33:14.054Z</time>
      </trkpt>
      <trkpt lat="48.86292" lon="2.23124">
        <ele>79.4</ele>
        <time>2015-03-23T20:33:15.075Z</time>
      </trkpt>
      <trkpt lat="48.86297" lon="2.23129">
        <ele>79.1</ele>
        <time>2015-03-23T20:33:16.082Z</time>
      </trkpt>
      <trkpt lat="48.863" lon="2.23133">
        <ele>79</ele>
        <time>2015-03-23T20:33:17.096Z</time>
      </trkpt>
      <trkpt lat="48.86304" lon="2.23138">
        <ele>79.1</ele>
        <time>2015-03-23T20:33:18.110Z</time>
      </trkpt>
      <trkpt lat="48.86308" lon="2.23142">
        <ele>79.1</ele>
        <time>2015-03-23T20:33:19.113Z</time>
      </trkpt>
      <trkpt lat="48.86312" lon="2.23147">
        <ele>79.3</ele>
        <time>2015-03-23T20:33:20.125Z</time>
      </trkpt>
      <trkpt lat="48.86313" lon="2.23149">
        <ele>79.2</ele>
        <time>2015-03-23T20:33:22.140Z</time>
      </trkpt>
      <trkpt lat="48.86323" lon="2.23162">
        <ele>79.1</ele>
        <time>2015-03-23T20:33:23.050Z</time>
      </trkpt>
      <trkpt lat="48.86326" lon="2.23168">
        <ele>79.4</ele>
        <time>2015-03-23T20:33:24.061Z</time>
      </trkpt>
      <trkpt lat="48.8633" lon="2.23174">
        <ele>79.5</ele>
        <time>2015-03-23T20:33:25.173Z</time>
      </trkpt>
      <trkpt lat="48.86332" lon="2.23179">
        <ele>79.6</ele>
        <time>2015-03-23T20:33:26.089Z</time>
      </trkpt>
      <trkpt lat="48.86336" lon="2.23185">
        <ele>79.4</ele>
        <time>2015-03-23T20:33:27.093Z</time>
      </trkpt>
      <trkpt lat="48.86338" lon="2.23192">
        <ele>79</ele>
        <time>2015-03-23T20:33:29.026Z</time>
      </trkpt>
      <trkpt lat="48.86341" lon="2.23198">
        <ele>78.7</ele>
        <time>2015-03-23T20:33:29.106Z</time>
      </trkpt>
      <trkpt lat="48.86347" lon="2.23209">
        <ele>78.4</ele>
        <time>2015-03-23T20:33:31.166Z</time>
      </trkpt>
      <trkpt lat="48.86349" lon="2.23213">
        <ele>78.5</ele>
        <time>2015-03-23T20:33:32.085Z</time>
      </trkpt>
      <trkpt lat="48.86353" lon="2.23219">
        <ele>79</ele>
        <time>2015-03-23T20:33:33.086Z</time>
      </trkpt>
      <trkpt lat="48.86356" lon="2.23225">
        <ele>79.3</ele>
        <time>2015-03-23T20:33:34.118Z</time>
      </trkpt>
      <trkpt lat="48.86359" lon="2.23232">
        <ele>79.9</ele>
        <time>2015-03-23T20:33:35.131Z</time>
      </trkpt>
      <trkpt lat="48.86362" lon="2.23238">
        <ele>80.4</ele>
        <time>2015-03-23T20:33:36.143Z</time>
      </trkpt>
      <trkpt lat="48.86366" lon="2.23245">
        <ele>81.2</ele>
        <time>2015-03-23T20:33:37.174Z</time>
      </trkpt>
      <trkpt lat="48.86369" lon="2.23253">
        <ele>81.2</ele>
        <time>2015-03-23T20:33:38.051Z</time>
      </trkpt>
      <trkpt lat="48.86373" lon="2.2326">
        <ele>81.7</ele>
        <time>2015-03-23T20:33:39.085Z</time>
      </trkpt>
      <trkpt lat="48.86375" lon="2.23268">
        <ele>81</ele>
        <time>2015-03-23T20:33:40.099Z</time>
      </trkpt>
      <trkpt lat="48.86377" lon="2.23277">
        <ele>80.1</ele>
        <time>2015-03-23T20:33:41.075Z</time>
      </trkpt>
      <trkpt lat="48.86379" lon="2.23286">
        <ele>79.3</ele>
        <time>2015-03-23T20:33:42.108Z</time>
      </trkpt>
      <trkpt lat="48.8638" lon="2.23295">
        <ele>78.8</ele>
        <time>2015-03-23T20:33:43.143Z</time>
      </trkpt>
      <trkpt lat="48.86382" lon="2.23303">
        <ele>78.3</ele>
        <time>2015-03-23T20:33:44.154Z</time>
      </trkpt>
      <trkpt lat="48.86383" lon="2.23311">
        <ele>78.1</ele>
        <time>2015-03-23T20:33:45.056Z</time>
      </trkpt>
      <trkpt lat="48.86384" lon="2.23319">
        <ele>78</ele>
        <time>2015-03-23T20:33:46.080Z</time>
      </trkpt>
      <trkpt lat="48.86384" lon="2.23327">
        <ele>77.8</ele>
        <time>2015-03-23T20:33:47.082Z</time>
      </trkpt>
      <trkpt lat="48.86386" lon="2.23334">
        <ele>78.1</ele>
        <time>2015-03-23T20:33:48.084Z</time>
      </trkpt>
      <trkpt lat="48.86388" lon="2.23342">
        <ele>78.6</ele>
        <time>2015-03-23T20:33:49.174Z</time>
      </trkpt>
      <trkpt lat="48.8639" lon="2.2335">
        <ele>78.6</ele>
        <time>2015-03-23T20:33:50.092Z</time>
      </trkpt>
      <trkpt lat="48.86392" lon="2.23359">
        <ele>78.9</ele>
        <time>2015-03-23T20:33:51.130Z</time>
      </trkpt>
      <trkpt lat="48.86394" lon="2.23367">
        <ele>78.6</ele>
        <time>2015-03-23T20:33:52.152Z</time>
      </trkpt>
      <trkpt lat="48.86395" lon="2.23376">
        <ele>78.5</ele>
        <time>2015-03-23T20:33:53.158Z</time>
      </trkpt>
      <trkpt lat="48.86398" lon="2.23385">
        <ele>78.5</ele>
        <time>2015-03-23T20:33:54.160Z</time>
      </trkpt>
      <trkpt lat="48.86399" lon="2.23393">
        <ele>78.6</ele>
        <time>2015-03-23T20:33:55.172Z</time>
      </trkpt>
      <trkpt lat="48.864" lon="2.23402">
        <ele>78.7</ele>
        <time>2015-03-23T20:33:56.089Z</time>
      </trkpt>
      <trkpt lat="48.86402" lon="2.2341">
        <ele>78.6</ele>
        <time>2015-03-23T20:33:57.123Z</time>
      </trkpt>
      <trkpt lat="48.86403" lon="2.23418">
        <ele>78.4</ele>
        <time>2015-03-23T20:33:58.163Z</time>
      </trkpt>
      <trkpt lat="48.86403" lon="2.23426">
        <ele>78</ele>
        <time>2015-03-23T20:33:59.077Z</time>
      </trkpt>
      <trkpt lat="48.86404" lon="2.23435">
        <ele>77.7</ele>
        <time>2015-03-23T20:34:00.094Z</time>
      </trkpt>
      <trkpt lat="48.86405" lon="2.23443">
        <ele>77.4</ele>
        <time>2015-03-23T20:34:01.222Z</time>
      </trkpt>
      <trkpt lat="48.86406" lon="2.23452">
        <ele>77.2</ele>
        <time>2015-03-23T20:34:02.070Z</time>
      </trkpt>
      <trkpt lat="48.86406" lon="2.2346">
        <ele>77</ele>
        <time>2015-03-23T20:34:03.085Z</time>
      </trkpt>
      <trkpt lat="48.86407" lon="2.23468">
        <ele>77.2</ele>
        <time>2015-03-23T20:34:04.113Z</time>
      </trkpt>
      <trkpt lat="48.86408" lon="2.23476">
        <ele>77.2</ele>
        <time>2015-03-23T20:34:05.130Z</time>
      </trkpt>
      <trkpt lat="48.86408" lon="2.23484">
        <ele>77.1</ele>
        <time>2015-03-23T20:34:06.136Z</time>
      </trkpt>
      <trkpt lat="48.86408" lon="2.23493">
        <ele>77.3</ele>
        <time>2015-03-23T20:34:07.158Z</time>
      </trkpt>
      <trkpt lat="48.86408" lon="2.23501">
        <ele>77.4</ele>
        <time>2015-03-23T20:34:08.070Z</time>
      </trkpt>
      <trkpt lat="48.86408" lon="2.2351">
        <ele>77.4</ele>
        <time>2015-03-23T20:34:09.085Z</time>
      </trkpt>
      <trkpt lat="48.86408" lon="2.23518">
        <ele>77.1</ele>
        <time>2015-03-23T20:34:10.085Z</time>
      </trkpt>
      <trkpt lat="48.86409" lon="2.23527">
        <ele>76.8</ele>
        <time>2015-03-23T20:34:11.110Z</time>
      </trkpt>
      <trkpt lat="48.86409" lon="2.23536">
        <ele>76.8</ele>
        <time>2015-03-23T20:34:12.116Z</time>
      </trkpt>
      <trkpt lat="48.8641" lon="2.23544">
        <ele>77</ele>
        <time>2015-03-23T20:34:13.140Z</time>
      </trkpt>
      <trkpt lat="48.86409" lon="2.23553">
        <ele>76.9</ele>
        <time>2015-03-23T20:34:14.163Z</time>
      </trkpt>
      <trkpt lat="48.86409" lon="2.23562">
        <ele>77</ele>
        <time>2015-03-23T20:34:15.101Z</time>
      </trkpt>
      <trkpt lat="48.86409" lon="2.23571">
        <ele>77.2</ele>
        <time>2015-03-23T20:34:16.080Z</time>
      </trkpt>
      <trkpt lat="48.86408" lon="2.2358">
        <ele>77.2</ele>
        <time>2015-03-23T20:34:17.081Z</time>
      </trkpt>
      <trkpt lat="48.86406" lon="2.23588">
        <ele>77.3</ele>
        <time>2015-03-23T20:34:18.090Z</time>
      </trkpt>
      <trkpt lat="48.86404" lon="2.23597">
        <ele>77.3</ele>
        <time>2015-03-23T20:34:19.124Z</time>
      </trkpt>
      <trkpt lat="48.86402" lon="2.23605">
        <ele>77.5</ele>
        <time>2015-03-23T20:34:20.124Z</time>
      </trkpt>
      <trkpt lat="48.864" lon="2.23614">
        <ele>77.4</ele>
        <time>2015-03-23T20:34:21.132Z</time>
      </trkpt>
      <trkpt lat="48.86397" lon="2.23622">
        <ele>77.1</ele>
        <time>2015-03-23T20:34:22.164Z</time>
      </trkpt>
      <trkpt lat="48.86395" lon="2.23631">
        <ele>76.9</ele>
        <time>2015-03-23T20:34:23.080Z</time>
      </trkpt>
      <trkpt lat="48.86393" lon="2.23639">
        <ele>76.6</ele>
        <time>2015-03-23T20:34:24.080Z</time>
      </trkpt>
      <trkpt lat="48.86391" lon="2.23647">
        <ele>76.4</ele>
        <time>2015-03-23T20:34:25.244Z</time>
      </trkpt>
      <trkpt lat="48.86388" lon="2.23655">
        <ele>76.2</ele>
        <time>2015-03-23T20:34:26.090Z</time>
      </trkpt>
      <trkpt lat="48.86385" lon="2.23663">
        <ele>76.1</ele>
        <time>2015-03-23T20:34:27.105Z</time>
      </trkpt>
      <trkpt lat="48.86382" lon="2.23671">
        <ele>75.8</ele>
        <time>2015-03-23T20:34:28.152Z</time>
      </trkpt>
      <trkpt lat="48.86379" lon="2.23679">
        <ele>75.6</ele>
        <time>2015-03-23T20:34:29.152Z</time>
      </trkpt>
      <trkpt lat="48.86376" lon="2.23687">
        <ele>75.4</ele>
        <time>2015-03-23T20:34:30.080Z</time>
      </trkpt>
      <trkpt lat="48.86373" lon="2.23695">
        <ele>75.3</ele>
        <time>2015-03-23T20:34:31.177Z</time>
      </trkpt>
      <trkpt lat="48.86369" lon="2.23702">
        <ele>74.9</ele>
        <time>2015-03-23T20:34:32.084Z</time>
      </trkpt>
      <trkpt lat="48.86366" lon="2.23708">
        <ele>75</ele>
        <time>2015-03-23T20:34:33.099Z</time>
      </trkpt>
      <trkpt lat="48.86361" lon="2.23714">
        <ele>75.1</ele>
        <time>2015-03-23T20:34:34.115Z</time>
      </trkpt>
      <trkpt lat="48.86356" lon="2.2372">
        <ele>75.3</ele>
        <time>2015-03-23T20:34:35.066Z</time>
      </trkpt>
      <trkpt lat="48.86351" lon="2.23727">
        <ele>75.4</ele>
        <time>2015-03-23T20:34:36.078Z</time>
      </trkpt>
      <trkpt lat="48.86346" lon="2.23733">
        <ele>75.4</ele>
        <time>2015-03-23T20:34:37.136Z</time>
      </trkpt>
      <trkpt lat="48.8634" lon="2.23738">
        <ele>75.7</ele>
        <time>2015-03-23T20:34:38.076Z</time>
      </trkpt>
      <trkpt lat="48.86335" lon="2.23743">
        <ele>75.7</ele>
        <time>2015-03-23T20:34:39.103Z</time>
      </trkpt>
      <trkpt lat="48.86329" lon="2.23749">
        <ele>75.8</ele>
        <time>2015-03-23T20:34:40.108Z</time>
      </trkpt>
      <trkpt lat="48.86323" lon="2.23754">
        <ele>75.7</ele>
        <time>2015-03-23T20:34:41.122Z</time>
      </trkpt>
      <trkpt lat="48.86317" lon="2.23759">
        <ele>75.6</ele>
        <time>2015-03-23T20:34:42.134Z</time>
      </trkpt>
      <trkpt lat="48.86311" lon="2.23763">
        <ele>75.5</ele>
        <time>2015-03-23T20:34:43.178Z</time>
      </trkpt>
      <trkpt lat="48.86305" lon="2.23768">
        <ele>75.7</ele>
        <time>2015-03-23T20:34:44.066Z</time>
      </trkpt>
      <trkpt lat="48.86299" lon="2.23772">
        <ele>75.7</ele>
        <time>2015-03-23T20:34:45.079Z</time>
      </trkpt>
      <trkpt lat="48.86293" lon="2.23777">
        <ele>75.5</ele>
        <time>2015-03-23T20:34:46.098Z</time>
      </trkpt>
      <trkpt lat="48.86287" lon="2.23781">
        <ele>75.7</ele>
        <time>2015-03-23T20:34:47.103Z</time>
      </trkpt>
      <trkpt lat="48.86282" lon="2.23786">
        <ele>75.9</ele>
        <time>2015-03-23T20:34:48.108Z</time>
      </trkpt>
      <trkpt lat="48.86276" lon="2.2379">
        <ele>76.1</ele>
        <time>2015-03-23T20:34:49.131Z</time>
      </trkpt>
      <trkpt lat="48.86271" lon="2.23794">
        <ele>76.4</ele>
        <time>2015-03-23T20:34:50.157Z</time>
      </trkpt>
      <trkpt lat="48.86265" lon="2.23798">
        <ele>76.2</ele>
        <time>2015-03-23T20:34:51.079Z</time>
      </trkpt>
      <trkpt lat="48.8626" lon="2.23802">
        <ele>76.3</ele>
        <time>2015-03-23T20:34:52.079Z</time>
      </trkpt>
      <trkpt lat="48.86255" lon="2.23805">
        <ele>76.5</ele>
        <time>2015-03-23T20:34:53.124Z</time>
      </trkpt>
      <trkpt lat="48.8625" lon="2.23808">
        <ele>76.5</ele>
        <time>2015-03-23T20:34:54.132Z</time>
      </trkpt>
      <trkpt lat="48.86246" lon="2.2381">
        <ele>76.5</ele>
        <time>2015-03-23T20:34:55.139Z</time>
      </trkpt>
      <trkpt lat="48.86241" lon="2.23811">
        <ele>76.4</ele>
        <time>2015-03-23T20:34:56.081Z</time>
      </trkpt>
      <trkpt lat="48.86233" lon="2.2381">
        <ele>76.7</ele>
        <time>2015-03-23T20:34:58.068Z</time>
      </trkpt>
      <trkpt lat="48.86229" lon="2.23809">
        <ele>77</ele>
        <time>2015-03-23T20:34:59.088Z</time>
      </trkpt>
      <trkpt lat="48.86222" lon="2.23807">
        <ele>77.8</ele>
        <time>2015-03-23T20:35:01.171Z</time>
      </trkpt>
      <trkpt lat="48.86219" lon="2.23806">
        <ele>78.2</ele>
        <time>2015-03-23T20:35:02.080Z</time>
      </trkpt>
      <trkpt lat="48.86212" lon="2.23804">
        <ele>79.3</ele>
        <time>2015-03-23T20:35:05.080Z</time>
      </trkpt>
      <trkpt lat="48.8621" lon="2.23803">
        <ele>79.8</ele>
        <time>2015-03-23T20:35:06.108Z</time>
      </trkpt>
      <trkpt lat="48.86218" lon="2.23806">
        <ele>80.2</ele>
        <time>2015-03-23T20:41:37.171Z</time>
      </trkpt>
      <trkpt lat="48.86219" lon="2.23809">
        <ele>80.2</ele>
        <time>2015-03-23T20:41:38.140Z</time>
      </trkpt>
      <trkpt lat="48.8622" lon="2.2382">
        <ele>80.2</ele>
        <time>2015-03-23T20:41:42.106Z</time>
      </trkpt>
      <trkpt lat="48.86221" lon="2.23824">
        <ele>79.9</ele>
        <time>2015-03-23T20:41:43.106Z</time>
      </trkpt>
      <trkpt lat="48.8622" lon="2.23837">
        <ele>78.2</ele>
        <time>2015-03-23T20:41:47.067Z</time>
      </trkpt>
      <trkpt lat="48.86219" lon="2.23839">
        <ele>78</ele>
        <time>2015-03-23T20:41:48.079Z</time>
      </trkpt>
      <trkpt lat="48.86214" lon="2.23846">
        <ele>77.5</ele>
        <time>2015-03-23T20:41:51.060Z</time>
      </trkpt>
      <trkpt lat="48.86213" lon="2.2385">
        <ele>77.5</ele>
        <time>2015-03-23T20:41:52.076Z</time>
      </trkpt>
      <trkpt lat="48.86208" lon="2.2386">
        <ele>77.4</ele>
        <time>2015-03-23T20:41:55.137Z</time>
      </trkpt>
      <trkpt lat="48.86206" lon="2.23864">
        <ele>77.1</ele>
        <time>2015-03-23T20:41:56.072Z</time>
      </trkpt>
      <trkpt lat="48.862" lon="2.23872">
        <ele>77.1</ele>
        <time>2015-03-23T20:41:58.060Z</time>
      </trkpt>
      <trkpt lat="48.86197" lon="2.23876">
        <ele>77</ele>
        <time>2015-03-23T20:41:59.083Z</time>
      </trkpt>
      <trkpt lat="48.8619" lon="2.23883">
        <ele>76.4</ele>
        <time>2015-03-23T20:42:01.176Z</time>
      </trkpt>
      <trkpt lat="48.86188" lon="2.23886">
        <ele>76.5</ele>
        <time>2015-03-23T20:42:02.065Z</time>
      </trkpt>
      <trkpt lat="48.86188" lon="2.23878">
        <ele>76.7</ele>
        <time>2015-03-23T20:42:04.077Z</time>
      </trkpt>
      <trkpt lat="48.8618" lon="2.23896">
        <ele>76.9</ele>
        <time>2015-03-23T20:42:05.087Z</time>
      </trkpt>
      <trkpt lat="48.86175" lon="2.23903">
        <ele>77.2</ele>
        <time>2015-03-23T20:42:07.127Z</time>
      </trkpt>
      <trkpt lat="48.86173" lon="2.23907">
        <ele>77.2</ele>
        <time>2015-03-23T20:42:08.139Z</time>
      </trkpt>
      <trkpt lat="48.86167" lon="2.23914">
        <ele>77.6</ele>
        <time>2015-03-23T20:42:10.091Z</time>
      </trkpt>
      <trkpt lat="48.86164" lon="2.23918">
        <ele>77.6</ele>
        <time>2015-03-23T20:42:11.109Z</time>
      </trkpt>
      <trkpt lat="48.86158" lon="2.23924">
        <ele>77.8</ele>
        <time>2015-03-23T20:42:13.129Z</time>
      </trkpt>
      <trkpt lat="48.86155" lon="2.23928">
        <ele>77.9</ele>
        <time>2015-03-23T20:42:14.130Z</time>
      </trkpt>
      <trkpt lat="48.86151" lon="2.23934">
        <ele>78.2</ele>
        <time>2015-03-23T20:42:16.969Z</time>
      </trkpt>
      <trkpt lat="48.86149" lon="2.23939">
        <ele>78.2</ele>
        <time>2015-03-23T20:42:17.064Z</time>
      </trkpt>
      <trkpt lat="48.86143" lon="2.23946">
        <ele>77.8</ele>
        <time>2015-03-23T20:42:19.143Z</time>
      </trkpt>
      <trkpt lat="48.86141" lon="2.2395">
        <ele>77.7</ele>
        <time>2015-03-23T20:42:20.065Z</time>
      </trkpt>
      <trkpt lat="48.86134" lon="2.23959">
        <ele>77.6</ele>
        <time>2015-03-23T20:42:22.082Z</time>
      </trkpt>
      <trkpt lat="48.86131" lon="2.23964">
        <ele>77.7</ele>
        <time>2015-03-23T20:42:23.091Z</time>
      </trkpt>
      <trkpt lat="48.86128" lon="2.23968">
        <ele>78.5</ele>
        <time>2015-03-23T20:42:24.115Z</time>
      </trkpt>
      <trkpt lat="48.86123" lon="2.23973">
        <ele>78.6</ele>
        <time>2015-03-23T20:42:25.136Z</time>
      </trkpt>
      <trkpt lat="48.8612" lon="2.23979">
        <ele>78.8</ele>
        <time>2015-03-23T20:42:26.056Z</time>
      </trkpt>
      <trkpt lat="48.86117" lon="2.23985">
        <ele>79</ele>
        <time>2015-03-23T20:42:27.146Z</time>
      </trkpt>
      <trkpt lat="48.86113" lon="2.23991">
        <ele>79</ele>
        <time>2015-03-23T20:42:28.071Z</time>
      </trkpt>
      <trkpt lat="48.86109" lon="2.23996">
        <ele>78.8</ele>
        <time>2015-03-23T20:42:29.084Z</time>
      </trkpt>
      <trkpt lat="48.86103" lon="2.24004">
        <ele>78.6</ele>
        <time>2015-03-23T20:42:32.122Z</time>
      </trkpt>
      <trkpt lat="48.861" lon="2.24009">
        <ele>78.7</ele>
        <time>2015-03-23T20:42:33.025Z</time>
      </trkpt>
      <trkpt lat="48.86096" lon="2.24013">
        <ele>79</ele>
        <time>2015-03-23T20:42:34.052Z</time>
      </trkpt>
      <trkpt lat="48.86093" lon="2.24018">
        <ele>79</ele>
        <time>2015-03-23T20:42:35.154Z</time>
      </trkpt>
      <trkpt lat="48.86087" lon="2.24027">
        <ele>79.4</ele>
        <time>2015-03-23T20:42:37.092Z</time>
      </trkpt>
      <trkpt lat="48.86083" lon="2.24033">
        <ele>79.4</ele>
        <time>2015-03-23T20:42:38.096Z</time>
      </trkpt>
      <trkpt lat="48.8608" lon="2.24038">
        <ele>79.5</ele>
        <time>2015-03-23T20:42:39.103Z</time>
      </trkpt>
      <trkpt lat="48.86076" lon="2.24045">
        <ele>79.4</ele>
        <time>2015-03-23T20:42:40.166Z</time>
      </trkpt>
      <trkpt lat="48.8607" lon="2.24054">
        <ele>79.5</ele>
        <time>2015-03-23T20:42:42.075Z</time>
      </trkpt>
      <trkpt lat="48.86067" lon="2.24059">
        <ele>79.7</ele>
        <time>2015-03-23T20:42:43.144Z</time>
      </trkpt>
      <trkpt lat="48.86062" lon="2.24068">
        <ele>80.3</ele>
        <time>2015-03-23T20:42:45.557Z</time>
      </trkpt>
      <trkpt lat="48.86059" lon="2.24072">
        <ele>80.6</ele>
        <time>2015-03-23T20:42:46.156Z</time>
      </trkpt>
      <trkpt lat="48.86053" lon="2.24082">
        <ele>81</ele>
        <time>2015-03-23T20:42:48.047Z</time>
      </trkpt>
      <trkpt lat="48.86045" lon="2.24094">
        <ele>81.3</ele>
        <time>2015-03-23T20:42:49.196Z</time>
      </trkpt>
      <trkpt lat="48.86039" lon="2.24103">
        <ele>81.7</ele>
        <time>2015-03-23T20:42:51.107Z</time>
      </trkpt>
      <trkpt lat="48.86037" lon="2.24108">
        <ele>81.9</ele>
        <time>2015-03-23T20:42:52.104Z</time>
      </trkpt>
      <trkpt lat="48.86031" lon="2.24116">
        <ele>82.4</ele>
        <time>2015-03-23T20:42:54.186Z</time>
      </trkpt>
      <trkpt lat="48.86028" lon="2.24122">
        <ele>82.7</ele>
        <time>2015-03-23T20:42:55.186Z</time>
      </trkpt>
      <trkpt lat="48.86022" lon="2.2413">
        <ele>83.2</ele>
        <time>2015-03-23T20:42:58.090Z</time>
      </trkpt>
      <trkpt lat="48.86018" lon="2.24136">
        <ele>83.5</ele>
        <time>2015-03-23T20:42:59.089Z</time>
      </trkpt>
      <trkpt lat="48.8601" lon="2.2415">
        <ele>83.7</ele>
        <time>2015-03-23T20:43:00.074Z</time>
      </trkpt>
      <trkpt lat="48.86008" lon="2.24157">
        <ele>84.2</ele>
        <time>2015-03-23T20:43:01.098Z</time>
      </trkpt>
      <trkpt lat="48.86006" lon="2.24164">
        <ele>84.5</ele>
        <time>2015-03-23T20:43:02.120Z</time>
      </trkpt>
      <trkpt lat="48.86004" lon="2.24168">
        <ele>84.9</ele>
        <time>2015-03-23T20:43:03.049Z</time>
      </trkpt>
      <trkpt lat="48.86001" lon="2.24175">
        <ele>84.9</ele>
        <time>2015-03-23T20:43:04.049Z</time>
      </trkpt>
      <trkpt lat="48.85998" lon="2.24181">
        <ele>85</ele>
        <time>2015-03-23T20:43:05.890Z</time>
      </trkpt>
      <trkpt lat="48.85995" lon="2.24188">
        <ele>85.2</ele>
        <time>2015-03-23T20:43:06.066Z</time>
      </trkpt>
      <trkpt lat="48.85991" lon="2.24195">
        <ele>85.5</ele>
        <time>2015-03-23T20:43:07.095Z</time>
      </trkpt>
      <trkpt lat="48.85988" lon="2.24201">
        <ele>85.7</ele>
        <time>2015-03-23T20:43:08.110Z</time>
      </trkpt>
      <trkpt lat="48.85985" lon="2.24207">
        <ele>85.9</ele>
        <time>2015-03-23T20:43:09.058Z</time>
      </trkpt>
      <trkpt lat="48.8598" lon="2.24213">
        <ele>86.1</ele>
        <time>2015-03-23T20:43:10.062Z</time>
      </trkpt>
      <trkpt lat="48.85975" lon="2.2422">
        <ele>86.3</ele>
        <time>2015-03-23T20:43:11.131Z</time>
      </trkpt>
      <trkpt lat="48.8597" lon="2.24227">
        <ele>86.3</ele>
        <time>2015-03-23T20:43:12.143Z</time>
      </trkpt>
      <trkpt lat="48.85966" lon="2.24233">
        <ele>86.6</ele>
        <time>2015-03-23T20:43:13.162Z</time>
      </trkpt>
      <trkpt lat="48.85962" lon="2.2424">
        <ele>86.8</ele>
        <time>2015-03-23T20:43:14.047Z</time>
      </trkpt>
      <trkpt lat="48.85958" lon="2.24246">
        <ele>87.1</ele>
        <time>2015-03-23T20:43:15.060Z</time>
      </trkpt>
      <trkpt lat="48.85955" lon="2.24253">
        <ele>87.1</ele>
        <time>2015-03-23T20:43:16.094Z</time>
      </trkpt>
      <trkpt lat="48.85953" lon="2.24259">
        <ele>87.2</ele>
        <time>2015-03-23T20:43:17.133Z</time>
      </trkpt>
      <trkpt lat="48.8595" lon="2.24265">
        <ele>87.3</ele>
        <time>2015-03-23T20:43:18.058Z</time>
      </trkpt>
      <trkpt lat="48.85947" lon="2.24271">
        <ele>87.2</ele>
        <time>2015-03-23T20:43:19.084Z</time>
      </trkpt>
      <trkpt lat="48.85944" lon="2.24277">
        <ele>87.4</ele>
        <time>2015-03-23T20:43:20.047Z</time>
      </trkpt>
      <trkpt lat="48.85941" lon="2.24284">
        <ele>87.4</ele>
        <time>2015-03-23T20:43:21.061Z</time>
      </trkpt>
      <trkpt lat="48.85938" lon="2.2429">
        <ele>87.4</ele>
        <time>2015-03-23T20:43:22.073Z</time>
      </trkpt>
      <trkpt lat="48.85935" lon="2.24296">
        <ele>87.8</ele>
        <time>2015-03-23T20:43:23.107Z</time>
      </trkpt>
      <trkpt lat="48.85932" lon="2.24301">
        <ele>87.9</ele>
        <time>2015-03-23T20:43:24.026Z</time>
      </trkpt>
      <trkpt lat="48.85926" lon="2.24312">
        <ele>88.1</ele>
        <time>2015-03-23T20:43:26.093Z</time>
      </trkpt>
      <trkpt lat="48.85924" lon="2.24318">
        <ele>88.2</ele>
        <time>2015-03-23T20:43:27.138Z</time>
      </trkpt>
      <trkpt lat="48.85918" lon="2.24327">
        <ele>87.8</ele>
        <time>2015-03-23T20:43:29.117Z</time>
      </trkpt>
      <trkpt lat="48.85916" lon="2.24332">
        <ele>87.6</ele>
        <time>2015-03-23T20:43:30.112Z</time>
      </trkpt>
      <trkpt lat="48.85912" lon="2.24342">
        <ele>87.7</ele>
        <time>2015-03-23T20:43:32.119Z</time>
      </trkpt>
      <trkpt lat="48.85909" lon="2.24347">
        <ele>87.9</ele>
        <time>2015-03-23T20:43:33.123Z</time>
      </trkpt>
      <trkpt lat="48.85904" lon="2.24358">
        <ele>88.6</ele>
        <time>2015-03-23T20:43:35.040Z</time>
      </trkpt>
      <trkpt lat="48.85902" lon="2.24364">
        <ele>88.7</ele>
        <time>2015-03-23T20:43:36.054Z</time>
      </trkpt>
      <trkpt lat="48.85899" lon="2.2437">
        <ele>88.7</ele>
        <time>2015-03-23T20:43:37.098Z</time>
      </trkpt>
      <trkpt lat="48.85897" lon="2.24376">
        <ele>88.8</ele>
        <time>2015-03-23T20:43:38.108Z</time>
      </trkpt>
      <trkpt lat="48.85894" lon="2.24382">
        <ele>88.9</ele>
        <time>2015-03-23T20:43:39.128Z</time>
      </trkpt>
      <trkpt lat="48.85892" lon="2.24387">
        <ele>89.1</ele>
        <time>2015-03-23T20:43:40.056Z</time>
      </trkpt>
      <trkpt lat="48.85887" lon="2.24398">
        <ele>89.4</ele>
        <time>2015-03-23T20:43:42.046Z</time>
      </trkpt>
      <trkpt lat="48.85885" lon="2.24402">
        <ele>89.3</ele>
        <time>2015-03-23T20:43:43.100Z</time>
      </trkpt>
      <trkpt lat="48.85881" lon="2.2441">
        <ele>89.5</ele>
        <time>2015-03-23T20:43:45.060Z</time>
      </trkpt>
      <trkpt lat="48.85878" lon="2.24416">
        <ele>89.4</ele>
        <time>2015-03-23T20:43:46.058Z</time>
      </trkpt>
      <trkpt lat="48.85873" lon="2.24427">
        <ele>89</ele>
        <time>2015-03-23T20:43:48.088Z</time>
      </trkpt>
      <trkpt lat="48.85871" lon="2.24432">
        <ele>89.1</ele>
        <time>2015-03-23T20:43:49.103Z</time>
      </trkpt>
      <trkpt lat="48.85868" lon="2.24443">
        <ele>90</ele>
        <time>2015-03-23T20:43:51.058Z</time>
      </trkpt>
      <trkpt lat="48.85866" lon="2.24448">
        <ele>90</ele>
        <time>2015-03-23T20:43:52.058Z</time>
      </trkpt>
      <trkpt lat="48.85862" lon="2.24459">
        <ele>90.3</ele>
        <time>2015-03-23T20:43:54.086Z</time>
      </trkpt>
      <trkpt lat="48.85861" lon="2.24465">
        <ele>90.3</ele>
        <time>2015-03-23T20:43:55.102Z</time>
      </trkpt>
      <trkpt lat="48.85857" lon="2.24477">
        <ele>91</ele>
        <time>2015-03-23T20:43:57.050Z</time>
      </trkpt>
      <trkpt lat="48.85856" lon="2.24481">
        <ele>91.2</ele>
        <time>2015-03-23T20:43:58.075Z</time>
      </trkpt>
      <trkpt lat="48.85855" lon="2.24477">
        <ele>90.6</ele>
        <time>2015-03-23T20:47:09.043Z</time>
      </trkpt>
      <trkpt lat="48.85863" lon="2.24469">
        <ele>96.6</ele>
        <time>2015-03-23T20:47:10.047Z</time>
      </trkpt>
      <trkpt lat="48.85863" lon="2.2447">
        <ele>96.7</ele>
        <time>2015-03-23T20:47:11.092Z</time>
      </trkpt>
      <trkpt lat="48.85863" lon="2.24469">
        <ele>96.9</ele>
        <time>2015-03-23T20:47:12.043Z</time>
      </trkpt>
      <trkpt lat="48.85859" lon="2.24481">
        <ele>98</ele>
        <time>2015-03-23T20:48:04.077Z</time>
      </trkpt>
      <trkpt lat="48.85859" lon="2.24484">
        <ele>97.9</ele>
        <time>2015-03-23T20:48:05.020Z</time>
      </trkpt>
      <trkpt lat="48.85857" lon="2.24497">
        <ele>97.4</ele>
        <time>2015-03-23T20:48:09.121Z</time>
      </trkpt>
      <trkpt lat="48.85856" lon="2.24501">
        <ele>97.2</ele>
        <time>2015-03-23T20:48:10.017Z</time>
      </trkpt>
      <trkpt lat="48.85851" lon="2.24512">
        <ele>96.6</ele>
        <time>2015-03-23T20:48:13.098Z</time>
      </trkpt>
      <trkpt lat="48.8585" lon="2.24516">
        <ele>96.5</ele>
        <time>2015-03-23T20:48:14.030Z</time>
      </trkpt>
      <trkpt lat="48.85848" lon="2.24524">
        <ele>96.2</ele>
        <time>2015-03-23T20:48:16.065Z</time>
      </trkpt>
      <trkpt lat="48.85846" lon="2.24529">
        <ele>95.8</ele>
        <time>2015-03-23T20:48:17.076Z</time>
      </trkpt>
      <trkpt lat="48.85842" lon="2.2454">
        <ele>95.2</ele>
        <time>2015-03-23T20:48:19.122Z</time>
      </trkpt>
      <trkpt lat="48.8584" lon="2.24547">
        <ele>95</ele>
        <time>2015-03-23T20:48:20.072Z</time>
      </trkpt>
      <trkpt lat="48.85837" lon="2.24559">
        <ele>94.6</ele>
        <time>2015-03-23T20:48:22.044Z</time>
      </trkpt>
      <trkpt lat="48.85836" lon="2.24565">
        <ele>94.4</ele>
        <time>2015-03-23T20:48:23.058Z</time>
      </trkpt>
      <trkpt lat="48.85834" lon="2.24577">
        <ele>94.2</ele>
        <time>2015-03-23T20:48:25.135Z</time>
      </trkpt>
      <trkpt lat="48.85832" lon="2.24584">
        <ele>94.2</ele>
        <time>2015-03-23T20:48:26.035Z</time>
      </trkpt>
      <trkpt lat="48.85831" lon="2.24591">
        <ele>94.2</ele>
        <time>2015-03-23T20:48:27.060Z</time>
      </trkpt>
      <trkpt lat="48.85829" lon="2.24598">
        <ele>94.1</ele>
        <time>2015-03-23T20:48:28.071Z</time>
      </trkpt>
      <trkpt lat="48.85827" lon="2.24605">
        <ele>94</ele>
        <time>2015-03-23T20:48:29.111Z</time>
      </trkpt>
      <trkpt lat="48.85824" lon="2.24613">
        <ele>94.1</ele>
        <time>2015-03-23T20:48:30.121Z</time>
      </trkpt>
      <trkpt lat="48.85822" lon="2.24622">
        <ele>94</ele>
        <time>2015-03-23T20:48:31.118Z</time>
      </trkpt>
      <trkpt lat="48.85819" lon="2.24629">
        <ele>94</ele>
        <time>2015-03-23T20:48:32.126Z</time>
      </trkpt>
      <trkpt lat="48.85818" lon="2.24637">
        <ele>94.1</ele>
        <time>2015-03-23T20:48:33.129Z</time>
      </trkpt>
      <trkpt lat="48.85817" lon="2.24645">
        <ele>94.2</ele>
        <time>2015-03-23T20:48:34.165Z</time>
      </trkpt>
      <trkpt lat="48.85815" lon="2.24658">
        <ele>94.1</ele>
        <time>2015-03-23T20:48:36.070Z</time>
      </trkpt>
      <trkpt lat="48.85813" lon="2.24665">
        <ele>94</ele>
        <time>2015-03-23T20:48:37.147Z</time>
      </trkpt>
      <trkpt lat="48.85812" lon="2.24674">
        <ele>94</ele>
        <time>2015-03-23T20:48:38.133Z</time>
      </trkpt>
      <trkpt lat="48.85811" lon="2.24683">
        <ele>93.9</ele>
        <time>2015-03-23T20:48:39.036Z</time>
      </trkpt>
      <trkpt lat="48.85808" lon="2.24691">
        <ele>93.8</ele>
        <time>2015-03-23T20:48:40.067Z</time>
      </trkpt>
      <trkpt lat="48.85807" lon="2.24699">
        <ele>94.1</ele>
        <time>2015-03-23T20:48:41.093Z</time>
      </trkpt>
      <trkpt lat="48.85804" lon="2.24711">
        <ele>94.4</ele>
        <time>2015-03-23T20:48:43.104Z</time>
      </trkpt>
      <trkpt lat="48.85804" lon="2.24718">
        <ele>94.5</ele>
        <time>2015-03-23T20:48:44.118Z</time>
      </trkpt>
      <trkpt lat="48.85802" lon="2.24731">
        <ele>94.8</ele>
        <time>2015-03-23T20:48:46.052Z</time>
      </trkpt>
      <trkpt lat="48.85801" lon="2.24738">
        <ele>94.8</ele>
        <time>2015-03-23T20:48:47.061Z</time>
      </trkpt>
      <trkpt lat="48.85802" lon="2.24746">
        <ele>95.1</ele>
        <time>2015-03-23T20:48:48.077Z</time>
      </trkpt>
      <trkpt lat="48.85801" lon="2.24753">
        <ele>95.3</ele>
        <time>2015-03-23T20:48:49.087Z</time>
      </trkpt>
      <trkpt lat="48.85799" lon="2.24761">
        <ele>95.3</ele>
        <time>2015-03-23T20:48:50.093Z</time>
      </trkpt>
      <trkpt lat="48.85797" lon="2.24769">
        <ele>95.1</ele>
        <time>2015-03-23T20:48:51.099Z</time>
      </trkpt>
      <trkpt lat="48.85796" lon="2.24778">
        <ele>95.3</ele>
        <time>2015-03-23T20:48:52.020Z</time>
      </trkpt>
      <trkpt lat="48.85795" lon="2.24786">
        <ele>95.6</ele>
        <time>2015-03-23T20:48:53.015Z</time>
      </trkpt>
      <trkpt lat="48.85793" lon="2.24794">
        <ele>95.6</ele>
        <time>2015-03-23T20:48:54.052Z</time>
      </trkpt>
      <trkpt lat="48.85792" lon="2.24801">
        <ele>95.7</ele>
        <time>2015-03-23T20:48:55.086Z</time>
      </trkpt>
      <trkpt lat="48.85792" lon="2.24809">
        <ele>96.1</ele>
        <time>2015-03-23T20:48:56.097Z</time>
      </trkpt>
      <trkpt lat="48.85791" lon="2.24818">
        <ele>96.1</ele>
        <time>2015-03-23T20:48:57.091Z</time>
      </trkpt>
      <trkpt lat="48.85789" lon="2.24826">
        <ele>96.1</ele>
        <time>2015-03-23T20:48:58.227Z</time>
      </trkpt>
      <trkpt lat="48.85788" lon="2.24835">
        <ele>96.2</ele>
        <time>2015-03-23T20:48:59.102Z</time>
      </trkpt>
      <trkpt lat="48.85788" lon="2.24845">
        <ele>96.3</ele>
        <time>2015-03-23T20:49:00.007Z</time>
      </trkpt>
      <trkpt lat="48.85787" lon="2.24853">
        <ele>96.3</ele>
        <time>2015-03-23T20:49:01.124Z</time>
      </trkpt>
      <trkpt lat="48.85786" lon="2.24863">
        <ele>96.3</ele>
        <time>2015-03-23T20:49:02.006Z</time>
      </trkpt>
      <trkpt lat="48.85786" lon="2.24871">
        <ele>96.5</ele>
        <time>2015-03-23T20:49:03.041Z</time>
      </trkpt>
      <trkpt lat="48.85785" lon="2.24882">
        <ele>96.5</ele>
        <time>2015-03-23T20:49:04.388Z</time>
      </trkpt>
      <trkpt lat="48.85784" lon="2.24892">
        <ele>96.4</ele>
        <time>2015-03-23T20:49:05.065Z</time>
      </trkpt>
      <trkpt lat="48.85784" lon="2.24903">
        <ele>96</ele>
        <time>2015-03-23T20:49:06.069Z</time>
      </trkpt>
      <trkpt lat="48.85783" lon="2.24911">
        <ele>95.8</ele>
        <time>2015-03-23T20:49:07.080Z</time>
      </trkpt>
      <trkpt lat="48.85783" lon="2.24919">
        <ele>95.5</ele>
        <time>2015-03-23T20:49:08.097Z</time>
      </trkpt>
      <trkpt lat="48.85782" lon="2.24927">
        <ele>95.3</ele>
        <time>2015-03-23T20:49:09.104Z</time>
      </trkpt>
      <trkpt lat="48.85783" lon="2.24935">
        <ele>95.1</ele>
        <time>2015-03-23T20:49:10.428Z</time>
      </trkpt>
      <trkpt lat="48.85784" lon="2.24942">
        <ele>94.8</ele>
        <time>2015-03-23T20:49:11.018Z</time>
      </trkpt>
      <trkpt lat="48.85785" lon="2.24948">
        <ele>94.6</ele>
        <time>2015-03-23T20:49:12.044Z</time>
      </trkpt>
      <trkpt lat="48.85785" lon="2.24957">
        <ele>94.9</ele>
        <time>2015-03-23T20:49:13.080Z</time>
      </trkpt>
      <trkpt lat="48.85785" lon="2.24965">
        <ele>94.8</ele>
        <time>2015-03-23T20:49:14.017Z</time>
      </trkpt>
      <trkpt lat="48.85786" lon="2.24974">
        <ele>94.9</ele>
        <time>2015-03-23T20:49:15.035Z</time>
      </trkpt>
      <trkpt lat="48.85786" lon="2.24984">
        <ele>95</ele>
        <time>2015-03-23T20:49:16.050Z</time>
      </trkpt>
      <trkpt lat="48.85785" lon="2.24995">
        <ele>94.9</ele>
        <time>2015-03-23T20:49:17.022Z</time>
      </trkpt>
      <trkpt lat="48.85785" lon="2.25006">
        <ele>94.2</ele>
        <time>2015-03-23T20:49:18.091Z</time>
      </trkpt>
      <trkpt lat="48.85785" lon="2.25017">
        <ele>94</ele>
        <time>2015-03-23T20:49:19.108Z</time>
      </trkpt>
      <trkpt lat="48.85785" lon="2.25028">
        <ele>94.2</ele>
        <time>2015-03-23T20:49:20.044Z</time>
      </trkpt>
      <trkpt lat="48.85785" lon="2.25038">
        <ele>94.1</ele>
        <time>2015-03-23T20:49:21.062Z</time>
      </trkpt>
      <trkpt lat="48.85785" lon="2.25048">
        <ele>93.8</ele>
        <time>2015-03-23T20:49:22.074Z</time>
      </trkpt>
      <trkpt lat="48.85786" lon="2.25057">
        <ele>93.3</ele>
        <time>2015-03-23T20:49:23.077Z</time>
      </trkpt>
      <trkpt lat="48.85785" lon="2.25066">
        <ele>93.5</ele>
        <time>2015-03-23T20:49:24.098Z</time>
      </trkpt>
      <trkpt lat="48.85785" lon="2.25075">
        <ele>93.6</ele>
        <time>2015-03-23T20:49:25.105Z</time>
      </trkpt>
      <trkpt lat="48.85785" lon="2.25083">
        <ele>93.4</ele>
        <time>2015-03-23T20:49:26.039Z</time>
      </trkpt>
      <trkpt lat="48.85785" lon="2.25091">
        <ele>92.9</ele>
        <time>2015-03-23T20:49:27.042Z</time>
      </trkpt>
      <trkpt lat="48.85784" lon="2.251">
        <ele>92.8</ele>
        <time>2015-03-23T20:49:28.059Z</time>
      </trkpt>
      <trkpt lat="48.85784" lon="2.25109">
        <ele>93.2</ele>
        <time>2015-03-23T20:49:29.074Z</time>
      </trkpt>
      <trkpt lat="48.85786" lon="2.25116">
        <ele>93.5</ele>
        <time>2015-03-23T20:49:30.088Z</time>
      </trkpt>
      <trkpt lat="48.85786" lon="2.25126">
        <ele>93.6</ele>
        <time>2015-03-23T20:49:31.103Z</time>
      </trkpt>
      <trkpt lat="48.85787" lon="2.25136">
        <ele>93.1</ele>
        <time>2015-03-23T20:49:32.134Z</time>
      </trkpt>
      <trkpt lat="48.85787" lon="2.25148">
        <ele>93.2</ele>
        <time>2015-03-23T20:49:33.051Z</time>
      </trkpt>
      <trkpt lat="48.85787" lon="2.2516">
        <ele>93.4</ele>
        <time>2015-03-23T20:49:34.053Z</time>
      </trkpt>
      <trkpt lat="48.85788" lon="2.2517">
        <ele>93.7</ele>
        <time>2015-03-23T20:49:35.079Z</time>
      </trkpt>
      <trkpt lat="48.85787" lon="2.25181">
        <ele>93.7</ele>
        <time>2015-03-23T20:49:36.092Z</time>
      </trkpt>
      <trkpt lat="48.85787" lon="2.2519">
        <ele>93.4</ele>
        <time>2015-03-23T20:49:37.103Z</time>
      </trkpt>
      <trkpt lat="48.85787" lon="2.252">
        <ele>93.4</ele>
        <time>2015-03-23T20:49:38.124Z</time>
      </trkpt>
      <trkpt lat="48.85788" lon="2.25208">
        <ele>93.4</ele>
        <time>2015-03-23T20:49:39.126Z</time>
      </trkpt>
      <trkpt lat="48.85788" lon="2.25218">
        <ele>93.5</ele>
        <time>2015-03-23T20:49:40.046Z</time>
      </trkpt>
      <trkpt lat="48.85788" lon="2.25227">
        <ele>93.8</ele>
        <time>2015-03-23T20:49:41.047Z</time>
      </trkpt>
      <trkpt lat="48.85789" lon="2.25236">
        <ele>94.1</ele>
        <time>2015-03-23T20:49:42.808Z</time>
      </trkpt>
      <trkpt lat="48.85791" lon="2.25245">
        <ele>94.3</ele>
        <time>2015-03-23T20:49:43.056Z</time>
      </trkpt>
      <trkpt lat="48.8579" lon="2.2524">
        <ele>93.4</ele>
        <time>2015-03-23T20:49:45.062Z</time>
      </trkpt>
      <trkpt lat="48.85794" lon="2.25275">
        <ele>92.1</ele>
        <time>2015-03-23T20:49:46.165Z</time>
      </trkpt>
      <trkpt lat="48.85795" lon="2.25287">
        <ele>91.5</ele>
        <time>2015-03-23T20:49:47.052Z</time>
      </trkpt>
      <trkpt lat="48.85797" lon="2.25299">
        <ele>91.4</ele>
        <time>2015-03-23T20:49:48.033Z</time>
      </trkpt>
      <trkpt lat="48.85798" lon="2.25313">
        <ele>91.1</ele>
        <time>2015-03-23T20:49:49.984Z</time>
      </trkpt>
      <trkpt lat="48.85799" lon="2.25325">
        <ele>90.8</ele>
        <time>2015-03-23T20:49:50.080Z</time>
      </trkpt>
      <trkpt lat="48.858" lon="2.25335">
        <ele>91.3</ele>
        <time>2015-03-23T20:49:51.086Z</time>
      </trkpt>
      <trkpt lat="48.85801" lon="2.25345">
        <ele>91.8</ele>
        <time>2015-03-23T20:49:52.154Z</time>
      </trkpt>
      <trkpt lat="48.85801" lon="2.25355">
        <ele>92.2</ele>
        <time>2015-03-23T20:49:53.065Z</time>
      </trkpt>
      <trkpt lat="48.85801" lon="2.25365">
        <ele>92.7</ele>
        <time>2015-03-23T20:49:54.068Z</time>
      </trkpt>
      <trkpt lat="48.85802" lon="2.25375">
        <ele>93.3</ele>
        <time>2015-03-23T20:49:55.085Z</time>
      </trkpt>
      <trkpt lat="48.85802" lon="2.25386">
        <ele>93.6</ele>
        <time>2015-03-23T20:49:56.083Z</time>
      </trkpt>
      <trkpt lat="48.85803" lon="2.25397">
        <ele>93.9</ele>
        <time>2015-03-23T20:49:57.098Z</time>
      </trkpt>
      <trkpt lat="48.85804" lon="2.25409">
        <ele>94.3</ele>
        <time>2015-03-23T20:49:58.094Z</time>
      </trkpt>
      <trkpt lat="48.85806" lon="2.2542">
        <ele>94.9</ele>
        <time>2015-03-23T20:49:59.107Z</time>
      </trkpt>
      <trkpt lat="48.85809" lon="2.25432">
        <ele>95.3</ele>
        <time>2015-03-23T20:50:00.128Z</time>
      </trkpt>
      <trkpt lat="48.8581" lon="2.25442">
        <ele>95.1</ele>
        <time>2015-03-23T20:50:01.157Z</time>
      </trkpt>
      <trkpt lat="48.85812" lon="2.25453">
        <ele>95.2</ele>
        <time>2015-03-23T20:50:02.054Z</time>
      </trkpt>
      <trkpt lat="48.85814" lon="2.25462">
        <ele>95.4</ele>
        <time>2015-03-23T20:50:03.071Z</time>
      </trkpt>
      <trkpt lat="48.85816" lon="2.25471">
        <ele>95.6</ele>
        <time>2015-03-23T20:50:04.088Z</time>
      </trkpt>
      <trkpt lat="48.85817" lon="2.25481">
        <ele>95.9</ele>
        <time>2015-03-23T20:50:05.097Z</time>
      </trkpt>
      <trkpt lat="48.85818" lon="2.2549">
        <ele>96</ele>
        <time>2015-03-23T20:50:06.106Z</time>
      </trkpt>
      <trkpt lat="48.85818" lon="2.25498">
        <ele>95.9</ele>
        <time>2015-03-23T20:50:07.114Z</time>
      </trkpt>
      <trkpt lat="48.85819" lon="2.25506">
        <ele>96.1</ele>
        <time>2015-03-23T20:50:08.123Z</time>
      </trkpt>
      <trkpt lat="48.85819" lon="2.25513">
        <ele>96.1</ele>
        <time>2015-03-23T20:50:09.041Z</time>
      </trkpt>
      <trkpt lat="48.85821" lon="2.2552">
        <ele>96.6</ele>
        <time>2015-03-23T20:50:10.035Z</time>
      </trkpt>
      <trkpt lat="48.85822" lon="2.25528">
        <ele>96.6</ele>
        <time>2015-03-23T20:50:11.041Z</time>
      </trkpt>
      <trkpt lat="48.85822" lon="2.25535">
        <ele>96.6</ele>
        <time>2015-03-23T20:50:12.051Z</time>
      </trkpt>
      <trkpt lat="48.85824" lon="2.25542">
        <ele>96.5</ele>
        <time>2015-03-23T20:50:13.140Z</time>
      </trkpt>
      <trkpt lat="48.85826" lon="2.2555">
        <ele>96.6</ele>
        <time>2015-03-23T20:50:14.053Z</time>
      </trkpt>
      <trkpt lat="48.85828" lon="2.25557">
        <ele>96.2</ele>
        <time>2015-03-23T20:50:15.116Z</time>
      </trkpt>
      <trkpt lat="48.85829" lon="2.25563">
        <ele>95.8</ele>
        <time>2015-03-23T20:50:16.120Z</time>
      </trkpt>
      <trkpt lat="48.8583" lon="2.25575">
        <ele>95.6</ele>
        <time>2015-03-23T20:50:18.050Z</time>
      </trkpt>
      <trkpt lat="48.85828" lon="2.25584">
        <ele>97.2</ele>
        <time>2015-03-23T20:50:19.095Z</time>
      </trkpt>
      <trkpt lat="48.85828" lon="2.25597">
        <ele>96.7</ele>
        <time>2015-03-23T20:50:21.035Z</time>
      </trkpt>
      <trkpt lat="48.85828" lon="2.25603">
        <ele>96.6</ele>
        <time>2015-03-23T20:50:22.050Z</time>
      </trkpt>
      <trkpt lat="48.8583" lon="2.25614">
        <ele>96.4</ele>
        <time>2015-03-23T20:50:24.068Z</time>
      </trkpt>
      <trkpt lat="48.85832" lon="2.25619">
        <ele>96.4</ele>
        <time>2015-03-23T20:50:25.094Z</time>
      </trkpt>
      <trkpt lat="48.85833" lon="2.25627">
        <ele>96.2</ele>
        <time>2015-03-23T20:50:26.039Z</time>
      </trkpt>
      <trkpt lat="48.85834" lon="2.25634">
        <ele>95.4</ele>
        <time>2015-03-23T20:50:27.036Z</time>
      </trkpt>
      <trkpt lat="48.85836" lon="2.25647">
        <ele>95.1</ele>
        <time>2015-03-23T20:50:29.034Z</time>
      </trkpt>
      <trkpt lat="48.85836" lon="2.25653">
        <ele>95.2</ele>
        <time>2015-03-23T20:50:30.049Z</time>
      </trkpt>
      <trkpt lat="48.85837" lon="2.25661">
        <ele>95</ele>
        <time>2015-03-23T20:50:31.077Z</time>
      </trkpt>
      <trkpt lat="48.85837" lon="2.25668">
        <ele>94.6</ele>
        <time>2015-03-23T20:50:32.080Z</time>
      </trkpt>
      <trkpt lat="48.85838" lon="2.25676">
        <ele>94.3</ele>
        <time>2015-03-23T20:50:33.077Z</time>
      </trkpt>
      <trkpt lat="48.85838" lon="2.25684">
        <ele>94.3</ele>
        <time>2015-03-23T20:50:34.113Z</time>
      </trkpt>
      <trkpt lat="48.85839" lon="2.25691">
        <ele>94.5</ele>
        <time>2015-03-23T20:50:35.121Z</time>
      </trkpt>
      <trkpt lat="48.8584" lon="2.25699">
        <ele>94.7</ele>
        <time>2015-03-23T20:50:36.127Z</time>
      </trkpt>
      <trkpt lat="48.8584" lon="2.25707">
        <ele>94.7</ele>
        <time>2015-03-23T20:50:37.143Z</time>
      </trkpt>
      <trkpt lat="48.85841" lon="2.25714">
        <ele>94.9</ele>
        <time>2015-03-23T20:50:38.013Z</time>
      </trkpt>
      <trkpt lat="48.85843" lon="2.25723">
        <ele>94.9</ele>
        <time>2015-03-23T20:50:39.050Z</time>
      </trkpt>
      <trkpt lat="48.85844" lon="2.2573">
        <ele>95.1</ele>
        <time>2015-03-23T20:50:40.064Z</time>
      </trkpt>
      <trkpt lat="48.85844" lon="2.25743">
        <ele>94.7</ele>
        <time>2015-03-23T20:50:42.034Z</time>
      </trkpt>
      <trkpt lat="48.85844" lon="2.2575">
        <ele>94.7</ele>
        <time>2015-03-23T20:50:43.092Z</time>
      </trkpt>
      <trkpt lat="48.85845" lon="2.25757">
        <ele>94.5</ele>
        <time>2015-03-23T20:50:44.104Z</time>
      </trkpt>
      <trkpt lat="48.85845" lon="2.25764">
        <ele>94.5</ele>
        <time>2015-03-23T20:50:45.116Z</time>
      </trkpt>
      <trkpt lat="48.85846" lon="2.25776">
        <ele>94.5</ele>
        <time>2015-03-23T20:50:47.052Z</time>
      </trkpt>
      <trkpt lat="48.85846" lon="2.25783">
        <ele>94.7</ele>
        <time>2015-03-23T20:50:48.064Z</time>
      </trkpt>
      <trkpt lat="48.85845" lon="2.25795">
        <ele>94.2</ele>
        <time>2015-03-23T20:50:50.136Z</time>
      </trkpt>
      <trkpt lat="48.85844" lon="2.25802">
        <ele>94.5</ele>
        <time>2015-03-23T20:50:51.043Z</time>
      </trkpt>
      <trkpt lat="48.85843" lon="2.25809">
        <ele>94.5</ele>
        <time>2015-03-23T20:50:52.058Z</time>
      </trkpt>
      <trkpt lat="48.85841" lon="2.25817">
        <ele>94.5</ele>
        <time>2015-03-23T20:50:53.068Z</time>
      </trkpt>
      <trkpt lat="48.85839" lon="2.25825">
        <ele>94.3</ele>
        <time>2015-03-23T20:50:54.074Z</time>
      </trkpt>
      <trkpt lat="48.85838" lon="2.25833">
        <ele>94.9</ele>
        <time>2015-03-23T20:50:55.105Z</time>
      </trkpt>
      <trkpt lat="48.85837" lon="2.2584">
        <ele>95.3</ele>
        <time>2015-03-23T20:50:56.134Z</time>
      </trkpt>
      <trkpt lat="48.85837" lon="2.25847">
        <ele>95.4</ele>
        <time>2015-03-23T20:50:57.036Z</time>
      </trkpt>
      <trkpt lat="48.85836" lon="2.25854">
        <ele>95.3</ele>
        <time>2015-03-23T20:50:56.513Z</time>
      </trkpt>
      <trkpt lat="48.85836" lon="2.2586">
        <ele>95</ele>
        <time>2015-03-23T20:50:59.143Z</time>
      </trkpt>
      <trkpt lat="48.85836" lon="2.25867">
        <ele>94.9</ele>
        <time>2015-03-23T20:51:00.063Z</time>
      </trkpt>
      <trkpt lat="48.85835" lon="2.25874">
        <ele>94.8</ele>
        <time>2015-03-23T20:51:01.109Z</time>
      </trkpt>
      <trkpt lat="48.85836" lon="2.25887">
        <ele>94.8</ele>
        <time>2015-03-23T20:51:03.045Z</time>
      </trkpt>
      <trkpt lat="48.85836" lon="2.25894">
        <ele>94.7</ele>
        <time>2015-03-23T20:51:04.070Z</time>
      </trkpt>
      <trkpt lat="48.85837" lon="2.25907">
        <ele>94.6</ele>
        <time>2015-03-23T20:51:06.081Z</time>
      </trkpt>
      <trkpt lat="48.85837" lon="2.25913">
        <ele>94.3</ele>
        <time>2015-03-23T20:51:07.158Z</time>
      </trkpt>
      <trkpt lat="48.85838" lon="2.25925">
        <ele>94.1</ele>
        <time>2015-03-23T20:51:09.051Z</time>
      </trkpt>
      <trkpt lat="48.85839" lon="2.25932">
        <ele>94.1</ele>
        <time>2015-03-23T20:51:10.138Z</time>
      </trkpt>
      <trkpt lat="48.85839" lon="2.25944">
        <ele>93.5</ele>
        <time>2015-03-23T20:51:12.050Z</time>
      </trkpt>
      <trkpt lat="48.85839" lon="2.25948">
        <ele>93.1</ele>
        <time>2015-03-23T20:51:13.168Z</time>
      </trkpt>
      <trkpt lat="48.8584" lon="2.25961">
        <ele>93.6</ele>
        <time>2015-03-23T20:51:16.073Z</time>
      </trkpt>
      <trkpt lat="48.8584" lon="2.25965">
        <ele>93.5</ele>
        <time>2015-03-23T20:51:17.101Z</time>
      </trkpt>
      <trkpt lat="48.8584" lon="2.25976">
        <ele>93.1</ele>
        <time>2015-03-23T20:51:19.131Z</time>
      </trkpt>
      <trkpt lat="48.85841" lon="2.25982">
        <ele>93.1</ele>
        <time>2015-03-23T20:51:20.137Z</time>
      </trkpt>
      <trkpt lat="48.85841" lon="2.25993">
        <ele>92.9</ele>
        <time>2015-03-23T20:51:22.091Z</time>
      </trkpt>
      <trkpt lat="48.85841" lon="2.25999">
        <ele>92.5</ele>
        <time>2015-03-23T20:51:23.110Z</time>
      </trkpt>
      <trkpt lat="48.8584" lon="2.26009">
        <ele>92.2</ele>
        <time>2015-03-23T20:51:25.129Z</time>
      </trkpt>
      <trkpt lat="48.85839" lon="2.26016">
        <ele>92</ele>
        <time>2015-03-23T20:51:26.058Z</time>
      </trkpt>
      <trkpt lat="48.85837" lon="2.26028">
        <ele>90.9</ele>
        <time>2015-03-23T20:51:28.062Z</time>
      </trkpt>
      <trkpt lat="48.85837" lon="2.26034">
        <ele>90.5</ele>
        <time>2015-03-23T20:51:29.062Z</time>
      </trkpt>
      <trkpt lat="48.85836" lon="2.26041">
        <ele>90.3</ele>
        <time>2015-03-23T20:51:30.081Z</time>
      </trkpt>
      <trkpt lat="48.85835" lon="2.26048">
        <ele>90.4</ele>
        <time>2015-03-23T20:51:31.096Z</time>
      </trkpt>
      <trkpt lat="48.85835" lon="2.26056">
        <ele>90.2</ele>
        <time>2015-03-23T20:51:32.127Z</time>
      </trkpt>
      <trkpt lat="48.85834" lon="2.26064">
        <ele>90.1</ele>
        <time>2015-03-23T20:51:33.044Z</time>
      </trkpt>
      <trkpt lat="48.85833" lon="2.26072">
        <ele>90.3</ele>
        <time>2015-03-23T20:51:34.058Z</time>
      </trkpt>
      <trkpt lat="48.85832" lon="2.26081">
        <ele>90.5</ele>
        <time>2015-03-23T20:51:35.059Z</time>
      </trkpt>
      <trkpt lat="48.8583" lon="2.26091">
        <ele>90.7</ele>
        <time>2015-03-23T20:51:36.082Z</time>
      </trkpt>
      <trkpt lat="48.85829" lon="2.261">
        <ele>90.7</ele>
        <time>2015-03-23T20:51:37.093Z</time>
      </trkpt>
      <trkpt lat="48.85828" lon="2.26111">
        <ele>91.1</ele>
        <time>2015-03-23T20:51:38.034Z</time>
      </trkpt>
      <trkpt lat="48.85826" lon="2.26121">
        <ele>91.7</ele>
        <time>2015-03-23T20:51:39.045Z</time>
      </trkpt>
      <trkpt lat="48.85824" lon="2.26131">
        <ele>92.2</ele>
        <time>2015-03-23T20:51:40.064Z</time>
      </trkpt>
      <trkpt lat="48.85822" lon="2.26141">
        <ele>92.5</ele>
        <time>2015-03-23T20:51:41.083Z</time>
      </trkpt>
      <trkpt lat="48.8582" lon="2.2615">
        <ele>92.7</ele>
        <time>2015-03-23T20:51:42.119Z</time>
      </trkpt>
      <trkpt lat="48.85818" lon="2.2616">
        <ele>92.9</ele>
        <time>2015-03-23T20:51:43.127Z</time>
      </trkpt>
      <trkpt lat="48.85816" lon="2.26171">
        <ele>93.3</ele>
        <time>2015-03-23T20:51:44.053Z</time>
      </trkpt>
      <trkpt lat="48.85813" lon="2.2618">
        <ele>93.6</ele>
        <time>2015-03-23T20:51:45.050Z</time>
      </trkpt>
      <trkpt lat="48.85811" lon="2.26187">
        <ele>93.9</ele>
        <time>2015-03-23T20:51:46.047Z</time>
      </trkpt>
      <trkpt lat="48.85809" lon="2.26196">
        <ele>94.1</ele>
        <time>2015-03-23T20:51:47.039Z</time>
      </trkpt>
      <trkpt lat="48.85808" lon="2.26204">
        <ele>94.5</ele>
        <time>2015-03-23T20:51:48.048Z</time>
      </trkpt>
      <trkpt lat="48.85807" lon="2.26212">
        <ele>94.9</ele>
        <time>2015-03-23T20:51:49.090Z</time>
      </trkpt>
      <trkpt lat="48.85805" lon="2.2622">
        <ele>95.2</ele>
        <time>2015-03-23T20:51:50.038Z</time>
      </trkpt>
      <trkpt lat="48.85803" lon="2.26227">
        <ele>95.3</ele>
        <time>2015-03-23T20:51:51.039Z</time>
      </trkpt>
      <trkpt lat="48.85801" lon="2.26234">
        <ele>95.6</ele>
        <time>2015-03-23T20:51:52.066Z</time>
      </trkpt>
      <trkpt lat="48.858" lon="2.2624">
        <ele>95.7</ele>
        <time>2015-03-23T20:51:53.167Z</time>
      </trkpt>
      <trkpt lat="48.85798" lon="2.26247">
        <ele>95.5</ele>
        <time>2015-03-23T20:51:54.036Z</time>
      </trkpt>
      <trkpt lat="48.85797" lon="2.26254">
        <ele>95.5</ele>
        <time>2015-03-23T20:51:55.077Z</time>
      </trkpt>
      <trkpt lat="48.85793" lon="2.26263">
        <ele>95.8</ele>
        <time>2015-03-23T20:51:57.031Z</time>
      </trkpt>
      <trkpt lat="48.85791" lon="2.26266">
        <ele>96.2</ele>
        <time>2015-03-23T20:51:58.050Z</time>
      </trkpt>
      <trkpt lat="48.85789" lon="2.2626">
        <ele>95.6</ele>
        <time>2015-03-23T20:53:12.098Z</time>
      </trkpt>
      <trkpt lat="48.85788" lon="2.26244">
        <ele>96.3</ele>
        <time>2015-03-23T20:53:13.118Z</time>
      </trkpt>
      <trkpt lat="48.85786" lon="2.26255">
        <ele>96.8</ele>
        <time>2015-03-23T20:53:15.049Z</time>
      </trkpt>
      <trkpt lat="48.85785" lon="2.26263">
        <ele>96.6</ele>
        <time>2015-03-23T20:53:16.069Z</time>
      </trkpt>
      <trkpt lat="48.85784" lon="2.26269">
        <ele>96.4</ele>
        <time>2015-03-23T20:53:17.044Z</time>
      </trkpt>
      <trkpt lat="48.85782" lon="2.26275">
        <ele>96.1</ele>
        <time>2015-03-23T20:53:18.041Z</time>
      </trkpt>
      <trkpt lat="48.8578" lon="2.26289">
        <ele>96.1</ele>
        <time>2015-03-23T20:53:20.070Z</time>
      </trkpt>
      <trkpt lat="48.85779" lon="2.26296">
        <ele>96.2</ele>
        <time>2015-03-23T20:53:21.084Z</time>
      </trkpt>
      <trkpt lat="48.85779" lon="2.26303">
        <ele>96.3</ele>
        <time>2015-03-23T20:53:22.095Z</time>
      </trkpt>
      <trkpt lat="48.85778" lon="2.26309">
        <ele>96.7</ele>
        <time>2015-03-23T20:53:23.107Z</time>
      </trkpt>
      <trkpt lat="48.85777" lon="2.26316">
        <ele>97</ele>
        <time>2015-03-23T20:53:24.035Z</time>
      </trkpt>
      <trkpt lat="48.85776" lon="2.26322">
        <ele>97.3</ele>
        <time>2015-03-23T20:53:25.076Z</time>
      </trkpt>
      <trkpt lat="48.85773" lon="2.26334">
        <ele>97.8</ele>
        <time>2015-03-23T20:53:27.096Z</time>
      </trkpt>
      <trkpt lat="48.85771" lon="2.2634">
        <ele>98</ele>
        <time>2015-03-23T20:53:28.168Z</time>
      </trkpt>
      <trkpt lat="48.85768" lon="2.26352">
        <ele>98.6</ele>
        <time>2015-03-23T20:53:31.091Z</time>
      </trkpt>
      <trkpt lat="48.85768" lon="2.26354">
        <ele>98.9</ele>
        <time>2015-03-23T20:53:32.105Z</time>
      </trkpt>
      <trkpt lat="48.85773" lon="2.26348">
        <ele>98.5</ele>
        <time>2015-03-23T20:53:41.031Z</time>
      </trkpt>
      <trkpt lat="48.85775" lon="2.26345">
        <ele>98.3</ele>
        <time>2015-03-23T20:53:42.097Z</time>
      </trkpt>
      <trkpt lat="48.85778" lon="2.26336">
        <ele>98.2</ele>
        <time>2015-03-23T20:53:44.029Z</time>
      </trkpt>
      <trkpt lat="48.8578" lon="2.26331">
        <ele>98.1</ele>
        <time>2015-03-23T20:53:45.041Z</time>
      </trkpt>
      <trkpt lat="48.85783" lon="2.26321">
        <ele>98.1</ele>
        <time>2015-03-23T20:53:48.098Z</time>
      </trkpt>
      <trkpt lat="48.85784" lon="2.26316">
        <ele>98.2</ele>
        <time>2015-03-23T20:53:49.119Z</time>
      </trkpt>
      <trkpt lat="48.85787" lon="2.26306">
        <ele>98.4</ele>
        <time>2015-03-23T20:53:52.037Z</time>
      </trkpt>
      <trkpt lat="48.8579" lon="2.26305">
        <ele>98.6</ele>
        <time>2015-03-23T20:53:53.088Z</time>
      </trkpt>
      <trkpt lat="48.85796" lon="2.26311">
        <ele>98.9</ele>
        <time>2015-03-23T20:53:55.075Z</time>
      </trkpt>
      <trkpt lat="48.85798" lon="2.26315">
        <ele>99.1</ele>
        <time>2015-03-23T20:53:56.114Z</time>
      </trkpt>
      <trkpt lat="48.85801" lon="2.26322">
        <ele>99.1</ele>
        <time>2015-03-23T20:53:58.021Z</time>
      </trkpt>
      <trkpt lat="48.85804" lon="2.26324">
        <ele>99</ele>
        <time>2015-03-23T20:53:59.038Z</time>
      </trkpt>
      <trkpt lat="48.85811" lon="2.26329">
        <ele>99</ele>
        <time>2015-03-23T20:54:01.061Z</time>
      </trkpt>
      <trkpt lat="48.85816" lon="2.26331">
        <ele>99.1</ele>
        <time>2015-03-23T20:54:02.058Z</time>
      </trkpt>
      <trkpt lat="48.8582" lon="2.26332">
        <ele>99</ele>
        <time>2015-03-23T20:54:03.079Z</time>
      </trkpt>
      <trkpt lat="48.85824" lon="2.26334">
        <ele>99.2</ele>
        <time>2015-03-23T20:54:04.081Z</time>
      </trkpt>
      <trkpt lat="48.8583" lon="2.26336">
        <ele>99.6</ele>
        <time>2015-03-23T20:54:05.098Z</time>
      </trkpt>
      <trkpt lat="48.85834" lon="2.26338">
        <ele>100</ele>
        <time>2015-03-23T20:54:06.116Z</time>
      </trkpt>
      <trkpt lat="48.85837" lon="2.2634">
        <ele>100.2</ele>
        <time>2015-03-23T20:54:07.129Z</time>
      </trkpt>
      <trkpt lat="48.85817" lon="2.26267">
        <ele>100.7</ele>
        <time>2015-03-23T20:54:08.031Z</time>
      </trkpt>
      <trkpt lat="48.85829" lon="2.26302">
        <ele>100.8</ele>
        <time>2015-03-23T20:54:09.056Z</time>
      </trkpt>
      <trkpt lat="48.85836" lon="2.26316">
        <ele>100.7</ele>
        <time>2015-03-23T20:54:10.046Z</time>
      </trkpt>
      <trkpt lat="48.85836" lon="2.26316">
        <ele>100.7</ele>
        <time>2015-03-23T20:54:10.614Z</time>
      </trkpt>
      <trkpt lat="48.85844" lon="2.26331">
        <ele>100.6</ele>
        <time>2015-03-23T20:54:11.060Z</time>
      </trkpt>
      <trkpt lat="48.8585" lon="2.2634">
        <ele>100.8</ele>
        <time>2015-03-23T20:54:12.067Z</time>
      </trkpt>
      <trkpt lat="48.85855" lon="2.26347">
        <ele>101</ele>
        <time>2015-03-23T20:54:13.093Z</time>
      </trkpt>
      <trkpt lat="48.85862" lon="2.26354">
        <ele>101.6</ele>
        <time>2015-03-23T20:54:15.626Z</time>
      </trkpt>
      <trkpt lat="48.85867" lon="2.26357">
        <ele>101.9</ele>
        <time>2015-03-23T20:54:16.031Z</time>
      </trkpt>
      <trkpt lat="48.85874" lon="2.26362">
        <ele>102.4</ele>
        <time>2015-03-23T20:54:18.061Z</time>
      </trkpt>
      <trkpt lat="48.85878" lon="2.26365">
        <ele>102.5</ele>
        <time>2015-03-23T20:54:19.080Z</time>
      </trkpt>
      <trkpt lat="48.85886" lon="2.2637">
        <ele>102</ele>
        <time>2015-03-23T20:54:21.096Z</time>
      </trkpt>
      <trkpt lat="48.8589" lon="2.26373">
        <ele>102.2</ele>
        <time>2015-03-23T20:54:22.125Z</time>
      </trkpt>
      <trkpt lat="48.85894" lon="2.26377">
        <ele>102.6</ele>
        <time>2015-03-23T20:54:23.027Z</time>
      </trkpt>
      <trkpt lat="48.85898" lon="2.26379">
        <ele>102.7</ele>
        <time>2015-03-23T20:54:24.029Z</time>
      </trkpt>
      <trkpt lat="48.85903" lon="2.26383">
        <ele>102.5</ele>
        <time>2015-03-23T20:54:25.070Z</time>
      </trkpt>
      <trkpt lat="48.85907" lon="2.26385">
        <ele>102.6</ele>
        <time>2015-03-23T20:54:26.071Z</time>
      </trkpt>
      <trkpt lat="48.85911" lon="2.26388">
        <ele>102.8</ele>
        <time>2015-03-23T20:54:25.780Z</time>
      </trkpt>
      <trkpt lat="48.85916" lon="2.26392">
        <ele>103</ele>
        <time>2015-03-23T20:54:28.042Z</time>
      </trkpt>
      <trkpt lat="48.85924" lon="2.26398">
        <ele>103.2</ele>
        <time>2015-03-23T20:54:30.057Z</time>
      </trkpt>
      <trkpt lat="48.85928" lon="2.26403">
        <ele>103.1</ele>
        <time>2015-03-23T20:54:31.101Z</time>
      </trkpt>
      <trkpt lat="48.85931" lon="2.26407">
        <ele>103.1</ele>
        <time>2015-03-23T20:54:32.090Z</time>
      </trkpt>
      <trkpt lat="48.85936" lon="2.26411">
        <ele>102</ele>
        <time>2015-03-23T20:54:33.097Z</time>
      </trkpt>
      <trkpt lat="48.85942" lon="2.26414">
        <ele>102.3</ele>
        <time>2015-03-23T20:54:34.105Z</time>
      </trkpt>
      <trkpt lat="48.85947" lon="2.26416">
        <ele>101.9</ele>
        <time>2015-03-23T20:54:35.004Z</time>
      </trkpt>
      <trkpt lat="48.85954" lon="2.26421">
        <ele>102.2</ele>
        <time>2015-03-23T20:54:37.068Z</time>
      </trkpt>
      <trkpt lat="48.85958" lon="2.26424">
        <ele>102.4</ele>
        <time>2015-03-23T20:54:38.062Z</time>
      </trkpt>
      <trkpt lat="48.85962" lon="2.26426">
        <ele>102.6</ele>
        <time>2015-03-23T20:54:39.095Z</time>
      </trkpt>
      <trkpt lat="48.85967" lon="2.26428">
        <ele>102.6</ele>
        <time>2015-03-23T20:54:40.136Z</time>
      </trkpt>
      <trkpt lat="48.85975" lon="2.26431">
        <ele>102.9</ele>
        <time>2015-03-23T20:54:42.033Z</time>
      </trkpt>
      <trkpt lat="48.8598" lon="2.26433">
        <ele>103.3</ele>
        <time>2015-03-23T20:54:43.064Z</time>
      </trkpt>
      <trkpt lat="48.85985" lon="2.26436">
        <ele>103.4</ele>
        <time>2015-03-23T20:54:44.057Z</time>
      </trkpt>
      <trkpt lat="48.85997" lon="2.26442">
        <ele>103.3</ele>
        <time>2015-03-23T20:54:45.118Z</time>
      </trkpt>
      <trkpt lat="48.86005" lon="2.26445">
        <ele>103.3</ele>
        <time>2015-03-23T20:54:47.046Z</time>
      </trkpt>
      <trkpt lat="48.86009" lon="2.26448">
        <ele>103.2</ele>
        <time>2015-03-23T20:54:48.087Z</time>
      </trkpt>
      <trkpt lat="48.86016" lon="2.26455">
        <ele>103.3</ele>
        <time>2015-03-23T20:54:50.360Z</time>
      </trkpt>
      <trkpt lat="48.86021" lon="2.26458">
        <ele>103.3</ele>
        <time>2015-03-23T20:54:51.067Z</time>
      </trkpt>
      <trkpt lat="48.86025" lon="2.26461">
        <ele>103.4</ele>
        <time>2015-03-23T20:54:52.028Z</time>
      </trkpt>
      <trkpt lat="48.8603" lon="2.26464">
        <ele>103.6</ele>
        <time>2015-03-23T20:54:53.026Z</time>
      </trkpt>
      <trkpt lat="48.86035" lon="2.26467">
        <ele>103.5</ele>
        <time>2015-03-23T20:54:54.033Z</time>
      </trkpt>
      <trkpt lat="48.86041" lon="2.26471">
        <ele>102.4</ele>
        <time>2015-03-23T20:54:55.071Z</time>
      </trkpt>
      <trkpt lat="48.86049" lon="2.26476">
        <ele>103.1</ele>
        <time>2015-03-23T20:54:57.020Z</time>
      </trkpt>
      <trkpt lat="48.86052" lon="2.2648">
        <ele>103.3</ele>
        <time>2015-03-23T20:54:58.034Z</time>
      </trkpt>
      <trkpt lat="48.8606" lon="2.26485">
        <ele>103.8</ele>
        <time>2015-03-23T20:55:00.036Z</time>
      </trkpt>
      <trkpt lat="48.86064" lon="2.26488">
        <ele>103.9</ele>
        <time>2015-03-23T20:55:01.086Z</time>
      </trkpt>
      <trkpt lat="48.86068" lon="2.26491">
        <ele>104.1</ele>
        <time>2015-03-23T20:55:02.095Z</time>
      </trkpt>
      <trkpt lat="48.86072" lon="2.26495">
        <ele>104.3</ele>
        <time>2015-03-23T20:55:03.031Z</time>
      </trkpt>
      <trkpt lat="48.86079" lon="2.265">
        <ele>105.1</ele>
        <time>2015-03-23T20:55:05.068Z</time>
      </trkpt>
      <trkpt lat="48.86082" lon="2.26501">
        <ele>105.3</ele>
        <time>2015-03-23T20:55:06.154Z</time>
      </trkpt>
      <trkpt lat="48.86059" lon="2.26484">
        <ele>105.7</ele>
        <time>2015-03-23T20:55:07.102Z</time>
      </trkpt>
      <trkpt lat="48.86071" lon="2.26492">
        <ele>105.9</ele>
        <time>2015-03-23T20:55:08.108Z</time>
      </trkpt>
      <trkpt lat="48.86081" lon="2.26498">
        <ele>106.4</ele>
        <time>2015-03-23T20:55:09.112Z</time>
      </trkpt>
      <trkpt lat="48.8609" lon="2.26503">
        <ele>106.8</ele>
        <time>2015-03-23T20:55:09.996Z</time>
      </trkpt>
      <trkpt lat="48.86097" lon="2.26506">
        <ele>107.1</ele>
        <time>2015-03-23T20:55:11.373Z</time>
      </trkpt>
      <trkpt lat="48.86103" lon="2.26509">
        <ele>107</ele>
        <time>2015-03-23T20:55:12.087Z</time>
      </trkpt>
      <trkpt lat="48.86109" lon="2.26512">
        <ele>107</ele>
        <time>2015-03-23T20:55:13.129Z</time>
      </trkpt>
      <trkpt lat="48.86114" lon="2.26514">
        <ele>106.9</ele>
        <time>2015-03-23T20:55:14.004Z</time>
      </trkpt>
      <trkpt lat="48.86119" lon="2.26516">
        <ele>106.7</ele>
        <time>2015-03-23T20:55:15.061Z</time>
      </trkpt>
      <trkpt lat="48.86124" lon="2.26518">
        <ele>106.5</ele>
        <time>2015-03-23T20:55:16.082Z</time>
      </trkpt>
      <trkpt lat="48.86132" lon="2.2652">
        <ele>106.2</ele>
        <time>2015-03-23T20:55:18.030Z</time>
      </trkpt>
      <trkpt lat="48.86138" lon="2.26521">
        <ele>106.1</ele>
        <time>2015-03-23T20:55:19.067Z</time>
      </trkpt>
      <trkpt lat="48.86142" lon="2.26522">
        <ele>105.6</ele>
        <time>2015-03-23T20:55:20.081Z</time>
      </trkpt>
      <trkpt lat="48.86147" lon="2.26522">
        <ele>105.5</ele>
        <time>2015-03-23T20:55:21.107Z</time>
      </trkpt>
      <trkpt lat="48.86152" lon="2.26522">
        <ele>105.4</ele>
        <time>2015-03-23T20:55:21.998Z</time>
      </trkpt>
      <trkpt lat="48.86157" lon="2.26522">
        <ele>104.7</ele>
        <time>2015-03-23T20:55:23.034Z</time>
      </trkpt>
      <trkpt lat="48.86163" lon="2.26521">
        <ele>103.6</ele>
        <time>2015-03-23T20:55:24.042Z</time>
      </trkpt>
      <trkpt lat="48.86169" lon="2.2652">
        <ele>103</ele>
        <time>2015-03-23T20:55:25.070Z</time>
      </trkpt>
      <trkpt lat="48.86174" lon="2.26519">
        <ele>102.5</ele>
        <time>2015-03-23T20:55:26.787Z</time>
      </trkpt>
      <trkpt lat="48.86178" lon="2.26517">
        <ele>101.9</ele>
        <time>2015-03-23T20:55:27.083Z</time>
      </trkpt>
      <trkpt lat="48.86184" lon="2.26516">
        <ele>101.3</ele>
        <time>2015-03-23T20:55:29.092Z</time>
      </trkpt>
      <trkpt lat="48.86189" lon="2.26514">
        <ele>101.1</ele>
        <time>2015-03-23T20:55:30.117Z</time>
      </trkpt>
      <trkpt lat="48.86195" lon="2.26513">
        <ele>101.2</ele>
        <time>2015-03-23T20:55:31.146Z</time>
      </trkpt>
      <trkpt lat="48.862" lon="2.26511">
        <ele>101.2</ele>
        <time>2015-03-23T20:55:32.031Z</time>
      </trkpt>
      <trkpt lat="48.86206" lon="2.26511">
        <ele>101</ele>
        <time>2015-03-23T20:55:33.030Z</time>
      </trkpt>
      <trkpt lat="48.86209" lon="2.26511">
        <ele>101.2</ele>
        <time>2015-03-23T20:55:34.042Z</time>
      </trkpt>
      <trkpt lat="48.86218" lon="2.26514">
        <ele>102.1</ele>
        <time>2015-03-23T20:55:36.092Z</time>
      </trkpt>
      <trkpt lat="48.86221" lon="2.26516">
        <ele>102.2</ele>
        <time>2015-03-23T20:55:37.116Z</time>
      </trkpt>
      <trkpt lat="48.86229" lon="2.26522">
        <ele>102.5</ele>
        <time>2015-03-23T20:55:39.118Z</time>
      </trkpt>
      <trkpt lat="48.86234" lon="2.26525">
        <ele>102.9</ele>
        <time>2015-03-23T20:55:40.136Z</time>
      </trkpt>
      <trkpt lat="48.86241" lon="2.26531">
        <ele>100.8</ele>
        <time>2015-03-23T20:55:43.146Z</time>
      </trkpt>
      <trkpt lat="48.86242" lon="2.26533">
        <ele>100.9</ele>
        <time>2015-03-23T20:55:44.061Z</time>
      </trkpt>
      <trkpt lat="48.86247" lon="2.26537">
        <ele>101.5</ele>
        <time>2015-03-23T20:55:45.703Z</time>
      </trkpt>
      <trkpt lat="48.8625" lon="2.2654">
        <ele>101.5</ele>
        <time>2015-03-23T20:55:46.092Z</time>
      </trkpt>
      <trkpt lat="48.86253" lon="2.26542">
        <ele>101.6</ele>
        <time>2015-03-23T20:55:47.037Z</time>
      </trkpt>
      <trkpt lat="48.8626" lon="2.26548">
        <ele>101.8</ele>
        <time>2015-03-23T20:55:48.041Z</time>
      </trkpt>
      <trkpt lat="48.86267" lon="2.26555">
        <ele>102.5</ele>
        <time>2015-03-23T20:55:51.087Z</time>
      </trkpt>
      <trkpt lat="48.86269" lon="2.26556">
        <ele>101.9</ele>
        <time>2015-03-23T20:55:52.087Z</time>
      </trkpt>
      <trkpt lat="48.86277" lon="2.26559">
        <ele>101.5</ele>
        <time>2015-03-23T20:55:55.859Z</time>
      </trkpt>
      <trkpt lat="48.8628" lon="2.26559">
        <ele>101.5</ele>
        <time>2015-03-23T20:55:56.021Z</time>
      </trkpt>
      <trkpt lat="48.86287" lon="2.26561">
        <ele>101.3</ele>
        <time>2015-03-23T20:55:58.079Z</time>
      </trkpt>
      <trkpt lat="48.8629" lon="2.26562">
        <ele>101.4</ele>
        <time>2015-03-23T20:55:59.097Z</time>
      </trkpt>
      <trkpt lat="48.86298" lon="2.26565">
        <ele>101.4</ele>
        <time>2015-03-23T20:56:01.121Z</time>
      </trkpt>
      <trkpt lat="48.86302" lon="2.26567">
        <ele>101.3</ele>
        <time>2015-03-23T20:56:02.033Z</time>
      </trkpt>
      <trkpt lat="48.86303" lon="2.26567">
        <ele>100.8</ele>
        <time>2015-03-23T20:56:03.040Z</time>
      </trkpt>
      <trkpt lat="48.86311" lon="2.26573">
        <ele>99.9</ele>
        <time>2015-03-23T20:56:04.065Z</time>
      </trkpt>
      <trkpt lat="48.86316" lon="2.26575">
        <ele>99.7</ele>
        <time>2015-03-23T20:56:05.071Z</time>
      </trkpt>
      <trkpt lat="48.8632" lon="2.26578">
        <ele>99.7</ele>
        <time>2015-03-23T20:56:06.075Z</time>
      </trkpt>
      <trkpt lat="48.86324" lon="2.26581">
        <ele>99.3</ele>
        <time>2015-03-23T20:56:07.118Z</time>
      </trkpt>
      <trkpt lat="48.86328" lon="2.26586">
        <ele>99.1</ele>
        <time>2015-03-23T20:56:08.106Z</time>
      </trkpt>
      <trkpt lat="48.86332" lon="2.26589">
        <ele>98.8</ele>
        <time>2015-03-23T20:56:09.113Z</time>
      </trkpt>
      <trkpt lat="48.86336" lon="2.26593">
        <ele>98.8</ele>
        <time>2015-03-23T20:56:10.112Z</time>
      </trkpt>
      <trkpt lat="48.8634" lon="2.26597">
        <ele>98.7</ele>
        <time>2015-03-23T20:56:11.165Z</time>
      </trkpt>
      <trkpt lat="48.86344" lon="2.26602">
        <ele>98.5</ele>
        <time>2015-03-23T20:56:12.051Z</time>
      </trkpt>
      <trkpt lat="48.86347" lon="2.26607">
        <ele>98.6</ele>
        <time>2015-03-23T20:56:13.088Z</time>
      </trkpt>
      <trkpt lat="48.8635" lon="2.26612">
        <ele>98.4</ele>
        <time>2015-03-23T20:56:14.104Z</time>
      </trkpt>
      <trkpt lat="48.86354" lon="2.26617">
        <ele>98.2</ele>
        <time>2015-03-23T20:56:15.021Z</time>
      </trkpt>
      <trkpt lat="48.86358" lon="2.26623">
        <ele>98</ele>
        <time>2015-03-23T20:56:16.045Z</time>
      </trkpt>
      <trkpt lat="48.86362" lon="2.26629">
        <ele>97.8</ele>
        <time>2015-03-23T20:56:17.070Z</time>
      </trkpt>
      <trkpt lat="48.86365" lon="2.26634">
        <ele>97.6</ele>
        <time>2015-03-23T20:56:18.087Z</time>
      </trkpt>
      <trkpt lat="48.86368" lon="2.2664">
        <ele>97.4</ele>
        <time>2015-03-23T20:56:19.120Z</time>
      </trkpt>
      <trkpt lat="48.86371" lon="2.26646">
        <ele>97</ele>
        <time>2015-03-23T20:56:20.192Z</time>
      </trkpt>
      <trkpt lat="48.86373" lon="2.26652">
        <ele>96.9</ele>
        <time>2015-03-23T20:56:21.078Z</time>
      </trkpt>
      <trkpt lat="48.86376" lon="2.26658">
        <ele>96.8</ele>
        <time>2015-03-23T20:56:22.088Z</time>
      </trkpt>
      <trkpt lat="48.86379" lon="2.26663">
        <ele>97</ele>
        <time>2015-03-23T20:56:23.094Z</time>
      </trkpt>
      <trkpt lat="48.86382" lon="2.26669">
        <ele>97.1</ele>
        <time>2015-03-23T20:56:24.098Z</time>
      </trkpt>
      <trkpt lat="48.86387" lon="2.26677">
        <ele>97.1</ele>
        <time>2015-03-23T20:56:26.030Z</time>
      </trkpt>
      <trkpt lat="48.86389" lon="2.26681">
        <ele>97.2</ele>
        <time>2015-03-23T20:56:27.041Z</time>
      </trkpt>
      <trkpt lat="48.86392" lon="2.26693">
        <ele>97.5</ele>
        <time>2015-03-23T20:56:30.096Z</time>
      </trkpt>
      <trkpt lat="48.86392" lon="2.26697">
        <ele>97.5</ele>
        <time>2015-03-23T20:56:31.144Z</time>
      </trkpt>
      <trkpt lat="48.86389" lon="2.26705">
        <ele>97</ele>
        <time>2015-03-23T20:56:33.069Z</time>
      </trkpt>
      <trkpt lat="48.86387" lon="2.26708">
        <ele>96.5</ele>
        <time>2015-03-23T20:56:34.080Z</time>
      </trkpt>
      <trkpt lat="48.8638" lon="2.26717">
        <ele>96.7</ele>
        <time>2015-03-23T20:56:37.134Z</time>
      </trkpt>
      <trkpt lat="48.86378" lon="2.26721">
        <ele>96.6</ele>
        <time>2015-03-23T20:56:38.032Z</time>
      </trkpt>
      <trkpt lat="48.86373" lon="2.2673">
        <ele>97</ele>
        <time>2015-03-23T20:56:42.032Z</time>
      </trkpt>
      <trkpt lat="48.86373" lon="2.26732">
        <ele>97.1</ele>
        <time>2015-03-23T20:56:43.161Z</time>
      </trkpt>
      <trkpt lat="48.86364" lon="2.26735">
        <ele>96.1</ele>
        <time>2015-03-23T20:57:34.048Z</time>
      </trkpt>
      <trkpt lat="48.86362" lon="2.26737">
        <ele>96.3</ele>
        <time>2015-03-23T20:57:35.072Z</time>
      </trkpt>
      <trkpt lat="48.86358" lon="2.26743">
        <ele>97</ele>
        <time>2015-03-23T20:57:37.051Z</time>
      </trkpt>
      <trkpt lat="48.86355" lon="2.26747">
        <ele>97.4</ele>
        <time>2015-03-23T20:57:38.053Z</time>
      </trkpt>
      <trkpt lat="48.8635" lon="2.26751">
        <ele>97.7</ele>
        <time>2015-03-23T20:57:39.074Z</time>
      </trkpt>
      <trkpt lat="48.86347" lon="2.26754">
        <ele>97.8</ele>
        <time>2015-03-23T20:57:40.095Z</time>
      </trkpt>
      <trkpt lat="48.86339" lon="2.2676">
        <ele>97.8</ele>
        <time>2015-03-23T20:57:42.032Z</time>
      </trkpt>
      <trkpt lat="48.86336" lon="2.26762">
        <ele>98</ele>
        <time>2015-03-23T20:57:43.080Z</time>
      </trkpt>
      <trkpt lat="48.86331" lon="2.26767">
        <ele>98.8</ele>
        <time>2015-03-23T20:57:45.032Z</time>
      </trkpt>
      <trkpt lat="48.86328" lon="2.26769">
        <ele>99</ele>
        <time>2015-03-23T20:57:46.045Z</time>
      </trkpt>
      <trkpt lat="48.86325" lon="2.26781">
        <ele>99.6</ele>
        <time>2015-03-23T20:57:51.057Z</time>
      </trkpt>
      <trkpt lat="48.86324" lon="2.26784">
        <ele>99.7</ele>
        <time>2015-03-23T20:57:52.164Z</time>
      </trkpt>
      <trkpt lat="48.8632" lon="2.26795">
        <ele>100.5</ele>
        <time>2015-03-23T20:57:55.067Z</time>
      </trkpt>
      <trkpt lat="48.86319" lon="2.26799">
        <ele>100.9</ele>
        <time>2015-03-23T20:57:56.078Z</time>
      </trkpt>
      <trkpt lat="48.86315" lon="2.2681">
        <ele>101.3</ele>
        <time>2015-03-23T20:57:59.139Z</time>
      </trkpt>
      <trkpt lat="48.86315" lon="2.26814">
        <ele>101.1</ele>
        <time>2015-03-23T20:58:00.192Z</time>
      </trkpt>
      <trkpt lat="48.86314" lon="2.26826">
        <ele>100.7</ele>
        <time>2015-03-23T20:58:03.112Z</time>
      </trkpt>
      <trkpt lat="48.86314" lon="2.26829">
        <ele>100.7</ele>
        <time>2015-03-23T20:58:04.041Z</time>
      </trkpt>
      <trkpt lat="48.86313" lon="2.26842">
        <ele>100.9</ele>
        <time>2015-03-23T20:58:08.112Z</time>
      </trkpt>
      <trkpt lat="48.86313" lon="2.26845">
        <ele>100.9</ele>
        <time>2015-03-23T20:58:09.038Z</time>
      </trkpt>
      <trkpt lat="48.86309" lon="2.26856">
        <ele>101.8</ele>
        <time>2015-03-23T20:58:34.050Z</time>
      </trkpt>
      <trkpt lat="48.86304" lon="2.2686">
        <ele>99.6</ele>
        <time>2015-03-23T20:58:35.089Z</time>
      </trkpt>
      <trkpt lat="48.86296" lon="2.26865">
        <ele>100.3</ele>
        <time>2015-03-23T20:58:39.032Z</time>
      </trkpt>
      <trkpt lat="48.86294" lon="2.26867">
        <ele>100.3</ele>
        <time>2015-03-23T20:58:40.055Z</time>
      </trkpt>
      <trkpt lat="48.8629" lon="2.26878">
        <ele>100.1</ele>
        <time>2015-03-23T20:58:45.039Z</time>
      </trkpt>
      <trkpt lat="48.86291" lon="2.2688">
        <ele>100.2</ele>
        <time>2015-03-23T20:58:46.053Z</time>
      </trkpt>
      <trkpt lat="48.86291" lon="2.2688">
        <ele>100.2</ele>
        <time>2015-03-23T20:59:05.033Z</time>
      </trkpt>
      <trkpt lat="48.86308" lon="2.26929">
        <ele>102.8</ele>
        <time>2015-03-23T20:59:06.057Z</time>
      </trkpt>
      <trkpt lat="48.86309" lon="2.26935">
        <ele>103.6</ele>
        <time>2015-03-23T21:00:22.115Z</time>
      </trkpt>
      <trkpt lat="48.86315" lon="2.26977">
        <ele>106</ele>
        <time>2015-03-23T21:00:23.027Z</time>
      </trkpt>
      <trkpt lat="48.86316" lon="2.26988">
        <ele>106.9</ele>
        <time>2015-03-23T21:00:26.024Z</time>
      </trkpt>
      <trkpt lat="48.86316" lon="2.26992">
        <ele>107</ele>
        <time>2015-03-23T21:00:27.024Z</time>
      </trkpt>
      <trkpt lat="48.86317" lon="2.27001">
        <ele>107.3</ele>
        <time>2015-03-23T21:00:30.097Z</time>
      </trkpt>
      <trkpt lat="48.86319" lon="2.27005">
        <ele>106.9</ele>
        <time>2015-03-23T21:00:31.064Z</time>
      </trkpt>
      <trkpt lat="48.86324" lon="2.27016">
        <ele>105.7</ele>
        <time>2015-03-23T21:00:34.103Z</time>
      </trkpt>
      <trkpt lat="48.86325" lon="2.2702">
        <ele>105.4</ele>
        <time>2015-03-23T21:00:35.031Z</time>
      </trkpt>
      <trkpt lat="48.86323" lon="2.27033">
        <ele>104.9</ele>
        <time>2015-03-23T21:00:37.051Z</time>
      </trkpt>
      <trkpt lat="48.86324" lon="2.2704">
        <ele>104.7</ele>
        <time>2015-03-23T21:00:38.084Z</time>
      </trkpt>
      <trkpt lat="48.86324" lon="2.27046">
        <ele>104.6</ele>
        <time>2015-03-23T21:00:39.093Z</time>
      </trkpt>
      <trkpt lat="48.86324" lon="2.27054">
        <ele>104.4</ele>
        <time>2015-03-23T21:00:40.048Z</time>
      </trkpt>
      <trkpt lat="48.86324" lon="2.27062">
        <ele>104.1</ele>
        <time>2015-03-23T21:00:41.039Z</time>
      </trkpt>
      <trkpt lat="48.86323" lon="2.27071">
        <ele>103.9</ele>
        <time>2015-03-23T21:00:42.041Z</time>
      </trkpt>
      <trkpt lat="48.86322" lon="2.27083">
        <ele>103.8</ele>
        <time>2015-03-23T21:00:43.053Z</time>
      </trkpt>
      <trkpt lat="48.8632" lon="2.27094">
        <ele>103.8</ele>
        <time>2015-03-23T21:00:44.061Z</time>
      </trkpt>
      <trkpt lat="48.86319" lon="2.27106">
        <ele>103.9</ele>
        <time>2015-03-23T21:00:45.084Z</time>
      </trkpt>
      <trkpt lat="48.86318" lon="2.27116">
        <ele>104.2</ele>
        <time>2015-03-23T21:00:46.029Z</time>
      </trkpt>
      <trkpt lat="48.86318" lon="2.27124">
        <ele>104.4</ele>
        <time>2015-03-23T21:00:47.028Z</time>
      </trkpt>
      <trkpt lat="48.86318" lon="2.27131">
        <ele>104.4</ele>
        <time>2015-03-23T21:00:48.043Z</time>
      </trkpt>
      <trkpt lat="48.86318" lon="2.27141">
        <ele>104.5</ele>
        <time>2015-03-23T21:00:49.132Z</time>
      </trkpt>
      <trkpt lat="48.86317" lon="2.27152">
        <ele>104</ele>
        <time>2015-03-23T21:00:50.012Z</time>
      </trkpt>
      <trkpt lat="48.86317" lon="2.27159">
        <ele>103.7</ele>
        <time>2015-03-23T21:00:51.027Z</time>
      </trkpt>
      <trkpt lat="48.86318" lon="2.27168">
        <ele>103.4</ele>
        <time>2015-03-23T21:00:52.064Z</time>
      </trkpt>
      <trkpt lat="48.86319" lon="2.27175">
        <ele>102.5</ele>
        <time>2015-03-23T21:00:53.077Z</time>
      </trkpt>
      <trkpt lat="48.8632" lon="2.27181">
        <ele>102.1</ele>
        <time>2015-03-23T21:00:54.084Z</time>
      </trkpt>
      <trkpt lat="48.86321" lon="2.27188">
        <ele>101.9</ele>
        <time>2015-03-23T21:00:55.110Z</time>
      </trkpt>
      <trkpt lat="48.86323" lon="2.27196">
        <ele>101.4</ele>
        <time>2015-03-23T21:00:56.012Z</time>
      </trkpt>
      <trkpt lat="48.86324" lon="2.27203">
        <ele>101</ele>
        <time>2015-03-23T21:00:57.029Z</time>
      </trkpt>
      <trkpt lat="48.86326" lon="2.27209">
        <ele>100.5</ele>
        <time>2015-03-23T21:00:58.057Z</time>
      </trkpt>
      <trkpt lat="48.86326" lon="2.27219">
        <ele>100.2</ele>
        <time>2015-03-23T21:00:59.114Z</time>
      </trkpt>
      <trkpt lat="48.86329" lon="2.27224">
        <ele>99.7</ele>
        <time>2015-03-23T21:01:00.021Z</time>
      </trkpt>
      <trkpt lat="48.86329" lon="2.27234">
        <ele>99.4</ele>
        <time>2015-03-23T21:01:01.046Z</time>
      </trkpt>
      <trkpt lat="48.86333" lon="2.27237">
        <ele>99.2</ele>
        <time>2015-03-23T21:01:02.043Z</time>
      </trkpt>
      <trkpt lat="48.8634" lon="2.27237">
        <ele>99.2</ele>
        <time>2015-03-23T21:01:03.054Z</time>
      </trkpt>
      <trkpt lat="48.86351" lon="2.2723">
        <ele>99.9</ele>
        <time>2015-03-23T21:01:04.058Z</time>
      </trkpt>
      <trkpt lat="48.86363" lon="2.27224">
        <ele>100.7</ele>
        <time>2015-03-23T21:01:05.072Z</time>
      </trkpt>
      <trkpt lat="48.86369" lon="2.27231">
        <ele>101.1</ele>
        <time>2015-03-23T21:01:07.088Z</time>
      </trkpt>
      <trkpt lat="48.86373" lon="2.2723">
        <ele>100.1</ele>
        <time>2015-03-23T21:01:08.095Z</time>
      </trkpt>
      <trkpt lat="48.86381" lon="2.27231">
        <ele>100.1</ele>
        <time>2015-03-23T21:01:10.000Z</time>
      </trkpt>
      <trkpt lat="48.86386" lon="2.27231">
        <ele>101.1</ele>
        <time>2015-03-23T21:01:11.032Z</time>
      </trkpt>
      <trkpt lat="48.86392" lon="2.27239">
        <ele>102.1</ele>
        <time>2015-03-23T21:01:14.098Z</time>
      </trkpt>
      <trkpt lat="48.86394" lon="2.27242">
        <ele>102.5</ele>
        <time>2015-03-23T21:01:15.062Z</time>
      </trkpt>
      <trkpt lat="48.86399" lon="2.27248">
        <ele>102.1</ele>
        <time>2015-03-23T21:01:17.021Z</time>
      </trkpt>
      <trkpt lat="48.864" lon="2.27252">
        <ele>102.2</ele>
        <time>2015-03-23T21:01:18.033Z</time>
      </trkpt>
      <trkpt lat="48.86406" lon="2.27261">
        <ele>102.1</ele>
        <time>2015-03-23T21:01:20.068Z</time>
      </trkpt>
      <trkpt lat="48.86408" lon="2.27266">
        <ele>102.4</ele>
        <time>2015-03-23T21:01:21.080Z</time>
      </trkpt>
      <trkpt lat="48.8641" lon="2.27277">
        <ele>103.9</ele>
        <time>2015-03-23T21:01:23.024Z</time>
      </trkpt>
      <trkpt lat="48.8641" lon="2.27283">
        <ele>104.4</ele>
        <time>2015-03-23T21:01:24.065Z</time>
      </trkpt>
      <trkpt lat="48.86412" lon="2.27293">
        <ele>106.1</ele>
        <time>2015-03-23T21:01:27.016Z</time>
      </trkpt>
      <trkpt lat="48.86412" lon="2.27298">
        <ele>106.7</ele>
        <time>2015-03-23T21:01:28.019Z</time>
      </trkpt>
      <trkpt lat="48.86416" lon="2.27309">
        <ele>108.2</ele>
        <time>2015-03-23T21:01:31.081Z</time>
      </trkpt>
      <trkpt lat="48.86418" lon="2.27312">
        <ele>108.5</ele>
        <time>2015-03-23T21:01:31.980Z</time>
      </trkpt>
      <trkpt lat="48.86421" lon="2.2732">
        <ele>109.6</ele>
        <time>2015-03-23T21:01:34.007Z</time>
      </trkpt>
      <trkpt lat="48.86422" lon="2.27325">
        <ele>110.1</ele>
        <time>2015-03-23T21:01:35.014Z</time>
      </trkpt>
      <trkpt lat="48.86417" lon="2.27315">
        <ele>111.9</ele>
        <time>2015-03-23T21:01:45.123Z</time>
      </trkpt>
      <trkpt lat="48.86416" lon="2.27311">
        <ele>111.9</ele>
        <time>2015-03-23T21:01:46.061Z</time>
      </trkpt>
      <trkpt lat="48.86414" lon="2.27299">
        <ele>112.6</ele>
        <time>2015-03-23T21:01:48.022Z</time>
      </trkpt>
      <trkpt lat="48.86414" lon="2.27292">
        <ele>112.7</ele>
        <time>2015-03-23T21:01:49.129Z</time>
      </trkpt>
      <trkpt lat="48.86422" lon="2.2729">
        <ele>113.3</ele>
        <time>2015-03-23T21:01:52.013Z</time>
      </trkpt>
      <trkpt lat="48.86426" lon="2.27289">
        <ele>113.4</ele>
        <time>2015-03-23T21:01:53.044Z</time>
      </trkpt>
      <trkpt lat="48.86432" lon="2.27294">
        <ele>114.5</ele>
        <time>2015-03-23T21:01:55.091Z</time>
      </trkpt>
      <trkpt lat="48.86435" lon="2.27297">
        <ele>115.1</ele>
        <time>2015-03-23T21:01:56.106Z</time>
      </trkpt>
      <trkpt lat="48.86439" lon="2.27302">
        <ele>117</ele>
        <time>2015-03-23T21:01:58.007Z</time>
      </trkpt>
      <trkpt lat="48.86442" lon="2.27305">
        <ele>117.4</ele>
        <time>2015-03-23T21:01:59.025Z</time>
      </trkpt>
      <trkpt lat="48.86447" lon="2.2731">
        <ele>116.7</ele>
        <time>2015-03-23T21:02:00.079Z</time>
      </trkpt>
      <trkpt lat="48.86451" lon="2.27316">
        <ele>115.4</ele>
        <time>2015-03-23T21:02:01.137Z</time>
      </trkpt>
      <trkpt lat="48.86454" lon="2.27322">
        <ele>114.5</ele>
        <time>2015-03-23T21:02:02.021Z</time>
      </trkpt>
      <trkpt lat="48.86456" lon="2.27329">
        <ele>113.7</ele>
        <time>2015-03-23T21:02:03.032Z</time>
      </trkpt>
      <trkpt lat="48.86459" lon="2.27335">
        <ele>113</ele>
        <time>2015-03-23T21:02:04.054Z</time>
      </trkpt>
      <trkpt lat="48.8646" lon="2.27342">
        <ele>112.5</ele>
        <time>2015-03-23T21:02:05.088Z</time>
      </trkpt>
      <trkpt lat="48.86462" lon="2.27349">
        <ele>112</ele>
        <time>2015-03-23T21:02:06.011Z</time>
      </trkpt>
      <trkpt lat="48.86465" lon="2.27355">
        <ele>111.2</ele>
        <time>2015-03-23T21:02:07.049Z</time>
      </trkpt>
      <trkpt lat="48.86471" lon="2.27364">
        <ele>110.3</ele>
        <time>2015-03-23T21:02:09.074Z</time>
      </trkpt>
      <trkpt lat="48.86473" lon="2.2737">
        <ele>110.5</ele>
        <time>2015-03-23T21:02:10.104Z</time>
      </trkpt>
      <trkpt lat="48.86474" lon="2.27376">
        <ele>110.4</ele>
        <time>2015-03-23T21:02:11.023Z</time>
      </trkpt>
      <trkpt lat="48.86476" lon="2.27383">
        <ele>110.5</ele>
        <time>2015-03-23T21:02:12.020Z</time>
      </trkpt>
      <trkpt lat="48.86477" lon="2.27392">
        <ele>109.9</ele>
        <time>2015-03-23T21:02:13.046Z</time>
      </trkpt>
      <trkpt lat="48.86477" lon="2.27402">
        <ele>109.5</ele>
        <time>2015-03-23T21:02:14.060Z</time>
      </trkpt>
      <trkpt lat="48.86478" lon="2.27414">
        <ele>109.2</ele>
        <time>2015-03-23T21:02:15.076Z</time>
      </trkpt>
      <trkpt lat="48.86478" lon="2.27427">
        <ele>108.8</ele>
        <time>2015-03-23T21:02:16.086Z</time>
      </trkpt>
      <trkpt lat="48.86478" lon="2.2744">
        <ele>108.3</ele>
        <time>2015-03-23T21:02:17.113Z</time>
      </trkpt>
      <trkpt lat="48.86473" lon="2.27496">
        <ele>108.1</ele>
        <time>2015-03-23T21:02:17.995Z</time>
      </trkpt>
      <trkpt lat="48.86472" lon="2.27506">
        <ele>107.8</ele>
        <time>2015-03-23T21:02:19.048Z</time>
      </trkpt>
      <trkpt lat="48.86471" lon="2.27516">
        <ele>107.7</ele>
        <time>2015-03-23T21:02:20.056Z</time>
      </trkpt>
      <trkpt lat="48.86473" lon="2.27524">
        <ele>107.5</ele>
        <time>2015-03-23T21:02:21.061Z</time>
      </trkpt>
      <trkpt lat="48.86474" lon="2.27532">
        <ele>107.3</ele>
        <time>2015-03-23T21:02:22.066Z</time>
      </trkpt>
      <trkpt lat="48.86481" lon="2.27537">
        <ele>106.8</ele>
        <time>2015-03-23T21:02:23.999Z</time>
      </trkpt>
      <trkpt lat="48.86492" lon="2.27529">
        <ele>106.8</ele>
        <time>2015-03-23T21:02:25.021Z</time>
      </trkpt>
      <trkpt lat="48.86503" lon="2.27523">
        <ele>106.7</ele>
        <time>2015-03-23T21:02:26.031Z</time>
      </trkpt>
      <trkpt lat="48.86513" lon="2.27519">
        <ele>106.8</ele>
        <time>2015-03-23T21:02:27.053Z</time>
      </trkpt>
      <trkpt lat="48.86522" lon="2.27516">
        <ele>106.7</ele>
        <time>2015-03-23T21:02:28.074Z</time>
      </trkpt>
      <trkpt lat="48.86528" lon="2.27518">
        <ele>106.7</ele>
        <time>2015-03-23T21:02:29.012Z</time>
      </trkpt>
      <trkpt lat="48.86531" lon="2.27526">
        <ele>106.6</ele>
        <time>2015-03-23T21:02:30.049Z</time>
      </trkpt>
      <trkpt lat="48.86534" lon="2.27532">
        <ele>106.6</ele>
        <time>2015-03-23T21:02:31.036Z</time>
      </trkpt>
      <trkpt lat="48.86537" lon="2.27538">
        <ele>106.3</ele>
        <time>2015-03-23T21:02:32.047Z</time>
      </trkpt>
      <trkpt lat="48.86544" lon="2.27547">
        <ele>105.9</ele>
        <time>2015-03-23T21:02:34.084Z</time>
      </trkpt>
      <trkpt lat="48.86547" lon="2.27552">
        <ele>105.9</ele>
        <time>2015-03-23T21:02:35.089Z</time>
      </trkpt>
      <trkpt lat="48.8655" lon="2.27558">
        <ele>106.3</ele>
        <time>2015-03-23T21:02:35.998Z</time>
      </trkpt>
      <trkpt lat="48.86552" lon="2.27564">
        <ele>106.3</ele>
        <time>2015-03-23T21:02:37.044Z</time>
      </trkpt>
      <trkpt lat="48.86557" lon="2.27572">
        <ele>107.1</ele>
        <time>2015-03-23T21:02:39.062Z</time>
      </trkpt>
      <trkpt lat="48.8656" lon="2.27576">
        <ele>107.7</ele>
        <time>2015-03-23T21:02:40.070Z</time>
      </trkpt>
      <trkpt lat="48.86562" lon="2.27586">
        <ele>108.8</ele>
        <time>2015-03-23T21:02:42.096Z</time>
      </trkpt>
      <trkpt lat="48.86564" lon="2.27589">
        <ele>108.8</ele>
        <time>2015-03-23T21:02:43.114Z</time>
      </trkpt>
      <trkpt lat="48.8657" lon="2.27598">
        <ele>108.5</ele>
        <time>2015-03-23T21:02:47.034Z</time>
      </trkpt>
      <trkpt lat="48.86571" lon="2.27599">
        <ele>108.2</ele>
        <time>2015-03-23T21:02:48.046Z</time>
      </trkpt>
      <trkpt lat="48.86572" lon="2.27609">
        <ele>109</ele>
        <time>2015-03-23T21:02:51.021Z</time>
      </trkpt>
      <trkpt lat="48.86572" lon="2.27612">
        <ele>109.1</ele>
        <time>2015-03-23T21:02:51.994Z</time>
      </trkpt>
      <trkpt lat="48.86575" lon="2.27623">
        <ele>110.2</ele>
        <time>2015-03-23T21:03:00.167Z</time>
      </trkpt>
      <trkpt lat="48.86583" lon="2.27634">
        <ele>111.1</ele>
        <time>2015-03-23T21:03:01.051Z</time>
      </trkpt>
      <trkpt lat="48.86591" lon="2.27637">
        <ele>111.6</ele>
        <time>2015-03-23T21:03:03.104Z</time>
      </trkpt>
      <trkpt lat="48.86593" lon="2.27638">
        <ele>111.6</ele>
        <time>2015-03-23T21:03:04.076Z</time>
      </trkpt>
      <trkpt lat="48.866" lon="2.27643">
        <ele>110.8</ele>
        <time>2015-03-23T21:03:06.060Z</time>
      </trkpt>
      <trkpt lat="48.86604" lon="2.27645">
        <ele>110</ele>
        <time>2015-03-23T21:03:07.072Z</time>
      </trkpt>
      <trkpt lat="48.8661" lon="2.27649">
        <ele>108.9</ele>
        <time>2015-03-23T21:03:09.001Z</time>
      </trkpt>
      <trkpt lat="48.86614" lon="2.27651">
        <ele>107.7</ele>
        <time>2015-03-23T21:03:10.011Z</time>
      </trkpt>
      <trkpt lat="48.86622" lon="2.27656">
        <ele>105.7</ele>
        <time>2015-03-23T21:03:12.045Z</time>
      </trkpt>
      <trkpt lat="48.86626" lon="2.27658">
        <ele>104.8</ele>
        <time>2015-03-23T21:03:13.057Z</time>
      </trkpt>
      <trkpt lat="48.86631" lon="2.27663">
        <ele>104.8</ele>
        <time>2015-03-23T21:03:15.011Z</time>
      </trkpt>
      <trkpt lat="48.86634" lon="2.27665">
        <ele>104.5</ele>
        <time>2015-03-23T21:03:16.024Z</time>
      </trkpt>
      <trkpt lat="48.86641" lon="2.27673">
        <ele>103.4</ele>
        <time>2015-03-23T21:03:19.072Z</time>
      </trkpt>
      <trkpt lat="48.86643" lon="2.27676">
        <ele>102.5</ele>
        <time>2015-03-23T21:03:20.090Z</time>
      </trkpt>
      <trkpt lat="48.86648" lon="2.27681">
        <ele>101.5</ele>
        <time>2015-03-23T21:03:22.003Z</time>
      </trkpt>
      <trkpt lat="48.86482" lon="2.27259">
        <ele>100.9</ele>
        <time>2015-03-23T21:03:23.029Z</time>
      </trkpt>
      <trkpt lat="48.86543" lon="2.27413">
        <ele>100.4</ele>
        <time>2015-03-23T21:03:24.049Z</time>
      </trkpt>
      <trkpt lat="48.86585" lon="2.27517">
        <ele>99.9</ele>
        <time>2015-03-23T21:03:25.050Z</time>
      </trkpt>
      <trkpt lat="48.86612" lon="2.27585">
        <ele>99.5</ele>
        <time>2015-03-23T21:03:26.087Z</time>
      </trkpt>
      <trkpt lat="48.86634" lon="2.27636">
        <ele>99.1</ele>
        <time>2015-03-23T21:03:26.993Z</time>
      </trkpt>
      <trkpt lat="48.86634" lon="2.27636">
        <ele>99.1</ele>
        <time>2015-03-23T21:03:26.510Z</time>
      </trkpt>
      <trkpt lat="48.86644" lon="2.27662">
        <ele>98.6</ele>
        <time>2015-03-23T21:03:28.022Z</time>
      </trkpt>
      <trkpt lat="48.86652" lon="2.27683">
        <ele>99.1</ele>
        <time>2015-03-23T21:03:29.024Z</time>
      </trkpt>
      <trkpt lat="48.86654" lon="2.27696">
        <ele>100.4</ele>
        <time>2015-03-23T21:03:30.032Z</time>
      </trkpt>
      <trkpt lat="48.86656" lon="2.27707">
        <ele>100.4</ele>
        <time>2015-03-23T21:03:31.028Z</time>
      </trkpt>
      <trkpt lat="48.86657" lon="2.27714">
        <ele>100.1</ele>
        <time>2015-03-23T21:03:32.039Z</time>
      </trkpt>
      <trkpt lat="48.86659" lon="2.27725">
        <ele>100</ele>
        <time>2015-03-23T21:03:34.056Z</time>
      </trkpt>
      <trkpt lat="48.86661" lon="2.27729">
        <ele>99.9</ele>
        <time>2015-03-23T21:03:35.067Z</time>
      </trkpt>
      <trkpt lat="48.86667" lon="2.27737">
        <ele>99.5</ele>
        <time>2015-03-23T21:03:38.026Z</time>
      </trkpt>
      <trkpt lat="48.86673" lon="2.27744">
        <ele>99.4</ele>
        <time>2015-03-23T21:03:39.046Z</time>
      </trkpt>
      <trkpt lat="48.86673" lon="2.27752">
        <ele>99.2</ele>
        <time>2015-03-23T21:03:41.080Z</time>
      </trkpt>
      <trkpt lat="48.86671" lon="2.27759">
        <ele>98.8</ele>
        <time>2015-03-23T21:03:42.087Z</time>
      </trkpt>
      <trkpt lat="48.86669" lon="2.27766">
        <ele>98.7</ele>
        <time>2015-03-23T21:03:44.032Z</time>
      </trkpt>
      <trkpt lat="48.86668" lon="2.27774">
        <ele>98.5</ele>
        <time>2015-03-23T21:03:45.010Z</time>
      </trkpt>
      <trkpt lat="48.86669" lon="2.27786">
        <ele>97.3</ele>
        <time>2015-03-23T21:03:48.054Z</time>
      </trkpt>
      <trkpt lat="48.8667" lon="2.27791">
        <ele>96.8</ele>
        <time>2015-03-23T21:03:49.063Z</time>
      </trkpt>
      <trkpt lat="48.86674" lon="2.27798">
        <ele>96.1</ele>
        <time>2015-03-23T21:03:51.080Z</time>
      </trkpt>
      <trkpt lat="48.86677" lon="2.27801">
        <ele>96</ele>
        <time>2015-03-23T21:03:52.148Z</time>
      </trkpt>
      <trkpt lat="48.86682" lon="2.27806">
        <ele>95.5</ele>
        <time>2015-03-23T21:03:54.021Z</time>
      </trkpt>
      <trkpt lat="48.86685" lon="2.27807">
        <ele>95.9</ele>
        <time>2015-03-23T21:03:55.022Z</time>
      </trkpt>
      <trkpt lat="48.86692" lon="2.27807">
        <ele>95.8</ele>
        <time>2015-03-23T21:03:57.048Z</time>
      </trkpt>
      <trkpt lat="48.86697" lon="2.27807">
        <ele>95.5</ele>
        <time>2015-03-23T21:03:58.060Z</time>
      </trkpt>
      <trkpt lat="48.86701" lon="2.27813">
        <ele>97</ele>
        <time>2015-03-23T21:03:59.071Z</time>
      </trkpt>
      <trkpt lat="48.86703" lon="2.27818">
        <ele>98.6</ele>
        <time>2015-03-23T21:04:00.118Z</time>
      </trkpt>
      <trkpt lat="48.86704" lon="2.27826">
        <ele>99.9</ele>
        <time>2015-03-23T21:04:01.109Z</time>
      </trkpt>
      <trkpt lat="48.86706" lon="2.27835">
        <ele>99.9</ele>
        <time>2015-03-23T21:04:02.012Z</time>
      </trkpt>
      <trkpt lat="48.86712" lon="2.27842">
        <ele>100.9</ele>
        <time>2015-03-23T21:04:06.034Z</time>
      </trkpt>
      <trkpt lat="48.86716" lon="2.27847">
        <ele>100.5</ele>
        <time>2015-03-23T21:04:07.079Z</time>
      </trkpt>
      <trkpt lat="48.86723" lon="2.27854">
        <ele>100.4</ele>
        <time>2015-03-23T21:04:09.024Z</time>
      </trkpt>
      <trkpt lat="48.86727" lon="2.27858">
        <ele>100.4</ele>
        <time>2015-03-23T21:04:10.092Z</time>
      </trkpt>
      <trkpt lat="48.86732" lon="2.27869">
        <ele>100.9</ele>
        <time>2015-03-23T21:04:12.019Z</time>
      </trkpt>
      <trkpt lat="48.86735" lon="2.27875">
        <ele>100.6</ele>
        <time>2015-03-23T21:04:13.086Z</time>
      </trkpt>
      <trkpt lat="48.86739" lon="2.27884">
        <ele>100</ele>
        <time>2015-03-23T21:04:15.009Z</time>
      </trkpt>
      <trkpt lat="48.86742" lon="2.27889">
        <ele>99.5</ele>
        <time>2015-03-23T21:04:16.032Z</time>
      </trkpt>
      <trkpt lat="48.86747" lon="2.27898">
        <ele>99</ele>
        <time>2015-03-23T21:04:18.064Z</time>
      </trkpt>
      <trkpt lat="48.8675" lon="2.27902">
        <ele>98.6</ele>
        <time>2015-03-23T21:04:19.078Z</time>
      </trkpt>
      <trkpt lat="48.86756" lon="2.27908">
        <ele>97.6</ele>
        <time>2015-03-23T21:04:21.223Z</time>
      </trkpt>
      <trkpt lat="48.86759" lon="2.2791">
        <ele>96.9</ele>
        <time>2015-03-23T21:04:22.023Z</time>
      </trkpt>
      <trkpt lat="48.86761" lon="2.27912">
        <ele>96.2</ele>
        <time>2015-03-23T21:04:23.036Z</time>
      </trkpt>
      <trkpt lat="48.86768" lon="2.27918">
        <ele>95.5</ele>
        <time>2015-03-23T21:04:24.081Z</time>
      </trkpt>
      <trkpt lat="48.86771" lon="2.27925">
        <ele>93.4</ele>
        <time>2015-03-23T21:04:27.029Z</time>
      </trkpt>
      <trkpt lat="48.86773" lon="2.27929">
        <ele>92.7</ele>
        <time>2015-03-23T21:04:28.062Z</time>
      </trkpt>
      <trkpt lat="48.86777" lon="2.2794">
        <ele>89.7</ele>
        <time>2015-03-23T21:04:31.069Z</time>
      </trkpt>
      <trkpt lat="48.86779" lon="2.27946">
        <ele>88.8</ele>
        <time>2015-03-23T21:04:32.091Z</time>
      </trkpt>
      <trkpt lat="48.86782" lon="2.27956">
        <ele>87.4</ele>
        <time>2015-03-23T21:04:34.077Z</time>
      </trkpt>
      <trkpt lat="48.86784" lon="2.27962">
        <ele>87.1</ele>
        <time>2015-03-23T21:04:35.010Z</time>
      </trkpt>
      <trkpt lat="48.86787" lon="2.27968">
        <ele>86.8</ele>
        <time>2015-03-23T21:04:36.012Z</time>
      </trkpt>
      <trkpt lat="48.86789" lon="2.27974">
        <ele>87.1</ele>
        <time>2015-03-23T21:04:37.067Z</time>
      </trkpt>
      <trkpt lat="48.86795" lon="2.27983">
        <ele>88</ele>
        <time>2015-03-23T21:04:39.006Z</time>
      </trkpt>
      <trkpt lat="48.86797" lon="2.27985">
        <ele>88.5</ele>
        <time>2015-03-23T21:04:40.033Z</time>
      </trkpt>
      <trkpt lat="48.86804" lon="2.27993">
        <ele>89.7</ele>
        <time>2015-03-23T21:04:43.021Z</time>
      </trkpt>
      <trkpt lat="48.86806" lon="2.27997">
        <ele>90.1</ele>
        <time>2015-03-23T21:04:44.045Z</time>
      </trkpt>
      <trkpt lat="48.86808" lon="2.28006">
        <ele>90.9</ele>
        <time>2015-03-23T21:04:46.078Z</time>
      </trkpt>
      <trkpt lat="48.86807" lon="2.28011">
        <ele>90.9</ele>
        <time>2015-03-23T21:04:47.089Z</time>
      </trkpt>
      <trkpt lat="48.86807" lon="2.28023">
        <ele>90.7</ele>
        <time>2015-03-23T21:04:52.005Z</time>
      </trkpt>
      <trkpt lat="48.86809" lon="2.28033">
        <ele>90.9</ele>
        <time>2015-03-23T21:04:53.017Z</time>
      </trkpt>
      <trkpt lat="48.86811" lon="2.28041">
        <ele>91.2</ele>
        <time>2015-03-23T21:04:54.018Z</time>
      </trkpt>
      <trkpt lat="48.86812" lon="2.28047">
        <ele>91.5</ele>
        <time>2015-03-23T21:04:55.081Z</time>
      </trkpt>
      <trkpt lat="48.86816" lon="2.28059">
        <ele>92.6</ele>
        <time>2015-03-23T21:04:57.020Z</time>
      </trkpt>
      <trkpt lat="48.86818" lon="2.28064">
        <ele>92.8</ele>
        <time>2015-03-23T21:04:58.033Z</time>
      </trkpt>
      <trkpt lat="48.86823" lon="2.28075">
        <ele>93.9</ele>
        <time>2015-03-23T21:05:01.107Z</time>
      </trkpt>
      <trkpt lat="48.86826" lon="2.2808">
        <ele>94.1</ele>
        <time>2015-03-23T21:05:02.011Z</time>
      </trkpt>
      <trkpt lat="48.86831" lon="2.28087">
        <ele>94.3</ele>
        <time>2015-03-23T21:05:04.026Z</time>
      </trkpt>
      <trkpt lat="48.86834" lon="2.28091">
        <ele>94.3</ele>
        <time>2015-03-23T21:05:05.039Z</time>
      </trkpt>
      <trkpt lat="48.86838" lon="2.281">
        <ele>94.5</ele>
        <time>2015-03-23T21:05:07.067Z</time>
      </trkpt>
      <trkpt lat="48.8684" lon="2.28104">
        <ele>94.5</ele>
        <time>2015-03-23T21:05:08.074Z</time>
      </trkpt>
      <trkpt lat="48.86845" lon="2.28115">
        <ele>95</ele>
        <time>2015-03-23T21:05:10.624Z</time>
      </trkpt>
      <trkpt lat="48.86847" lon="2.28119">
        <ele>95.5</ele>
        <time>2015-03-23T21:05:10.987Z</time>
      </trkpt>
      <trkpt lat="48.86853" lon="2.28129">
        <ele>95.4</ele>
        <time>2015-03-23T21:05:13.051Z</time>
      </trkpt>
      <trkpt lat="48.86856" lon="2.28133">
        <ele>95.1</ele>
        <time>2015-03-23T21:05:14.062Z</time>
      </trkpt>
      <trkpt lat="48.86862" lon="2.28141">
        <ele>95.2</ele>
        <time>2015-03-23T21:05:15.990Z</time>
      </trkpt>
      <trkpt lat="48.86865" lon="2.28145">
        <ele>94.8</ele>
        <time>2015-03-23T21:05:17.008Z</time>
      </trkpt>
      <trkpt lat="48.86871" lon="2.28153">
        <ele>94.5</ele>
        <time>2015-03-23T21:05:19.049Z</time>
      </trkpt>
      <trkpt lat="48.86874" lon="2.28156">
        <ele>94.4</ele>
        <time>2015-03-23T21:05:20.058Z</time>
      </trkpt>
      <trkpt lat="48.86881" lon="2.28163">
        <ele>93.9</ele>
        <time>2015-03-23T21:05:22.081Z</time>
      </trkpt>
      <trkpt lat="48.86886" lon="2.28169">
        <ele>93.8</ele>
        <time>2015-03-23T21:05:23.101Z</time>
      </trkpt>
      <trkpt lat="48.86894" lon="2.28176">
        <ele>93.8</ele>
        <time>2015-03-23T21:05:25.108Z</time>
      </trkpt>
      <trkpt lat="48.86897" lon="2.28178">
        <ele>93.9</ele>
        <time>2015-03-23T21:05:25.984Z</time>
      </trkpt>
      <trkpt lat="48.86901" lon="2.28182">
        <ele>94.3</ele>
        <time>2015-03-23T21:05:26.414Z</time>
      </trkpt>
      <trkpt lat="48.86906" lon="2.28188">
        <ele>94.5</ele>
        <time>2015-03-23T21:05:28.067Z</time>
      </trkpt>
      <trkpt lat="48.8691" lon="2.28192">
        <ele>94.7</ele>
        <time>2015-03-23T21:05:29.072Z</time>
      </trkpt>
      <trkpt lat="48.86914" lon="2.28196">
        <ele>94.7</ele>
        <time>2015-03-23T21:05:30.214Z</time>
      </trkpt>
      <trkpt lat="48.8692" lon="2.28202">
        <ele>95.1</ele>
        <time>2015-03-23T21:05:32.002Z</time>
      </trkpt>
      <trkpt lat="48.86922" lon="2.28204">
        <ele>95.1</ele>
        <time>2015-03-23T21:05:33.035Z</time>
      </trkpt>
      <trkpt lat="48.86927" lon="2.2821">
        <ele>95.3</ele>
        <time>2015-03-23T21:05:35.087Z</time>
      </trkpt>
      <trkpt lat="48.8693" lon="2.28213">
        <ele>95.2</ele>
        <time>2015-03-23T21:05:36.092Z</time>
      </trkpt>
      <trkpt lat="48.86933" lon="2.28217">
        <ele>95.1</ele>
        <time>2015-03-23T21:05:36.807Z</time>
      </trkpt>
      <trkpt lat="48.86937" lon="2.28224">
        <ele>95</ele>
        <time>2015-03-23T21:05:38.009Z</time>
      </trkpt>
      <trkpt lat="48.86942" lon="2.28235">
        <ele>94.6</ele>
        <time>2015-03-23T21:05:40.282Z</time>
      </trkpt>
      <trkpt lat="48.86944" lon="2.28238">
        <ele>94.5</ele>
        <time>2015-03-23T21:05:41.053Z</time>
      </trkpt>
      <trkpt lat="48.86949" lon="2.28247">
        <ele>94.3</ele>
        <time>2015-03-23T21:05:43.089Z</time>
      </trkpt>
      <trkpt lat="48.86951" lon="2.28252">
        <ele>94.1</ele>
        <time>2015-03-23T21:05:43.976Z</time>
      </trkpt>
      <trkpt lat="48.86954" lon="2.28257">
        <ele>94</ele>
        <time>2015-03-23T21:05:45.006Z</time>
      </trkpt>
      <trkpt lat="48.86956" lon="2.28264">
        <ele>93.4</ele>
        <time>2015-03-23T21:05:46.096Z</time>
      </trkpt>
      <trkpt lat="48.86956" lon="2.28273">
        <ele>92.7</ele>
        <time>2015-03-23T21:05:47.064Z</time>
      </trkpt>
      <trkpt lat="48.86956" lon="2.28281">
        <ele>91.9</ele>
        <time>2015-03-23T21:05:48.068Z</time>
      </trkpt>
      <trkpt lat="48.86956" lon="2.28296">
        <ele>91.4</ele>
        <time>2015-03-23T21:05:49.072Z</time>
      </trkpt>
      <trkpt lat="48.86956" lon="2.28304">
        <ele>91.2</ele>
        <time>2015-03-23T21:05:50.400Z</time>
      </trkpt>
      <trkpt lat="48.86957" lon="2.2831">
        <ele>91.2</ele>
        <time>2015-03-23T21:05:50.981Z</time>
      </trkpt>
      <trkpt lat="48.86959" lon="2.28323">
        <ele>90.7</ele>
        <time>2015-03-23T21:05:53.040Z</time>
      </trkpt>
      <trkpt lat="48.8696" lon="2.28329">
        <ele>90</ele>
        <time>2015-03-23T21:05:54.099Z</time>
      </trkpt>
      <trkpt lat="48.86962" lon="2.28335">
        <ele>89.6</ele>
        <time>2015-03-23T21:05:55.452Z</time>
      </trkpt>
      <trkpt lat="48.86964" lon="2.28341">
        <ele>89.4</ele>
        <time>2015-03-23T21:05:56.038Z</time>
      </trkpt>
      <trkpt lat="48.86966" lon="2.28348">
        <ele>89.7</ele>
        <time>2015-03-23T21:05:57.056Z</time>
      </trkpt>
      <trkpt lat="48.86968" lon="2.28356">
        <ele>89.8</ele>
        <time>2015-03-23T21:05:58.059Z</time>
      </trkpt>
      <trkpt lat="48.86968" lon="2.28364">
        <ele>90</ele>
        <time>2015-03-23T21:05:59.058Z</time>
      </trkpt>
      <trkpt lat="48.86967" lon="2.28372">
        <ele>90.2</ele>
        <time>2015-03-23T21:06:00.075Z</time>
      </trkpt>
      <trkpt lat="48.86964" lon="2.2838">
        <ele>90.1</ele>
        <time>2015-03-23T21:06:01.091Z</time>
      </trkpt>
      <trkpt lat="48.86961" lon="2.28388">
        <ele>90.2</ele>
        <time>2015-03-23T21:06:02.017Z</time>
      </trkpt>
      <trkpt lat="48.86958" lon="2.28397">
        <ele>90.7</ele>
        <time>2015-03-23T21:06:04.014Z</time>
      </trkpt>
      <trkpt lat="48.86957" lon="2.28402">
        <ele>91.3</ele>
        <time>2015-03-23T21:06:05.042Z</time>
      </trkpt>
      <trkpt lat="48.86956" lon="2.28409">
        <ele>91.2</ele>
        <time>2015-03-23T21:06:06.071Z</time>
      </trkpt>
      <trkpt lat="48.86954" lon="2.28416">
        <ele>91.2</ele>
        <time>2015-03-23T21:06:07.091Z</time>
      </trkpt>
      <trkpt lat="48.86953" lon="2.28424">
        <ele>91.2</ele>
        <time>2015-03-23T21:06:17.991Z</time>
      </trkpt>
      <trkpt lat="48.86953" lon="2.28445">
        <ele>99.9</ele>
        <time>2015-03-23T21:06:19.021Z</time>
      </trkpt>
      <trkpt lat="48.86953" lon="2.28461">
        <ele>100.9</ele>
        <time>2015-03-23T21:06:20.032Z</time>
      </trkpt>
      <trkpt lat="48.86953" lon="2.28472">
        <ele>101.5</ele>
        <time>2015-03-23T21:06:21.032Z</time>
      </trkpt>
      <trkpt lat="48.86954" lon="2.28478">
        <ele>102.2</ele>
        <time>2015-03-23T21:06:22.035Z</time>
      </trkpt>
      <trkpt lat="48.86954" lon="2.28486">
        <ele>102.2</ele>
        <time>2015-03-23T21:06:24.052Z</time>
      </trkpt>
      <trkpt lat="48.86954" lon="2.28494">
        <ele>102.2</ele>
        <time>2015-03-23T21:06:25.067Z</time>
      </trkpt>
      <trkpt lat="48.86954" lon="2.28494">
        <ele>102.2</ele>
        <time>2015-03-23T21:06:25.734Z</time>
      </trkpt>
      <trkpt lat="48.8695" lon="2.28507">
        <ele>106.1</ele>
        <time>2015-03-23T21:06:26.036Z</time>
      </trkpt>
      <trkpt lat="48.86948" lon="2.28516">
        <ele>106.5</ele>
        <time>2015-03-23T21:06:27.054Z</time>
      </trkpt>
      <trkpt lat="48.86946" lon="2.28524">
        <ele>106.9</ele>
        <time>2015-03-23T21:06:28.060Z</time>
      </trkpt>
      <trkpt lat="48.86944" lon="2.28535">
        <ele>107.4</ele>
        <time>2015-03-23T21:06:30.121Z</time>
      </trkpt>
      <trkpt lat="48.86943" lon="2.28543">
        <ele>107.4</ele>
        <time>2015-03-23T21:06:31.124Z</time>
      </trkpt>
      <trkpt lat="48.86943" lon="2.28543">
        <ele>107.4</ele>
        <time>2015-03-23T21:06:37.076Z</time>
      </trkpt>
      <trkpt lat="48.86952" lon="2.28556">
        <ele>109.7</ele>
        <time>2015-03-23T21:06:38.083Z</time>
      </trkpt>
      <trkpt lat="48.86961" lon="2.2856">
        <ele>110.1</ele>
        <time>2015-03-23T21:06:41.019Z</time>
      </trkpt>
      <trkpt lat="48.86963" lon="2.28561">
        <ele>110.1</ele>
        <time>2015-03-23T21:06:42.016Z</time>
      </trkpt>
      <trkpt lat="48.86969" lon="2.28567">
        <ele>112.2</ele>
        <time>2015-03-23T21:06:49.112Z</time>
      </trkpt>
      <trkpt lat="48.86974" lon="2.28571">
        <ele>113.7</ele>
        <time>2015-03-23T21:06:50.014Z</time>
      </trkpt>
      <trkpt lat="48.86978" lon="2.28576">
        <ele>114.8</ele>
        <time>2015-03-23T21:06:51.027Z</time>
      </trkpt>
      <trkpt lat="48.86984" lon="2.28582">
        <ele>116</ele>
        <time>2015-03-23T21:06:52.032Z</time>
      </trkpt>
      <trkpt lat="48.86989" lon="2.28588">
        <ele>116.5</ele>
        <time>2015-03-23T21:07:06.013Z</time>
      </trkpt>
      <trkpt lat="48.86996" lon="2.28594">
        <ele>115.5</ele>
        <time>2015-03-23T21:07:07.028Z</time>
      </trkpt>
      <trkpt lat="48.87006" lon="2.28603">
        <ele>114.7</ele>
        <time>2015-03-23T21:07:08.042Z</time>
      </trkpt>
      <trkpt lat="48.87011" lon="2.28608">
        <ele>115.4</ele>
        <time>2015-03-23T21:07:10.998Z</time>
      </trkpt>
      <trkpt lat="48.87017" lon="2.28612">
        <ele>115.7</ele>
        <time>2015-03-23T21:07:12.046Z</time>
      </trkpt>
      <trkpt lat="48.87024" lon="2.28615">
        <ele>116.4</ele>
        <time>2015-03-23T21:07:15.770Z</time>
      </trkpt>
      <trkpt lat="48.87026" lon="2.28617">
        <ele>116.1</ele>
        <time>2015-03-23T21:07:16.077Z</time>
      </trkpt>
      <trkpt lat="48.87033" lon="2.28622">
        <ele>115.7</ele>
        <time>2015-03-23T21:07:19.010Z</time>
      </trkpt>
      <trkpt lat="48.87036" lon="2.28625">
        <ele>115.9</ele>
        <time>2015-03-23T21:07:20.060Z</time>
      </trkpt>
      <trkpt lat="48.8704" lon="2.28632">
        <ele>115.8</ele>
        <time>2015-03-23T21:07:22.028Z</time>
      </trkpt>
      <trkpt lat="48.87042" lon="2.28637">
        <ele>115.2</ele>
        <time>2015-03-23T21:07:23.062Z</time>
      </trkpt>
      <trkpt lat="48.87045" lon="2.28645">
        <ele>114.9</ele>
        <time>2015-03-23T21:07:26.000Z</time>
      </trkpt>
      <trkpt lat="48.87047" lon="2.28649">
        <ele>114.5</ele>
        <time>2015-03-23T21:07:26.045Z</time>
      </trkpt>
      <trkpt lat="48.87052" lon="2.28657">
        <ele>114.2</ele>
        <time>2015-03-23T21:07:28.059Z</time>
      </trkpt>
      <trkpt lat="48.87054" lon="2.28661">
        <ele>113.9</ele>
        <time>2015-03-23T21:07:29.065Z</time>
      </trkpt>
      <trkpt lat="48.87058" lon="2.28669">
        <ele>112.7</ele>
        <time>2015-03-23T21:07:31.994Z</time>
      </trkpt>
      <trkpt lat="48.87061" lon="2.28674">
        <ele>112.5</ele>
        <time>2015-03-23T21:07:33.007Z</time>
      </trkpt>
      <trkpt lat="48.87066" lon="2.28683">
        <ele>112</ele>
        <time>2015-03-23T21:07:35.262Z</time>
      </trkpt>
      <trkpt lat="48.87067" lon="2.28688">
        <ele>111.5</ele>
        <time>2015-03-23T21:07:36.031Z</time>
      </trkpt>
      <trkpt lat="48.87069" lon="2.287">
        <ele>110.9</ele>
        <time>2015-03-23T21:07:38.075Z</time>
      </trkpt>
      <trkpt lat="48.8707" lon="2.28706">
        <ele>110.6</ele>
        <time>2015-03-23T21:07:38.989Z</time>
      </trkpt>
      <trkpt lat="48.87072" lon="2.28713">
        <ele>110.2</ele>
        <time>2015-03-23T21:07:40.302Z</time>
      </trkpt>
      <trkpt lat="48.87073" lon="2.28719">
        <ele>109.9</ele>
        <time>2015-03-23T21:07:41.055Z</time>
      </trkpt>
      <trkpt lat="48.87075" lon="2.28726">
        <ele>109.8</ele>
        <time>2015-03-23T21:07:41.997Z</time>
      </trkpt>
      <trkpt lat="48.87076" lon="2.28733">
        <ele>109.5</ele>
        <time>2015-03-23T21:07:43.010Z</time>
      </trkpt>
      <trkpt lat="48.87078" lon="2.28741">
        <ele>109.3</ele>
        <time>2015-03-23T21:07:44.036Z</time>
      </trkpt>
      <trkpt lat="48.87079" lon="2.28746">
        <ele>109.4</ele>
        <time>2015-03-23T21:07:45.047Z</time>
      </trkpt>
      <trkpt lat="48.87083" lon="2.28757">
        <ele>108.7</ele>
        <time>2015-03-23T21:07:46.997Z</time>
      </trkpt>
      <trkpt lat="48.87085" lon="2.28762">
        <ele>108.6</ele>
        <time>2015-03-23T21:07:48.005Z</time>
      </trkpt>
      <trkpt lat="48.87091" lon="2.28771">
        <ele>108.5</ele>
        <time>2015-03-23T21:07:50.364Z</time>
      </trkpt>
      <trkpt lat="48.87093" lon="2.28774">
        <ele>108.5</ele>
        <time>2015-03-23T21:07:50.976Z</time>
      </trkpt>
      <trkpt lat="48.87097" lon="2.2878">
        <ele>108.7</ele>
        <time>2015-03-23T21:07:53.047Z</time>
      </trkpt>
      <trkpt lat="48.871" lon="2.28784">
        <ele>109</ele>
        <time>2015-03-23T21:07:54.098Z</time>
      </trkpt>
      <trkpt lat="48.87103" lon="2.28789">
        <ele>109.2</ele>
        <time>2015-03-23T21:07:55.116Z</time>
      </trkpt>
      <trkpt lat="48.87105" lon="2.28794">
        <ele>109.1</ele>
        <time>2015-03-23T21:07:56.024Z</time>
      </trkpt>
      <trkpt lat="48.87108" lon="2.28801">
        <ele>109.1</ele>
        <time>2015-03-23T21:07:55.405Z</time>
      </trkpt>
      <trkpt lat="48.8711" lon="2.28807">
        <ele>109</ele>
        <time>2015-03-23T21:07:58.045Z</time>
      </trkpt>
      <trkpt lat="48.87114" lon="2.28817">
        <ele>109.3</ele>
        <time>2015-03-23T21:08:00.521Z</time>
      </trkpt>
      <trkpt lat="48.87116" lon="2.28821">
        <ele>109.4</ele>
        <time>2015-03-23T21:08:01.067Z</time>
      </trkpt>
      <trkpt lat="48.87122" lon="2.2883">
        <ele>109.2</ele>
        <time>2015-03-23T21:08:04.073Z</time>
      </trkpt>
      <trkpt lat="48.87125" lon="2.28832">
        <ele>109.2</ele>
        <time>2015-03-23T21:08:05.086Z</time>
      </trkpt>
      <trkpt lat="48.87128" lon="2.28836">
        <ele>109.4</ele>
        <time>2015-03-23T21:08:05.995Z</time>
      </trkpt>
      <trkpt lat="48.87134" lon="2.28844">
        <ele>109.6</ele>
        <time>2015-03-23T21:08:07.007Z</time>
      </trkpt>
      <trkpt lat="48.87139" lon="2.28854">
        <ele>109.2</ele>
        <time>2015-03-23T21:08:11.061Z</time>
      </trkpt>
      <trkpt lat="48.87141" lon="2.28856">
        <ele>108.9</ele>
        <time>2015-03-23T21:08:12.102Z</time>
      </trkpt>
      <trkpt lat="48.87145" lon="2.28861">
        <ele>109.2</ele>
        <time>2015-03-23T21:08:14.047Z</time>
      </trkpt>
      <trkpt lat="48.87148" lon="2.28863">
        <ele>109.6</ele>
        <time>2015-03-23T21:08:15.048Z</time>
      </trkpt>
      <trkpt lat="48.87155" lon="2.2887">
        <ele>110.2</ele>
        <time>2015-03-23T21:08:19.114Z</time>
      </trkpt>
      <trkpt lat="48.87157" lon="2.28877">
        <ele>110.3</ele>
        <time>2015-03-23T21:08:20.172Z</time>
      </trkpt>
      <trkpt lat="48.87158" lon="2.28888">
        <ele>110.8</ele>
        <time>2015-03-23T21:08:22.098Z</time>
      </trkpt>
      <trkpt lat="48.87158" lon="2.28898">
        <ele>111</ele>
        <time>2015-03-23T21:08:23.094Z</time>
      </trkpt>
      <trkpt lat="48.87158" lon="2.28904">
        <ele>111</ele>
        <time>2015-03-23T21:08:24.016Z</time>
      </trkpt>
      <trkpt lat="48.87159" lon="2.28913">
        <ele>111.2</ele>
        <time>2015-03-23T21:08:25.056Z</time>
      </trkpt>
      <trkpt lat="48.87161" lon="2.28923">
        <ele>111.8</ele>
        <time>2015-03-23T21:08:27.063Z</time>
      </trkpt>
      <trkpt lat="48.87166" lon="2.28934">
        <ele>111.8</ele>
        <time>2015-03-23T21:08:28.100Z</time>
      </trkpt>
      <trkpt lat="48.87171" lon="2.28937">
        <ele>111</ele>
        <time>2015-03-23T21:08:31.061Z</time>
      </trkpt>
      <trkpt lat="48.87175" lon="2.2894">
        <ele>110.6</ele>
        <time>2015-03-23T21:08:32.065Z</time>
      </trkpt>
      <trkpt lat="48.87182" lon="2.28945">
        <ele>110.6</ele>
        <time>2015-03-23T21:08:34.029Z</time>
      </trkpt>
      <trkpt lat="48.87189" lon="2.28952">
        <ele>110.7</ele>
        <time>2015-03-23T21:08:35.056Z</time>
      </trkpt>
      <trkpt lat="48.87195" lon="2.2896">
        <ele>111</ele>
        <time>2015-03-23T21:08:39.000Z</time>
      </trkpt>
      <trkpt lat="48.872" lon="2.28971">
        <ele>110.8</ele>
        <time>2015-03-23T21:08:40.011Z</time>
      </trkpt>
      <trkpt lat="48.87204" lon="2.28982">
        <ele>110.5</ele>
        <time>2015-03-23T21:08:45.457Z</time>
      </trkpt>
      <trkpt lat="48.87205" lon="2.28984">
        <ele>110.3</ele>
        <time>2015-03-23T21:08:46.071Z</time>
      </trkpt>
      <trkpt lat="48.87209" lon="2.2899">
        <ele>110.1</ele>
        <time>2015-03-23T21:08:49.044Z</time>
      </trkpt>
      <trkpt lat="48.87212" lon="2.28995">
        <ele>109.9</ele>
        <time>2015-03-23T21:08:50.033Z</time>
      </trkpt>
      <trkpt lat="48.87216" lon="2.29">
        <ele>110</ele>
        <time>2015-03-23T21:08:51.080Z</time>
      </trkpt>
      <trkpt lat="48.87219" lon="2.29006">
        <ele>110</ele>
        <time>2015-03-23T21:08:52.080Z</time>
      </trkpt>
      <trkpt lat="48.87219" lon="2.29006">
        <ele>110</ele>
        <time>2015-03-23T21:09:08.074Z</time>
      </trkpt>
      <trkpt lat="48.87212" lon="2.29027">
        <ele>114.1</ele>
        <time>2015-03-23T21:09:09.081Z</time>
      </trkpt>
      <trkpt lat="48.87207" lon="2.29041">
        <ele>114.4</ele>
        <time>2015-03-23T21:09:10.005Z</time>
      </trkpt>
      <trkpt lat="48.87205" lon="2.29048">
        <ele>114.7</ele>
        <time>2015-03-23T21:09:11.007Z</time>
      </trkpt>
      <trkpt lat="48.87203" lon="2.29055">
        <ele>115</ele>
        <time>2015-03-23T21:09:12.063Z</time>
      </trkpt>
      <trkpt lat="48.87201" lon="2.2906">
        <ele>115</ele>
        <time>2015-03-23T21:09:13.074Z</time>
      </trkpt>
      <trkpt lat="48.87198" lon="2.29068">
        <ele>115</ele>
        <time>2015-03-23T21:09:14.062Z</time>
      </trkpt>
      <trkpt lat="48.87198" lon="2.29068">
        <ele>115</ele>
        <time>2015-03-23T21:09:31.039Z</time>
      </trkpt>
      <trkpt lat="48.87189" lon="2.29085">
        <ele>121.4</ele>
        <time>2015-03-23T21:09:32.061Z</time>
      </trkpt>
      <trkpt lat="48.87181" lon="2.29098">
        <ele>121.4</ele>
        <time>2015-03-23T21:09:33.000Z</time>
      </trkpt>
      <trkpt lat="48.87178" lon="2.29103">
        <ele>121.4</ele>
        <time>2015-03-23T21:09:34.007Z</time>
      </trkpt>
      <trkpt lat="48.87175" lon="2.29108">
        <ele>121.3</ele>
        <time>2015-03-23T21:09:35.034Z</time>
      </trkpt>
      <trkpt lat="48.87171" lon="2.29115">
        <ele>121.3</ele>
        <time>2015-03-23T21:09:54.078Z</time>
      </trkpt>
      <trkpt lat="48.87152" lon="2.29134">
        <ele>118.5</ele>
        <time>2015-03-23T21:09:55.101Z</time>
      </trkpt>
      <trkpt lat="48.87147" lon="2.2914">
        <ele>118.8</ele>
        <time>2015-03-23T21:09:56.992Z</time>
      </trkpt>
      <trkpt lat="48.87143" lon="2.29145">
        <ele>118.9</ele>
        <time>2015-03-23T21:09:58.019Z</time>
      </trkpt>
      <trkpt lat="48.87138" lon="2.2915">
        <ele>119.4</ele>
        <time>2015-03-23T21:10:00.743Z</time>
      </trkpt>
      <trkpt lat="48.87135" lon="2.29154">
        <ele>119.7</ele>
        <time>2015-03-23T21:10:01.108Z</time>
      </trkpt>
      <trkpt lat="48.87131" lon="2.29159">
        <ele>119.7</ele>
        <time>2015-03-23T21:10:46.050Z</time>
      </trkpt>
      <trkpt lat="48.87124" lon="2.29172">
        <ele>122.8</ele>
        <time>2015-03-23T21:10:47.050Z</time>
      </trkpt>
      <trkpt lat="48.8712" lon="2.2918">
        <ele>123.4</ele>
        <time>2015-03-23T21:10:49.058Z</time>
      </trkpt>
      <trkpt lat="48.87119" lon="2.29195">
        <ele>123.5</ele>
        <time>2015-03-23T21:10:50.067Z</time>
      </trkpt>
      <trkpt lat="48.87122" lon="2.29207">
        <ele>123.2</ele>
        <time>2015-03-23T21:10:55.451Z</time>
      </trkpt>
      <trkpt lat="48.87124" lon="2.29208">
        <ele>123.2</ele>
        <time>2015-03-23T21:10:56.053Z</time>
      </trkpt>
      <trkpt lat="48.8713" lon="2.29216">
        <ele>124</ele>
        <time>2015-03-23T21:11:00.466Z</time>
      </trkpt>
      <trkpt lat="48.8713" lon="2.2922">
        <ele>124</ele>
        <time>2015-03-23T21:11:01.045Z</time>
      </trkpt>
      <trkpt lat="48.8713" lon="2.29232">
        <ele>124.2</ele>
        <time>2015-03-23T21:11:03.997Z</time>
      </trkpt>
      <trkpt lat="48.87133" lon="2.29234">
        <ele>124.6</ele>
        <time>2015-03-23T21:11:04.971Z</time>
      </trkpt>
      <trkpt lat="48.8714" lon="2.29239">
        <ele>125.1</ele>
        <time>2015-03-23T21:11:21.002Z</time>
      </trkpt>
      <trkpt lat="48.87141" lon="2.29241">
        <ele>125.1</ele>
        <time>2015-03-23T21:11:22.015Z</time>
      </trkpt>
      <trkpt lat="48.87148" lon="2.29247">
        <ele>125.4</ele>
        <time>2015-03-23T21:11:28.035Z</time>
      </trkpt>
      <trkpt lat="48.87149" lon="2.29248">
        <ele>125.4</ele>
        <time>2015-03-23T21:11:29.057Z</time>
      </trkpt>
      <trkpt lat="48.87184" lon="2.29274">
        <ele>125.6</ele>
        <time>2015-03-23T21:11:30.044Z</time>
      </trkpt>
      <trkpt lat="48.8719" lon="2.29279">
        <ele>125.8</ele>
        <time>2015-03-23T21:11:33.015Z</time>
      </trkpt>
      <trkpt lat="48.87192" lon="2.29281">
        <ele>125.8</ele>
        <time>2015-03-23T21:11:34.026Z</time>
      </trkpt>
      <trkpt lat="48.872" lon="2.29283">
        <ele>126.4</ele>
        <time>2015-03-23T21:11:37.079Z</time>
      </trkpt>
      <trkpt lat="48.87202" lon="2.29284">
        <ele>126.6</ele>
        <time>2015-03-23T21:11:37.995Z</time>
      </trkpt>
      <trkpt lat="48.8721" lon="2.29284">
        <ele>127.3</ele>
        <time>2015-03-23T21:11:40.002Z</time>
      </trkpt>
      <trkpt lat="48.87215" lon="2.29284">
        <ele>127.7</ele>
        <time>2015-03-23T21:11:41.017Z</time>
      </trkpt>
      <trkpt lat="48.87223" lon="2.29286">
        <ele>128</ele>
        <time>2015-03-23T21:11:43.033Z</time>
      </trkpt>
      <trkpt lat="48.87226" lon="2.29288">
        <ele>128.2</ele>
        <time>2015-03-23T21:11:44.062Z</time>
      </trkpt>
      <trkpt lat="48.87233" lon="2.29292">
        <ele>128.6</ele>
        <time>2015-03-23T21:11:45.992Z</time>
      </trkpt>
      <trkpt lat="48.87237" lon="2.29292">
        <ele>128</ele>
        <time>2015-03-23T21:11:47.005Z</time>
      </trkpt>
      <trkpt lat="48.87245" lon="2.29293">
        <ele>127.7</ele>
        <time>2015-03-23T21:11:49.021Z</time>
      </trkpt>
      <trkpt lat="48.87249" lon="2.29292">
        <ele>127.1</ele>
        <time>2015-03-23T21:11:50.068Z</time>
      </trkpt>
      <trkpt lat="48.87256" lon="2.29293">
        <ele>126.4</ele>
        <time>2015-03-23T21:11:52.111Z</time>
      </trkpt>
      <trkpt lat="48.8726" lon="2.2929">
        <ele>126.5</ele>
        <time>2015-03-23T21:11:53.007Z</time>
      </trkpt>
      <trkpt lat="48.87268" lon="2.29288">
        <ele>126.6</ele>
        <time>2015-03-23T21:11:55.107Z</time>
      </trkpt>
      <trkpt lat="48.87272" lon="2.29287">
        <ele>126.8</ele>
        <time>2015-03-23T21:11:56.007Z</time>
      </trkpt>
      <trkpt lat="48.87279" lon="2.29287">
        <ele>127.5</ele>
        <time>2015-03-23T21:11:58.034Z</time>
      </trkpt>
      <trkpt lat="48.87283" lon="2.29287">
        <ele>127.6</ele>
        <time>2015-03-23T21:11:59.077Z</time>
      </trkpt>
      <trkpt lat="48.8729" lon="2.29288">
        <ele>127.8</ele>
        <time>2015-03-23T21:12:01.024Z</time>
      </trkpt>
      <trkpt lat="48.87293" lon="2.2929">
        <ele>127.6</ele>
        <time>2015-03-23T21:12:02.052Z</time>
      </trkpt>
      <trkpt lat="48.87292" lon="2.293">
        <ele>125.3</ele>
        <time>2015-03-23T21:12:05.016Z</time>
      </trkpt>
      <trkpt lat="48.8729" lon="2.29303">
        <ele>124.6</ele>
        <time>2015-03-23T21:12:06.038Z</time>
      </trkpt>
      <trkpt lat="48.8729" lon="2.29303">
        <ele>124.6</ele>
        <time>2015-03-23T21:12:18.037Z</time>
      </trkpt>
      <trkpt lat="48.87274" lon="2.29327">
        <ele>118.2</ele>
        <time>2015-03-23T21:12:19.069Z</time>
      </trkpt>
      <trkpt lat="48.87269" lon="2.29337">
        <ele>117</ele>
        <time>2015-03-23T21:12:21.004Z</time>
      </trkpt>
      <trkpt lat="48.87267" lon="2.29342">
        <ele>117</ele>
        <time>2015-03-23T21:12:22.004Z</time>
      </trkpt>
      <trkpt lat="48.87263" lon="2.29351">
        <ele>118.1</ele>
        <time>2015-03-23T21:12:24.022Z</time>
      </trkpt>
      <trkpt lat="48.87262" lon="2.29356">
        <ele>118.5</ele>
        <time>2015-03-23T21:12:25.028Z</time>
      </trkpt>
      <trkpt lat="48.87258" lon="2.29366">
        <ele>118.5</ele>
        <time>2015-03-23T21:12:27.046Z</time>
      </trkpt>
      <trkpt lat="48.87255" lon="2.29371">
        <ele>118</ele>
        <time>2015-03-23T21:12:28.063Z</time>
      </trkpt>
      <trkpt lat="48.8725" lon="2.29378">
        <ele>116.8</ele>
        <time>2015-03-23T21:12:30.011Z</time>
      </trkpt>
      <trkpt lat="48.87248" lon="2.29381">
        <ele>116.3</ele>
        <time>2015-03-23T21:12:31.062Z</time>
      </trkpt>
      <trkpt lat="48.87245" lon="2.29393">
        <ele>116.5</ele>
        <time>2015-03-23T21:12:33.998Z</time>
      </trkpt>
      <trkpt lat="48.87245" lon="2.29398">
        <ele>116.2</ele>
        <time>2015-03-23T21:12:35.020Z</time>
      </trkpt>
      <trkpt lat="48.87243" lon="2.29408">
        <ele>116.5</ele>
        <time>2015-03-23T21:12:36.998Z</time>
      </trkpt>
      <trkpt lat="48.87241" lon="2.29413">
        <ele>116.7</ele>
        <time>2015-03-23T21:12:38.023Z</time>
      </trkpt>
      <trkpt lat="48.87239" lon="2.29423">
        <ele>116.8</ele>
        <time>2015-03-23T21:12:39.984Z</time>
      </trkpt>
      <trkpt lat="48.87238" lon="2.29427">
        <ele>116.7</ele>
        <time>2015-03-23T21:12:40.996Z</time>
      </trkpt>
      <trkpt lat="48.87235" lon="2.29439">
        <ele>116.3</ele>
        <time>2015-03-23T21:12:44.051Z</time>
      </trkpt>
      <trkpt lat="48.87234" lon="2.29443">
        <ele>116.4</ele>
        <time>2015-03-23T21:12:44.985Z</time>
      </trkpt>
      <trkpt lat="48.87234" lon="2.29454">
        <ele>117.2</ele>
        <time>2015-03-23T21:12:46.965Z</time>
      </trkpt>
      <trkpt lat="48.87235" lon="2.29459">
        <ele>117.3</ele>
        <time>2015-03-23T21:12:48.006Z</time>
      </trkpt>
      <trkpt lat="48.87234" lon="2.29472">
        <ele>118.9</ele>
        <time>2015-03-23T21:12:50.032Z</time>
      </trkpt>
      <trkpt lat="48.87234" lon="2.29477">
        <ele>118.8</ele>
        <time>2015-03-23T21:12:51.045Z</time>
      </trkpt>
      <trkpt lat="48.87233" lon="2.29485">
        <ele>118.6</ele>
        <time>2015-03-23T21:12:53.076Z</time>
      </trkpt>
      <trkpt lat="48.87231" lon="2.29491">
        <ele>117.4</ele>
        <time>2015-03-23T21:12:54.090Z</time>
      </trkpt>
      <trkpt lat="48.8723" lon="2.29502">
        <ele>116.5</ele>
        <time>2015-03-23T21:12:56.014Z</time>
      </trkpt>
      <trkpt lat="48.87229" lon="2.29509">
        <ele>116.4</ele>
        <time>2015-03-23T21:12:57.022Z</time>
      </trkpt>
      <trkpt lat="48.87229" lon="2.29516">
        <ele>116.5</ele>
        <time>2015-03-23T21:12:58.048Z</time>
      </trkpt>
      <trkpt lat="48.87229" lon="2.29523">
        <ele>116.7</ele>
        <time>2015-03-23T21:12:59.063Z</time>
      </trkpt>
      <trkpt lat="48.87229" lon="2.29533">
        <ele>117.4</ele>
        <time>2015-03-23T21:13:01.052Z</time>
      </trkpt>
      <trkpt lat="48.87231" lon="2.29537">
        <ele>117.5</ele>
        <time>2015-03-23T21:13:02.054Z</time>
      </trkpt>
      <trkpt lat="48.87235" lon="2.29546">
        <ele>117.6</ele>
        <time>2015-03-23T21:13:05.106Z</time>
      </trkpt>
      <trkpt lat="48.87237" lon="2.29551">
        <ele>117.3</ele>
        <time>2015-03-23T21:13:06.032Z</time>
      </trkpt>
      <trkpt lat="48.87239" lon="2.29563">
        <ele>117.3</ele>
        <time>2015-03-23T21:13:08.065Z</time>
      </trkpt>
      <trkpt lat="48.8724" lon="2.29569">
        <ele>116.9</ele>
        <time>2015-03-23T21:13:09.069Z</time>
      </trkpt>
      <trkpt lat="48.87243" lon="2.29581">
        <ele>116.3</ele>
        <time>2015-03-23T21:13:11.021Z</time>
      </trkpt>
      <trkpt lat="48.87245" lon="2.29588">
        <ele>116.3</ele>
        <time>2015-03-23T21:13:11.997Z</time>
      </trkpt>
      <trkpt lat="48.87248" lon="2.29597">
        <ele>116.4</ele>
        <time>2015-03-23T21:13:14.065Z</time>
      </trkpt>
      <trkpt lat="48.87249" lon="2.29602">
        <ele>116.8</ele>
        <time>2015-03-23T21:13:15.069Z</time>
      </trkpt>
      <trkpt lat="48.8725" lon="2.29611">
        <ele>116.9</ele>
        <time>2015-03-23T21:13:17.001Z</time>
      </trkpt>
      <trkpt lat="48.8725" lon="2.29616">
        <ele>116.4</ele>
        <time>2015-03-23T21:13:18.013Z</time>
      </trkpt>
      <trkpt lat="48.87251" lon="2.29627">
        <ele>116.6</ele>
        <time>2015-03-23T21:13:20.047Z</time>
      </trkpt>
      <trkpt lat="48.87251" lon="2.29633">
        <ele>116.8</ele>
        <time>2015-03-23T21:13:21.101Z</time>
      </trkpt>
      <trkpt lat="48.87258" lon="2.2964">
        <ele>116.5</ele>
        <time>2015-03-23T21:13:29.067Z</time>
      </trkpt>
      <trkpt lat="48.87258" lon="2.29641">
        <ele>116.6</ele>
        <time>2015-03-23T21:13:30.087Z</time>
      </trkpt>
      <trkpt lat="48.87257" lon="2.29654">
        <ele>102.2</ele>
        <time>2015-03-23T21:16:22.017Z</time>
      </trkpt>
      <trkpt lat="48.8726" lon="2.29657">
        <ele>102.2</ele>
        <time>2015-03-23T21:16:23.110Z</time>
      </trkpt>
      <trkpt lat="48.87266" lon="2.29664">
        <ele>102.2</ele>
        <time>2015-03-23T21:16:26.101Z</time>
      </trkpt>
      <trkpt lat="48.87268" lon="2.29666">
        <ele>102.3</ele>
        <time>2015-03-23T21:16:26.992Z</time>
      </trkpt>
      <trkpt lat="48.8727" lon="2.29669">
        <ele>102.1</ele>
        <time>2015-03-23T21:16:31.078Z</time>
      </trkpt>
      <trkpt lat="48.8727" lon="2.29687">
        <ele>103.7</ele>
        <time>2015-03-23T21:16:32.104Z</time>
      </trkpt>
      <trkpt lat="48.87274" lon="2.29695">
        <ele>105.3</ele>
        <time>2015-03-23T21:16:37.202Z</time>
      </trkpt>
      <trkpt lat="48.87273" lon="2.29702">
        <ele>104.3</ele>
        <time>2015-03-23T21:16:38.025Z</time>
      </trkpt>
      <trkpt lat="48.87268" lon="2.29713">
        <ele>102.4</ele>
        <time>2015-03-23T21:16:56.105Z</time>
      </trkpt>
      <trkpt lat="48.87268" lon="2.29717">
        <ele>102.1</ele>
        <time>2015-03-23T21:16:57.025Z</time>
      </trkpt>
      <trkpt lat="48.87268" lon="2.29725">
        <ele>101.6</ele>
        <time>2015-03-23T21:16:59.051Z</time>
      </trkpt>
      <trkpt lat="48.87269" lon="2.29731">
        <ele>101.6</ele>
        <time>2015-03-23T21:17:00.176Z</time>
      </trkpt>
      <trkpt lat="48.8727" lon="2.29743">
        <ele>101.8</ele>
        <time>2015-03-23T21:17:02.059Z</time>
      </trkpt>
      <trkpt lat="48.87269" lon="2.29748">
        <ele>101.5</ele>
        <time>2015-03-23T21:17:03.070Z</time>
      </trkpt>
      <trkpt lat="48.87265" lon="2.29757">
        <ele>101.5</ele>
        <time>2015-03-23T21:17:04.988Z</time>
      </trkpt>
      <trkpt lat="48.87264" lon="2.29761">
        <ele>101.3</ele>
        <time>2015-03-23T21:17:06.040Z</time>
      </trkpt>
      <trkpt lat="48.8726" lon="2.29771">
        <ele>101.8</ele>
        <time>2015-03-23T21:17:08.041Z</time>
      </trkpt>
      <trkpt lat="48.87259" lon="2.29776">
        <ele>102</ele>
        <time>2015-03-23T21:17:09.009Z</time>
      </trkpt>
      <trkpt lat="48.87256" lon="2.29785">
        <ele>102.5</ele>
        <time>2015-03-23T21:17:11.045Z</time>
      </trkpt>
      <trkpt lat="48.87255" lon="2.29789">
        <ele>102.7</ele>
        <time>2015-03-23T21:17:12.059Z</time>
      </trkpt>
      <trkpt lat="48.87252" lon="2.29798">
        <ele>102.8</ele>
        <time>2015-03-23T21:17:14.002Z</time>
      </trkpt>
      <trkpt lat="48.87251" lon="2.29802">
        <ele>102.9</ele>
        <time>2015-03-23T21:17:15.017Z</time>
      </trkpt>
      <trkpt lat="48.87249" lon="2.29811">
        <ele>103.1</ele>
        <time>2015-03-23T21:17:17.057Z</time>
      </trkpt>
      <trkpt lat="48.87248" lon="2.29816">
        <ele>103</ele>
        <time>2015-03-23T21:17:18.018Z</time>
      </trkpt>
      <trkpt lat="48.87245" lon="2.29825">
        <ele>102.9</ele>
        <time>2015-03-23T21:17:20.075Z</time>
      </trkpt>
      <trkpt lat="48.87243" lon="2.29829">
        <ele>103</ele>
        <time>2015-03-23T21:17:21.090Z</time>
      </trkpt>
      <trkpt lat="48.87239" lon="2.29839">
        <ele>103</ele>
        <time>2015-03-23T21:17:23.013Z</time>
      </trkpt>
      <trkpt lat="48.87237" lon="2.29845">
        <ele>103</ele>
        <time>2015-03-23T21:17:24.016Z</time>
      </trkpt>
      <trkpt lat="48.87234" lon="2.29856">
        <ele>102.9</ele>
        <time>2015-03-23T21:17:26.055Z</time>
      </trkpt>
      <trkpt lat="48.87232" lon="2.29862">
        <ele>103</ele>
        <time>2015-03-23T21:17:26.982Z</time>
      </trkpt>
      <trkpt lat="48.87229" lon="2.29871">
        <ele>103</ele>
        <time>2015-03-23T21:17:29.005Z</time>
      </trkpt>
      <trkpt lat="48.87228" lon="2.29877">
        <ele>102.9</ele>
        <time>2015-03-23T21:17:30.008Z</time>
      </trkpt>
      <trkpt lat="48.87227" lon="2.29883">
        <ele>102.7</ele>
        <time>2015-03-23T21:17:31.088Z</time>
      </trkpt>
      <trkpt lat="48.87226" lon="2.2989">
        <ele>102.5</ele>
        <time>2015-03-23T21:17:32.000Z</time>
      </trkpt>
      <trkpt lat="48.87225" lon="2.29898">
        <ele>101.6</ele>
        <time>2015-03-23T21:17:33.001Z</time>
      </trkpt>
      <trkpt lat="48.87223" lon="2.29903">
        <ele>101.1</ele>
        <time>2015-03-23T21:17:34.026Z</time>
      </trkpt>
      <trkpt lat="48.87223" lon="2.29913">
        <ele>101.4</ele>
        <time>2015-03-23T21:17:36.047Z</time>
      </trkpt>
      <trkpt lat="48.87223" lon="2.29919">
        <ele>101.8</ele>
        <time>2015-03-23T21:17:37.125Z</time>
      </trkpt>
      <trkpt lat="48.87224" lon="2.29928">
        <ele>101.7</ele>
        <time>2015-03-23T21:17:39.082Z</time>
      </trkpt>
      <trkpt lat="48.87222" lon="2.29933">
        <ele>101.9</ele>
        <time>2015-03-23T21:17:40.108Z</time>
      </trkpt>
      <trkpt lat="48.87219" lon="2.29945">
        <ele>101.9</ele>
        <time>2015-03-23T21:17:42.056Z</time>
      </trkpt>
      <trkpt lat="48.87216" lon="2.29952">
        <ele>101.7</ele>
        <time>2015-03-23T21:17:43.235Z</time>
      </trkpt>
      <trkpt lat="48.87211" lon="2.29959">
        <ele>101.3</ele>
        <time>2015-03-23T21:17:44.013Z</time>
      </trkpt>
      <trkpt lat="48.87208" lon="2.29966">
        <ele>101.2</ele>
        <time>2015-03-23T21:17:45.017Z</time>
      </trkpt>
      <trkpt lat="48.87205" lon="2.29973">
        <ele>100.9</ele>
        <time>2015-03-23T21:17:46.025Z</time>
      </trkpt>
      <trkpt lat="48.87202" lon="2.29979">
        <ele>101</ele>
        <time>2015-03-23T21:17:47.032Z</time>
      </trkpt>
      <trkpt lat="48.87197" lon="2.2999">
        <ele>100.5</ele>
        <time>2015-03-23T21:17:49.049Z</time>
      </trkpt>
      <trkpt lat="48.87194" lon="2.29995">
        <ele>100.3</ele>
        <time>2015-03-23T21:17:50.056Z</time>
      </trkpt>
      <trkpt lat="48.87188" lon="2.30005">
        <ele>100.1</ele>
        <time>2015-03-23T21:17:52.066Z</time>
      </trkpt>
      <trkpt lat="48.87187" lon="2.30011">
        <ele>100.2</ele>
        <time>2015-03-23T21:17:53.070Z</time>
      </trkpt>
      <trkpt lat="48.87184" lon="2.30021">
        <ele>99.1</ele>
        <time>2015-03-23T21:17:55.105Z</time>
      </trkpt>
      <trkpt lat="48.87183" lon="2.30025">
        <ele>98.7</ele>
        <time>2015-03-23T21:17:56.015Z</time>
      </trkpt>
      <trkpt lat="48.8718" lon="2.30036">
        <ele>98</ele>
        <time>2015-03-23T21:17:58.042Z</time>
      </trkpt>
      <trkpt lat="48.87179" lon="2.30041">
        <ele>97.8</ele>
        <time>2015-03-23T21:17:59.054Z</time>
      </trkpt>
      <trkpt lat="48.87177" lon="2.30052">
        <ele>97.2</ele>
        <time>2015-03-23T21:18:01.084Z</time>
      </trkpt>
      <trkpt lat="48.87177" lon="2.30057">
        <ele>97</ele>
        <time>2015-03-23T21:18:02.020Z</time>
      </trkpt>
      <trkpt lat="48.87175" lon="2.3007">
        <ele>95.9</ele>
        <time>2015-03-23T21:18:05.090Z</time>
      </trkpt>
      <trkpt lat="48.87175" lon="2.30074">
        <ele>94.7</ele>
        <time>2015-03-23T21:18:06.014Z</time>
      </trkpt>
      <trkpt lat="48.87172" lon="2.30077">
        <ele>94.9</ele>
        <time>2015-03-23T21:18:10.069Z</time>
      </trkpt>
      <trkpt lat="48.87173" lon="2.30075">
        <ele>95.7</ele>
        <time>2015-03-23T21:18:11.076Z</time>
      </trkpt>
      <trkpt lat="48.87173" lon="2.30075">
        <ele>95.7</ele>
        <time>2015-03-23T21:18:27.055Z</time>
      </trkpt>
      <trkpt lat="48.87174" lon="2.30088">
        <ele>93.6</ele>
        <time>2015-03-23T21:18:28.031Z</time>
      </trkpt>
      <trkpt lat="48.87175" lon="2.301">
        <ele>105.3</ele>
        <time>2015-03-23T21:19:28.010Z</time>
      </trkpt>
      <trkpt lat="48.87174" lon="2.30102">
        <ele>105.1</ele>
        <time>2015-03-23T21:19:29.009Z</time>
      </trkpt>
      <trkpt lat="48.87172" lon="2.30112">
        <ele>100.7</ele>
        <time>2015-03-23T21:19:32.012Z</time>
      </trkpt>
      <trkpt lat="48.87171" lon="2.30116">
        <ele>100.5</ele>
        <time>2015-03-23T21:19:33.047Z</time>
      </trkpt>
      <trkpt lat="48.87167" lon="2.30126">
        <ele>96.7</ele>
        <time>2015-03-23T21:19:36.023Z</time>
      </trkpt>
      <trkpt lat="48.87166" lon="2.3013">
        <ele>95.8</ele>
        <time>2015-03-23T21:19:37.062Z</time>
      </trkpt>
      <trkpt lat="48.87162" lon="2.30139">
        <ele>94.4</ele>
        <time>2015-03-23T21:19:40.100Z</time>
      </trkpt>
      <trkpt lat="48.87161" lon="2.30142">
        <ele>94.2</ele>
        <time>2015-03-23T21:19:41.000Z</time>
      </trkpt>
      <trkpt lat="48.87157" lon="2.30149">
        <ele>93.1</ele>
        <time>2015-03-23T21:19:43.079Z</time>
      </trkpt>
      <trkpt lat="48.87155" lon="2.30153">
        <ele>93.6</ele>
        <time>2015-03-23T21:19:44.089Z</time>
      </trkpt>
      <trkpt lat="48.87151" lon="2.3016">
        <ele>93.9</ele>
        <time>2015-03-23T21:19:46.035Z</time>
      </trkpt>
      <trkpt lat="48.87149" lon="2.30164">
        <ele>94.2</ele>
        <time>2015-03-23T21:19:47.047Z</time>
      </trkpt>
      <trkpt lat="48.87145" lon="2.30169">
        <ele>94.5</ele>
        <time>2015-03-23T21:19:48.072Z</time>
      </trkpt>
      <trkpt lat="48.87141" lon="2.30174">
        <ele>94.6</ele>
        <time>2015-03-23T21:19:49.093Z</time>
      </trkpt>
      <trkpt lat="48.87138" lon="2.30186">
        <ele>94.5</ele>
        <time>2015-03-23T21:19:51.014Z</time>
      </trkpt>
      <trkpt lat="48.87137" lon="2.30192">
        <ele>94.5</ele>
        <time>2015-03-23T21:19:52.020Z</time>
      </trkpt>
      <trkpt lat="48.87135" lon="2.30202">
        <ele>94.7</ele>
        <time>2015-03-23T21:19:54.053Z</time>
      </trkpt>
      <trkpt lat="48.87134" lon="2.30207">
        <ele>94.7</ele>
        <time>2015-03-23T21:19:55.065Z</time>
      </trkpt>
      <trkpt lat="48.8713" lon="2.30215">
        <ele>94.2</ele>
        <time>2015-03-23T21:19:57.042Z</time>
      </trkpt>
      <trkpt lat="48.87127" lon="2.30219">
        <ele>94.3</ele>
        <time>2015-03-23T21:19:58.021Z</time>
      </trkpt>
      <trkpt lat="48.87123" lon="2.30227">
        <ele>94.5</ele>
        <time>2015-03-23T21:20:00.020Z</time>
      </trkpt>
      <trkpt lat="48.87122" lon="2.30232">
        <ele>94.6</ele>
        <time>2015-03-23T21:20:01.067Z</time>
      </trkpt>
      <trkpt lat="48.87118" lon="2.30242">
        <ele>95.1</ele>
        <time>2015-03-23T21:20:04.001Z</time>
      </trkpt>
      <trkpt lat="48.87117" lon="2.30244">
        <ele>95.1</ele>
        <time>2015-03-23T21:20:05.006Z</time>
      </trkpt>
      <trkpt lat="48.87117" lon="2.30257">
        <ele>95.1</ele>
        <time>2015-03-23T21:20:09.035Z</time>
      </trkpt>
      <trkpt lat="48.87117" lon="2.30259">
        <ele>94.7</ele>
        <time>2015-03-23T21:20:10.039Z</time>
      </trkpt>
      <trkpt lat="48.87113" lon="2.3027">
        <ele>94.1</ele>
        <time>2015-03-23T21:20:13.081Z</time>
      </trkpt>
      <trkpt lat="48.87112" lon="2.30273">
        <ele>94</ele>
        <time>2015-03-23T21:20:14.080Z</time>
      </trkpt>
      <trkpt lat="48.8711" lon="2.30285">
        <ele>94.1</ele>
        <time>2015-03-23T21:20:18.020Z</time>
      </trkpt>
      <trkpt lat="48.87109" lon="2.30288">
        <ele>94.3</ele>
        <time>2015-03-23T21:20:19.055Z</time>
      </trkpt>
      <trkpt lat="48.87106" lon="2.30298">
        <ele>93.9</ele>
        <time>2015-03-23T21:20:22.013Z</time>
      </trkpt>
      <trkpt lat="48.87105" lon="2.30302">
        <ele>93.7</ele>
        <time>2015-03-23T21:20:23.023Z</time>
      </trkpt>
      <trkpt lat="48.87101" lon="2.30313">
        <ele>94</ele>
        <time>2015-03-23T21:20:26.011Z</time>
      </trkpt>
      <trkpt lat="48.871" lon="2.30317">
        <ele>93.9</ele>
        <time>2015-03-23T21:20:27.014Z</time>
      </trkpt>
      <trkpt lat="48.87098" lon="2.30325">
        <ele>93.3</ele>
        <time>2015-03-23T21:20:29.036Z</time>
      </trkpt>
      <trkpt lat="48.87096" lon="2.3033">
        <ele>92.7</ele>
        <time>2015-03-23T21:20:30.098Z</time>
      </trkpt>
      <trkpt lat="48.87095" lon="2.30339">
        <ele>92.4</ele>
        <time>2015-03-23T21:20:33.012Z</time>
      </trkpt>
      <trkpt lat="48.87094" lon="2.30344">
        <ele>92.7</ele>
        <time>2015-03-23T21:20:34.040Z</time>
      </trkpt>
      <trkpt lat="48.87089" lon="2.30352">
        <ele>92.3</ele>
        <time>2015-03-23T21:20:36.078Z</time>
      </trkpt>
      <trkpt lat="48.87086" lon="2.30357">
        <ele>92</ele>
        <time>2015-03-23T21:20:37.088Z</time>
      </trkpt>
      <trkpt lat="48.87081" lon="2.30367">
        <ele>92.3</ele>
        <time>2015-03-23T21:20:39.007Z</time>
      </trkpt>
      <trkpt lat="48.8708" lon="2.30371">
        <ele>92.2</ele>
        <time>2015-03-23T21:20:40.019Z</time>
      </trkpt>
      <trkpt lat="48.87077" lon="2.3038">
        <ele>92.5</ele>
        <time>2015-03-23T21:20:42.088Z</time>
      </trkpt>
      <trkpt lat="48.87077" lon="2.30385">
        <ele>92.6</ele>
        <time>2015-03-23T21:20:43.095Z</time>
      </trkpt>
      <trkpt lat="48.87077" lon="2.30396">
        <ele>92.7</ele>
        <time>2015-03-23T21:20:46.016Z</time>
      </trkpt>
      <trkpt lat="48.87075" lon="2.30399">
        <ele>92.7</ele>
        <time>2015-03-23T21:20:47.070Z</time>
      </trkpt>
      <trkpt lat="48.8707" lon="2.30409">
        <ele>92</ele>
        <time>2015-03-23T21:20:50.020Z</time>
      </trkpt>
      <trkpt lat="48.87067" lon="2.30414">
        <ele>91.4</ele>
        <time>2015-03-23T21:20:51.005Z</time>
      </trkpt>
      <trkpt lat="48.87065" lon="2.3042">
        <ele>91.1</ele>
        <time>2015-03-23T21:20:52.005Z</time>
      </trkpt>
      <trkpt lat="48.87061" lon="2.30427">
        <ele>90.3</ele>
        <time>2015-03-23T21:20:53.010Z</time>
      </trkpt>
      <trkpt lat="48.8706" lon="2.30438">
        <ele>89.3</ele>
        <time>2015-03-23T21:20:56.087Z</time>
      </trkpt>
      <trkpt lat="48.87061" lon="2.30441">
        <ele>89.2</ele>
        <time>2015-03-23T21:20:57.079Z</time>
      </trkpt>
      <trkpt lat="48.87061" lon="2.30443">
        <ele>89.1</ele>
        <time>2015-03-23T21:21:01.996Z</time>
      </trkpt>
      <trkpt lat="48.87054" lon="2.30455">
        <ele>87.2</ele>
        <time>2015-03-23T21:21:03.007Z</time>
      </trkpt>
      <trkpt lat="48.87051" lon="2.30467">
        <ele>86.9</ele>
        <time>2015-03-23T21:21:06.080Z</time>
      </trkpt>
      <trkpt lat="48.87049" lon="2.30471">
        <ele>86.9</ele>
        <time>2015-03-23T21:21:07.091Z</time>
      </trkpt>
      <trkpt lat="48.87044" lon="2.30482">
        <ele>87.1</ele>
        <time>2015-03-23T21:21:10.056Z</time>
      </trkpt>
      <trkpt lat="48.87043" lon="2.30485">
        <ele>87.5</ele>
        <time>2015-03-23T21:21:11.068Z</time>
      </trkpt>
      <trkpt lat="48.87043" lon="2.30495">
        <ele>88.5</ele>
        <time>2015-03-23T21:21:14.077Z</time>
      </trkpt>
      <trkpt lat="48.87043" lon="2.30499">
        <ele>89.2</ele>
        <time>2015-03-23T21:21:15.091Z</time>
      </trkpt>
      <trkpt lat="48.87043" lon="2.30499">
        <ele>89.2</ele>
        <time>2015-03-23T21:21:19.060Z</time>
      </trkpt>
      <trkpt lat="48.87043" lon="2.30516">
        <ele>89.6</ele>
        <time>2015-03-23T21:21:20.015Z</time>
      </trkpt>
      <trkpt lat="48.8704" lon="2.30527">
        <ele>90.6</ele>
        <time>2015-03-23T21:21:25.143Z</time>
      </trkpt>
      <trkpt lat="48.87039" lon="2.30529">
        <ele>90.5</ele>
        <time>2015-03-23T21:21:26.018Z</time>
      </trkpt>
      <trkpt lat="48.87036" lon="2.30537">
        <ele>90.2</ele>
        <time>2015-03-23T21:21:28.081Z</time>
      </trkpt>
      <trkpt lat="48.87034" lon="2.30541">
        <ele>90</ele>
        <time>2015-03-23T21:21:29.094Z</time>
      </trkpt>
      <trkpt lat="48.87029" lon="2.3055">
        <ele>89.5</ele>
        <time>2015-03-23T21:21:31.040Z</time>
      </trkpt>
      <trkpt lat="48.87026" lon="2.30554">
        <ele>89</ele>
        <time>2015-03-23T21:21:32.044Z</time>
      </trkpt>
      <trkpt lat="48.87021" lon="2.30564">
        <ele>88.4</ele>
        <time>2015-03-23T21:21:33.994Z</time>
      </trkpt>
      <trkpt lat="48.87018" lon="2.30569">
        <ele>88.1</ele>
        <time>2015-03-23T21:21:35.014Z</time>
      </trkpt>
      <trkpt lat="48.87014" lon="2.30579">
        <ele>88.4</ele>
        <time>2015-03-23T21:21:38.072Z</time>
      </trkpt>
      <trkpt lat="48.87013" lon="2.30581">
        <ele>88.7</ele>
        <time>2015-03-23T21:21:39.009Z</time>
      </trkpt>
      <trkpt lat="48.87012" lon="2.30584">
        <ele>88.7</ele>
        <time>2015-03-23T21:21:42.044Z</time>
      </trkpt>
      <trkpt lat="48.87008" lon="2.30594">
        <ele>88.8</ele>
        <time>2015-03-23T21:21:43.071Z</time>
      </trkpt>
      <trkpt lat="48.87004" lon="2.30602">
        <ele>89</ele>
        <time>2015-03-23T21:21:45.005Z</time>
      </trkpt>
      <trkpt lat="48.87004" lon="2.30607">
        <ele>89.1</ele>
        <time>2015-03-23T21:21:46.223Z</time>
      </trkpt>
      <trkpt lat="48.87003" lon="2.30619">
        <ele>90.3</ele>
        <time>2015-03-23T21:21:50.166Z</time>
      </trkpt>
      <trkpt lat="48.87003" lon="2.30624">
        <ele>90.5</ele>
        <time>2015-03-23T21:21:51.011Z</time>
      </trkpt>
      <trkpt lat="48.87002" lon="2.30632">
        <ele>90.2</ele>
        <time>2015-03-23T21:21:53.033Z</time>
      </trkpt>
      <trkpt lat="48.87001" lon="2.30638">
        <ele>89.8</ele>
        <time>2015-03-23T21:21:54.040Z</time>
      </trkpt>
      <trkpt lat="48.87" lon="2.30647">
        <ele>90.1</ele>
        <time>2015-03-23T21:21:56.080Z</time>
      </trkpt>
      <trkpt lat="48.86997" lon="2.30651">
        <ele>90.5</ele>
        <time>2015-03-23T21:21:57.085Z</time>
      </trkpt>
      <trkpt lat="48.86993" lon="2.3066">
        <ele>92.6</ele>
        <time>2015-03-23T21:22:00.024Z</time>
      </trkpt>
      <trkpt lat="48.86992" lon="2.30665">
        <ele>93.3</ele>
        <time>2015-03-23T21:22:01.084Z</time>
      </trkpt>
      <trkpt lat="48.86991" lon="2.30675">
        <ele>94.4</ele>
        <time>2015-03-23T21:22:04.009Z</time>
      </trkpt>
      <trkpt lat="48.86991" lon="2.30679">
        <ele>94.5</ele>
        <time>2015-03-23T21:22:05.032Z</time>
      </trkpt>
      <trkpt lat="48.86987" lon="2.30691">
        <ele>94.7</ele>
        <time>2015-03-23T21:22:08.044Z</time>
      </trkpt>
      <trkpt lat="48.86986" lon="2.30695">
        <ele>94.9</ele>
        <time>2015-03-23T21:22:09.073Z</time>
      </trkpt>
      <trkpt lat="48.86983" lon="2.30702">
        <ele>94.9</ele>
        <time>2015-03-23T21:22:11.168Z</time>
      </trkpt>
      <trkpt lat="48.8698" lon="2.30706">
        <ele>94.5</ele>
        <time>2015-03-23T21:22:12.011Z</time>
      </trkpt>
      <trkpt lat="48.86974" lon="2.30715">
        <ele>93.1</ele>
        <time>2015-03-23T21:22:14.046Z</time>
      </trkpt>
      <trkpt lat="48.86972" lon="2.30719">
        <ele>92.4</ele>
        <time>2015-03-23T21:22:15.054Z</time>
      </trkpt>
      <trkpt lat="48.86967" lon="2.30728">
        <ele>91.2</ele>
        <time>2015-03-23T21:22:16.997Z</time>
      </trkpt>
      <trkpt lat="48.86965" lon="2.30732">
        <ele>90.8</ele>
        <time>2015-03-23T21:22:18.017Z</time>
      </trkpt>
      <trkpt lat="48.86962" lon="2.3074">
        <ele>89.7</ele>
        <time>2015-03-23T21:22:19.987Z</time>
      </trkpt>
      <trkpt lat="48.8696" lon="2.30744">
        <ele>89.5</ele>
        <time>2015-03-23T21:22:21.009Z</time>
      </trkpt>
      <trkpt lat="48.86958" lon="2.30753">
        <ele>89.3</ele>
        <time>2015-03-23T21:22:23.043Z</time>
      </trkpt>
      <trkpt lat="48.86956" lon="2.30758">
        <ele>89.1</ele>
        <time>2015-03-23T21:22:24.059Z</time>
      </trkpt>
      <trkpt lat="48.86953" lon="2.30765">
        <ele>88.3</ele>
        <time>2015-03-23T21:22:25.996Z</time>
      </trkpt>
      <trkpt lat="48.8695" lon="2.30771">
        <ele>87.6</ele>
        <time>2015-03-23T21:22:27.006Z</time>
      </trkpt>
      <trkpt lat="48.86947" lon="2.30778">
        <ele>87.8</ele>
        <time>2015-03-23T21:22:29.034Z</time>
      </trkpt>
      <trkpt lat="48.86945" lon="2.30784">
        <ele>87.7</ele>
        <time>2015-03-23T21:22:30.109Z</time>
      </trkpt>
      <trkpt lat="48.86941" lon="2.30794">
        <ele>87.4</ele>
        <time>2015-03-23T21:22:32.067Z</time>
      </trkpt>
      <trkpt lat="48.86938" lon="2.30799">
        <ele>87.2</ele>
        <time>2015-03-23T21:22:33.080Z</time>
      </trkpt>
      <trkpt lat="48.86936" lon="2.30806">
        <ele>87.4</ele>
        <time>2015-03-23T21:22:34.009Z</time>
      </trkpt>
      <trkpt lat="48.86934" lon="2.30812">
        <ele>87.3</ele>
        <time>2015-03-23T21:22:35.008Z</time>
      </trkpt>
      <trkpt lat="48.86932" lon="2.30825">
        <ele>87.2</ele>
        <time>2015-03-23T21:22:37.095Z</time>
      </trkpt>
      <trkpt lat="48.86932" lon="2.3083">
        <ele>86.6</ele>
        <time>2015-03-23T21:22:38.069Z</time>
      </trkpt>
      <trkpt lat="48.8693" lon="2.30841">
        <ele>85.9</ele>
        <time>2015-03-23T21:22:40.089Z</time>
      </trkpt>
      <trkpt lat="48.86928" lon="2.30846">
        <ele>84.9</ele>
        <time>2015-03-23T21:22:41.080Z</time>
      </trkpt>
      <trkpt lat="48.86924" lon="2.30855">
        <ele>83.9</ele>
        <time>2015-03-23T21:22:43.037Z</time>
      </trkpt>
      <trkpt lat="48.86923" lon="2.30859">
        <ele>83.3</ele>
        <time>2015-03-23T21:22:44.044Z</time>
      </trkpt>
      <trkpt lat="48.86924" lon="2.30863">
        <ele>82.5</ele>
        <time>2015-03-23T21:23:56.088Z</time>
      </trkpt>
      <trkpt lat="48.86916" lon="2.30889">
        <ele>84.7</ele>
        <time>2015-03-23T21:23:57.086Z</time>
      </trkpt>
      <trkpt lat="48.86912" lon="2.309">
        <ele>84.8</ele>
        <time>2015-03-23T21:24:01.050Z</time>
      </trkpt>
      <trkpt lat="48.86911" lon="2.30903">
        <ele>84.9</ele>
        <time>2015-03-23T21:24:02.061Z</time>
      </trkpt>
      <trkpt lat="48.86907" lon="2.30911">
        <ele>86</ele>
        <time>2015-03-23T21:24:07.059Z</time>
      </trkpt>
      <trkpt lat="48.86904" lon="2.30912">
        <ele>86.2</ele>
        <time>2015-03-23T21:24:08.084Z</time>
      </trkpt>
      <trkpt lat="48.86895" lon="2.30912">
        <ele>86.6</ele>
        <time>2015-03-23T21:24:12.038Z</time>
      </trkpt>
      <trkpt lat="48.86893" lon="2.30912">
        <ele>87</ele>
        <time>2015-03-23T21:24:13.096Z</time>
      </trkpt>
      <trkpt lat="48.86884" lon="2.30911">
        <ele>87.3</ele>
        <time>2015-03-23T21:25:02.063Z</time>
      </trkpt>
      <trkpt lat="48.86861" lon="2.30933">
        <ele>88.6</ele>
        <time>2015-03-23T21:25:03.078Z</time>
      </trkpt>
      <trkpt lat="48.86856" lon="2.30938">
        <ele>88.1</ele>
        <time>2015-03-23T21:25:05.051Z</time>
      </trkpt>
      <trkpt lat="48.86851" lon="2.30945">
        <ele>85.7</ele>
        <time>2015-03-23T21:25:06.058Z</time>
      </trkpt>
      <trkpt lat="48.86847" lon="2.3095">
        <ele>84.8</ele>
        <time>2015-03-23T21:25:07.049Z</time>
      </trkpt>
      <trkpt lat="48.86845" lon="2.30954">
        <ele>84.7</ele>
        <time>2015-03-23T21:25:08.002Z</time>
      </trkpt>
      <trkpt lat="48.86841" lon="2.30966">
        <ele>84.1</ele>
        <time>2015-03-23T21:25:10.018Z</time>
      </trkpt>
      <trkpt lat="48.86839" lon="2.30971">
        <ele>84.3</ele>
        <time>2015-03-23T21:25:11.065Z</time>
      </trkpt>
      <trkpt lat="48.86839" lon="2.3098">
        <ele>84.4</ele>
        <time>2015-03-23T21:25:13.053Z</time>
      </trkpt>
      <trkpt lat="48.86838" lon="2.30985">
        <ele>84.9</ele>
        <time>2015-03-23T21:25:14.082Z</time>
      </trkpt>
      <trkpt lat="48.86836" lon="2.30992">
        <ele>84.8</ele>
        <time>2015-03-23T21:25:15.003Z</time>
      </trkpt>
      <trkpt lat="48.86834" lon="2.30999">
        <ele>84.7</ele>
        <time>2015-03-23T21:25:15.997Z</time>
      </trkpt>
      <trkpt lat="48.86831" lon="2.31007">
        <ele>85.1</ele>
        <time>2015-03-23T21:25:17.012Z</time>
      </trkpt>
      <trkpt lat="48.86828" lon="2.31012">
        <ele>85.3</ele>
        <time>2015-03-23T21:25:18.021Z</time>
      </trkpt>
      <trkpt lat="48.86823" lon="2.31018">
        <ele>85.8</ele>
        <time>2015-03-23T21:25:19.061Z</time>
      </trkpt>
      <trkpt lat="48.86818" lon="2.31021">
        <ele>85.9</ele>
        <time>2015-03-23T21:25:20.191Z</time>
      </trkpt>
      <trkpt lat="48.86813" lon="2.31022">
        <ele>86</ele>
        <time>2015-03-23T21:25:20.997Z</time>
      </trkpt>
      <trkpt lat="48.86808" lon="2.31025">
        <ele>86.3</ele>
        <time>2015-03-23T21:25:22.006Z</time>
      </trkpt>
      <trkpt lat="48.86804" lon="2.31024">
        <ele>86.5</ele>
        <time>2015-03-23T21:25:23.098Z</time>
      </trkpt>
      <trkpt lat="48.86797" lon="2.31025">
        <ele>86.4</ele>
        <time>2015-03-23T21:25:23.994Z</time>
      </trkpt>
      <trkpt lat="48.86792" lon="2.31025">
        <ele>86.6</ele>
        <time>2015-03-23T21:25:25.022Z</time>
      </trkpt>
      <trkpt lat="48.86787" lon="2.31026">
        <ele>87</ele>
        <time>2015-03-23T21:25:26.028Z</time>
      </trkpt>
      <trkpt lat="48.86782" lon="2.31028">
        <ele>87.2</ele>
        <time>2015-03-23T21:25:27.036Z</time>
      </trkpt>
      <trkpt lat="48.86776" lon="2.31029">
        <ele>87.6</ele>
        <time>2015-03-23T21:25:28.051Z</time>
      </trkpt>
      <trkpt lat="48.86771" lon="2.31031">
        <ele>87.6</ele>
        <time>2015-03-23T21:25:29.065Z</time>
      </trkpt>
      <trkpt lat="48.86766" lon="2.31032">
        <ele>87.8</ele>
        <time>2015-03-23T21:25:29.986Z</time>
      </trkpt>
      <trkpt lat="48.86762" lon="2.31031">
        <ele>88</ele>
        <time>2015-03-23T21:25:31.114Z</time>
      </trkpt>
      <trkpt lat="48.86757" lon="2.31032">
        <ele>88.5</ele>
        <time>2015-03-23T21:25:31.982Z</time>
      </trkpt>
      <trkpt lat="48.86749" lon="2.31034">
        <ele>89.3</ele>
        <time>2015-03-23T21:25:34.001Z</time>
      </trkpt>
      <trkpt lat="48.86744" lon="2.31032">
        <ele>89.4</ele>
        <time>2015-03-23T21:25:35.012Z</time>
      </trkpt>
      <trkpt lat="48.86735" lon="2.31031">
        <ele>89.8</ele>
        <time>2015-03-23T21:25:37.044Z</time>
      </trkpt>
      <trkpt lat="48.8673" lon="2.31031">
        <ele>89.9</ele>
        <time>2015-03-23T21:25:38.059Z</time>
      </trkpt>
      <trkpt lat="48.86724" lon="2.31032">
        <ele>90.1</ele>
        <time>2015-03-23T21:25:38.996Z</time>
      </trkpt>
      <trkpt lat="48.86717" lon="2.31032">
        <ele>90.1</ele>
        <time>2015-03-23T21:25:39.996Z</time>
      </trkpt>
      <trkpt lat="48.86713" lon="2.3103">
        <ele>90.3</ele>
        <time>2015-03-23T21:25:41.011Z</time>
      </trkpt>
      <trkpt lat="48.86709" lon="2.31028">
        <ele>90.3</ele>
        <time>2015-03-23T21:25:42.019Z</time>
      </trkpt>
      <trkpt lat="48.867" lon="2.31027">
        <ele>90.5</ele>
        <time>2015-03-23T21:25:44.039Z</time>
      </trkpt>
      <trkpt lat="48.86696" lon="2.31026">
        <ele>90.6</ele>
        <time>2015-03-23T21:25:45.050Z</time>
      </trkpt>
      <trkpt lat="48.86689" lon="2.31025">
        <ele>90.8</ele>
        <time>2015-03-23T21:25:47.138Z</time>
      </trkpt>
      <trkpt lat="48.86685" lon="2.31024">
        <ele>90.9</ele>
        <time>2015-03-23T21:25:48.022Z</time>
      </trkpt>
      <trkpt lat="48.86677" lon="2.31024">
        <ele>91.1</ele>
        <time>2015-03-23T21:25:50.069Z</time>
      </trkpt>
      <trkpt lat="48.86674" lon="2.31022">
        <ele>91.1</ele>
        <time>2015-03-23T21:25:50.980Z</time>
      </trkpt>
      <trkpt lat="48.86668" lon="2.3102">
        <ele>91.2</ele>
        <time>2015-03-23T21:25:52.988Z</time>
      </trkpt>
      <trkpt lat="48.86665" lon="2.31018">
        <ele>91.5</ele>
        <time>2015-03-23T21:25:53.995Z</time>
      </trkpt>
      <trkpt lat="48.86659" lon="2.31012">
        <ele>92</ele>
        <time>2015-03-23T21:25:56.060Z</time>
      </trkpt>
      <trkpt lat="48.86656" lon="2.31009">
        <ele>92.4</ele>
        <time>2015-03-23T21:25:57.056Z</time>
      </trkpt>
      <trkpt lat="48.86648" lon="2.31002">
        <ele>92.7</ele>
        <time>2015-03-23T21:25:58.980Z</time>
      </trkpt>
      <trkpt lat="48.86645" lon="2.31">
        <ele>93.2</ele>
        <time>2015-03-23T21:25:59.984Z</time>
      </trkpt>
      <trkpt lat="48.86638" lon="2.30995">
        <ele>93.9</ele>
        <time>2015-03-23T21:26:02.012Z</time>
      </trkpt>
      <trkpt lat="48.86635" lon="2.30994">
        <ele>94.2</ele>
        <time>2015-03-23T21:26:03.049Z</time>
      </trkpt>
      <trkpt lat="48.86628" lon="2.30995">
        <ele>95.1</ele>
        <time>2015-03-23T21:26:04.973Z</time>
      </trkpt>
      <trkpt lat="48.86624" lon="2.30995">
        <ele>95.4</ele>
        <time>2015-03-23T21:26:05.984Z</time>
      </trkpt>
      <trkpt lat="48.86618" lon="2.30995">
        <ele>96.1</ele>
        <time>2015-03-23T21:26:07.988Z</time>
      </trkpt>
      <trkpt lat="48.86614" lon="2.30994">
        <ele>96.3</ele>
        <time>2015-03-23T21:26:08.988Z</time>
      </trkpt>
      <trkpt lat="48.86606" lon="2.30997">
        <ele>94.4</ele>
        <time>2015-03-23T21:26:11.978Z</time>
      </trkpt>
      <trkpt lat="48.86601" lon="2.31">
        <ele>92.3</ele>
        <time>2015-03-23T21:26:13.004Z</time>
      </trkpt>
      <trkpt lat="48.86594" lon="2.31004">
        <ele>91</ele>
        <time>2015-03-23T21:26:15.031Z</time>
      </trkpt>
      <trkpt lat="48.86592" lon="2.31006">
        <ele>90.6</ele>
        <time>2015-03-23T21:26:15.971Z</time>
      </trkpt>
      <trkpt lat="48.86588" lon="2.31009">
        <ele>88.7</ele>
        <time>2015-03-23T21:26:20.046Z</time>
      </trkpt>
      <trkpt lat="48.86575" lon="2.31014">
        <ele>83.3</ele>
        <time>2015-03-23T21:26:21.061Z</time>
      </trkpt>
      <trkpt lat="48.86566" lon="2.31017">
        <ele>81.4</ele>
        <time>2015-03-23T21:26:23.011Z</time>
      </trkpt>
      <trkpt lat="48.86562" lon="2.31019">
        <ele>80.8</ele>
        <time>2015-03-23T21:26:24.029Z</time>
      </trkpt>
      <trkpt lat="48.86554" lon="2.3102">
        <ele>79.2</ele>
        <time>2015-03-23T21:26:26.058Z</time>
      </trkpt>
      <trkpt lat="48.86551" lon="2.31022">
        <ele>78.2</ele>
        <time>2015-03-23T21:26:26.971Z</time>
      </trkpt>
      <trkpt lat="48.86543" lon="2.3102">
        <ele>78</ele>
        <time>2015-03-23T21:26:28.988Z</time>
      </trkpt>
      <trkpt lat="48.86539" lon="2.3102">
        <ele>78.2</ele>
        <time>2015-03-23T21:26:29.993Z</time>
      </trkpt>
      <trkpt lat="48.86533" lon="2.3102">
        <ele>78.1</ele>
        <time>2015-03-23T21:26:32.011Z</time>
      </trkpt>
      <trkpt lat="48.86529" lon="2.31023">
        <ele>77.3</ele>
        <time>2015-03-23T21:26:32.978Z</time>
      </trkpt>
      <trkpt lat="48.8652" lon="2.31025">
        <ele>78</ele>
        <time>2015-03-23T21:26:35.036Z</time>
      </trkpt>
      <trkpt lat="48.86516" lon="2.31027">
        <ele>78.6</ele>
        <time>2015-03-23T21:26:36.045Z</time>
      </trkpt>
      <trkpt lat="48.86509" lon="2.31028">
        <ele>78.7</ele>
        <time>2015-03-23T21:26:37.995Z</time>
      </trkpt>
      <trkpt lat="48.86506" lon="2.31029">
        <ele>78.9</ele>
        <time>2015-03-23T21:26:38.997Z</time>
      </trkpt>
      <trkpt lat="48.86499" lon="2.31029">
        <ele>79.3</ele>
        <time>2015-03-23T21:26:40.984Z</time>
      </trkpt>
      <trkpt lat="48.86494" lon="2.3103">
        <ele>78.6</ele>
        <time>2015-03-23T21:26:42.033Z</time>
      </trkpt>
      <trkpt lat="48.86554" lon="2.31016">
        <ele>78.3</ele>
        <time>2015-03-23T21:26:43.070Z</time>
      </trkpt>
      <trkpt lat="48.86524" lon="2.31024">
        <ele>77.2</ele>
        <time>2015-03-23T21:26:43.990Z</time>
      </trkpt>
      <trkpt lat="48.86507" lon="2.31029">
        <ele>77</ele>
        <time>2015-03-23T21:26:45.028Z</time>
      </trkpt>
      <trkpt lat="48.86499" lon="2.31032">
        <ele>77</ele>
        <time>2015-03-23T21:26:46.045Z</time>
      </trkpt>
      <trkpt lat="48.86491" lon="2.31034">
        <ele>77.2</ele>
        <time>2015-03-23T21:26:47.070Z</time>
      </trkpt>
      <trkpt lat="48.86483" lon="2.31037">
        <ele>77.3</ele>
        <time>2015-03-23T21:26:48.084Z</time>
      </trkpt>
      <trkpt lat="48.86478" lon="2.31038">
        <ele>77.9</ele>
        <time>2015-03-23T21:26:49.092Z</time>
      </trkpt>
      <trkpt lat="48.86471" lon="2.31042">
        <ele>79.7</ele>
        <time>2015-03-23T21:26:51.001Z</time>
      </trkpt>
      <trkpt lat="48.86466" lon="2.31044">
        <ele>79.7</ele>
        <time>2015-03-23T21:26:52.032Z</time>
      </trkpt>
      <trkpt lat="48.86466" lon="2.31044">
        <ele>79.7</ele>
        <time>2015-03-23T21:27:05.005Z</time>
      </trkpt>
      <trkpt lat="48.86458" lon="2.31052">
        <ele>79.9</ele>
        <time>2015-03-23T21:27:06.014Z</time>
      </trkpt>
      <trkpt lat="48.86454" lon="2.31064">
        <ele>79.9</ele>
        <time>2015-03-23T21:27:09.991Z</time>
      </trkpt>
      <trkpt lat="48.86454" lon="2.31066">
        <ele>80.1</ele>
        <time>2015-03-23T21:27:10.993Z</time>
      </trkpt>
      <trkpt lat="48.86456" lon="2.31076">
        <ele>80.5</ele>
        <time>2015-03-23T21:27:14.987Z</time>
      </trkpt>
      <trkpt lat="48.86457" lon="2.31079">
        <ele>80.6</ele>
        <time>2015-03-23T21:27:16.009Z</time>
      </trkpt>
      <trkpt lat="48.86459" lon="2.3109">
        <ele>81</ele>
        <time>2015-03-23T21:27:19.098Z</time>
      </trkpt>
      <trkpt lat="48.86458" lon="2.31095">
        <ele>81</ele>
        <time>2015-03-23T21:27:20.016Z</time>
      </trkpt>
      <trkpt lat="48.8646" lon="2.31104">
        <ele>81.3</ele>
        <time>2015-03-23T21:27:22.083Z</time>
      </trkpt>
      <trkpt lat="48.8646" lon="2.31108">
        <ele>81.5</ele>
        <time>2015-03-23T21:27:23.093Z</time>
      </trkpt>
      <trkpt lat="48.8646" lon="2.31122">
        <ele>81.8</ele>
        <time>2015-03-23T21:27:26.405Z</time>
      </trkpt>
      <trkpt lat="48.8646" lon="2.31128">
        <ele>81.8</ele>
        <time>2015-03-23T21:27:27.008Z</time>
      </trkpt>
      <trkpt lat="48.86459" lon="2.31139">
        <ele>81.7</ele>
        <time>2015-03-23T21:27:29.009Z</time>
      </trkpt>
      <trkpt lat="48.86458" lon="2.31144">
        <ele>81.6</ele>
        <time>2015-03-23T21:27:30.040Z</time>
      </trkpt>
      <trkpt lat="48.86458" lon="2.31155">
        <ele>81.6</ele>
        <time>2015-03-23T21:27:32.057Z</time>
      </trkpt>
      <trkpt lat="48.86458" lon="2.31161">
        <ele>81.6</ele>
        <time>2015-03-23T21:27:33.069Z</time>
      </trkpt>
      <trkpt lat="48.86457" lon="2.31173">
        <ele>81.6</ele>
        <time>2015-03-23T21:27:36.022Z</time>
      </trkpt>
      <trkpt lat="48.86457" lon="2.31178">
        <ele>81.8</ele>
        <time>2015-03-23T21:27:37.053Z</time>
      </trkpt>
      <trkpt lat="48.86457" lon="2.3119">
        <ele>81.8</ele>
        <time>2015-03-23T21:27:39.071Z</time>
      </trkpt>
      <trkpt lat="48.86457" lon="2.31195">
        <ele>81.8</ele>
        <time>2015-03-23T21:27:40.096Z</time>
      </trkpt>
      <trkpt lat="48.86457" lon="2.31203">
        <ele>81.5</ele>
        <time>2015-03-23T21:27:42.010Z</time>
      </trkpt>
      <trkpt lat="48.86457" lon="2.3121">
        <ele>81.4</ele>
        <time>2015-03-23T21:27:43.027Z</time>
      </trkpt>
      <trkpt lat="48.86456" lon="2.3122">
        <ele>81.1</ele>
        <time>2015-03-23T21:27:45.392Z</time>
      </trkpt>
      <trkpt lat="48.86456" lon="2.31227">
        <ele>80.2</ele>
        <time>2015-03-23T21:27:46.058Z</time>
      </trkpt>
      <trkpt lat="48.86455" lon="2.31239">
        <ele>79.8</ele>
        <time>2015-03-23T21:27:48.043Z</time>
      </trkpt>
      <trkpt lat="48.86455" lon="2.31246">
        <ele>79.7</ele>
        <time>2015-03-23T21:27:49.071Z</time>
      </trkpt>
      <trkpt lat="48.86455" lon="2.3126">
        <ele>79.3</ele>
        <time>2015-03-23T21:27:51.011Z</time>
      </trkpt>
      <trkpt lat="48.86455" lon="2.31267">
        <ele>79.7</ele>
        <time>2015-03-23T21:27:52.016Z</time>
      </trkpt>
      <trkpt lat="48.86455" lon="2.31275">
        <ele>79.7</ele>
        <time>2015-03-23T21:27:53.038Z</time>
      </trkpt>
      <trkpt lat="48.86455" lon="2.31281">
        <ele>79.8</ele>
        <time>2015-03-23T21:27:54.049Z</time>
      </trkpt>
      <trkpt lat="48.86456" lon="2.3129">
        <ele>79.7</ele>
        <time>2015-03-23T21:27:56.080Z</time>
      </trkpt>
      <trkpt lat="48.86456" lon="2.31297">
        <ele>79.7</ele>
        <time>2015-03-23T21:27:56.999Z</time>
      </trkpt>
      <trkpt lat="48.86456" lon="2.31303">
        <ele>79.6</ele>
        <time>2015-03-23T21:27:58.036Z</time>
      </trkpt>
      <trkpt lat="48.86456" lon="2.31313">
        <ele>79.3</ele>
        <time>2015-03-23T21:27:59.080Z</time>
      </trkpt>
      <trkpt lat="48.86457" lon="2.31321">
        <ele>79.4</ele>
        <time>2015-03-23T21:28:00.619Z</time>
      </trkpt>
      <trkpt lat="48.86457" lon="2.31329">
        <ele>79.1</ele>
        <time>2015-03-23T21:28:01.106Z</time>
      </trkpt>
      <trkpt lat="48.86457" lon="2.31342">
        <ele>79.2</ele>
        <time>2015-03-23T21:28:03.031Z</time>
      </trkpt>
      <trkpt lat="48.86457" lon="2.31349">
        <ele>79.3</ele>
        <time>2015-03-23T21:28:04.043Z</time>
      </trkpt>
      <trkpt lat="48.86458" lon="2.31362">
        <ele>79</ele>
        <time>2015-03-23T21:28:05.099Z</time>
      </trkpt>
      <trkpt lat="48.86458" lon="2.31373">
        <ele>78.6</ele>
        <time>2015-03-23T21:28:07.035Z</time>
      </trkpt>
      <trkpt lat="48.86459" lon="2.31379">
        <ele>79</ele>
        <time>2015-03-23T21:28:08.039Z</time>
      </trkpt>
      <trkpt lat="48.86461" lon="2.31389">
        <ele>78.6</ele>
        <time>2015-03-23T21:28:10.821Z</time>
      </trkpt>
      <trkpt lat="48.86461" lon="2.31395">
        <ele>78.8</ele>
        <time>2015-03-23T21:28:11.010Z</time>
      </trkpt>
      <trkpt lat="48.86462" lon="2.31407">
        <ele>79.4</ele>
        <time>2015-03-23T21:28:13.074Z</time>
      </trkpt>
      <trkpt lat="48.86463" lon="2.31412">
        <ele>79.4</ele>
        <time>2015-03-23T21:28:14.022Z</time>
      </trkpt>
      <trkpt lat="48.86464" lon="2.31422">
        <ele>79.9</ele>
        <time>2015-03-23T21:28:16.037Z</time>
      </trkpt>
      <trkpt lat="48.86465" lon="2.31426">
        <ele>80.2</ele>
        <time>2015-03-23T21:28:17.057Z</time>
      </trkpt>
      <trkpt lat="48.86465" lon="2.31437">
        <ele>80.3</ele>
        <time>2015-03-23T21:28:19.025Z</time>
      </trkpt>
      <trkpt lat="48.86467" lon="2.31443">
        <ele>80.1</ele>
        <time>2015-03-23T21:28:20.051Z</time>
      </trkpt>
      <trkpt lat="48.86467" lon="2.3145">
        <ele>80.1</ele>
        <time>2015-03-23T21:28:21.009Z</time>
      </trkpt>
      <trkpt lat="48.86468" lon="2.31457">
        <ele>80.1</ele>
        <time>2015-03-23T21:28:21.986Z</time>
      </trkpt>
      <trkpt lat="48.8647" lon="2.31466">
        <ele>79.7</ele>
        <time>2015-03-23T21:28:25.056Z</time>
      </trkpt>
      <trkpt lat="48.8647" lon="2.31473">
        <ele>79.6</ele>
        <time>2015-03-23T21:28:26.062Z</time>
      </trkpt>
      <trkpt lat="48.86472" lon="2.31484">
        <ele>80</ele>
        <time>2015-03-23T21:28:28.089Z</time>
      </trkpt>
      <trkpt lat="48.86472" lon="2.31489">
        <ele>80</ele>
        <time>2015-03-23T21:28:28.985Z</time>
      </trkpt>
      <trkpt lat="48.86472" lon="2.31499">
        <ele>80.5</ele>
        <time>2015-03-23T21:28:31.025Z</time>
      </trkpt>
      <trkpt lat="48.86472" lon="2.31505">
        <ele>80.6</ele>
        <time>2015-03-23T21:28:32.029Z</time>
      </trkpt>
      <trkpt lat="48.86472" lon="2.31518">
        <ele>81</ele>
        <time>2015-03-23T21:28:34.049Z</time>
      </trkpt>
      <trkpt lat="48.86472" lon="2.31522">
        <ele>81.2</ele>
        <time>2015-03-23T21:28:35.066Z</time>
      </trkpt>
      <trkpt lat="48.86473" lon="2.31531">
        <ele>81.2</ele>
        <time>2015-03-23T21:28:37.023Z</time>
      </trkpt>
      <trkpt lat="48.86473" lon="2.31536">
        <ele>81.5</ele>
        <time>2015-03-23T21:28:38.024Z</time>
      </trkpt>
      <trkpt lat="48.86474" lon="2.31548">
        <ele>81.6</ele>
        <time>2015-03-23T21:28:40.347Z</time>
      </trkpt>
      <trkpt lat="48.86474" lon="2.31556">
        <ele>80.8</ele>
        <time>2015-03-23T21:28:40.984Z</time>
      </trkpt>
      <trkpt lat="48.86473" lon="2.31563">
        <ele>80.4</ele>
        <time>2015-03-23T21:28:41.988Z</time>
      </trkpt>
      <trkpt lat="48.86473" lon="2.31584">
        <ele>80.2</ele>
        <time>2015-03-23T21:28:43.158Z</time>
      </trkpt>
      <trkpt lat="48.86474" lon="2.31593">
        <ele>79.8</ele>
        <time>2015-03-23T21:28:43.965Z</time>
      </trkpt>
      <trkpt lat="48.86475" lon="2.31601">
        <ele>79.6</ele>
        <time>2015-03-23T21:28:45.014Z</time>
      </trkpt>
      <trkpt lat="48.86476" lon="2.31609">
        <ele>79.6</ele>
        <time>2015-03-23T21:28:46.025Z</time>
      </trkpt>
      <trkpt lat="48.86477" lon="2.31619">
        <ele>79.8</ele>
        <time>2015-03-23T21:28:47.035Z</time>
      </trkpt>
      <trkpt lat="48.86477" lon="2.31627">
        <ele>80</ele>
        <time>2015-03-23T21:28:48.115Z</time>
      </trkpt>
      <trkpt lat="48.86477" lon="2.31636">
        <ele>80.2</ele>
        <time>2015-03-23T21:28:49.004Z</time>
      </trkpt>
      <trkpt lat="48.86477" lon="2.31645">
        <ele>80.1</ele>
        <time>2015-03-23T21:28:50.436Z</time>
      </trkpt>
      <trkpt lat="48.86477" lon="2.31654">
        <ele>80.1</ele>
        <time>2015-03-23T21:28:51.045Z</time>
      </trkpt>
      <trkpt lat="48.86476" lon="2.31662">
        <ele>80.2</ele>
        <time>2015-03-23T21:28:52.039Z</time>
      </trkpt>
      <trkpt lat="48.86477" lon="2.3167">
        <ele>80.3</ele>
        <time>2015-03-23T21:28:52.976Z</time>
      </trkpt>
      <trkpt lat="48.86477" lon="2.31677">
        <ele>80.6</ele>
        <time>2015-03-23T21:28:53.980Z</time>
      </trkpt>
      <trkpt lat="48.86479" lon="2.31684">
        <ele>80.7</ele>
        <time>2015-03-23T21:28:55.033Z</time>
      </trkpt>
      <trkpt lat="48.86478" lon="2.31696">
        <ele>80.3</ele>
        <time>2015-03-23T21:28:56.977Z</time>
      </trkpt>
      <trkpt lat="48.86476" lon="2.31703">
        <ele>80.4</ele>
        <time>2015-03-23T21:28:57.976Z</time>
      </trkpt>
      <trkpt lat="48.86474" lon="2.31715">
        <ele>80.7</ele>
        <time>2015-03-23T21:29:00.054Z</time>
      </trkpt>
      <trkpt lat="48.86474" lon="2.3172">
        <ele>80.6</ele>
        <time>2015-03-23T21:29:01.069Z</time>
      </trkpt>
      <trkpt lat="48.86474" lon="2.31734">
        <ele>80.6</ele>
        <time>2015-03-23T21:29:02.982Z</time>
      </trkpt>
      <trkpt lat="48.86473" lon="2.3174">
        <ele>80.4</ele>
        <time>2015-03-23T21:29:04.032Z</time>
      </trkpt>
      <trkpt lat="48.86473" lon="2.31753">
        <ele>79.8</ele>
        <time>2015-03-23T21:29:06.079Z</time>
      </trkpt>
      <trkpt lat="48.86473" lon="2.3176">
        <ele>79.5</ele>
        <time>2015-03-23T21:29:07.090Z</time>
      </trkpt>
      <trkpt lat="48.86472" lon="2.31767">
        <ele>80</ele>
        <time>2015-03-23T21:29:08.007Z</time>
      </trkpt>
      <trkpt lat="48.86473" lon="2.31775">
        <ele>80.4</ele>
        <time>2015-03-23T21:29:09.000Z</time>
      </trkpt>
      <trkpt lat="48.86472" lon="2.31784">
        <ele>80.6</ele>
        <time>2015-03-23T21:29:10.020Z</time>
      </trkpt>
      <trkpt lat="48.86472" lon="2.31796">
        <ele>80.4</ele>
        <time>2015-03-23T21:29:11.057Z</time>
      </trkpt>
      <trkpt lat="48.86472" lon="2.31806">
        <ele>80.4</ele>
        <time>2015-03-23T21:29:12.067Z</time>
      </trkpt>
      <trkpt lat="48.8647" lon="2.31816">
        <ele>80.6</ele>
        <time>2015-03-23T21:29:13.071Z</time>
      </trkpt>
      <trkpt lat="48.86468" lon="2.31825">
        <ele>81.2</ele>
        <time>2015-03-23T21:29:14.081Z</time>
      </trkpt>
      <trkpt lat="48.86467" lon="2.31829">
        <ele>81.9</ele>
        <time>2015-03-23T21:29:15.023Z</time>
      </trkpt>
      <trkpt lat="48.86462" lon="2.31835">
        <ele>82.1</ele>
        <time>2015-03-23T21:29:16.999Z</time>
      </trkpt>
      <trkpt lat="48.86457" lon="2.31842">
        <ele>80.8</ele>
        <time>2015-03-23T21:29:18.011Z</time>
      </trkpt>
      <trkpt lat="48.86451" lon="2.3185">
        <ele>79.9</ele>
        <time>2015-03-23T21:29:21.021Z</time>
      </trkpt>
      <trkpt lat="48.86449" lon="2.31852">
        <ele>79.9</ele>
        <time>2015-03-23T21:29:22.042Z</time>
      </trkpt>
      <trkpt lat="48.86449" lon="2.31852">
        <ele>79.9</ele>
        <time>2015-03-23T21:29:35.016Z</time>
      </trkpt>
      <trkpt lat="48.86438" lon="2.31874">
        <ele>79.1</ele>
        <time>2015-03-23T21:29:36.040Z</time>
      </trkpt>
      <trkpt lat="48.86435" lon="2.31884">
        <ele>79</ele>
        <time>2015-03-23T21:29:38.990Z</time>
      </trkpt>
      <trkpt lat="48.86434" lon="2.31888">
        <ele>79.1</ele>
        <time>2015-03-23T21:29:40.032Z</time>
      </trkpt>
      <trkpt lat="48.86431" lon="2.31899">
        <ele>78.9</ele>
        <time>2015-03-23T21:29:43.090Z</time>
      </trkpt>
      <trkpt lat="48.86429" lon="2.31903">
        <ele>78.7</ele>
        <time>2015-03-23T21:29:43.993Z</time>
      </trkpt>
      <trkpt lat="48.86426" lon="2.31911">
        <ele>78.5</ele>
        <time>2015-03-23T21:29:46.025Z</time>
      </trkpt>
      <trkpt lat="48.86425" lon="2.31917">
        <ele>78.4</ele>
        <time>2015-03-23T21:29:47.043Z</time>
      </trkpt>
      <trkpt lat="48.86421" lon="2.31929">
        <ele>78.3</ele>
        <time>2015-03-23T21:29:49.070Z</time>
      </trkpt>
      <trkpt lat="48.86419" lon="2.31935">
        <ele>78.3</ele>
        <time>2015-03-23T21:29:49.987Z</time>
      </trkpt>
      <trkpt lat="48.86416" lon="2.31941">
        <ele>78.5</ele>
        <time>2015-03-23T21:29:51.019Z</time>
      </trkpt>
      <trkpt lat="48.86413" lon="2.31947">
        <ele>78.4</ele>
        <time>2015-03-23T21:29:52.046Z</time>
      </trkpt>
      <trkpt lat="48.8641" lon="2.31954">
        <ele>78.3</ele>
        <time>2015-03-23T21:29:53.039Z</time>
      </trkpt>
      <trkpt lat="48.86408" lon="2.3196">
        <ele>78.5</ele>
        <time>2015-03-23T21:29:54.052Z</time>
      </trkpt>
      <trkpt lat="48.86406" lon="2.31967">
        <ele>78.6</ele>
        <time>2015-03-23T21:29:55.056Z</time>
      </trkpt>
      <trkpt lat="48.86388" lon="2.32055">
        <ele>78.7</ele>
        <time>2015-03-23T21:30:07.009Z</time>
      </trkpt>
      <trkpt lat="48.86388" lon="2.32062">
        <ele>78.7</ele>
        <time>2015-03-23T21:30:08.046Z</time>
      </trkpt>
      <trkpt lat="48.86385" lon="2.32069">
        <ele>79.1</ele>
        <time>2015-03-23T21:30:09.050Z</time>
      </trkpt>
      <trkpt lat="48.86382" lon="2.32074">
        <ele>79.8</ele>
        <time>2015-03-23T21:30:09.950Z</time>
      </trkpt>
      <trkpt lat="48.86379" lon="2.3208">
        <ele>80.6</ele>
        <time>2015-03-23T21:30:10.987Z</time>
      </trkpt>
      <trkpt lat="48.86375" lon="2.32091">
        <ele>79</ele>
        <time>2015-03-23T21:30:13.013Z</time>
      </trkpt>
      <trkpt lat="48.86372" lon="2.32095">
        <ele>78.2</ele>
        <time>2015-03-23T21:30:14.019Z</time>
      </trkpt>
      <trkpt lat="48.8637" lon="2.32106">
        <ele>76.9</ele>
        <time>2015-03-23T21:30:16.041Z</time>
      </trkpt>
      <trkpt lat="48.86369" lon="2.32111">
        <ele>76.9</ele>
        <time>2015-03-23T21:30:16.987Z</time>
      </trkpt>
      <trkpt lat="48.86365" lon="2.32122">
        <ele>76.8</ele>
        <time>2015-03-23T21:30:19.013Z</time>
      </trkpt>
      <trkpt lat="48.86362" lon="2.32126">
        <ele>75.2</ele>
        <time>2015-03-23T21:30:20.015Z</time>
      </trkpt>
      <trkpt lat="48.8636" lon="2.32136">
        <ele>75.6</ele>
        <time>2015-03-23T21:30:22.041Z</time>
      </trkpt>
      <trkpt lat="48.86359" lon="2.3214">
        <ele>75.2</ele>
        <time>2015-03-23T21:30:23.114Z</time>
      </trkpt>
      <trkpt lat="48.86355" lon="2.3215">
        <ele>74.5</ele>
        <time>2015-03-23T21:30:25.017Z</time>
      </trkpt>
      <trkpt lat="48.86353" lon="2.32155">
        <ele>73.4</ele>
        <time>2015-03-23T21:30:25.955Z</time>
      </trkpt>
      <trkpt lat="48.86349" lon="2.32164">
        <ele>71.8</ele>
        <time>2015-03-23T21:30:27.996Z</time>
      </trkpt>
      <trkpt lat="48.86348" lon="2.32169">
        <ele>71.1</ele>
        <time>2015-03-23T21:30:29.008Z</time>
      </trkpt>
      <trkpt lat="48.86344" lon="2.32179">
        <ele>72</ele>
        <time>2015-03-23T21:30:31.043Z</time>
      </trkpt>
      <trkpt lat="48.86341" lon="2.32183">
        <ele>71.1</ele>
        <time>2015-03-23T21:30:32.053Z</time>
      </trkpt>
      <trkpt lat="48.86336" lon="2.32194">
        <ele>71.7</ele>
        <time>2015-03-23T21:30:33.974Z</time>
      </trkpt>
      <trkpt lat="48.86335" lon="2.32199">
        <ele>71.8</ele>
        <time>2015-03-23T21:30:35.002Z</time>
      </trkpt>
      <trkpt lat="48.86333" lon="2.32204">
        <ele>73.1</ele>
        <time>2015-03-23T21:30:36.034Z</time>
      </trkpt>
      <trkpt lat="48.8633" lon="2.32211">
        <ele>73.2</ele>
        <time>2015-03-23T21:30:37.045Z</time>
      </trkpt>
      <trkpt lat="48.86328" lon="2.32217">
        <ele>73.4</ele>
        <time>2015-03-23T21:30:38.050Z</time>
      </trkpt>
      <trkpt lat="48.86326" lon="2.32224">
        <ele>74.9</ele>
        <time>2015-03-23T21:30:39.059Z</time>
      </trkpt>
      <trkpt lat="48.86322" lon="2.32235">
        <ele>75.6</ele>
        <time>2015-03-23T21:30:40.989Z</time>
      </trkpt>
      <trkpt lat="48.86321" lon="2.3224">
        <ele>76.3</ele>
        <time>2015-03-23T21:30:42.019Z</time>
      </trkpt>
      <trkpt lat="48.86319" lon="2.32246">
        <ele>76.6</ele>
        <time>2015-03-23T21:30:43.050Z</time>
      </trkpt>
      <trkpt lat="48.86318" lon="2.32253">
        <ele>77.1</ele>
        <time>2015-03-23T21:30:44.000Z</time>
      </trkpt>
      <trkpt lat="48.86314" lon="2.32265">
        <ele>78.5</ele>
        <time>2015-03-23T21:30:46.011Z</time>
      </trkpt>
      <trkpt lat="48.86313" lon="2.32272">
        <ele>78.6</ele>
        <time>2015-03-23T21:30:47.059Z</time>
      </trkpt>
      <trkpt lat="48.86309" lon="2.32283">
        <ele>78.1</ele>
        <time>2015-03-23T21:30:49.080Z</time>
      </trkpt>
      <trkpt lat="48.86308" lon="2.32288">
        <ele>77.6</ele>
        <time>2015-03-23T21:30:50.063Z</time>
      </trkpt>
      <trkpt lat="48.86305" lon="2.323">
        <ele>77.3</ele>
        <time>2015-03-23T21:30:52.002Z</time>
      </trkpt>
      <trkpt lat="48.86304" lon="2.32306">
        <ele>77</ele>
        <time>2015-03-23T21:30:53.040Z</time>
      </trkpt>
      <trkpt lat="48.86299" lon="2.32317">
        <ele>76.3</ele>
        <time>2015-03-23T21:30:55.118Z</time>
      </trkpt>
      <trkpt lat="48.86298" lon="2.32323">
        <ele>76.6</ele>
        <time>2015-03-23T21:30:55.999Z</time>
      </trkpt>
      <trkpt lat="48.86296" lon="2.32329">
        <ele>76.9</ele>
        <time>2015-03-23T21:30:57.081Z</time>
      </trkpt>
      <trkpt lat="48.86294" lon="2.32335">
        <ele>77</ele>
        <time>2015-03-23T21:30:57.964Z</time>
      </trkpt>
      <trkpt lat="48.86291" lon="2.32345">
        <ele>76.2</ele>
        <time>2015-03-23T21:31:00.130Z</time>
      </trkpt>
      <trkpt lat="48.86289" lon="2.3235">
        <ele>75.8</ele>
        <time>2015-03-23T21:31:01.050Z</time>
      </trkpt>
      <trkpt lat="48.86286" lon="2.3236">
        <ele>75.8</ele>
        <time>2015-03-23T21:31:03.068Z</time>
      </trkpt>
      <trkpt lat="48.86284" lon="2.32365">
        <ele>76.1</ele>
        <time>2015-03-23T21:31:03.984Z</time>
      </trkpt>
      <trkpt lat="48.8628" lon="2.32375">
        <ele>76</ele>
        <time>2015-03-23T21:31:05.999Z</time>
      </trkpt>
      <trkpt lat="48.86277" lon="2.32381">
        <ele>75.9</ele>
        <time>2015-03-23T21:31:07.025Z</time>
      </trkpt>
      <trkpt lat="48.86274" lon="2.32392">
        <ele>76</ele>
        <time>2015-03-23T21:31:09.057Z</time>
      </trkpt>
      <trkpt lat="48.86272" lon="2.32397">
        <ele>75.9</ele>
        <time>2015-03-23T21:31:10.070Z</time>
      </trkpt>
      <trkpt lat="48.86269" lon="2.32408">
        <ele>75.3</ele>
        <time>2015-03-23T21:31:12.010Z</time>
      </trkpt>
      <trkpt lat="48.86266" lon="2.32413">
        <ele>75.1</ele>
        <time>2015-03-23T21:31:13.055Z</time>
      </trkpt>
      <trkpt lat="48.86261" lon="2.32422">
        <ele>74.2</ele>
        <time>2015-03-23T21:31:14.989Z</time>
      </trkpt>
      <trkpt lat="48.86259" lon="2.32428">
        <ele>74.2</ele>
        <time>2015-03-23T21:31:16.002Z</time>
      </trkpt>
      <trkpt lat="48.86257" lon="2.32438">
        <ele>75.1</ele>
        <time>2015-03-23T21:31:18.066Z</time>
      </trkpt>
      <trkpt lat="48.86255" lon="2.32444">
        <ele>76.1</ele>
        <time>2015-03-23T21:31:19.018Z</time>
      </trkpt>
      <trkpt lat="48.86252" lon="2.32454">
        <ele>78.7</ele>
        <time>2015-03-23T21:31:22.038Z</time>
      </trkpt>
      <trkpt lat="48.86251" lon="2.32458">
        <ele>78.2</ele>
        <time>2015-03-23T21:31:23.050Z</time>
      </trkpt>
      <trkpt lat="48.86249" lon="2.32469">
        <ele>77.8</ele>
        <time>2015-03-23T21:33:20.975Z</time>
      </trkpt>
      <trkpt lat="48.86224" lon="2.32479">
        <ele>82.5</ele>
        <time>2015-03-23T21:33:21.983Z</time>
      </trkpt>
      <trkpt lat="48.86224" lon="2.32492">
        <ele>83.2</ele>
        <time>2015-03-23T21:33:25.989Z</time>
      </trkpt>
      <trkpt lat="48.86225" lon="2.32495">
        <ele>83.1</ele>
        <time>2015-03-23T21:33:27.034Z</time>
      </trkpt>
      <trkpt lat="48.8622" lon="2.32493">
        <ele>77.7</ele>
        <time>2015-03-23T21:34:39.092Z</time>
      </trkpt>
      <trkpt lat="48.86216" lon="2.3249">
        <ele>77.5</ele>
        <time>2015-03-23T21:34:40.023Z</time>
      </trkpt>
      <trkpt lat="48.86209" lon="2.32486">
        <ele>77.3</ele>
        <time>2015-03-23T21:34:42.075Z</time>
      </trkpt>
      <trkpt lat="48.86207" lon="2.32485">
        <ele>77.3</ele>
        <time>2015-03-23T21:34:43.097Z</time>
      </trkpt>
      <trkpt lat="48.862" lon="2.3248">
        <ele>77.3</ele>
        <time>2015-03-23T21:34:47.004Z</time>
      </trkpt>
      <trkpt lat="48.86199" lon="2.32479">
        <ele>77.3</ele>
        <time>2015-03-23T21:34:48.023Z</time>
      </trkpt>
      <trkpt lat="48.86192" lon="2.32474">
        <ele>78.7</ele>
        <time>2015-03-23T21:35:02.025Z</time>
      </trkpt>
      <trkpt lat="48.8619" lon="2.32472">
        <ele>78.5</ele>
        <time>2015-03-23T21:35:03.037Z</time>
      </trkpt>
      <trkpt lat="48.86184" lon="2.32466">
        <ele>78.2</ele>
        <time>2015-03-23T21:35:06.008Z</time>
      </trkpt>
      <trkpt lat="48.86181" lon="2.32464">
        <ele>78.3</ele>
        <time>2015-03-23T21:35:07.030Z</time>
      </trkpt>
      <trkpt lat="48.86173" lon="2.32459">
        <ele>79</ele>
        <time>2015-03-23T21:35:10.052Z</time>
      </trkpt>
      <trkpt lat="48.86172" lon="2.32459">
        <ele>79</ele>
        <time>2015-03-23T21:35:10.861Z</time>
      </trkpt>
      <trkpt lat="48.86167" lon="2.32452">
        <ele>79.3</ele>
        <time>2015-03-23T21:35:13.137Z</time>
      </trkpt>
      <trkpt lat="48.86165" lon="2.3245">
        <ele>79.4</ele>
        <time>2015-03-23T21:35:13.962Z</time>
      </trkpt>
      <trkpt lat="48.86158" lon="2.32444">
        <ele>79.8</ele>
        <time>2015-03-23T21:35:17.037Z</time>
      </trkpt>
      <trkpt lat="48.86156" lon="2.32443">
        <ele>80</ele>
        <time>2015-03-23T21:35:18.047Z</time>
      </trkpt>
      <trkpt lat="48.86148" lon="2.32439">
        <ele>80.7</ele>
        <time>2015-03-23T21:35:22.997Z</time>
      </trkpt>
      <trkpt lat="48.86147" lon="2.32438">
        <ele>80.2</ele>
        <time>2015-03-23T21:35:24.025Z</time>
      </trkpt>
      <trkpt lat="48.86139" lon="2.32434">
        <ele>80.9</ele>
        <time>2015-03-23T21:35:27.991Z</time>
      </trkpt>
      <trkpt lat="48.86138" lon="2.32434">
        <ele>81</ele>
        <time>2015-03-23T21:35:29.033Z</time>
      </trkpt>
      <trkpt lat="48.8613" lon="2.32437">
        <ele>80.9</ele>
        <time>2015-03-23T21:35:33.989Z</time>
      </trkpt>
      <trkpt lat="48.86129" lon="2.32438">
        <ele>80.9</ele>
        <time>2015-03-23T21:35:34.964Z</time>
      </trkpt>
      <trkpt lat="48.86121" lon="2.3244">
        <ele>81.9</ele>
        <time>2015-03-23T21:35:40.225Z</time>
      </trkpt>
      <trkpt lat="48.86119" lon="2.32441">
        <ele>82.3</ele>
        <time>2015-03-23T21:35:40.996Z</time>
      </trkpt>
      <trkpt lat="48.86114" lon="2.32449">
        <ele>83.2</ele>
        <time>2015-03-23T21:35:45.246Z</time>
      </trkpt>
      <trkpt lat="48.86113" lon="2.32452">
        <ele>83.3</ele>
        <time>2015-03-23T21:35:46.025Z</time>
      </trkpt>
      <trkpt lat="48.86109" lon="2.3246">
        <ele>83.5</ele>
        <time>2015-03-23T21:35:49.069Z</time>
      </trkpt>
      <trkpt lat="48.86107" lon="2.32463">
        <ele>83.2</ele>
        <time>2015-03-23T21:35:49.990Z</time>
      </trkpt>
      <trkpt lat="48.86103" lon="2.32474">
        <ele>83.6</ele>
        <time>2015-03-23T21:35:58.036Z</time>
      </trkpt>
      <trkpt lat="48.86103" lon="2.32476">
        <ele>83.7</ele>
        <time>2015-03-23T21:35:59.057Z</time>
      </trkpt>
      <trkpt lat="48.861" lon="2.32481">
        <ele>84</ele>
        <time>2015-03-23T21:36:02.100Z</time>
      </trkpt>
      <trkpt lat="48.86098" lon="2.32489">
        <ele>84</ele>
        <time>2015-03-23T21:36:03.089Z</time>
      </trkpt>
      <trkpt lat="48.86094" lon="2.32501">
        <ele>84.1</ele>
        <time>2015-03-23T21:36:08.091Z</time>
      </trkpt>
      <trkpt lat="48.86092" lon="2.32506">
        <ele>83.8</ele>
        <time>2015-03-23T21:36:09.095Z</time>
      </trkpt>
      <trkpt lat="48.86086" lon="2.32512">
        <ele>83</ele>
        <time>2015-03-23T21:36:12.050Z</time>
      </trkpt>
      <trkpt lat="48.86083" lon="2.32513">
        <ele>82.7</ele>
        <time>2015-03-23T21:36:13.077Z</time>
      </trkpt>
      <trkpt lat="48.86076" lon="2.32517">
        <ele>82.8</ele>
        <time>2015-03-23T21:36:16.013Z</time>
      </trkpt>
      <trkpt lat="48.86073" lon="2.32518">
        <ele>82.9</ele>
        <time>2015-03-23T21:36:17.029Z</time>
      </trkpt>
      <trkpt lat="48.86065" lon="2.32521">
        <ele>83.3</ele>
        <time>2015-03-23T21:36:20.088Z</time>
      </trkpt>
      <trkpt lat="48.86063" lon="2.32521">
        <ele>83.3</ele>
        <time>2015-03-23T21:36:21.088Z</time>
      </trkpt>
      <trkpt lat="48.86055" lon="2.32518">
        <ele>81.1</ele>
        <time>2015-03-23T21:36:27.997Z</time>
      </trkpt>
      <trkpt lat="48.86054" lon="2.32518">
        <ele>80.8</ele>
        <time>2015-03-23T21:36:29.003Z</time>
      </trkpt>
      <trkpt lat="48.86048" lon="2.32517">
        <ele>80.8</ele>
        <time>2015-03-23T21:36:30.149Z</time>
      </trkpt>
      <trkpt lat="48.86042" lon="2.32516">
        <ele>81</ele>
        <time>2015-03-23T21:36:31.142Z</time>
      </trkpt>
      <trkpt lat="48.86038" lon="2.32516">
        <ele>81.3</ele>
        <time>2015-03-23T21:36:32.000Z</time>
      </trkpt>
      <trkpt lat="48.86033" lon="2.32515">
        <ele>81.3</ele>
        <time>2015-03-23T21:36:32.997Z</time>
      </trkpt>
      <trkpt lat="48.86025" lon="2.32514">
        <ele>82.1</ele>
        <time>2015-03-23T21:36:35.190Z</time>
      </trkpt>
      <trkpt lat="48.86023" lon="2.32515">
        <ele>82.7</ele>
        <time>2015-03-23T21:36:35.998Z</time>
      </trkpt>
      <trkpt lat="48.86015" lon="2.32517">
        <ele>83.2</ele>
        <time>2015-03-23T21:36:43.053Z</time>
      </trkpt>
      <trkpt lat="48.86014" lon="2.32516">
        <ele>83.2</ele>
        <time>2015-03-23T21:36:44.059Z</time>
      </trkpt>
      <trkpt lat="48.86006" lon="2.32513">
        <ele>83.2</ele>
        <time>2015-03-23T21:36:51.039Z</time>
      </trkpt>
      <trkpt lat="48.86005" lon="2.3252">
        <ele>83.2</ele>
        <time>2015-03-23T21:36:52.053Z</time>
      </trkpt>
      <trkpt lat="48.85999" lon="2.32527">
        <ele>87.3</ele>
        <time>2015-03-23T21:37:34.043Z</time>
      </trkpt>
      <trkpt lat="48.85998" lon="2.32529">
        <ele>87.3</ele>
        <time>2015-03-23T21:37:34.951Z</time>
      </trkpt>
      <trkpt lat="48.8599" lon="2.32535">
        <ele>88.5</ele>
        <time>2015-03-23T21:37:46.935Z</time>
      </trkpt>
      <trkpt lat="48.85989" lon="2.32536">
        <ele>88.5</ele>
        <time>2015-03-23T21:37:47.953Z</time>
      </trkpt>
      <trkpt lat="48.85984" lon="2.32537">
        <ele>87.6</ele>
        <time>2015-03-23T21:37:53.988Z</time>
      </trkpt>
      <trkpt lat="48.85951" lon="2.32666">
        <ele>87.2</ele>
        <time>2015-03-23T21:37:56.961Z</time>
      </trkpt>
      <trkpt lat="48.85947" lon="2.32673">
        <ele>87.7</ele>
        <time>2015-03-23T21:37:57.983Z</time>
      </trkpt>
      <trkpt lat="48.85944" lon="2.32678">
        <ele>88.1</ele>
        <time>2015-03-23T21:37:59.003Z</time>
      </trkpt>
      <trkpt lat="48.85939" lon="2.32686">
        <ele>88.5</ele>
        <time>2015-03-23T21:38:01.057Z</time>
      </trkpt>
      <trkpt lat="48.85935" lon="2.32692">
        <ele>89.1</ele>
        <time>2015-03-23T21:38:01.962Z</time>
      </trkpt>
      <trkpt lat="48.85932" lon="2.32703">
        <ele>89.6</ele>
        <time>2015-03-23T21:38:03.986Z</time>
      </trkpt>
      <trkpt lat="48.8593" lon="2.32709">
        <ele>89.9</ele>
        <time>2015-03-23T21:38:05.006Z</time>
      </trkpt>
      <trkpt lat="48.85926" lon="2.32718">
        <ele>90</ele>
        <time>2015-03-23T21:38:07.054Z</time>
      </trkpt>
      <trkpt lat="48.85924" lon="2.32724">
        <ele>89.9</ele>
        <time>2015-03-23T21:38:07.965Z</time>
      </trkpt>
      <trkpt lat="48.85918" lon="2.32731">
        <ele>89.8</ele>
        <time>2015-03-23T21:38:09.964Z</time>
      </trkpt>
      <trkpt lat="48.85915" lon="2.32736">
        <ele>89.5</ele>
        <time>2015-03-23T21:38:10.963Z</time>
      </trkpt>
      <trkpt lat="48.85912" lon="2.32742">
        <ele>89.4</ele>
        <time>2015-03-23T21:38:11.982Z</time>
      </trkpt>
      <trkpt lat="48.8591" lon="2.32748">
        <ele>89.2</ele>
        <time>2015-03-23T21:38:13.054Z</time>
      </trkpt>
      <trkpt lat="48.85907" lon="2.32754">
        <ele>88.9</ele>
        <time>2015-03-23T21:38:13.962Z</time>
      </trkpt>
      <trkpt lat="48.85904" lon="2.32761">
        <ele>88.9</ele>
        <time>2015-03-23T21:38:14.964Z</time>
      </trkpt>
      <trkpt lat="48.85902" lon="2.32768">
        <ele>88.6</ele>
        <time>2015-03-23T21:38:16.005Z</time>
      </trkpt>
      <trkpt lat="48.859" lon="2.32775">
        <ele>88.5</ele>
        <time>2015-03-23T21:38:17.033Z</time>
      </trkpt>
      <trkpt lat="48.85897" lon="2.32781">
        <ele>88.1</ele>
        <time>2015-03-23T21:38:17.931Z</time>
      </trkpt>
      <trkpt lat="48.85941" lon="2.32684">
        <ele>87.9</ele>
        <time>2015-03-23T21:38:19.009Z</time>
      </trkpt>
      <trkpt lat="48.85892" lon="2.32792">
        <ele>87.7</ele>
        <time>2015-03-23T21:38:20.044Z</time>
      </trkpt>
      <trkpt lat="48.85889" lon="2.32798">
        <ele>87.6</ele>
        <time>2015-03-23T21:38:21.547Z</time>
      </trkpt>
      <trkpt lat="48.85887" lon="2.32804">
        <ele>87.5</ele>
        <time>2015-03-23T21:38:21.956Z</time>
      </trkpt>
      <trkpt lat="48.85886" lon="2.32819">
        <ele>87.3</ele>
        <time>2015-03-23T21:38:23.974Z</time>
      </trkpt>
      <trkpt lat="48.85885" lon="2.32832">
        <ele>86.7</ele>
        <time>2015-03-23T21:38:26.622Z</time>
      </trkpt>
      <trkpt lat="48.85884" lon="2.32837">
        <ele>86.5</ele>
        <time>2015-03-23T21:38:27.021Z</time>
      </trkpt>
      <trkpt lat="48.85883" lon="2.3285">
        <ele>87.3</ele>
        <time>2015-03-23T21:38:28.958Z</time>
      </trkpt>
      <trkpt lat="48.85882" lon="2.32855">
        <ele>87.9</ele>
        <time>2015-03-23T21:38:30.067Z</time>
      </trkpt>
      <trkpt lat="48.85877" lon="2.32865">
        <ele>88.7</ele>
        <time>2015-03-23T21:38:50.034Z</time>
      </trkpt>
      <trkpt lat="48.85879" lon="2.32868">
        <ele>87</ele>
        <time>2015-03-23T21:38:51.056Z</time>
      </trkpt>
      <trkpt lat="48.85875" lon="2.32877">
        <ele>85.7</ele>
        <time>2015-03-23T21:38:55.021Z</time>
      </trkpt>
      <trkpt lat="48.85874" lon="2.3288">
        <ele>85.5</ele>
        <time>2015-03-23T21:38:56.057Z</time>
      </trkpt>
      <trkpt lat="48.85872" lon="2.32889">
        <ele>85.6</ele>
        <time>2015-03-23T21:38:57.995Z</time>
      </trkpt>
      <trkpt lat="48.85872" lon="2.32894">
        <ele>85.7</ele>
        <time>2015-03-23T21:38:59.083Z</time>
      </trkpt>
      <trkpt lat="48.8587" lon="2.32903">
        <ele>86.1</ele>
        <time>2015-03-23T21:39:01.004Z</time>
      </trkpt>
      <trkpt lat="48.85868" lon="2.32907">
        <ele>86.3</ele>
        <time>2015-03-23T21:39:02.004Z</time>
      </trkpt>
      <trkpt lat="48.85863" lon="2.32915">
        <ele>86.3</ele>
        <time>2015-03-23T21:39:05.046Z</time>
      </trkpt>
      <trkpt lat="48.85856" lon="2.32932">
        <ele>86.1</ele>
        <time>2015-03-23T21:39:08.980Z</time>
      </trkpt>
      <trkpt lat="48.85856" lon="2.32944">
        <ele>86.1</ele>
        <time>2015-03-23T21:39:10.948Z</time>
      </trkpt>
      <trkpt lat="48.85857" lon="2.32952">
        <ele>86</ele>
        <time>2015-03-23T21:39:12.016Z</time>
      </trkpt>
      <trkpt lat="48.85855" lon="2.32961">
        <ele>86</ele>
        <time>2015-03-23T21:39:13.977Z</time>
      </trkpt>
      <trkpt lat="48.85854" lon="2.32965">
        <ele>86</ele>
        <time>2015-03-23T21:39:15.003Z</time>
      </trkpt>
      <trkpt lat="48.85847" lon="2.32973">
        <ele>85.1</ele>
        <time>2015-03-23T21:39:17.981Z</time>
      </trkpt>
      <trkpt lat="48.85844" lon="2.32976">
        <ele>85</ele>
        <time>2015-03-23T21:39:19.013Z</time>
      </trkpt>
      <trkpt lat="48.8584" lon="2.32985">
        <ele>84.6</ele>
        <time>2015-03-23T21:39:21.023Z</time>
      </trkpt>
      <trkpt lat="48.85838" lon="2.32991">
        <ele>84.3</ele>
        <time>2015-03-23T21:39:21.978Z</time>
      </trkpt>
      <trkpt lat="48.85833" lon="2.33008">
        <ele>84</ele>
        <time>2015-03-23T21:39:25.072Z</time>
      </trkpt>
      <trkpt lat="48.8583" lon="2.3302">
        <ele>83.7</ele>
        <time>2015-03-23T21:39:26.970Z</time>
      </trkpt>
      <trkpt lat="48.85828" lon="2.33025">
        <ele>83.7</ele>
        <time>2015-03-23T21:39:28.080Z</time>
      </trkpt>
      <trkpt lat="48.85823" lon="2.33034">
        <ele>83.7</ele>
        <time>2015-03-23T21:39:29.961Z</time>
      </trkpt>
      <trkpt lat="48.85819" lon="2.33038">
        <ele>84</ele>
        <time>2015-03-23T21:39:31.007Z</time>
      </trkpt>
      <trkpt lat="48.85814" lon="2.33047">
        <ele>84.3</ele>
        <time>2015-03-23T21:39:32.971Z</time>
      </trkpt>
      <trkpt lat="48.85813" lon="2.33054">
        <ele>84.5</ele>
        <time>2015-03-23T21:39:34.005Z</time>
      </trkpt>
      <trkpt lat="48.85812" lon="2.33067">
        <ele>84.7</ele>
        <time>2015-03-23T21:39:35.937Z</time>
      </trkpt>
      <trkpt lat="48.85812" lon="2.33074">
        <ele>84.8</ele>
        <time>2015-03-23T21:39:36.977Z</time>
      </trkpt>
      <trkpt lat="48.85875" lon="2.32873">
        <ele>85.2</ele>
        <time>2015-03-23T21:39:38.015Z</time>
      </trkpt>
      <trkpt lat="48.85869" lon="2.32883">
        <ele>87</ele>
        <time>2015-03-23T21:39:40.952Z</time>
      </trkpt>
      <trkpt lat="48.85865" lon="2.32888">
        <ele>87</ele>
        <time>2015-03-23T21:39:41.978Z</time>
      </trkpt>
      <trkpt lat="48.85865" lon="2.32888">
        <ele>87</ele>
        <time>2015-03-23T21:39:41.900Z</time>
      </trkpt>
      <trkpt lat="48.85801" lon="2.33122">
        <ele>86.9</ele>
        <time>2015-03-23T21:39:43.031Z</time>
      </trkpt>
      <trkpt lat="48.85798" lon="2.33131">
        <ele>86.7</ele>
        <time>2015-03-23T21:39:44.036Z</time>
      </trkpt>
      <trkpt lat="48.85796" lon="2.33139">
        <ele>86.8</ele>
        <time>2015-03-23T21:39:45.052Z</time>
      </trkpt>
      <trkpt lat="48.85792" lon="2.33145">
        <ele>87</ele>
        <time>2015-03-23T21:39:46.014Z</time>
      </trkpt>
      <trkpt lat="48.8579" lon="2.33152">
        <ele>86.8</ele>
        <time>2015-03-23T21:39:46.977Z</time>
      </trkpt>
      <trkpt lat="48.85788" lon="2.3316">
        <ele>86.3</ele>
        <time>2015-03-23T21:39:47.987Z</time>
      </trkpt>
      <trkpt lat="48.85785" lon="2.33167">
        <ele>86</ele>
        <time>2015-03-23T21:39:49.002Z</time>
      </trkpt>
      <trkpt lat="48.85782" lon="2.33173">
        <ele>86</ele>
        <time>2015-03-23T21:39:50.954Z</time>
      </trkpt>
      <trkpt lat="48.85778" lon="2.33179">
        <ele>86.1</ele>
        <time>2015-03-23T21:39:51.046Z</time>
      </trkpt>
      <trkpt lat="48.85773" lon="2.33183">
        <ele>86.3</ele>
        <time>2015-03-23T21:39:51.961Z</time>
      </trkpt>
      <trkpt lat="48.85768" lon="2.33186">
        <ele>86.3</ele>
        <time>2015-03-23T21:39:52.951Z</time>
      </trkpt>
      <trkpt lat="48.85832" lon="2.32978">
        <ele>88.3</ele>
        <time>2015-03-23T21:40:25.988Z</time>
      </trkpt>
      <trkpt lat="48.85835" lon="2.32978">
        <ele>86.5</ele>
        <time>2015-03-23T21:40:31.104Z</time>
      </trkpt>
      <trkpt lat="48.85629" lon="2.33171">
        <ele>85.6</ele>
        <time>2015-03-23T21:40:39.992Z</time>
      </trkpt>
      <trkpt lat="48.85622" lon="2.33175">
        <ele>86</ele>
        <time>2015-03-23T21:40:42.013Z</time>
      </trkpt>
      <trkpt lat="48.8562" lon="2.33179">
        <ele>85.5</ele>
        <time>2015-03-23T21:40:43.046Z</time>
      </trkpt>
      <trkpt lat="48.85592" lon="2.33235">
        <ele>87.7</ele>
        <time>2015-03-23T21:40:54.998Z</time>
      </trkpt>
      <trkpt lat="48.85593" lon="2.33247">
        <ele>90.2</ele>
        <time>2015-03-23T21:40:57.036Z</time>
      </trkpt>
      <trkpt lat="48.85592" lon="2.33252">
        <ele>90.5</ele>
        <time>2015-03-23T21:40:58.052Z</time>
      </trkpt>
      <trkpt lat="48.85589" lon="2.3326">
        <ele>89.9</ele>
        <time>2015-03-23T21:40:59.995Z</time>
      </trkpt>
      <trkpt lat="48.85587" lon="2.33264">
        <ele>90.3</ele>
        <time>2015-03-23T21:41:01.128Z</time>
      </trkpt>
      <trkpt lat="48.85582" lon="2.33274">
        <ele>91.8</ele>
        <time>2015-03-23T21:41:04.056Z</time>
      </trkpt>
      <trkpt lat="48.85581" lon="2.33277">
        <ele>92.5</ele>
        <time>2015-03-23T21:41:04.998Z</time>
      </trkpt>
      <trkpt lat="48.85579" lon="2.33287">
        <ele>95.8</ele>
        <time>2015-03-23T21:41:06.997Z</time>
      </trkpt>
      <trkpt lat="48.85577" lon="2.33292">
        <ele>96.8</ele>
        <time>2015-03-23T21:41:08.005Z</time>
      </trkpt>
      <trkpt lat="48.85574" lon="2.33303">
        <ele>96.8</ele>
        <time>2015-03-23T21:41:10.036Z</time>
      </trkpt>
      <trkpt lat="48.85573" lon="2.33309">
        <ele>97.1</ele>
        <time>2015-03-23T21:41:11.064Z</time>
      </trkpt>
      <trkpt lat="48.85567" lon="2.33319">
        <ele>96.9</ele>
        <time>2015-03-23T21:41:13.981Z</time>
      </trkpt>
      <trkpt lat="48.85565" lon="2.33322">
        <ele>96.9</ele>
        <time>2015-03-23T21:41:15.001Z</time>
      </trkpt>
      <trkpt lat="48.85563" lon="2.33329">
        <ele>96.5</ele>
        <time>2015-03-23T21:41:16.955Z</time>
      </trkpt>
      <trkpt lat="48.85561" lon="2.33336">
        <ele>96.6</ele>
        <time>2015-03-23T21:41:17.977Z</time>
      </trkpt>
      <trkpt lat="48.85559" lon="2.33343">
        <ele>95.6</ele>
        <time>2015-03-23T21:41:18.996Z</time>
      </trkpt>
      <trkpt lat="48.85558" lon="2.3335">
        <ele>95.6</ele>
        <time>2015-03-23T21:41:20.001Z</time>
      </trkpt>
      <trkpt lat="48.85556" lon="2.33362">
        <ele>95.5</ele>
        <time>2015-03-23T21:41:22.015Z</time>
      </trkpt>
      <trkpt lat="48.85555" lon="2.33367">
        <ele>95.9</ele>
        <time>2015-03-23T21:41:23.025Z</time>
      </trkpt>
      <trkpt lat="48.85552" lon="2.33375">
        <ele>96.4</ele>
        <time>2015-03-23T21:41:25.045Z</time>
      </trkpt>
      <trkpt lat="48.8555" lon="2.33379">
        <ele>96.3</ele>
        <time>2015-03-23T21:41:25.965Z</time>
      </trkpt>
      <trkpt lat="48.85545" lon="2.33389">
        <ele>96.8</ele>
        <time>2015-03-23T21:41:31.032Z</time>
      </trkpt>
      <trkpt lat="48.85544" lon="2.33393">
        <ele>97.2</ele>
        <time>2015-03-23T21:41:31.965Z</time>
      </trkpt>
      <trkpt lat="48.8554" lon="2.33404">
        <ele>97.6</ele>
        <time>2015-03-23T21:41:34.979Z</time>
      </trkpt>
      <trkpt lat="48.85538" lon="2.3341">
        <ele>97.8</ele>
        <time>2015-03-23T21:41:36.008Z</time>
      </trkpt>
      <trkpt lat="48.85534" lon="2.33421">
        <ele>96.6</ele>
        <time>2015-03-23T21:41:37.957Z</time>
      </trkpt>
      <trkpt lat="48.85533" lon="2.33427">
        <ele>96.5</ele>
        <time>2015-03-23T21:41:38.980Z</time>
      </trkpt>
      <trkpt lat="48.85517" lon="2.33498">
        <ele>92.9</ele>
        <time>2015-03-23T21:41:48.991Z</time>
      </trkpt>
      <trkpt lat="48.85508" lon="2.33513">
        <ele>92.7</ele>
        <time>2015-03-23T21:41:51.955Z</time>
      </trkpt>
      <trkpt lat="48.85501" lon="2.33526">
        <ele>92.7</ele>
        <time>2015-03-23T21:41:54.083Z</time>
      </trkpt>
      <trkpt lat="48.85498" lon="2.33531">
        <ele>92.5</ele>
        <time>2015-03-23T21:41:54.985Z</time>
      </trkpt>
      <trkpt lat="48.85495" lon="2.33537">
        <ele>92.3</ele>
        <time>2015-03-23T21:41:55.996Z</time>
      </trkpt>
      <trkpt lat="48.85491" lon="2.33549">
        <ele>92.3</ele>
        <time>2015-03-23T21:41:57.950Z</time>
      </trkpt>
      <trkpt lat="48.85489" lon="2.33554">
        <ele>92.4</ele>
        <time>2015-03-23T21:41:58.967Z</time>
      </trkpt>
      <trkpt lat="48.85485" lon="2.33566">
        <ele>92.4</ele>
        <time>2015-03-23T21:42:01.039Z</time>
      </trkpt>
      <trkpt lat="48.85483" lon="2.3357">
        <ele>92.4</ele>
        <time>2015-03-23T21:42:01.959Z</time>
      </trkpt>
      <trkpt lat="48.85481" lon="2.33573">
        <ele>92.2</ele>
        <time>2015-03-23T21:42:02.974Z</time>
      </trkpt>
      <trkpt lat="48.85472" lon="2.33581">
        <ele>92.3</ele>
        <time>2015-03-23T21:42:06.003Z</time>
      </trkpt>
      <trkpt lat="48.85471" lon="2.33585">
        <ele>92.5</ele>
        <time>2015-03-23T21:42:07.041Z</time>
      </trkpt>
      <trkpt lat="48.85429" lon="2.33563">
        <ele>93.1</ele>
        <time>2015-03-23T21:42:32.982Z</time>
      </trkpt>
      <trkpt lat="48.85434" lon="2.33573">
        <ele>90.3</ele>
        <time>2015-03-23T21:42:43.961Z</time>
      </trkpt>
      <trkpt lat="48.85436" lon="2.33573">
        <ele>90</ele>
        <time>2015-03-23T21:42:44.967Z</time>
      </trkpt>
      <trkpt lat="48.85438" lon="2.33574">
        <ele>89.9</ele>
        <time>2015-03-23T21:42:45.976Z</time>
      </trkpt>
      <trkpt lat="48.85405" lon="2.33798">
        <ele>96.8</ele>
        <time>2015-03-23T21:44:03.022Z</time>
      </trkpt>
      <trkpt lat="48.85398" lon="2.33808">
        <ele>96.3</ele>
        <time>2015-03-23T21:44:03.944Z</time>
      </trkpt>
      <trkpt lat="48.85365" lon="2.34261">
        <ele>92.2</ele>
        <time>2015-03-23T21:45:12.987Z</time>
      </trkpt>
      <trkpt lat="48.85375" lon="2.34257">
        <ele>94</ele>
        <time>2015-03-23T21:45:14.956Z</time>
      </trkpt>
      <trkpt lat="48.85313" lon="2.34417">
        <ele>90.8</ele>
        <time>2015-03-23T21:45:51.995Z</time>
      </trkpt>
      <trkpt lat="48.85321" lon="2.34422">
        <ele>70.4</ele>
        <time>2015-03-23T21:45:57.376Z</time>
      </trkpt>
      <trkpt lat="48.85323" lon="2.34422">
        <ele>70.4</ele>
        <time>2015-03-23T21:45:57.971Z</time>
      </trkpt>
      <trkpt lat="48.8533" lon="2.34421">
        <ele>58</ele>
        <time>2015-03-23T21:46:01.011Z</time>
      </trkpt>
      <trkpt lat="48.85335" lon="2.3442">
        <ele>55.9</ele>
        <time>2015-03-23T21:46:02.005Z</time>
      </trkpt>
      <trkpt lat="48.85341" lon="2.34419">
        <ele>54.6</ele>
        <time>2015-03-23T21:46:03.944Z</time>
      </trkpt>
      <trkpt lat="48.85346" lon="2.34419">
        <ele>54.6</ele>
        <time>2015-03-23T21:46:04.989Z</time>
      </trkpt>
      <trkpt lat="48.85352" lon="2.34417">
        <ele>65.7</ele>
        <time>2015-03-23T21:46:17.978Z</time>
      </trkpt>
      <trkpt lat="48.85372" lon="2.3441">
        <ele>66.9</ele>
        <time>2015-03-23T21:46:19.012Z</time>
      </trkpt>
      <trkpt lat="48.85376" lon="2.34408">
        <ele>68.4</ele>
        <time>2015-03-23T21:46:20.020Z</time>
      </trkpt>
      <trkpt lat="48.85383" lon="2.34405">
        <ele>69.2</ele>
        <time>2015-03-23T21:46:21.022Z</time>
      </trkpt>
      <trkpt lat="48.8538" lon="2.34418">
        <ele>74.9</ele>
        <time>2015-03-23T21:46:45.371Z</time>
      </trkpt>
      <trkpt lat="48.85379" lon="2.34423">
        <ele>75</ele>
        <time>2015-03-23T21:46:46.040Z</time>
      </trkpt>
      <trkpt lat="48.85377" lon="2.34433">
        <ele>75</ele>
        <time>2015-03-23T21:46:48.000Z</time>
      </trkpt>
      <trkpt lat="48.85377" lon="2.34437">
        <ele>75.1</ele>
        <time>2015-03-23T21:46:49.008Z</time>
      </trkpt>
      <trkpt lat="48.8538" lon="2.34445">
        <ele>75.6</ele>
        <time>2015-03-23T21:46:50.952Z</time>
      </trkpt>
      <trkpt lat="48.85382" lon="2.34449">
        <ele>75.7</ele>
        <time>2015-03-23T21:46:51.970Z</time>
      </trkpt>
      <trkpt lat="48.85388" lon="2.34455">
        <ele>76.2</ele>
        <time>2015-03-23T21:46:53.991Z</time>
      </trkpt>
      <trkpt lat="48.85392" lon="2.34458">
        <ele>76.5</ele>
        <time>2015-03-23T21:46:55.017Z</time>
      </trkpt>
      <trkpt lat="48.85399" lon="2.34464">
        <ele>77.2</ele>
        <time>2015-03-23T21:46:57.036Z</time>
      </trkpt>
      <trkpt lat="48.85402" lon="2.34468">
        <ele>77.5</ele>
        <time>2015-03-23T21:46:57.999Z</time>
      </trkpt>
      <trkpt lat="48.85409" lon="2.34474">
        <ele>77.6</ele>
        <time>2015-03-23T21:47:00.673Z</time>
      </trkpt>
      <trkpt lat="48.8541" lon="2.34477">
        <ele>77.6</ele>
        <time>2015-03-23T21:47:01.003Z</time>
      </trkpt>
      <trkpt lat="48.85415" lon="2.34484">
        <ele>77.9</ele>
        <time>2015-03-23T21:47:03.015Z</time>
      </trkpt>
      <trkpt lat="48.85418" lon="2.34486">
        <ele>78.1</ele>
        <time>2015-03-23T21:47:04.023Z</time>
      </trkpt>
      <trkpt lat="48.85423" lon="2.34492">
        <ele>78.7</ele>
        <time>2015-03-23T21:47:05.957Z</time>
      </trkpt>
      <trkpt lat="48.85425" lon="2.34495">
        <ele>78.9</ele>
        <time>2015-03-23T21:47:07.019Z</time>
      </trkpt>
      <trkpt lat="48.85429" lon="2.34499">
        <ele>79.2</ele>
        <time>2015-03-23T21:47:10.732Z</time>
      </trkpt>
      <trkpt lat="48.85433" lon="2.34501">
        <ele>79.3</ele>
        <time>2015-03-23T21:47:11.004Z</time>
      </trkpt>
      <trkpt lat="48.85439" lon="2.34504">
        <ele>79.4</ele>
        <time>2015-03-23T21:47:13.019Z</time>
      </trkpt>
      <trkpt lat="48.85446" lon="2.34508">
        <ele>79.6</ele>
        <time>2015-03-23T21:47:14.026Z</time>
      </trkpt>
      <trkpt lat="48.85452" lon="2.34516">
        <ele>79.8</ele>
        <time>2015-03-23T21:47:16.954Z</time>
      </trkpt>
      <trkpt lat="48.85454" lon="2.3452">
        <ele>79.7</ele>
        <time>2015-03-23T21:47:17.987Z</time>
      </trkpt>
      <trkpt lat="48.85459" lon="2.34528">
        <ele>79.6</ele>
        <time>2015-03-23T21:47:20.890Z</time>
      </trkpt>
      <trkpt lat="48.85461" lon="2.34532">
        <ele>79.6</ele>
        <time>2015-03-23T21:47:20.988Z</time>
      </trkpt>
      <trkpt lat="48.85465" lon="2.34537">
        <ele>79.3</ele>
        <time>2015-03-23T21:47:24.065Z</time>
      </trkpt>
      <trkpt lat="48.85469" lon="2.34541">
        <ele>79.1</ele>
        <time>2015-03-23T21:47:24.984Z</time>
      </trkpt>
      <trkpt lat="48.85473" lon="2.34544">
        <ele>78.8</ele>
        <time>2015-03-23T21:47:25.976Z</time>
      </trkpt>
      <trkpt lat="48.85478" lon="2.34548">
        <ele>78.4</ele>
        <time>2015-03-23T21:47:27.003Z</time>
      </trkpt>
      <trkpt lat="48.85482" lon="2.34555">
        <ele>78</ele>
        <time>2015-03-23T21:47:28.057Z</time>
      </trkpt>
      <trkpt lat="48.85487" lon="2.34562">
        <ele>77.8</ele>
        <time>2015-03-23T21:47:28.954Z</time>
      </trkpt>
      <trkpt lat="48.85492" lon="2.34569">
        <ele>77.7</ele>
        <time>2015-03-23T21:47:30.138Z</time>
      </trkpt>
      <trkpt lat="48.85498" lon="2.34573">
        <ele>78</ele>
        <time>2015-03-23T21:47:31.025Z</time>
      </trkpt>
      <trkpt lat="48.85505" lon="2.34576">
        <ele>78.4</ele>
        <time>2015-03-23T21:47:32.021Z</time>
      </trkpt>
      <trkpt lat="48.85509" lon="2.34577">
        <ele>78.9</ele>
        <time>2015-03-23T21:47:33.037Z</time>
      </trkpt>
      <trkpt lat="48.85518" lon="2.3458">
        <ele>79.4</ele>
        <time>2015-03-23T21:47:33.953Z</time>
      </trkpt>
      <trkpt lat="48.85525" lon="2.34582">
        <ele>79.9</ele>
        <time>2015-03-23T21:47:35.352Z</time>
      </trkpt>
      <trkpt lat="48.85541" lon="2.34589">
        <ele>80.1</ele>
        <time>2015-03-23T21:47:35.977Z</time>
      </trkpt>
      <trkpt lat="48.85549" lon="2.34593">
        <ele>80.6</ele>
        <time>2015-03-23T21:47:36.991Z</time>
      </trkpt>
      <trkpt lat="48.85557" lon="2.34597">
        <ele>80.6</ele>
        <time>2015-03-23T21:47:37.998Z</time>
      </trkpt>
      <trkpt lat="48.85565" lon="2.34599">
        <ele>80.7</ele>
        <time>2015-03-23T21:47:38.927Z</time>
      </trkpt>
      <trkpt lat="48.85573" lon="2.34602">
        <ele>80.6</ele>
        <time>2015-03-23T21:47:39.942Z</time>
      </trkpt>
      <trkpt lat="48.85579" lon="2.34605">
        <ele>80.7</ele>
        <time>2015-03-23T21:47:40.963Z</time>
      </trkpt>
      <trkpt lat="48.85585" lon="2.34607">
        <ele>80.9</ele>
        <time>2015-03-23T21:47:42.012Z</time>
      </trkpt>
      <trkpt lat="48.85591" lon="2.3461">
        <ele>81</ele>
        <time>2015-03-23T21:47:43.046Z</time>
      </trkpt>
      <trkpt lat="48.85595" lon="2.34615">
        <ele>80.8</ele>
        <time>2015-03-23T21:47:43.973Z</time>
      </trkpt>
      <trkpt lat="48.85602" lon="2.34622">
        <ele>79.9</ele>
        <time>2015-03-23T21:47:47.990Z</time>
      </trkpt>
      <trkpt lat="48.85607" lon="2.34623">
        <ele>79.8</ele>
        <time>2015-03-23T21:47:49.015Z</time>
      </trkpt>
      <trkpt lat="48.85614" lon="2.34624">
        <ele>79.6</ele>
        <time>2015-03-23T21:47:50.970Z</time>
      </trkpt>
      <trkpt lat="48.85618" lon="2.34626">
        <ele>79.5</ele>
        <time>2015-03-23T21:47:51.981Z</time>
      </trkpt>
      <trkpt lat="48.85626" lon="2.3463">
        <ele>79.4</ele>
        <time>2015-03-23T21:47:54.024Z</time>
      </trkpt>
      <trkpt lat="48.85631" lon="2.34633">
        <ele>79.2</ele>
        <time>2015-03-23T21:47:55.050Z</time>
      </trkpt>
      <trkpt lat="48.85636" lon="2.34637">
        <ele>80</ele>
        <time>2015-03-23T21:47:55.933Z</time>
      </trkpt>
      <trkpt lat="48.8564" lon="2.3464">
        <ele>80.4</ele>
        <time>2015-03-23T21:47:56.951Z</time>
      </trkpt>
      <trkpt lat="48.85645" lon="2.34643">
        <ele>80.6</ele>
        <time>2015-03-23T21:47:58.012Z</time>
      </trkpt>
      <trkpt lat="48.85649" lon="2.34647">
        <ele>80.9</ele>
        <time>2015-03-23T21:47:59.025Z</time>
      </trkpt>
      <trkpt lat="48.85657" lon="2.34652">
        <ele>80.5</ele>
        <time>2015-03-23T21:48:01.059Z</time>
      </trkpt>
      <trkpt lat="48.85661" lon="2.34655">
        <ele>80.2</ele>
        <time>2015-03-23T21:48:01.997Z</time>
      </trkpt>
      <trkpt lat="48.85664" lon="2.34657">
        <ele>79.9</ele>
        <time>2015-03-23T21:48:02.935Z</time>
      </trkpt>
      <trkpt lat="48.85673" lon="2.34663">
        <ele>79.9</ele>
        <time>2015-03-23T21:48:03.949Z</time>
      </trkpt>
      <trkpt lat="48.8568" lon="2.34669">
        <ele>80</ele>
        <time>2015-03-23T21:48:05.971Z</time>
      </trkpt>
      <trkpt lat="48.85682" lon="2.34672">
        <ele>80.1</ele>
        <time>2015-03-23T21:48:07.136Z</time>
      </trkpt>
      <trkpt lat="48.85689" lon="2.34678">
        <ele>80.7</ele>
        <time>2015-03-23T21:48:08.946Z</time>
      </trkpt>
      <trkpt lat="48.85693" lon="2.34681">
        <ele>80.8</ele>
        <time>2015-03-23T21:48:09.958Z</time>
      </trkpt>
      <trkpt lat="48.857" lon="2.34685">
        <ele>81.4</ele>
        <time>2015-03-23T21:48:12.111Z</time>
      </trkpt>
      <trkpt lat="48.85705" lon="2.34687">
        <ele>81.8</ele>
        <time>2015-03-23T21:48:12.988Z</time>
      </trkpt>
      <trkpt lat="48.8571" lon="2.34688">
        <ele>82.4</ele>
        <time>2015-03-23T21:48:14.022Z</time>
      </trkpt>
      <trkpt lat="48.85714" lon="2.34687">
        <ele>82.8</ele>
        <time>2015-03-23T21:48:15.027Z</time>
      </trkpt>
      <trkpt lat="48.85722" lon="2.34684">
        <ele>83.5</ele>
        <time>2015-03-23T21:48:17.047Z</time>
      </trkpt>
      <trkpt lat="48.85724" lon="2.34683">
        <ele>83.7</ele>
        <time>2015-03-23T21:48:18.059Z</time>
      </trkpt>
      <trkpt lat="48.85731" lon="2.34683">
        <ele>84.1</ele>
        <time>2015-03-23T21:48:19.978Z</time>
      </trkpt>
      <trkpt lat="48.85734" lon="2.34683">
        <ele>84.1</ele>
        <time>2015-03-23T21:48:20.951Z</time>
      </trkpt>
      <trkpt lat="48.85741" lon="2.34689">
        <ele>84.9</ele>
        <time>2015-03-23T21:48:24.018Z</time>
      </trkpt>
      <trkpt lat="48.85743" lon="2.34691">
        <ele>85</ele>
        <time>2015-03-23T21:48:25.050Z</time>
      </trkpt>
      <trkpt lat="48.85749" lon="2.34701">
        <ele>85.1</ele>
        <time>2015-03-23T21:48:29.355Z</time>
      </trkpt>
      <trkpt lat="48.8575" lon="2.34703">
        <ele>85.4</ele>
        <time>2015-03-23T21:48:29.996Z</time>
      </trkpt>
      <trkpt lat="48.85757" lon="2.34704">
        <ele>86.6</ele>
        <time>2015-03-23T21:48:33.067Z</time>
      </trkpt>
      <trkpt lat="48.85762" lon="2.34704">
        <ele>86.9</ele>
        <time>2015-03-23T21:48:33.974Z</time>
      </trkpt>
      <trkpt lat="48.85769" lon="2.34703">
        <ele>86.9</ele>
        <time>2015-03-23T21:48:35.975Z</time>
      </trkpt>
      <trkpt lat="48.85772" lon="2.34703">
        <ele>86.8</ele>
        <time>2015-03-23T21:48:36.997Z</time>
      </trkpt>
      <trkpt lat="48.85778" lon="2.34707">
        <ele>86.6</ele>
        <time>2015-03-23T21:48:39.008Z</time>
      </trkpt>
      <trkpt lat="48.8578" lon="2.34709">
        <ele>86.6</ele>
        <time>2015-03-23T21:48:40.017Z</time>
      </trkpt>
      <trkpt lat="48.85785" lon="2.3471">
        <ele>86.6</ele>
        <time>2015-03-23T21:48:41.055Z</time>
      </trkpt>
      <trkpt lat="48.85791" lon="2.34711">
        <ele>86.8</ele>
        <time>2015-03-23T21:48:42.065Z</time>
      </trkpt>
      <trkpt lat="48.85796" lon="2.34711">
        <ele>86.6</ele>
        <time>2015-03-23T21:48:43.990Z</time>
      </trkpt>
      <trkpt lat="48.8581" lon="2.34713">
        <ele>86.3</ele>
        <time>2015-03-23T21:48:44.990Z</time>
      </trkpt>
      <trkpt lat="48.85818" lon="2.34717">
        <ele>85.7</ele>
        <time>2015-03-23T21:48:47.939Z</time>
      </trkpt>
      <trkpt lat="48.85822" lon="2.34719">
        <ele>85.6</ele>
        <time>2015-03-23T21:48:49.064Z</time>
      </trkpt>
      <trkpt lat="48.85826" lon="2.34721">
        <ele>85.4</ele>
        <time>2015-03-23T21:48:50.419Z</time>
      </trkpt>
      <trkpt lat="48.85838" lon="2.34724">
        <ele>85.5</ele>
        <time>2015-03-23T21:48:50.972Z</time>
      </trkpt>
      <trkpt lat="48.85844" lon="2.34724">
        <ele>85.7</ele>
        <time>2015-03-23T21:48:51.979Z</time>
      </trkpt>
      <trkpt lat="48.8585" lon="2.34723">
        <ele>85.8</ele>
        <time>2015-03-23T21:48:52.988Z</time>
      </trkpt>
      <trkpt lat="48.85856" lon="2.34722">
        <ele>86.2</ele>
        <time>2015-03-23T21:48:54.012Z</time>
      </trkpt>
      <trkpt lat="48.8586" lon="2.34722">
        <ele>86.3</ele>
        <time>2015-03-23T21:48:55.021Z</time>
      </trkpt>
      <trkpt lat="48.85864" lon="2.3472">
        <ele>86.7</ele>
        <time>2015-03-23T21:48:56.029Z</time>
      </trkpt>
      <trkpt lat="48.85869" lon="2.34719">
        <ele>87.5</ele>
        <time>2015-03-23T21:48:57.040Z</time>
      </trkpt>
      <trkpt lat="48.85874" lon="2.34718">
        <ele>87.8</ele>
        <time>2015-03-23T21:48:57.956Z</time>
      </trkpt>
      <trkpt lat="48.8588" lon="2.34715">
        <ele>88.3</ele>
        <time>2015-03-23T21:48:58.953Z</time>
      </trkpt>
      <trkpt lat="48.85887" lon="2.34712">
        <ele>88.8</ele>
        <time>2015-03-23T21:48:59.980Z</time>
      </trkpt>
      <trkpt lat="48.85892" lon="2.3471">
        <ele>88.8</ele>
        <time>2015-03-23T21:49:00.999Z</time>
      </trkpt>
      <trkpt lat="48.85899" lon="2.34708">
        <ele>89</ele>
        <time>2015-03-23T21:49:02.002Z</time>
      </trkpt>
      <trkpt lat="48.85904" lon="2.34706">
        <ele>89.2</ele>
        <time>2015-03-23T21:49:03.017Z</time>
      </trkpt>
      <trkpt lat="48.85909" lon="2.34706">
        <ele>88.9</ele>
        <time>2015-03-23T21:49:04.030Z</time>
      </trkpt>
      <trkpt lat="48.85913" lon="2.34705">
        <ele>88.8</ele>
        <time>2015-03-23T21:49:05.035Z</time>
      </trkpt>
      <trkpt lat="48.85919" lon="2.34705">
        <ele>88.6</ele>
        <time>2015-03-23T21:49:05.954Z</time>
      </trkpt>
      <trkpt lat="48.85925" lon="2.34706">
        <ele>88.8</ele>
        <time>2015-03-23T21:49:06.989Z</time>
      </trkpt>
      <trkpt lat="48.85932" lon="2.34705">
        <ele>88.7</ele>
        <time>2015-03-23T21:49:07.994Z</time>
      </trkpt>
      <trkpt lat="48.85937" lon="2.34703">
        <ele>88.5</ele>
        <time>2015-03-23T21:49:09.011Z</time>
      </trkpt>
      <trkpt lat="48.85945" lon="2.34703">
        <ele>88.5</ele>
        <time>2015-03-23T21:49:10.941Z</time>
      </trkpt>
      <trkpt lat="48.85948" lon="2.34702">
        <ele>88.2</ele>
        <time>2015-03-23T21:49:11.967Z</time>
      </trkpt>
      <trkpt lat="48.85953" lon="2.34711">
        <ele>88</ele>
        <time>2015-03-23T21:49:22.059Z</time>
      </trkpt>
      <trkpt lat="48.85954" lon="2.34712">
        <ele>88.5</ele>
        <time>2015-03-23T21:49:27.050Z</time>
      </trkpt>
    </trkseg>
  </trk>
</gpx>